<?xml version="1.0" encoding="UTF-8" standalone="no" ?>
<gpx xmlns="http://www.topografix.com/GPX/1/1" xmlns:xsi="http://www.w3.org/2001/XMLSchema-instance" xsi:schemaLocation="http://www.topografix.com/GPX/1/1 http://www.topografix.com/GPX/1/1/gpx.xsd" version="1.1" creator="VisuGPX - https://www.visugpx.com">
  <metadata>
    <name>Les Aiguilles de Baulmes depuis le refuge de la Queue</name>
    <desc><![CDATA[Les Aiguilles de Baulmes depuis le refuge de la Queue]]></desc>
  </metadata>
  <trk>
    <name><![CDATA[Move]]></name>
    <trkseg>
      <trkpt lat="46.77569" lon="6.43985">
        <ele>1032</ele>
        <time>2016-05-08T07:39:10.000Z</time>
      </trkpt>
      <trkpt lat="46.77576" lon="6.43993">
        <ele>1032</ele>
        <time>2016-05-08T07:39:23.000Z</time>
      </trkpt>
      <trkpt lat="46.77582" lon="6.44005">
        <ele>1032</ele>
        <time>2016-05-08T07:39:29.000Z</time>
      </trkpt>
      <trkpt lat="46.77588" lon="6.44017">
        <ele>1032</ele>
        <time>2016-05-08T07:39:36.000Z</time>
      </trkpt>
      <trkpt lat="46.77593" lon="6.44028">
        <ele>1032</ele>
        <time>2016-05-08T07:39:43.000Z</time>
      </trkpt>
      <trkpt lat="46.77599" lon="6.4404">
        <ele>1033</ele>
        <time>2016-05-08T07:39:50.000Z</time>
      </trkpt>
      <trkpt lat="46.77604" lon="6.44053">
        <ele>1033</ele>
        <time>2016-05-08T07:39:57.000Z</time>
      </trkpt>
      <trkpt lat="46.77609" lon="6.44067">
        <ele>1035</ele>
        <time>2016-05-08T07:40:05.000Z</time>
      </trkpt>
      <trkpt lat="46.77614" lon="6.44078">
        <ele>1035</ele>
        <time>2016-05-08T07:40:10.000Z</time>
      </trkpt>
      <trkpt lat="46.77621" lon="6.44088">
        <ele>1035</ele>
        <time>2016-05-08T07:40:17.000Z</time>
      </trkpt>
      <trkpt lat="46.77624" lon="6.44101">
        <ele>1035</ele>
        <time>2016-05-08T07:40:24.000Z</time>
      </trkpt>
      <trkpt lat="46.77629" lon="6.44113">
        <ele>1035.760003072</ele>
        <time>2016-05-08T07:40:30.000Z</time>
      </trkpt>
      <trkpt lat="46.77636" lon="6.4412">
        <ele>1037</ele>
        <time>2016-05-08T07:40:37.000Z</time>
      </trkpt>
      <trkpt lat="46.77642" lon="6.4413">
        <ele>1037</ele>
        <time>2016-05-08T07:40:44.000Z</time>
      </trkpt>
      <trkpt lat="46.77647" lon="6.44142">
        <ele>1037.1014525015</ele>
        <time>2016-05-08T07:40:50.000Z</time>
      </trkpt>
      <trkpt lat="46.77644" lon="6.44121">
        <ele>1039</ele>
        <time>2016-05-08T07:41:03.620Z</time>
      </trkpt>
      <trkpt lat="46.77649" lon="6.44136">
        <ele>1039</ele>
        <time>2016-05-08T07:41:10.620Z</time>
      </trkpt>
      <trkpt lat="46.77655" lon="6.44147">
        <ele>1039</ele>
        <time>2016-05-08T07:41:15.620Z</time>
      </trkpt>
      <trkpt lat="46.77662" lon="6.44158">
        <ele>1040</ele>
        <time>2016-05-08T07:41:20.620Z</time>
      </trkpt>
      <trkpt lat="46.77669" lon="6.44169">
        <ele>1040</ele>
        <time>2016-05-08T07:41:26.620Z</time>
      </trkpt>
      <trkpt lat="46.77674" lon="6.44181">
        <ele>1040</ele>
        <time>2016-05-08T07:41:32.620Z</time>
      </trkpt>
      <trkpt lat="46.77681" lon="6.44192">
        <ele>1040</ele>
        <time>2016-05-08T07:41:39.620Z</time>
      </trkpt>
      <trkpt lat="46.77686" lon="6.44204">
        <ele>1041</ele>
        <time>2016-05-08T07:41:47.620Z</time>
      </trkpt>
      <trkpt lat="46.77691" lon="6.44216">
        <ele>1041</ele>
        <time>2016-05-08T07:41:53.620Z</time>
      </trkpt>
      <trkpt lat="46.77697" lon="6.44226">
        <ele>1041.7557257875</ele>
        <time>2016-05-08T07:42:00.620Z</time>
      </trkpt>
      <trkpt lat="46.777" lon="6.44239">
        <ele>1042</ele>
        <time>2016-05-08T07:42:06.620Z</time>
      </trkpt>
      <trkpt lat="46.77706" lon="6.44251">
        <ele>1043</ele>
        <time>2016-05-08T07:42:13.620Z</time>
      </trkpt>
      <trkpt lat="46.77713" lon="6.4426">
        <ele>1043</ele>
        <time>2016-05-08T07:42:19.620Z</time>
      </trkpt>
      <trkpt lat="46.77719" lon="6.4427">
        <ele>1043</ele>
        <time>2016-05-08T07:42:26.620Z</time>
      </trkpt>
      <trkpt lat="46.77725" lon="6.44284">
        <ele>1043</ele>
        <time>2016-05-08T07:42:33.620Z</time>
      </trkpt>
      <trkpt lat="46.7773" lon="6.44296">
        <ele>1044.9800064</ele>
        <time>2016-05-08T07:42:40.620Z</time>
      </trkpt>
      <trkpt lat="46.77736" lon="6.44308">
        <ele>1045</ele>
        <time>2016-05-08T07:42:47.620Z</time>
      </trkpt>
      <trkpt lat="46.7774" lon="6.4432">
        <ele>1046</ele>
        <time>2016-05-08T07:42:54.620Z</time>
      </trkpt>
      <trkpt lat="46.77747" lon="6.44332">
        <ele>1046</ele>
        <time>2016-05-08T07:43:01.620Z</time>
      </trkpt>
      <trkpt lat="46.77753" lon="6.44342">
        <ele>1046</ele>
        <time>2016-05-08T07:43:07.620Z</time>
      </trkpt>
      <trkpt lat="46.77761" lon="6.44352">
        <ele>1048</ele>
        <time>2016-05-08T07:43:14.620Z</time>
      </trkpt>
      <trkpt lat="46.77768" lon="6.44363">
        <ele>1048</ele>
        <time>2016-05-08T07:43:21.620Z</time>
      </trkpt>
      <trkpt lat="46.77774" lon="6.44374">
        <ele>1048</ele>
        <time>2016-05-08T07:43:28.620Z</time>
      </trkpt>
      <trkpt lat="46.77782" lon="6.44384">
        <ele>1049</ele>
        <time>2016-05-08T07:43:35.620Z</time>
      </trkpt>
      <trkpt lat="46.77792" lon="6.44391">
        <ele>1050</ele>
        <time>2016-05-08T07:43:41.620Z</time>
      </trkpt>
      <trkpt lat="46.77799" lon="6.444">
        <ele>1050</ele>
        <time>2016-05-08T07:43:49.620Z</time>
      </trkpt>
      <trkpt lat="46.77807" lon="6.44412">
        <ele>1050</ele>
        <time>2016-05-08T07:43:56.620Z</time>
      </trkpt>
      <trkpt lat="46.77814" lon="6.44421">
        <ele>1051</ele>
        <time>2016-05-08T07:44:02.620Z</time>
      </trkpt>
      <trkpt lat="46.77821" lon="6.44428">
        <ele>1051</ele>
        <time>2016-05-08T07:44:08.620Z</time>
      </trkpt>
      <trkpt lat="46.77824" lon="6.44443">
        <ele>1052</ele>
        <time>2016-05-08T07:44:14.620Z</time>
      </trkpt>
      <trkpt lat="46.7783" lon="6.44452">
        <ele>1053</ele>
        <time>2016-05-08T07:44:21.620Z</time>
      </trkpt>
      <trkpt lat="46.77833" lon="6.44465">
        <ele>1053</ele>
        <time>2016-05-08T07:44:26.620Z</time>
      </trkpt>
      <trkpt lat="46.77837" lon="6.44477">
        <ele>1054</ele>
        <time>2016-05-08T07:44:33.620Z</time>
      </trkpt>
      <trkpt lat="46.77844" lon="6.44489">
        <ele>1056</ele>
        <time>2016-05-08T07:44:40.620Z</time>
      </trkpt>
      <trkpt lat="46.77851" lon="6.445">
        <ele>1056</ele>
        <time>2016-05-08T07:44:48.620Z</time>
      </trkpt>
      <trkpt lat="46.77858" lon="6.44511">
        <ele>1056</ele>
        <time>2016-05-08T07:44:54.620Z</time>
      </trkpt>
      <trkpt lat="46.77864" lon="6.44522">
        <ele>1057</ele>
        <time>2016-05-08T07:45:01.620Z</time>
      </trkpt>
      <trkpt lat="46.77872" lon="6.44532">
        <ele>1057</ele>
        <time>2016-05-08T07:45:07.620Z</time>
      </trkpt>
      <trkpt lat="46.7788" lon="6.4454">
        <ele>1058</ele>
        <time>2016-05-08T07:45:14.620Z</time>
      </trkpt>
      <trkpt lat="46.77887" lon="6.44551">
        <ele>1058</ele>
        <time>2016-05-08T07:45:21.620Z</time>
      </trkpt>
      <trkpt lat="46.77892" lon="6.44564">
        <ele>1058</ele>
        <time>2016-05-08T07:45:28.620Z</time>
      </trkpt>
      <trkpt lat="46.77897" lon="6.44578">
        <ele>1059</ele>
        <time>2016-05-08T07:45:36.620Z</time>
      </trkpt>
      <trkpt lat="46.77901" lon="6.44589">
        <ele>1060</ele>
        <time>2016-05-08T07:45:42.620Z</time>
      </trkpt>
      <trkpt lat="46.77906" lon="6.44602">
        <ele>1060</ele>
        <time>2016-05-08T07:45:50.620Z</time>
      </trkpt>
      <trkpt lat="46.77914" lon="6.44612">
        <ele>1061</ele>
        <time>2016-05-08T07:45:57.620Z</time>
      </trkpt>
      <trkpt lat="46.77919" lon="6.44623">
        <ele>1061</ele>
        <time>2016-05-08T07:46:05.620Z</time>
      </trkpt>
      <trkpt lat="46.77925" lon="6.44633">
        <ele>1063</ele>
        <time>2016-05-08T07:46:11.620Z</time>
      </trkpt>
      <trkpt lat="46.77933" lon="6.44645">
        <ele>1063</ele>
        <time>2016-05-08T07:46:19.620Z</time>
      </trkpt>
      <trkpt lat="46.77939" lon="6.44657">
        <ele>1063</ele>
        <time>2016-05-08T07:46:26.620Z</time>
      </trkpt>
      <trkpt lat="46.77945" lon="6.44669">
        <ele>1064</ele>
        <time>2016-05-08T07:46:33.620Z</time>
      </trkpt>
      <trkpt lat="46.77951" lon="6.44679">
        <ele>1064</ele>
        <time>2016-05-08T07:46:39.620Z</time>
      </trkpt>
      <trkpt lat="46.77957" lon="6.44689">
        <ele>1066</ele>
        <time>2016-05-08T07:46:45.620Z</time>
      </trkpt>
      <trkpt lat="46.77962" lon="6.44702">
        <ele>1067</ele>
        <time>2016-05-08T07:46:54.620Z</time>
      </trkpt>
      <trkpt lat="46.77967" lon="6.44716">
        <ele>1067</ele>
        <time>2016-05-08T07:47:00.620Z</time>
      </trkpt>
      <trkpt lat="46.77973" lon="6.44729">
        <ele>1067</ele>
        <time>2016-05-08T07:47:06.620Z</time>
      </trkpt>
      <trkpt lat="46.77978" lon="6.4474">
        <ele>1068</ele>
        <time>2016-05-08T07:47:13.620Z</time>
      </trkpt>
      <trkpt lat="46.7798" lon="6.44755">
        <ele>1068</ele>
        <time>2016-05-08T07:47:20.620Z</time>
      </trkpt>
      <trkpt lat="46.77983" lon="6.44767">
        <ele>1068</ele>
        <time>2016-05-08T07:47:26.620Z</time>
      </trkpt>
      <trkpt lat="46.77986" lon="6.4478">
        <ele>1068</ele>
        <time>2016-05-08T07:47:33.620Z</time>
      </trkpt>
      <trkpt lat="46.77992" lon="6.44792">
        <ele>1068</ele>
        <time>2016-05-08T07:47:39.620Z</time>
      </trkpt>
      <trkpt lat="46.77999" lon="6.44803">
        <ele>1069</ele>
        <time>2016-05-08T07:47:46.620Z</time>
      </trkpt>
      <trkpt lat="46.78005" lon="6.44814">
        <ele>1070</ele>
        <time>2016-05-08T07:47:53.620Z</time>
      </trkpt>
      <trkpt lat="46.7801" lon="6.44827">
        <ele>1070</ele>
        <time>2016-05-08T07:48:00.620Z</time>
      </trkpt>
      <trkpt lat="46.78017" lon="6.44837">
        <ele>1070</ele>
        <time>2016-05-08T07:48:07.620Z</time>
      </trkpt>
      <trkpt lat="46.78023" lon="6.44849">
        <ele>1072</ele>
        <time>2016-05-08T07:48:14.620Z</time>
      </trkpt>
      <trkpt lat="46.78029" lon="6.44859">
        <ele>1072</ele>
        <time>2016-05-08T07:48:20.620Z</time>
      </trkpt>
      <trkpt lat="46.78036" lon="6.4487">
        <ele>1072</ele>
        <time>2016-05-08T07:48:28.620Z</time>
      </trkpt>
      <trkpt lat="46.78042" lon="6.4488">
        <ele>1073</ele>
        <time>2016-05-08T07:48:35.620Z</time>
      </trkpt>
      <trkpt lat="46.78045" lon="6.44893">
        <ele>1073.9899904</ele>
        <time>2016-05-08T07:48:41.620Z</time>
      </trkpt>
      <trkpt lat="46.78052" lon="6.44903">
        <ele>1074</ele>
        <time>2016-05-08T07:48:47.620Z</time>
      </trkpt>
      <trkpt lat="46.78056" lon="6.44916">
        <ele>1075</ele>
        <time>2016-05-08T07:48:55.620Z</time>
      </trkpt>
      <trkpt lat="46.78062" lon="6.44927">
        <ele>1075</ele>
        <time>2016-05-08T07:49:01.620Z</time>
      </trkpt>
      <trkpt lat="46.78069" lon="6.44936">
        <ele>1075</ele>
        <time>2016-05-08T07:49:07.620Z</time>
      </trkpt>
      <trkpt lat="46.78074" lon="6.44947">
        <ele>1076</ele>
        <time>2016-05-08T07:49:14.620Z</time>
      </trkpt>
      <trkpt lat="46.78079" lon="6.44959">
        <ele>1077</ele>
        <time>2016-05-08T07:49:21.620Z</time>
      </trkpt>
      <trkpt lat="46.78085" lon="6.4497">
        <ele>1077</ele>
        <time>2016-05-08T07:49:27.620Z</time>
      </trkpt>
      <trkpt lat="46.78091" lon="6.4498">
        <ele>1078</ele>
        <time>2016-05-08T07:49:34.620Z</time>
      </trkpt>
      <trkpt lat="46.78097" lon="6.44992">
        <ele>1079</ele>
        <time>2016-05-08T07:49:41.620Z</time>
      </trkpt>
      <trkpt lat="46.78103" lon="6.45006">
        <ele>1079</ele>
        <time>2016-05-08T07:49:48.620Z</time>
      </trkpt>
      <trkpt lat="46.78108" lon="6.45018">
        <ele>1079</ele>
        <time>2016-05-08T07:49:55.620Z</time>
      </trkpt>
      <trkpt lat="46.78113" lon="6.45029">
        <ele>1080</ele>
        <time>2016-05-08T07:50:01.620Z</time>
      </trkpt>
      <trkpt lat="46.78122" lon="6.45037">
        <ele>1080</ele>
        <time>2016-05-08T07:50:09.620Z</time>
      </trkpt>
      <trkpt lat="46.78127" lon="6.45049">
        <ele>1081</ele>
        <time>2016-05-08T07:50:16.620Z</time>
      </trkpt>
      <trkpt lat="46.78133" lon="6.45061">
        <ele>1083</ele>
        <time>2016-05-08T07:50:24.620Z</time>
      </trkpt>
      <trkpt lat="46.7814" lon="6.45071">
        <ele>1083</ele>
        <time>2016-05-08T07:50:30.620Z</time>
      </trkpt>
      <trkpt lat="46.78146" lon="6.45082">
        <ele>1083</ele>
        <time>2016-05-08T07:50:36.620Z</time>
      </trkpt>
      <trkpt lat="46.78151" lon="6.45095">
        <ele>1083</ele>
        <time>2016-05-08T07:50:43.620Z</time>
      </trkpt>
      <trkpt lat="46.78157" lon="6.45107">
        <ele>1084</ele>
        <time>2016-05-08T07:50:51.620Z</time>
      </trkpt>
      <trkpt lat="46.78163" lon="6.45118">
        <ele>1084</ele>
        <time>2016-05-08T07:50:57.620Z</time>
      </trkpt>
      <trkpt lat="46.78168" lon="6.45129">
        <ele>1086</ele>
        <time>2016-05-08T07:51:03.620Z</time>
      </trkpt>
      <trkpt lat="46.78174" lon="6.45141">
        <ele>1087</ele>
        <time>2016-05-08T07:51:11.620Z</time>
      </trkpt>
      <trkpt lat="46.78178" lon="6.45154">
        <ele>1087</ele>
        <time>2016-05-08T07:51:17.620Z</time>
      </trkpt>
      <trkpt lat="46.78182" lon="6.45167">
        <ele>1087</ele>
        <time>2016-05-08T07:51:25.620Z</time>
      </trkpt>
      <trkpt lat="46.78187" lon="6.4518">
        <ele>1088</ele>
        <time>2016-05-08T07:51:33.620Z</time>
      </trkpt>
      <trkpt lat="46.7819" lon="6.45193">
        <ele>1088</ele>
        <time>2016-05-08T07:51:39.620Z</time>
      </trkpt>
      <trkpt lat="46.78193" lon="6.45205">
        <ele>1089</ele>
        <time>2016-05-08T07:51:46.620Z</time>
      </trkpt>
      <trkpt lat="46.78199" lon="6.45216">
        <ele>1090</ele>
        <time>2016-05-08T07:51:52.620Z</time>
      </trkpt>
      <trkpt lat="46.78202" lon="6.45229">
        <ele>1090</ele>
        <time>2016-05-08T07:51:58.620Z</time>
      </trkpt>
      <trkpt lat="46.78206" lon="6.45242">
        <ele>1092</ele>
        <time>2016-05-08T07:52:05.620Z</time>
      </trkpt>
      <trkpt lat="46.78213" lon="6.45253">
        <ele>1092</ele>
        <time>2016-05-08T07:52:12.620Z</time>
      </trkpt>
      <trkpt lat="46.78219" lon="6.45264">
        <ele>1092</ele>
        <time>2016-05-08T07:52:18.620Z</time>
      </trkpt>
      <trkpt lat="46.78225" lon="6.45274">
        <ele>1093</ele>
        <time>2016-05-08T07:52:24.620Z</time>
      </trkpt>
      <trkpt lat="46.78229" lon="6.45288">
        <ele>1094</ele>
        <time>2016-05-08T07:52:31.620Z</time>
      </trkpt>
      <trkpt lat="46.78234" lon="6.45299">
        <ele>1094</ele>
        <time>2016-05-08T07:52:37.620Z</time>
      </trkpt>
      <trkpt lat="46.78238" lon="6.45312">
        <ele>1094</ele>
        <time>2016-05-08T07:52:44.620Z</time>
      </trkpt>
      <trkpt lat="46.78244" lon="6.45324">
        <ele>1095</ele>
        <time>2016-05-08T07:52:52.620Z</time>
      </trkpt>
      <trkpt lat="46.78251" lon="6.45335">
        <ele>1095</ele>
        <time>2016-05-08T07:52:58.620Z</time>
      </trkpt>
      <trkpt lat="46.78258" lon="6.45343">
        <ele>1096</ele>
        <time>2016-05-08T07:53:05.620Z</time>
      </trkpt>
      <trkpt lat="46.78265" lon="6.45355">
        <ele>1097</ele>
        <time>2016-05-08T07:53:12.620Z</time>
      </trkpt>
      <trkpt lat="46.78271" lon="6.45366">
        <ele>1097</ele>
        <time>2016-05-08T07:53:19.620Z</time>
      </trkpt>
      <trkpt lat="46.78278" lon="6.45376">
        <ele>1097</ele>
        <time>2016-05-08T07:53:26.620Z</time>
      </trkpt>
      <trkpt lat="46.78283" lon="6.45388">
        <ele>1097</ele>
        <time>2016-05-08T07:53:34.620Z</time>
      </trkpt>
      <trkpt lat="46.78289" lon="6.45399">
        <ele>1098</ele>
        <time>2016-05-08T07:53:41.620Z</time>
      </trkpt>
      <trkpt lat="46.78295" lon="6.45409">
        <ele>1098</ele>
        <time>2016-05-08T07:53:48.620Z</time>
      </trkpt>
      <trkpt lat="46.783" lon="6.4542">
        <ele>1099</ele>
        <time>2016-05-08T07:53:55.620Z</time>
      </trkpt>
      <trkpt lat="46.78305" lon="6.45434">
        <ele>1101</ele>
        <time>2016-05-08T07:54:02.620Z</time>
      </trkpt>
      <trkpt lat="46.7831" lon="6.45447">
        <ele>1101</ele>
        <time>2016-05-08T07:54:09.620Z</time>
      </trkpt>
      <trkpt lat="46.78313" lon="6.4546">
        <ele>1101</ele>
        <time>2016-05-08T07:54:17.620Z</time>
      </trkpt>
      <trkpt lat="46.7832" lon="6.45469">
        <ele>1103</ele>
        <time>2016-05-08T07:54:26.620Z</time>
      </trkpt>
      <trkpt lat="46.78328" lon="6.45477">
        <ele>1104</ele>
        <time>2016-05-08T07:54:34.620Z</time>
      </trkpt>
      <trkpt lat="46.78337" lon="6.45483">
        <ele>1106</ele>
        <time>2016-05-08T07:54:49.620Z</time>
      </trkpt>
      <trkpt lat="46.78346" lon="6.45487">
        <ele>1110</ele>
        <time>2016-05-08T07:54:59.620Z</time>
      </trkpt>
      <trkpt lat="46.78355" lon="6.45489">
        <ele>1111</ele>
        <time>2016-05-08T07:55:11.620Z</time>
      </trkpt>
      <trkpt lat="46.78366" lon="6.45494">
        <ele>1113</ele>
        <time>2016-05-08T07:55:28.620Z</time>
      </trkpt>
      <trkpt lat="46.78378" lon="6.455">
        <ele>1118</ele>
        <time>2016-05-08T07:55:44.620Z</time>
      </trkpt>
      <trkpt lat="46.78386" lon="6.45509">
        <ele>1120</ele>
        <time>2016-05-08T07:55:54.620Z</time>
      </trkpt>
      <trkpt lat="46.78396" lon="6.45513">
        <ele>1125</ele>
        <time>2016-05-08T07:56:13.620Z</time>
      </trkpt>
      <trkpt lat="46.78404" lon="6.45519">
        <ele>1126</ele>
        <time>2016-05-08T07:56:26.620Z</time>
      </trkpt>
      <trkpt lat="46.78412" lon="6.45527">
        <ele>1129</ele>
        <time>2016-05-08T07:56:41.620Z</time>
      </trkpt>
      <trkpt lat="46.78424" lon="6.45532">
        <ele>1134</ele>
        <time>2016-05-08T07:57:08.620Z</time>
      </trkpt>
      <trkpt lat="46.78431" lon="6.45541">
        <ele>1139</ele>
        <time>2016-05-08T07:57:24.620Z</time>
      </trkpt>
      <trkpt lat="46.78442" lon="6.4555">
        <ele>1144</ele>
        <time>2016-05-08T07:57:53.620Z</time>
      </trkpt>
      <trkpt lat="46.78452" lon="6.45552">
        <ele>1145</ele>
        <time>2016-05-08T07:58:05.620Z</time>
      </trkpt>
      <trkpt lat="46.78461" lon="6.45561">
        <ele>1151</ele>
        <time>2016-05-08T07:58:37.620Z</time>
      </trkpt>
      <trkpt lat="46.78472" lon="6.45567">
        <ele>1154</ele>
        <time>2016-05-08T07:58:58.620Z</time>
      </trkpt>
      <trkpt lat="46.78481" lon="6.45572">
        <ele>1157</ele>
        <time>2016-05-08T07:59:16.620Z</time>
      </trkpt>
      <trkpt lat="46.78491" lon="6.45577">
        <ele>1161</ele>
        <time>2016-05-08T07:59:39.620Z</time>
      </trkpt>
      <trkpt lat="46.785" lon="6.45583">
        <ele>1164</ele>
        <time>2016-05-08T07:59:59.620Z</time>
      </trkpt>
      <trkpt lat="46.78509" lon="6.45592">
        <ele>1170</ele>
        <time>2016-05-08T08:00:21.620Z</time>
      </trkpt>
      <trkpt lat="46.78516" lon="6.456">
        <ele>1173</ele>
        <time>2016-05-08T08:00:43.620Z</time>
      </trkpt>
      <trkpt lat="46.78528" lon="6.45598">
        <ele>1176</ele>
        <time>2016-05-08T08:01:08.620Z</time>
      </trkpt>
      <trkpt lat="46.78537" lon="6.456">
        <ele>1180</ele>
        <time>2016-05-08T08:01:20.620Z</time>
      </trkpt>
      <trkpt lat="46.78543" lon="6.45613">
        <ele>1182</ele>
        <time>2016-05-08T08:01:40.620Z</time>
      </trkpt>
      <trkpt lat="46.78553" lon="6.45619">
        <ele>1184</ele>
        <time>2016-05-08T08:01:59.620Z</time>
      </trkpt>
      <trkpt lat="46.7856" lon="6.45629">
        <ele>1189</ele>
        <time>2016-05-08T08:02:21.620Z</time>
      </trkpt>
      <trkpt lat="46.78569" lon="6.45633">
        <ele>1190</ele>
        <time>2016-05-08T08:02:33.620Z</time>
      </trkpt>
      <trkpt lat="46.7858" lon="6.45637">
        <ele>1193</ele>
        <time>2016-05-08T08:02:55.620Z</time>
      </trkpt>
      <trkpt lat="46.7858" lon="6.45624">
        <ele>1198</ele>
        <time>2016-05-08T08:03:29.620Z</time>
      </trkpt>
      <trkpt lat="46.78577" lon="6.45611">
        <ele>1200</ele>
        <time>2016-05-08T08:03:39.620Z</time>
      </trkpt>
      <trkpt lat="46.78575" lon="6.45598">
        <ele>1203</ele>
        <time>2016-05-08T08:03:49.620Z</time>
      </trkpt>
      <trkpt lat="46.78571" lon="6.45586">
        <ele>1203</ele>
        <time>2016-05-08T08:03:59.620Z</time>
      </trkpt>
      <trkpt lat="46.78567" lon="6.45574">
        <ele>1204.7575781083</ele>
        <time>2016-05-08T08:04:10.620Z</time>
      </trkpt>
      <trkpt lat="46.78562" lon="6.45562">
        <ele>1207</ele>
        <time>2016-05-08T08:04:22.620Z</time>
      </trkpt>
      <trkpt lat="46.78557" lon="6.4555">
        <ele>1210</ele>
        <time>2016-05-08T08:04:32.620Z</time>
      </trkpt>
      <trkpt lat="46.78556" lon="6.45537">
        <ele>1210</ele>
        <time>2016-05-08T08:04:43.620Z</time>
      </trkpt>
      <trkpt lat="46.78553" lon="6.45523">
        <ele>1211</ele>
        <time>2016-05-08T08:04:54.620Z</time>
      </trkpt>
      <trkpt lat="46.78549" lon="6.45511">
        <ele>1215</ele>
        <time>2016-05-08T08:05:04.620Z</time>
      </trkpt>
      <trkpt lat="46.78545" lon="6.455">
        <ele>1217</ele>
        <time>2016-05-08T08:05:42.620Z</time>
      </trkpt>
      <trkpt lat="46.78542" lon="6.45486">
        <ele>1217</ele>
        <time>2016-05-08T08:05:49.620Z</time>
      </trkpt>
      <trkpt lat="46.7854" lon="6.45472">
        <ele>1218</ele>
        <time>2016-05-08T08:05:57.620Z</time>
      </trkpt>
      <trkpt lat="46.78537" lon="6.45459">
        <ele>1218</ele>
        <time>2016-05-08T08:06:04.620Z</time>
      </trkpt>
      <trkpt lat="46.78533" lon="6.45445">
        <ele>1220</ele>
        <time>2016-05-08T08:06:14.620Z</time>
      </trkpt>
      <trkpt lat="46.78529" lon="6.45432">
        <ele>1220</ele>
        <time>2016-05-08T08:06:21.620Z</time>
      </trkpt>
      <trkpt lat="46.78524" lon="6.45421">
        <ele>1221.9800064</ele>
        <time>2016-05-08T08:06:30.620Z</time>
      </trkpt>
      <trkpt lat="46.78523" lon="6.45414">
        <ele>1222</ele>
        <time>2016-05-08T08:06:35.620Z</time>
      </trkpt>
      <trkpt lat="46.78522" lon="6.4541">
        <ele>1222</ele>
        <time>2016-05-08T08:06:38.620Z</time>
      </trkpt>
      <trkpt lat="46.78522" lon="6.45407">
        <ele>1223.9800064</ele>
        <time>2016-05-08T08:06:40.620Z</time>
      </trkpt>
      <trkpt lat="46.78521" lon="6.45403">
        <ele>1224</ele>
        <time>2016-05-08T08:06:45.620Z</time>
      </trkpt>
      <trkpt lat="46.7852" lon="6.45397">
        <ele>1224</ele>
        <time>2016-05-08T08:06:49.620Z</time>
      </trkpt>
      <trkpt lat="46.7852" lon="6.45394">
        <ele>1226</ele>
        <time>2016-05-08T08:06:52.620Z</time>
      </trkpt>
      <trkpt lat="46.78521" lon="6.4539">
        <ele>1226</ele>
        <time>2016-05-08T08:06:55.620Z</time>
      </trkpt>
      <trkpt lat="46.78521" lon="6.45387">
        <ele>1226</ele>
        <time>2016-05-08T08:06:57.620Z</time>
      </trkpt>
      <trkpt lat="46.78521" lon="6.45384">
        <ele>1226</ele>
        <time>2016-05-08T08:06:59.620Z</time>
      </trkpt>
      <trkpt lat="46.78521" lon="6.45382">
        <ele>1229</ele>
        <time>2016-05-08T08:07:01.620Z</time>
      </trkpt>
      <trkpt lat="46.7852" lon="6.45378">
        <ele>1229</ele>
        <time>2016-05-08T08:07:04.620Z</time>
      </trkpt>
      <trkpt lat="46.7852" lon="6.45375">
        <ele>1229</ele>
        <time>2016-05-08T08:07:06.620Z</time>
      </trkpt>
      <trkpt lat="46.78519" lon="6.45372">
        <ele>1229</ele>
        <time>2016-05-08T08:07:08.620Z</time>
      </trkpt>
      <trkpt lat="46.78519" lon="6.45369">
        <ele>1229</ele>
        <time>2016-05-08T08:07:10.620Z</time>
      </trkpt>
      <trkpt lat="46.78519" lon="6.45366">
        <ele>1229</ele>
        <time>2016-05-08T08:07:13.620Z</time>
      </trkpt>
      <trkpt lat="46.78519" lon="6.45363">
        <ele>1229</ele>
        <time>2016-05-08T08:07:15.620Z</time>
      </trkpt>
      <trkpt lat="46.78519" lon="6.45357">
        <ele>1229</ele>
        <time>2016-05-08T08:07:18.620Z</time>
      </trkpt>
      <trkpt lat="46.78518" lon="6.45352">
        <ele>1231</ele>
        <time>2016-05-08T08:07:22.620Z</time>
      </trkpt>
      <trkpt lat="46.78518" lon="6.45349">
        <ele>1231</ele>
        <time>2016-05-08T08:07:24.620Z</time>
      </trkpt>
      <trkpt lat="46.78516" lon="6.45342">
        <ele>1233</ele>
        <time>2016-05-08T08:07:30.620Z</time>
      </trkpt>
      <trkpt lat="46.78515" lon="6.45339">
        <ele>1233</ele>
        <time>2016-05-08T08:07:32.620Z</time>
      </trkpt>
      <trkpt lat="46.78515" lon="6.45336">
        <ele>1233</ele>
        <time>2016-05-08T08:07:35.620Z</time>
      </trkpt>
      <trkpt lat="46.78514" lon="6.45331">
        <ele>1233</ele>
        <time>2016-05-08T08:07:38.620Z</time>
      </trkpt>
      <trkpt lat="46.78515" lon="6.45328">
        <ele>1234.9799808</ele>
        <time>2016-05-08T08:07:41.620Z</time>
      </trkpt>
      <trkpt lat="46.78515" lon="6.45324">
        <ele>1235</ele>
        <time>2016-05-08T08:07:44.620Z</time>
      </trkpt>
      <trkpt lat="46.78515" lon="6.45321">
        <ele>1235</ele>
        <time>2016-05-08T08:07:46.620Z</time>
      </trkpt>
      <trkpt lat="46.78518" lon="6.45308">
        <ele>1236</ele>
        <time>2016-05-08T08:07:57.620Z</time>
      </trkpt>
      <trkpt lat="46.78518" lon="6.45302">
        <ele>1238</ele>
        <time>2016-05-08T08:08:00.620Z</time>
      </trkpt>
      <trkpt lat="46.78519" lon="6.45297">
        <ele>1238</ele>
        <time>2016-05-08T08:08:04.620Z</time>
      </trkpt>
      <trkpt lat="46.78517" lon="6.45285">
        <ele>1240</ele>
        <time>2016-05-08T08:08:13.620Z</time>
      </trkpt>
      <trkpt lat="46.78517" lon="6.45281">
        <ele>1240</ele>
        <time>2016-05-08T08:08:15.620Z</time>
      </trkpt>
      <trkpt lat="46.78516" lon="6.45279">
        <ele>1240</ele>
        <time>2016-05-08T08:08:17.620Z</time>
      </trkpt>
      <trkpt lat="46.78516" lon="6.45269">
        <ele>1242</ele>
        <time>2016-05-08T08:08:23.620Z</time>
      </trkpt>
      <trkpt lat="46.78516" lon="6.45266">
        <ele>1242</ele>
        <time>2016-05-08T08:08:25.620Z</time>
      </trkpt>
      <trkpt lat="46.78516" lon="6.45262">
        <ele>1242</ele>
        <time>2016-05-08T08:08:27.620Z</time>
      </trkpt>
      <trkpt lat="46.78517" lon="6.45256">
        <ele>1244</ele>
        <time>2016-05-08T08:08:32.620Z</time>
      </trkpt>
      <trkpt lat="46.78519" lon="6.45255">
        <ele>1244</ele>
        <time>2016-05-08T08:08:35.620Z</time>
      </trkpt>
      <trkpt lat="46.78521" lon="6.45257">
        <ele>1244</ele>
        <time>2016-05-08T08:08:37.620Z</time>
      </trkpt>
      <trkpt lat="46.78523" lon="6.45261">
        <ele>1244</ele>
        <time>2016-05-08T08:08:39.620Z</time>
      </trkpt>
      <trkpt lat="46.78524" lon="6.45264">
        <ele>1245</ele>
        <time>2016-05-08T08:08:41.620Z</time>
      </trkpt>
      <trkpt lat="46.78526" lon="6.45266">
        <ele>1245</ele>
        <time>2016-05-08T08:08:43.620Z</time>
      </trkpt>
      <trkpt lat="46.78528" lon="6.45269">
        <ele>1245</ele>
        <time>2016-05-08T08:08:45.620Z</time>
      </trkpt>
      <trkpt lat="46.78529" lon="6.45271">
        <ele>1245</ele>
        <time>2016-05-08T08:08:47.620Z</time>
      </trkpt>
      <trkpt lat="46.78531" lon="6.45274">
        <ele>1245</ele>
        <time>2016-05-08T08:08:49.620Z</time>
      </trkpt>
      <trkpt lat="46.78533" lon="6.45276">
        <ele>1247</ele>
        <time>2016-05-08T08:08:51.620Z</time>
      </trkpt>
      <trkpt lat="46.78534" lon="6.45279">
        <ele>1247</ele>
        <time>2016-05-08T08:08:53.620Z</time>
      </trkpt>
      <trkpt lat="46.78537" lon="6.45282">
        <ele>1247</ele>
        <time>2016-05-08T08:08:55.620Z</time>
      </trkpt>
      <trkpt lat="46.78544" lon="6.45292">
        <ele>1247</ele>
        <time>2016-05-08T08:09:04.620Z</time>
      </trkpt>
      <trkpt lat="46.7855" lon="6.45302">
        <ele>1249</ele>
        <time>2016-05-08T08:09:12.620Z</time>
      </trkpt>
      <trkpt lat="46.78553" lon="6.45307">
        <ele>1249</ele>
        <time>2016-05-08T08:09:16.620Z</time>
      </trkpt>
      <trkpt lat="46.78555" lon="6.4531">
        <ele>1249</ele>
        <time>2016-05-08T08:09:18.620Z</time>
      </trkpt>
      <trkpt lat="46.78557" lon="6.45312">
        <ele>1249.9900032</ele>
        <time>2016-05-08T08:09:20.620Z</time>
      </trkpt>
      <trkpt lat="46.78558" lon="6.45314">
        <ele>1250</ele>
        <time>2016-05-08T08:09:22.620Z</time>
      </trkpt>
      <trkpt lat="46.7856" lon="6.45316">
        <ele>1250</ele>
        <time>2016-05-08T08:09:24.620Z</time>
      </trkpt>
      <trkpt lat="46.78561" lon="6.45318">
        <ele>1250</ele>
        <time>2016-05-08T08:09:26.620Z</time>
      </trkpt>
      <trkpt lat="46.78563" lon="6.45321">
        <ele>1250</ele>
        <time>2016-05-08T08:09:28.620Z</time>
      </trkpt>
      <trkpt lat="46.78564" lon="6.45323">
        <ele>1250.9900032</ele>
        <time>2016-05-08T08:09:30.620Z</time>
      </trkpt>
      <trkpt lat="46.78565" lon="6.45326">
        <ele>1251</ele>
        <time>2016-05-08T08:09:32.620Z</time>
      </trkpt>
      <trkpt lat="46.78566" lon="6.45328">
        <ele>1251</ele>
        <time>2016-05-08T08:09:34.620Z</time>
      </trkpt>
      <trkpt lat="46.78567" lon="6.4533">
        <ele>1251</ele>
        <time>2016-05-08T08:09:36.620Z</time>
      </trkpt>
      <trkpt lat="46.78569" lon="6.45333">
        <ele>1251</ele>
        <time>2016-05-08T08:09:39.620Z</time>
      </trkpt>
      <trkpt lat="46.7857" lon="6.45336">
        <ele>1253</ele>
        <time>2016-05-08T08:09:42.620Z</time>
      </trkpt>
      <trkpt lat="46.78572" lon="6.45338">
        <ele>1253</ele>
        <time>2016-05-08T08:09:44.620Z</time>
      </trkpt>
      <trkpt lat="46.78573" lon="6.45341">
        <ele>1253</ele>
        <time>2016-05-08T08:09:46.620Z</time>
      </trkpt>
      <trkpt lat="46.78575" lon="6.45344">
        <ele>1253</ele>
        <time>2016-05-08T08:09:48.620Z</time>
      </trkpt>
      <trkpt lat="46.78576" lon="6.45346">
        <ele>1254.9800064</ele>
        <time>2016-05-08T08:09:50.620Z</time>
      </trkpt>
      <trkpt lat="46.78577" lon="6.45349">
        <ele>1255</ele>
        <time>2016-05-08T08:09:52.620Z</time>
      </trkpt>
      <trkpt lat="46.78578" lon="6.45351">
        <ele>1255</ele>
        <time>2016-05-08T08:09:54.620Z</time>
      </trkpt>
      <trkpt lat="46.7858" lon="6.45354">
        <ele>1255</ele>
        <time>2016-05-08T08:09:56.620Z</time>
      </trkpt>
      <trkpt lat="46.78582" lon="6.45356">
        <ele>1255</ele>
        <time>2016-05-08T08:09:58.620Z</time>
      </trkpt>
      <trkpt lat="46.78583" lon="6.45358">
        <ele>1256</ele>
        <time>2016-05-08T08:10:00.620Z</time>
      </trkpt>
      <trkpt lat="46.78584" lon="6.45361">
        <ele>1256</ele>
        <time>2016-05-08T08:10:02.620Z</time>
      </trkpt>
      <trkpt lat="46.78586" lon="6.45364">
        <ele>1256</ele>
        <time>2016-05-08T08:10:05.620Z</time>
      </trkpt>
      <trkpt lat="46.78587" lon="6.45367">
        <ele>1256</ele>
        <time>2016-05-08T08:10:07.620Z</time>
      </trkpt>
      <trkpt lat="46.78589" lon="6.45369">
        <ele>1256</ele>
        <time>2016-05-08T08:10:09.620Z</time>
      </trkpt>
      <trkpt lat="46.78591" lon="6.45372">
        <ele>1257</ele>
        <time>2016-05-08T08:10:11.620Z</time>
      </trkpt>
      <trkpt lat="46.78593" lon="6.45374">
        <ele>1257</ele>
        <time>2016-05-08T08:10:13.620Z</time>
      </trkpt>
      <trkpt lat="46.78594" lon="6.45376">
        <ele>1257</ele>
        <time>2016-05-08T08:10:15.620Z</time>
      </trkpt>
      <trkpt lat="46.78595" lon="6.45378">
        <ele>1257</ele>
        <time>2016-05-08T08:10:17.620Z</time>
      </trkpt>
      <trkpt lat="46.78597" lon="6.45381">
        <ele>1257</ele>
        <time>2016-05-08T08:10:19.620Z</time>
      </trkpt>
      <trkpt lat="46.78599" lon="6.45383">
        <ele>1259</ele>
        <time>2016-05-08T08:10:21.620Z</time>
      </trkpt>
      <trkpt lat="46.786" lon="6.45386">
        <ele>1259</ele>
        <time>2016-05-08T08:10:23.620Z</time>
      </trkpt>
      <trkpt lat="46.78602" lon="6.45388">
        <ele>1259</ele>
        <time>2016-05-08T08:10:25.620Z</time>
      </trkpt>
      <trkpt lat="46.78604" lon="6.45393">
        <ele>1259</ele>
        <time>2016-05-08T08:10:28.620Z</time>
      </trkpt>
      <trkpt lat="46.78607" lon="6.45398">
        <ele>1260</ele>
        <time>2016-05-08T08:10:32.620Z</time>
      </trkpt>
      <trkpt lat="46.78609" lon="6.45402">
        <ele>1260</ele>
        <time>2016-05-08T08:10:35.620Z</time>
      </trkpt>
      <trkpt lat="46.7861" lon="6.45404">
        <ele>1260</ele>
        <time>2016-05-08T08:10:37.620Z</time>
      </trkpt>
      <trkpt lat="46.78611" lon="6.45407">
        <ele>1260</ele>
        <time>2016-05-08T08:10:39.620Z</time>
      </trkpt>
      <trkpt lat="46.78613" lon="6.4541">
        <ele>1260</ele>
        <time>2016-05-08T08:10:41.620Z</time>
      </trkpt>
      <trkpt lat="46.78614" lon="6.45413">
        <ele>1260</ele>
        <time>2016-05-08T08:10:43.620Z</time>
      </trkpt>
      <trkpt lat="46.78616" lon="6.45416">
        <ele>1260</ele>
        <time>2016-05-08T08:10:45.620Z</time>
      </trkpt>
      <trkpt lat="46.78617" lon="6.45418">
        <ele>1260</ele>
        <time>2016-05-08T08:10:47.620Z</time>
      </trkpt>
      <trkpt lat="46.78619" lon="6.45421">
        <ele>1262</ele>
        <time>2016-05-08T08:10:50.620Z</time>
      </trkpt>
      <trkpt lat="46.7862" lon="6.45423">
        <ele>1262</ele>
        <time>2016-05-08T08:10:52.620Z</time>
      </trkpt>
      <trkpt lat="46.78622" lon="6.45425">
        <ele>1262</ele>
        <time>2016-05-08T08:10:54.620Z</time>
      </trkpt>
      <trkpt lat="46.78623" lon="6.45427">
        <ele>1262</ele>
        <time>2016-05-08T08:10:56.620Z</time>
      </trkpt>
      <trkpt lat="46.78624" lon="6.45429">
        <ele>1262</ele>
        <time>2016-05-08T08:10:58.620Z</time>
      </trkpt>
      <trkpt lat="46.78626" lon="6.45431">
        <ele>1262</ele>
        <time>2016-05-08T08:11:00.620Z</time>
      </trkpt>
      <trkpt lat="46.78627" lon="6.45433">
        <ele>1263</ele>
        <time>2016-05-08T08:11:02.620Z</time>
      </trkpt>
      <trkpt lat="46.78629" lon="6.45435">
        <ele>1263</ele>
        <time>2016-05-08T08:11:05.620Z</time>
      </trkpt>
      <trkpt lat="46.78631" lon="6.45438">
        <ele>1263</ele>
        <time>2016-05-08T08:11:08.620Z</time>
      </trkpt>
      <trkpt lat="46.78633" lon="6.4544">
        <ele>1263</ele>
        <time>2016-05-08T08:11:10.620Z</time>
      </trkpt>
      <trkpt lat="46.78634" lon="6.45442">
        <ele>1265</ele>
        <time>2016-05-08T08:11:12.620Z</time>
      </trkpt>
      <trkpt lat="46.78636" lon="6.45445">
        <ele>1265</ele>
        <time>2016-05-08T08:11:15.620Z</time>
      </trkpt>
      <trkpt lat="46.78637" lon="6.45448">
        <ele>1265</ele>
        <time>2016-05-08T08:11:17.620Z</time>
      </trkpt>
      <trkpt lat="46.78639" lon="6.4545">
        <ele>1265</ele>
        <time>2016-05-08T08:11:19.620Z</time>
      </trkpt>
      <trkpt lat="46.7864" lon="6.45452">
        <ele>1266.9417408162</ele>
        <time>2016-05-08T08:11:21.620Z</time>
      </trkpt>
      <trkpt lat="46.78641" lon="6.45455">
        <ele>1267</ele>
        <time>2016-05-08T08:11:23.620Z</time>
      </trkpt>
      <trkpt lat="46.78643" lon="6.45457">
        <ele>1267</ele>
        <time>2016-05-08T08:11:25.620Z</time>
      </trkpt>
      <trkpt lat="46.78644" lon="6.4546">
        <ele>1267</ele>
        <time>2016-05-08T08:11:27.620Z</time>
      </trkpt>
      <trkpt lat="46.78645" lon="6.45462">
        <ele>1267</ele>
        <time>2016-05-08T08:11:29.620Z</time>
      </trkpt>
      <trkpt lat="46.78647" lon="6.45464">
        <ele>1267.9899904</ele>
        <time>2016-05-08T08:11:31.620Z</time>
      </trkpt>
      <trkpt lat="46.78649" lon="6.45467">
        <ele>1268</ele>
        <time>2016-05-08T08:11:33.620Z</time>
      </trkpt>
      <trkpt lat="46.7865" lon="6.45469">
        <ele>1268</ele>
        <time>2016-05-08T08:11:35.620Z</time>
      </trkpt>
      <trkpt lat="46.78652" lon="6.45471">
        <ele>1268</ele>
        <time>2016-05-08T08:11:37.620Z</time>
      </trkpt>
      <trkpt lat="46.78653" lon="6.45474">
        <ele>1268</ele>
        <time>2016-05-08T08:11:39.620Z</time>
      </trkpt>
      <trkpt lat="46.78654" lon="6.45476">
        <ele>1269.9799808</ele>
        <time>2016-05-08T08:11:41.620Z</time>
      </trkpt>
      <trkpt lat="46.78656" lon="6.45478">
        <ele>1270</ele>
        <time>2016-05-08T08:11:43.620Z</time>
      </trkpt>
      <trkpt lat="46.78657" lon="6.45481">
        <ele>1270</ele>
        <time>2016-05-08T08:11:45.620Z</time>
      </trkpt>
      <trkpt lat="46.78659" lon="6.45483">
        <ele>1270</ele>
        <time>2016-05-08T08:11:47.620Z</time>
      </trkpt>
      <trkpt lat="46.7866" lon="6.45486">
        <ele>1270</ele>
        <time>2016-05-08T08:11:50.620Z</time>
      </trkpt>
      <trkpt lat="46.78662" lon="6.45489">
        <ele>1271</ele>
        <time>2016-05-08T08:11:54.620Z</time>
      </trkpt>
      <trkpt lat="46.78663" lon="6.45491">
        <ele>1271</ele>
        <time>2016-05-08T08:11:56.620Z</time>
      </trkpt>
      <trkpt lat="46.78665" lon="6.45494">
        <ele>1271</ele>
        <time>2016-05-08T08:11:58.620Z</time>
      </trkpt>
      <trkpt lat="46.78666" lon="6.45496">
        <ele>1271.9611771139</ele>
        <time>2016-05-08T08:12:00.620Z</time>
      </trkpt>
      <trkpt lat="46.78667" lon="6.45498">
        <ele>1272</ele>
        <time>2016-05-08T08:12:02.620Z</time>
      </trkpt>
      <trkpt lat="46.78668" lon="6.455">
        <ele>1272</ele>
        <time>2016-05-08T08:12:04.620Z</time>
      </trkpt>
      <trkpt lat="46.7867" lon="6.45503">
        <ele>1272</ele>
        <time>2016-05-08T08:12:06.620Z</time>
      </trkpt>
      <trkpt lat="46.78671" lon="6.45506">
        <ele>1272</ele>
        <time>2016-05-08T08:12:09.620Z</time>
      </trkpt>
      <trkpt lat="46.78672" lon="6.45509">
        <ele>1274</ele>
        <time>2016-05-08T08:12:11.620Z</time>
      </trkpt>
      <trkpt lat="46.78673" lon="6.45511">
        <ele>1274</ele>
        <time>2016-05-08T08:12:13.620Z</time>
      </trkpt>
      <trkpt lat="46.78674" lon="6.45514">
        <ele>1275.9417408162</ele>
        <time>2016-05-08T08:12:15.620Z</time>
      </trkpt>
      <trkpt lat="46.78675" lon="6.45516">
        <ele>1276</ele>
        <time>2016-05-08T08:12:17.620Z</time>
      </trkpt>
      <trkpt lat="46.78677" lon="6.45518">
        <ele>1276</ele>
        <time>2016-05-08T08:12:19.620Z</time>
      </trkpt>
      <trkpt lat="46.78679" lon="6.4552">
        <ele>1276</ele>
        <time>2016-05-08T08:12:21.620Z</time>
      </trkpt>
      <trkpt lat="46.7868" lon="6.45521">
        <ele>1276</ele>
        <time>2016-05-08T08:12:23.620Z</time>
      </trkpt>
      <trkpt lat="46.78681" lon="6.45524">
        <ele>1276</ele>
        <time>2016-05-08T08:12:25.620Z</time>
      </trkpt>
      <trkpt lat="46.78686" lon="6.45532">
        <ele>1278</ele>
        <time>2016-05-08T08:12:32.620Z</time>
      </trkpt>
      <trkpt lat="46.78687" lon="6.45534">
        <ele>1278</ele>
        <time>2016-05-08T08:12:34.620Z</time>
      </trkpt>
      <trkpt lat="46.78689" lon="6.45536">
        <ele>1278</ele>
        <time>2016-05-08T08:12:37.620Z</time>
      </trkpt>
      <trkpt lat="46.7869" lon="6.45539">
        <ele>1278</ele>
        <time>2016-05-08T08:12:39.620Z</time>
      </trkpt>
      <trkpt lat="46.78697" lon="6.45549">
        <ele>1280</ele>
        <time>2016-05-08T08:12:47.620Z</time>
      </trkpt>
      <trkpt lat="46.78703" lon="6.4556">
        <ele>1281</ele>
        <time>2016-05-08T08:12:55.620Z</time>
      </trkpt>
      <trkpt lat="46.78705" lon="6.45562">
        <ele>1281</ele>
        <time>2016-05-08T08:12:57.620Z</time>
      </trkpt>
      <trkpt lat="46.78706" lon="6.45564">
        <ele>1281</ele>
        <time>2016-05-08T08:12:59.620Z</time>
      </trkpt>
      <trkpt lat="46.78708" lon="6.45566">
        <ele>1281</ele>
        <time>2016-05-08T08:13:01.620Z</time>
      </trkpt>
      <trkpt lat="46.7871" lon="6.45569">
        <ele>1281</ele>
        <time>2016-05-08T08:13:04.620Z</time>
      </trkpt>
      <trkpt lat="46.78713" lon="6.45575">
        <ele>1283</ele>
        <time>2016-05-08T08:13:10.620Z</time>
      </trkpt>
      <trkpt lat="46.78714" lon="6.45578">
        <ele>1283</ele>
        <time>2016-05-08T08:13:12.620Z</time>
      </trkpt>
      <trkpt lat="46.78715" lon="6.4558">
        <ele>1283</ele>
        <time>2016-05-08T08:13:14.620Z</time>
      </trkpt>
      <trkpt lat="46.78717" lon="6.45583">
        <ele>1283</ele>
        <time>2016-05-08T08:13:16.620Z</time>
      </trkpt>
      <trkpt lat="46.78719" lon="6.45587">
        <ele>1283</ele>
        <time>2016-05-08T08:13:19.620Z</time>
      </trkpt>
      <trkpt lat="46.7872" lon="6.45589">
        <ele>1283</ele>
        <time>2016-05-08T08:13:21.620Z</time>
      </trkpt>
      <trkpt lat="46.78725" lon="6.45596">
        <ele>1283</ele>
        <time>2016-05-08T08:13:27.620Z</time>
      </trkpt>
      <trkpt lat="46.78728" lon="6.45598">
        <ele>1283</ele>
        <time>2016-05-08T08:13:29.620Z</time>
      </trkpt>
      <trkpt lat="46.78729" lon="6.45599">
        <ele>1284</ele>
        <time>2016-05-08T08:13:31.620Z</time>
      </trkpt>
      <trkpt lat="46.78731" lon="6.45602">
        <ele>1284</ele>
        <time>2016-05-08T08:13:33.620Z</time>
      </trkpt>
      <trkpt lat="46.78732" lon="6.45605">
        <ele>1284</ele>
        <time>2016-05-08T08:13:35.620Z</time>
      </trkpt>
      <trkpt lat="46.78734" lon="6.45608">
        <ele>1284</ele>
        <time>2016-05-08T08:13:38.620Z</time>
      </trkpt>
      <trkpt lat="46.78736" lon="6.4561">
        <ele>1285.5151562167</ele>
        <time>2016-05-08T08:13:40.620Z</time>
      </trkpt>
      <trkpt lat="46.78738" lon="6.45613">
        <ele>1286</ele>
        <time>2016-05-08T08:13:43.620Z</time>
      </trkpt>
      <trkpt lat="46.78739" lon="6.45615">
        <ele>1286</ele>
        <time>2016-05-08T08:13:45.620Z</time>
      </trkpt>
      <trkpt lat="46.78741" lon="6.45617">
        <ele>1286</ele>
        <time>2016-05-08T08:13:47.620Z</time>
      </trkpt>
      <trkpt lat="46.78743" lon="6.45619">
        <ele>1286</ele>
        <time>2016-05-08T08:13:49.620Z</time>
      </trkpt>
      <trkpt lat="46.78744" lon="6.45622">
        <ele>1287</ele>
        <time>2016-05-08T08:13:51.620Z</time>
      </trkpt>
      <trkpt lat="46.78745" lon="6.45624">
        <ele>1287</ele>
        <time>2016-05-08T08:13:53.620Z</time>
      </trkpt>
      <trkpt lat="46.78747" lon="6.45629">
        <ele>1287</ele>
        <time>2016-05-08T08:13:57.620Z</time>
      </trkpt>
      <trkpt lat="46.78749" lon="6.4563">
        <ele>1287</ele>
        <time>2016-05-08T08:13:59.620Z</time>
      </trkpt>
      <trkpt lat="46.7875" lon="6.45632">
        <ele>1289</ele>
        <time>2016-05-08T08:14:01.620Z</time>
      </trkpt>
      <trkpt lat="46.78754" lon="6.45638">
        <ele>1289</ele>
        <time>2016-05-08T08:14:07.620Z</time>
      </trkpt>
      <trkpt lat="46.78755" lon="6.4564">
        <ele>1289</ele>
        <time>2016-05-08T08:14:09.620Z</time>
      </trkpt>
      <trkpt lat="46.78757" lon="6.45642">
        <ele>1290</ele>
        <time>2016-05-08T08:14:12.620Z</time>
      </trkpt>
      <trkpt lat="46.78759" lon="6.45645">
        <ele>1290</ele>
        <time>2016-05-08T08:14:14.620Z</time>
      </trkpt>
      <trkpt lat="46.78761" lon="6.45647">
        <ele>1290</ele>
        <time>2016-05-08T08:14:16.620Z</time>
      </trkpt>
      <trkpt lat="46.78762" lon="6.45649">
        <ele>1290</ele>
        <time>2016-05-08T08:14:18.620Z</time>
      </trkpt>
      <trkpt lat="46.78763" lon="6.45653">
        <ele>1290</ele>
        <time>2016-05-08T08:14:20.620Z</time>
      </trkpt>
      <trkpt lat="46.78765" lon="6.45655">
        <ele>1290</ele>
        <time>2016-05-08T08:14:22.620Z</time>
      </trkpt>
      <trkpt lat="46.78766" lon="6.45657">
        <ele>1290</ele>
        <time>2016-05-08T08:14:24.620Z</time>
      </trkpt>
      <trkpt lat="46.78769" lon="6.4566">
        <ele>1290</ele>
        <time>2016-05-08T08:14:26.620Z</time>
      </trkpt>
      <trkpt lat="46.7877" lon="6.45663">
        <ele>1290</ele>
        <time>2016-05-08T08:14:28.620Z</time>
      </trkpt>
      <trkpt lat="46.78772" lon="6.45666">
        <ele>1290</ele>
        <time>2016-05-08T08:14:30.620Z</time>
      </trkpt>
      <trkpt lat="46.78773" lon="6.45669">
        <ele>1290</ele>
        <time>2016-05-08T08:14:32.620Z</time>
      </trkpt>
      <trkpt lat="46.78776" lon="6.45673">
        <ele>1290</ele>
        <time>2016-05-08T08:14:35.620Z</time>
      </trkpt>
      <trkpt lat="46.78777" lon="6.45675">
        <ele>1290</ele>
        <time>2016-05-08T08:14:37.620Z</time>
      </trkpt>
      <trkpt lat="46.78778" lon="6.45678">
        <ele>1290</ele>
        <time>2016-05-08T08:14:39.620Z</time>
      </trkpt>
      <trkpt lat="46.7878" lon="6.45681">
        <ele>1290</ele>
        <time>2016-05-08T08:14:41.620Z</time>
      </trkpt>
      <trkpt lat="46.78781" lon="6.45684">
        <ele>1290</ele>
        <time>2016-05-08T08:14:43.620Z</time>
      </trkpt>
      <trkpt lat="46.78782" lon="6.45686">
        <ele>1290</ele>
        <time>2016-05-08T08:14:45.620Z</time>
      </trkpt>
      <trkpt lat="46.78784" lon="6.45688">
        <ele>1290</ele>
        <time>2016-05-08T08:14:47.620Z</time>
      </trkpt>
      <trkpt lat="46.78786" lon="6.4569">
        <ele>1290</ele>
        <time>2016-05-08T08:14:49.620Z</time>
      </trkpt>
      <trkpt lat="46.78787" lon="6.45693">
        <ele>1290.9899904</ele>
        <time>2016-05-08T08:14:51.620Z</time>
      </trkpt>
      <trkpt lat="46.78789" lon="6.45695">
        <ele>1291</ele>
        <time>2016-05-08T08:14:53.620Z</time>
      </trkpt>
      <trkpt lat="46.7879" lon="6.45698">
        <ele>1291</ele>
        <time>2016-05-08T08:14:55.620Z</time>
      </trkpt>
      <trkpt lat="46.78796" lon="6.45708">
        <ele>1291</ele>
        <time>2016-05-08T08:15:04.620Z</time>
      </trkpt>
      <trkpt lat="46.78803" lon="6.45719">
        <ele>1293</ele>
        <time>2016-05-08T08:15:12.620Z</time>
      </trkpt>
      <trkpt lat="46.78804" lon="6.45722">
        <ele>1293</ele>
        <time>2016-05-08T08:15:14.620Z</time>
      </trkpt>
      <trkpt lat="46.78805" lon="6.45725">
        <ele>1293</ele>
        <time>2016-05-08T08:15:16.620Z</time>
      </trkpt>
      <trkpt lat="46.78812" lon="6.45735">
        <ele>1294</ele>
        <time>2016-05-08T08:15:22.620Z</time>
      </trkpt>
      <trkpt lat="46.78819" lon="6.45744">
        <ele>1294</ele>
        <time>2016-05-08T08:15:29.620Z</time>
      </trkpt>
      <trkpt lat="46.78821" lon="6.45748">
        <ele>1295</ele>
        <time>2016-05-08T08:15:32.620Z</time>
      </trkpt>
      <trkpt lat="46.78822" lon="6.45751">
        <ele>1295</ele>
        <time>2016-05-08T08:15:34.620Z</time>
      </trkpt>
      <trkpt lat="46.78823" lon="6.45754">
        <ele>1295</ele>
        <time>2016-05-08T08:15:36.620Z</time>
      </trkpt>
      <trkpt lat="46.78825" lon="6.45757">
        <ele>1295</ele>
        <time>2016-05-08T08:15:38.620Z</time>
      </trkpt>
      <trkpt lat="46.78826" lon="6.45758">
        <ele>1295</ele>
        <time>2016-05-08T08:15:40.620Z</time>
      </trkpt>
      <trkpt lat="46.78828" lon="6.45761">
        <ele>1295</ele>
        <time>2016-05-08T08:15:42.620Z</time>
      </trkpt>
      <trkpt lat="46.7883" lon="6.45762">
        <ele>1295</ele>
        <time>2016-05-08T08:15:43.620Z</time>
      </trkpt>
      <trkpt lat="46.78832" lon="6.45766">
        <ele>1295</ele>
        <time>2016-05-08T08:15:45.620Z</time>
      </trkpt>
      <trkpt lat="46.78835" lon="6.4577">
        <ele>1295</ele>
        <time>2016-05-08T08:15:48.620Z</time>
      </trkpt>
      <trkpt lat="46.78836" lon="6.45772">
        <ele>1295</ele>
        <time>2016-05-08T08:15:50.620Z</time>
      </trkpt>
      <trkpt lat="46.7884" lon="6.45776">
        <ele>1295</ele>
        <time>2016-05-08T08:15:53.620Z</time>
      </trkpt>
      <trkpt lat="46.78841" lon="6.45778">
        <ele>1295</ele>
        <time>2016-05-08T08:15:55.620Z</time>
      </trkpt>
      <trkpt lat="46.78843" lon="6.45782">
        <ele>1295</ele>
        <time>2016-05-08T08:15:57.620Z</time>
      </trkpt>
      <trkpt lat="46.78844" lon="6.45785">
        <ele>1295</ele>
        <time>2016-05-08T08:15:59.620Z</time>
      </trkpt>
      <trkpt lat="46.78846" lon="6.45786">
        <ele>1295</ele>
        <time>2016-05-08T08:16:01.620Z</time>
      </trkpt>
      <trkpt lat="46.78848" lon="6.45788">
        <ele>1295</ele>
        <time>2016-05-08T08:16:03.620Z</time>
      </trkpt>
      <trkpt lat="46.78851" lon="6.4579">
        <ele>1295</ele>
        <time>2016-05-08T08:16:05.620Z</time>
      </trkpt>
      <trkpt lat="46.78858" lon="6.45802">
        <ele>1295</ele>
        <time>2016-05-08T08:16:13.620Z</time>
      </trkpt>
      <trkpt lat="46.78864" lon="6.45813">
        <ele>1295</ele>
        <time>2016-05-08T08:16:23.620Z</time>
      </trkpt>
      <trkpt lat="46.78868" lon="6.45818">
        <ele>1295</ele>
        <time>2016-05-08T08:16:28.620Z</time>
      </trkpt>
      <trkpt lat="46.78869" lon="6.4582">
        <ele>1294</ele>
        <time>2016-05-08T08:16:30.620Z</time>
      </trkpt>
      <trkpt lat="46.78874" lon="6.45826">
        <ele>1294</ele>
        <time>2016-05-08T08:16:45.620Z</time>
      </trkpt>
      <trkpt lat="46.78879" lon="6.45835">
        <ele>1293</ele>
        <time>2016-05-08T08:17:02.620Z</time>
      </trkpt>
      <trkpt lat="46.78882" lon="6.45838">
        <ele>1293</ele>
        <time>2016-05-08T08:17:05.620Z</time>
      </trkpt>
      <trkpt lat="46.7888" lon="6.45836">
        <ele>1291</ele>
        <time>2016-05-08T08:17:50.620Z</time>
      </trkpt>
      <trkpt lat="46.78881" lon="6.4584">
        <ele>1291</ele>
        <time>2016-05-08T08:17:52.620Z</time>
      </trkpt>
      <trkpt lat="46.78882" lon="6.45845">
        <ele>1291</ele>
        <time>2016-05-08T08:17:54.620Z</time>
      </trkpt>
      <trkpt lat="46.78884" lon="6.45851">
        <ele>1291</ele>
        <time>2016-05-08T08:17:57.620Z</time>
      </trkpt>
      <trkpt lat="46.78886" lon="6.45853">
        <ele>1291</ele>
        <time>2016-05-08T08:17:59.620Z</time>
      </trkpt>
      <trkpt lat="46.7889" lon="6.45861">
        <ele>1292</ele>
        <time>2016-05-08T08:18:05.620Z</time>
      </trkpt>
      <trkpt lat="46.78891" lon="6.45864">
        <ele>1292</ele>
        <time>2016-05-08T08:18:07.620Z</time>
      </trkpt>
      <trkpt lat="46.78893" lon="6.45867">
        <ele>1292</ele>
        <time>2016-05-08T08:18:09.620Z</time>
      </trkpt>
      <trkpt lat="46.78894" lon="6.45871">
        <ele>1293</ele>
        <time>2016-05-08T08:18:11.620Z</time>
      </trkpt>
      <trkpt lat="46.78895" lon="6.45875">
        <ele>1293</ele>
        <time>2016-05-08T08:18:13.620Z</time>
      </trkpt>
      <trkpt lat="46.78896" lon="6.45879">
        <ele>1293</ele>
        <time>2016-05-08T08:18:15.620Z</time>
      </trkpt>
      <trkpt lat="46.78898" lon="6.45882">
        <ele>1293</ele>
        <time>2016-05-08T08:18:17.620Z</time>
      </trkpt>
      <trkpt lat="46.789" lon="6.45885">
        <ele>1293</ele>
        <time>2016-05-08T08:18:19.620Z</time>
      </trkpt>
      <trkpt lat="46.78902" lon="6.45888">
        <ele>1294.9799808</ele>
        <time>2016-05-08T08:18:21.620Z</time>
      </trkpt>
      <trkpt lat="46.78903" lon="6.45891">
        <ele>1295</ele>
        <time>2016-05-08T08:18:23.620Z</time>
      </trkpt>
      <trkpt lat="46.78905" lon="6.45893">
        <ele>1295</ele>
        <time>2016-05-08T08:18:25.620Z</time>
      </trkpt>
      <trkpt lat="46.78906" lon="6.45897">
        <ele>1295</ele>
        <time>2016-05-08T08:18:27.620Z</time>
      </trkpt>
      <trkpt lat="46.78907" lon="6.459">
        <ele>1295</ele>
        <time>2016-05-08T08:18:29.620Z</time>
      </trkpt>
      <trkpt lat="46.78909" lon="6.45903">
        <ele>1297</ele>
        <time>2016-05-08T08:18:31.620Z</time>
      </trkpt>
      <trkpt lat="46.7891" lon="6.45907">
        <ele>1297</ele>
        <time>2016-05-08T08:18:34.620Z</time>
      </trkpt>
      <trkpt lat="46.78912" lon="6.4591">
        <ele>1297</ele>
        <time>2016-05-08T08:18:36.620Z</time>
      </trkpt>
      <trkpt lat="46.78913" lon="6.45913">
        <ele>1297</ele>
        <time>2016-05-08T08:18:38.620Z</time>
      </trkpt>
      <trkpt lat="46.78914" lon="6.45916">
        <ele>1297</ele>
        <time>2016-05-08T08:18:40.620Z</time>
      </trkpt>
      <trkpt lat="46.78915" lon="6.45919">
        <ele>1297</ele>
        <time>2016-05-08T08:18:42.620Z</time>
      </trkpt>
      <trkpt lat="46.78917" lon="6.45921">
        <ele>1297</ele>
        <time>2016-05-08T08:18:44.620Z</time>
      </trkpt>
      <trkpt lat="46.78918" lon="6.45924">
        <ele>1297</ele>
        <time>2016-05-08T08:18:46.620Z</time>
      </trkpt>
      <trkpt lat="46.7892" lon="6.45927">
        <ele>1297</ele>
        <time>2016-05-08T08:18:48.620Z</time>
      </trkpt>
      <trkpt lat="46.78921" lon="6.45929">
        <ele>1298</ele>
        <time>2016-05-08T08:18:50.620Z</time>
      </trkpt>
      <trkpt lat="46.78922" lon="6.45932">
        <ele>1298</ele>
        <time>2016-05-08T08:18:52.620Z</time>
      </trkpt>
      <trkpt lat="46.78924" lon="6.45936">
        <ele>1298</ele>
        <time>2016-05-08T08:18:55.620Z</time>
      </trkpt>
      <trkpt lat="46.78925" lon="6.45938">
        <ele>1298</ele>
        <time>2016-05-08T08:18:57.620Z</time>
      </trkpt>
      <trkpt lat="46.78927" lon="6.45941">
        <ele>1298</ele>
        <time>2016-05-08T08:18:59.620Z</time>
      </trkpt>
      <trkpt lat="46.78928" lon="6.45942">
        <ele>1300</ele>
        <time>2016-05-08T08:19:01.620Z</time>
      </trkpt>
      <trkpt lat="46.78929" lon="6.45945">
        <ele>1300</ele>
        <time>2016-05-08T08:19:04.620Z</time>
      </trkpt>
      <trkpt lat="46.78931" lon="6.45947">
        <ele>1300</ele>
        <time>2016-05-08T08:19:07.620Z</time>
      </trkpt>
      <trkpt lat="46.78933" lon="6.45949">
        <ele>1300.9519261539</ele>
        <time>2016-05-08T08:19:10.620Z</time>
      </trkpt>
      <trkpt lat="46.78935" lon="6.4595">
        <ele>1301</ele>
        <time>2016-05-08T08:19:12.620Z</time>
      </trkpt>
      <trkpt lat="46.78937" lon="6.4595">
        <ele>1301</ele>
        <time>2016-05-08T08:19:14.620Z</time>
      </trkpt>
      <trkpt lat="46.7894" lon="6.45951">
        <ele>1301</ele>
        <time>2016-05-08T08:19:17.620Z</time>
      </trkpt>
      <trkpt lat="46.78942" lon="6.45951">
        <ele>1301</ele>
        <time>2016-05-08T08:19:19.620Z</time>
      </trkpt>
      <trkpt lat="46.78944" lon="6.45951">
        <ele>1302</ele>
        <time>2016-05-08T08:19:21.620Z</time>
      </trkpt>
      <trkpt lat="46.78946" lon="6.45951">
        <ele>1302</ele>
        <time>2016-05-08T08:19:24.620Z</time>
      </trkpt>
      <trkpt lat="46.78948" lon="6.45952">
        <ele>1302</ele>
        <time>2016-05-08T08:19:27.620Z</time>
      </trkpt>
      <trkpt lat="46.78951" lon="6.45953">
        <ele>1302</ele>
        <time>2016-05-08T08:19:29.620Z</time>
      </trkpt>
      <trkpt lat="46.78953" lon="6.45954">
        <ele>1302</ele>
        <time>2016-05-08T08:19:31.620Z</time>
      </trkpt>
      <trkpt lat="46.78955" lon="6.45955">
        <ele>1302</ele>
        <time>2016-05-08T08:19:33.620Z</time>
      </trkpt>
      <trkpt lat="46.78956" lon="6.45957">
        <ele>1302</ele>
        <time>2016-05-08T08:19:35.620Z</time>
      </trkpt>
      <trkpt lat="46.78958" lon="6.45958">
        <ele>1302</ele>
        <time>2016-05-08T08:19:37.620Z</time>
      </trkpt>
      <trkpt lat="46.78959" lon="6.45961">
        <ele>1303.5151562167</ele>
        <time>2016-05-08T08:19:40.620Z</time>
      </trkpt>
      <trkpt lat="46.7896" lon="6.45964">
        <ele>1304</ele>
        <time>2016-05-08T08:19:42.620Z</time>
      </trkpt>
      <trkpt lat="46.78961" lon="6.45967">
        <ele>1304</ele>
        <time>2016-05-08T08:19:45.620Z</time>
      </trkpt>
      <trkpt lat="46.78963" lon="6.45969">
        <ele>1304</ele>
        <time>2016-05-08T08:19:47.620Z</time>
      </trkpt>
      <trkpt lat="46.78964" lon="6.45971">
        <ele>1304</ele>
        <time>2016-05-08T08:19:49.620Z</time>
      </trkpt>
      <trkpt lat="46.78966" lon="6.45973">
        <ele>1306</ele>
        <time>2016-05-08T08:19:51.620Z</time>
      </trkpt>
      <trkpt lat="46.78968" lon="6.45975">
        <ele>1306</ele>
        <time>2016-05-08T08:19:52.620Z</time>
      </trkpt>
      <trkpt lat="46.78971" lon="6.45977">
        <ele>1306</ele>
        <time>2016-05-08T08:19:54.620Z</time>
      </trkpt>
      <trkpt lat="46.78973" lon="6.4598">
        <ele>1306</ele>
        <time>2016-05-08T08:19:56.620Z</time>
      </trkpt>
      <trkpt lat="46.78975" lon="6.45983">
        <ele>1306</ele>
        <time>2016-05-08T08:19:58.620Z</time>
      </trkpt>
      <trkpt lat="46.78976" lon="6.45985">
        <ele>1307.5267333698</ele>
        <time>2016-05-08T08:20:00.620Z</time>
      </trkpt>
      <trkpt lat="46.78978" lon="6.45987">
        <ele>1308</ele>
        <time>2016-05-08T08:20:02.620Z</time>
      </trkpt>
      <trkpt lat="46.78979" lon="6.45991">
        <ele>1308</ele>
        <time>2016-05-08T08:20:05.620Z</time>
      </trkpt>
      <trkpt lat="46.7898" lon="6.45994">
        <ele>1308</ele>
        <time>2016-05-08T08:20:07.620Z</time>
      </trkpt>
      <trkpt lat="46.78981" lon="6.45996">
        <ele>1308</ele>
        <time>2016-05-08T08:20:09.620Z</time>
      </trkpt>
      <trkpt lat="46.78982" lon="6.46">
        <ele>1310</ele>
        <time>2016-05-08T08:20:11.620Z</time>
      </trkpt>
      <trkpt lat="46.78983" lon="6.46002">
        <ele>1310</ele>
        <time>2016-05-08T08:20:13.620Z</time>
      </trkpt>
      <trkpt lat="46.78985" lon="6.46005">
        <ele>1310</ele>
        <time>2016-05-08T08:20:15.620Z</time>
      </trkpt>
      <trkpt lat="46.78986" lon="6.46007">
        <ele>1310</ele>
        <time>2016-05-08T08:20:17.620Z</time>
      </trkpt>
      <trkpt lat="46.78988" lon="6.4601">
        <ele>1310</ele>
        <time>2016-05-08T08:20:19.620Z</time>
      </trkpt>
      <trkpt lat="46.7899" lon="6.46013">
        <ele>1310.7575734068</ele>
        <time>2016-05-08T08:20:21.620Z</time>
      </trkpt>
      <trkpt lat="46.78992" lon="6.46016">
        <ele>1311</ele>
        <time>2016-05-08T08:20:23.620Z</time>
      </trkpt>
      <trkpt lat="46.78993" lon="6.46018">
        <ele>1311</ele>
        <time>2016-05-08T08:20:25.620Z</time>
      </trkpt>
      <trkpt lat="46.78995" lon="6.46021">
        <ele>1311</ele>
        <time>2016-05-08T08:20:27.620Z</time>
      </trkpt>
      <trkpt lat="46.78996" lon="6.46024">
        <ele>1311</ele>
        <time>2016-05-08T08:20:29.620Z</time>
      </trkpt>
      <trkpt lat="46.78997" lon="6.46027">
        <ele>1312</ele>
        <time>2016-05-08T08:20:31.620Z</time>
      </trkpt>
      <trkpt lat="46.78998" lon="6.4603">
        <ele>1312</ele>
        <time>2016-05-08T08:20:33.620Z</time>
      </trkpt>
      <trkpt lat="46.78999" lon="6.46033">
        <ele>1312</ele>
        <time>2016-05-08T08:20:35.620Z</time>
      </trkpt>
      <trkpt lat="46.79001" lon="6.46036">
        <ele>1312</ele>
        <time>2016-05-08T08:20:37.620Z</time>
      </trkpt>
      <trkpt lat="46.79002" lon="6.46039">
        <ele>1312</ele>
        <time>2016-05-08T08:20:39.620Z</time>
      </trkpt>
      <trkpt lat="46.79003" lon="6.46042">
        <ele>1314</ele>
        <time>2016-05-08T08:20:41.620Z</time>
      </trkpt>
      <trkpt lat="46.79003" lon="6.46045">
        <ele>1314</ele>
        <time>2016-05-08T08:20:43.620Z</time>
      </trkpt>
      <trkpt lat="46.79005" lon="6.46048">
        <ele>1314</ele>
        <time>2016-05-08T08:20:45.620Z</time>
      </trkpt>
      <trkpt lat="46.79006" lon="6.46052">
        <ele>1314</ele>
        <time>2016-05-08T08:20:47.620Z</time>
      </trkpt>
      <trkpt lat="46.79007" lon="6.46055">
        <ele>1314</ele>
        <time>2016-05-08T08:20:49.620Z</time>
      </trkpt>
      <trkpt lat="46.79008" lon="6.46058">
        <ele>1314</ele>
        <time>2016-05-08T08:20:51.620Z</time>
      </trkpt>
      <trkpt lat="46.79009" lon="6.46061">
        <ele>1314</ele>
        <time>2016-05-08T08:20:53.620Z</time>
      </trkpt>
      <trkpt lat="46.79011" lon="6.46064">
        <ele>1314</ele>
        <time>2016-05-08T08:20:55.620Z</time>
      </trkpt>
      <trkpt lat="46.79012" lon="6.46067">
        <ele>1314</ele>
        <time>2016-05-08T08:20:57.620Z</time>
      </trkpt>
      <trkpt lat="46.79013" lon="6.4607">
        <ele>1314</ele>
        <time>2016-05-08T08:20:59.620Z</time>
      </trkpt>
      <trkpt lat="46.79015" lon="6.46073">
        <ele>1314</ele>
        <time>2016-05-08T08:21:01.620Z</time>
      </trkpt>
      <trkpt lat="46.79016" lon="6.46077">
        <ele>1314</ele>
        <time>2016-05-08T08:21:03.620Z</time>
      </trkpt>
      <trkpt lat="46.79018" lon="6.4608">
        <ele>1314</ele>
        <time>2016-05-08T08:21:05.620Z</time>
      </trkpt>
      <trkpt lat="46.79019" lon="6.46083">
        <ele>1314</ele>
        <time>2016-05-08T08:21:07.620Z</time>
      </trkpt>
      <trkpt lat="46.79021" lon="6.46086">
        <ele>1314</ele>
        <time>2016-05-08T08:21:09.620Z</time>
      </trkpt>
      <trkpt lat="46.79023" lon="6.46089">
        <ele>1315</ele>
        <time>2016-05-08T08:21:11.620Z</time>
      </trkpt>
      <trkpt lat="46.79024" lon="6.46092">
        <ele>1315</ele>
        <time>2016-05-08T08:21:13.620Z</time>
      </trkpt>
      <trkpt lat="46.79025" lon="6.46095">
        <ele>1315</ele>
        <time>2016-05-08T08:21:15.620Z</time>
      </trkpt>
      <trkpt lat="46.79027" lon="6.46098">
        <ele>1315</ele>
        <time>2016-05-08T08:21:17.620Z</time>
      </trkpt>
      <trkpt lat="46.79028" lon="6.46101">
        <ele>1315</ele>
        <time>2016-05-08T08:21:19.620Z</time>
      </trkpt>
      <trkpt lat="46.7903" lon="6.46104">
        <ele>1315</ele>
        <time>2016-05-08T08:21:21.620Z</time>
      </trkpt>
      <trkpt lat="46.79031" lon="6.46108">
        <ele>1315</ele>
        <time>2016-05-08T08:21:23.620Z</time>
      </trkpt>
      <trkpt lat="46.79032" lon="6.46111">
        <ele>1315</ele>
        <time>2016-05-08T08:21:25.620Z</time>
      </trkpt>
      <trkpt lat="46.79033" lon="6.46114">
        <ele>1315</ele>
        <time>2016-05-08T08:21:27.620Z</time>
      </trkpt>
      <trkpt lat="46.79033" lon="6.46118">
        <ele>1315</ele>
        <time>2016-05-08T08:21:29.620Z</time>
      </trkpt>
      <trkpt lat="46.79034" lon="6.46121">
        <ele>1315</ele>
        <time>2016-05-08T08:21:31.620Z</time>
      </trkpt>
      <trkpt lat="46.79035" lon="6.46124">
        <ele>1315</ele>
        <time>2016-05-08T08:21:33.620Z</time>
      </trkpt>
      <trkpt lat="46.79036" lon="6.46126">
        <ele>1315</ele>
        <time>2016-05-08T08:21:35.620Z</time>
      </trkpt>
      <trkpt lat="46.79037" lon="6.46129">
        <ele>1315</ele>
        <time>2016-05-08T08:21:37.620Z</time>
      </trkpt>
      <trkpt lat="46.79039" lon="6.46132">
        <ele>1315</ele>
        <time>2016-05-08T08:21:39.620Z</time>
      </trkpt>
      <trkpt lat="46.79039" lon="6.46136">
        <ele>1315</ele>
        <time>2016-05-08T08:21:41.620Z</time>
      </trkpt>
      <trkpt lat="46.7904" lon="6.4614">
        <ele>1315</ele>
        <time>2016-05-08T08:21:43.620Z</time>
      </trkpt>
      <trkpt lat="46.7904" lon="6.46143">
        <ele>1315</ele>
        <time>2016-05-08T08:21:45.620Z</time>
      </trkpt>
      <trkpt lat="46.79041" lon="6.46147">
        <ele>1315</ele>
        <time>2016-05-08T08:21:47.620Z</time>
      </trkpt>
      <trkpt lat="46.79041" lon="6.4615">
        <ele>1315</ele>
        <time>2016-05-08T08:21:49.620Z</time>
      </trkpt>
      <trkpt lat="46.79042" lon="6.46153">
        <ele>1316</ele>
        <time>2016-05-08T08:21:51.620Z</time>
      </trkpt>
      <trkpt lat="46.79042" lon="6.46156">
        <ele>1316</ele>
        <time>2016-05-08T08:21:53.620Z</time>
      </trkpt>
      <trkpt lat="46.79043" lon="6.46159">
        <ele>1316</ele>
        <time>2016-05-08T08:21:55.620Z</time>
      </trkpt>
      <trkpt lat="46.79043" lon="6.46162">
        <ele>1316</ele>
        <time>2016-05-08T08:21:57.620Z</time>
      </trkpt>
      <trkpt lat="46.79043" lon="6.46165">
        <ele>1316</ele>
        <time>2016-05-08T08:21:59.620Z</time>
      </trkpt>
      <trkpt lat="46.79043" lon="6.46169">
        <ele>1316</ele>
        <time>2016-05-08T08:22:01.620Z</time>
      </trkpt>
      <trkpt lat="46.79043" lon="6.46173">
        <ele>1316</ele>
        <time>2016-05-08T08:22:03.620Z</time>
      </trkpt>
      <trkpt lat="46.79043" lon="6.46177">
        <ele>1316</ele>
        <time>2016-05-08T08:22:05.620Z</time>
      </trkpt>
      <trkpt lat="46.79045" lon="6.4618">
        <ele>1316</ele>
        <time>2016-05-08T08:22:07.620Z</time>
      </trkpt>
      <trkpt lat="46.79045" lon="6.46184">
        <ele>1316</ele>
        <time>2016-05-08T08:22:09.620Z</time>
      </trkpt>
      <trkpt lat="46.79046" lon="6.46188">
        <ele>1317</ele>
        <time>2016-05-08T08:22:11.620Z</time>
      </trkpt>
      <trkpt lat="46.79047" lon="6.46192">
        <ele>1317</ele>
        <time>2016-05-08T08:22:13.620Z</time>
      </trkpt>
      <trkpt lat="46.79047" lon="6.46196">
        <ele>1317</ele>
        <time>2016-05-08T08:22:15.620Z</time>
      </trkpt>
      <trkpt lat="46.79048" lon="6.462">
        <ele>1317</ele>
        <time>2016-05-08T08:22:17.620Z</time>
      </trkpt>
      <trkpt lat="46.7905" lon="6.46203">
        <ele>1317</ele>
        <time>2016-05-08T08:22:19.620Z</time>
      </trkpt>
      <trkpt lat="46.79051" lon="6.46206">
        <ele>1318</ele>
        <time>2016-05-08T08:22:21.620Z</time>
      </trkpt>
      <trkpt lat="46.79052" lon="6.46209">
        <ele>1318</ele>
        <time>2016-05-08T08:22:23.620Z</time>
      </trkpt>
      <trkpt lat="46.79053" lon="6.46212">
        <ele>1318</ele>
        <time>2016-05-08T08:22:25.620Z</time>
      </trkpt>
      <trkpt lat="46.79055" lon="6.46216">
        <ele>1318</ele>
        <time>2016-05-08T08:22:28.620Z</time>
      </trkpt>
      <trkpt lat="46.79056" lon="6.46219">
        <ele>1318</ele>
        <time>2016-05-08T08:22:30.620Z</time>
      </trkpt>
      <trkpt lat="46.79058" lon="6.46225">
        <ele>1318</ele>
        <time>2016-05-08T08:22:33.620Z</time>
      </trkpt>
      <trkpt lat="46.79059" lon="6.46228">
        <ele>1318</ele>
        <time>2016-05-08T08:22:35.620Z</time>
      </trkpt>
      <trkpt lat="46.79061" lon="6.46232">
        <ele>1318</ele>
        <time>2016-05-08T08:22:37.620Z</time>
      </trkpt>
      <trkpt lat="46.79061" lon="6.46234">
        <ele>1318</ele>
        <time>2016-05-08T08:22:39.620Z</time>
      </trkpt>
      <trkpt lat="46.79062" lon="6.46237">
        <ele>1318</ele>
        <time>2016-05-08T08:22:41.620Z</time>
      </trkpt>
      <trkpt lat="46.79063" lon="6.46239">
        <ele>1318</ele>
        <time>2016-05-08T08:22:43.620Z</time>
      </trkpt>
      <trkpt lat="46.79063" lon="6.46242">
        <ele>1318</ele>
        <time>2016-05-08T08:22:45.620Z</time>
      </trkpt>
      <trkpt lat="46.79064" lon="6.46245">
        <ele>1318</ele>
        <time>2016-05-08T08:22:46.620Z</time>
      </trkpt>
      <trkpt lat="46.79065" lon="6.46248">
        <ele>1318</ele>
        <time>2016-05-08T08:22:48.620Z</time>
      </trkpt>
      <trkpt lat="46.79067" lon="6.46252">
        <ele>1318</ele>
        <time>2016-05-08T08:22:50.620Z</time>
      </trkpt>
      <trkpt lat="46.79068" lon="6.46256">
        <ele>1318</ele>
        <time>2016-05-08T08:22:52.620Z</time>
      </trkpt>
      <trkpt lat="46.7907" lon="6.4626">
        <ele>1318</ele>
        <time>2016-05-08T08:22:54.620Z</time>
      </trkpt>
      <trkpt lat="46.79071" lon="6.46264">
        <ele>1318</ele>
        <time>2016-05-08T08:22:56.620Z</time>
      </trkpt>
      <trkpt lat="46.79072" lon="6.46266">
        <ele>1318</ele>
        <time>2016-05-08T08:22:58.620Z</time>
      </trkpt>
      <trkpt lat="46.79075" lon="6.4627">
        <ele>1317</ele>
        <time>2016-05-08T08:23:00.620Z</time>
      </trkpt>
      <trkpt lat="46.79077" lon="6.46273">
        <ele>1317</ele>
        <time>2016-05-08T08:23:02.620Z</time>
      </trkpt>
      <trkpt lat="46.79078" lon="6.46277">
        <ele>1317</ele>
        <time>2016-05-08T08:23:04.620Z</time>
      </trkpt>
      <trkpt lat="46.7908" lon="6.4628">
        <ele>1317</ele>
        <time>2016-05-08T08:23:06.620Z</time>
      </trkpt>
      <trkpt lat="46.79081" lon="6.46284">
        <ele>1317</ele>
        <time>2016-05-08T08:23:09.620Z</time>
      </trkpt>
      <trkpt lat="46.79082" lon="6.46288">
        <ele>1318</ele>
        <time>2016-05-08T08:23:12.620Z</time>
      </trkpt>
      <trkpt lat="46.79084" lon="6.46291">
        <ele>1318</ele>
        <time>2016-05-08T08:23:14.620Z</time>
      </trkpt>
      <trkpt lat="46.79086" lon="6.46295">
        <ele>1318</ele>
        <time>2016-05-08T08:23:16.620Z</time>
      </trkpt>
      <trkpt lat="46.79088" lon="6.46298">
        <ele>1318</ele>
        <time>2016-05-08T08:23:18.620Z</time>
      </trkpt>
      <trkpt lat="46.79089" lon="6.46301">
        <ele>1318</ele>
        <time>2016-05-08T08:23:20.620Z</time>
      </trkpt>
      <trkpt lat="46.79089" lon="6.46303">
        <ele>1318</ele>
        <time>2016-05-08T08:23:22.620Z</time>
      </trkpt>
      <trkpt lat="46.7909" lon="6.46306">
        <ele>1318</ele>
        <time>2016-05-08T08:23:24.620Z</time>
      </trkpt>
      <trkpt lat="46.79091" lon="6.46309">
        <ele>1318</ele>
        <time>2016-05-08T08:23:26.620Z</time>
      </trkpt>
      <trkpt lat="46.79092" lon="6.46312">
        <ele>1318</ele>
        <time>2016-05-08T08:23:28.620Z</time>
      </trkpt>
      <trkpt lat="46.79095" lon="6.46316">
        <ele>1318</ele>
        <time>2016-05-08T08:23:31.620Z</time>
      </trkpt>
      <trkpt lat="46.79097" lon="6.46319">
        <ele>1319</ele>
        <time>2016-05-08T08:23:33.620Z</time>
      </trkpt>
      <trkpt lat="46.79098" lon="6.46322">
        <ele>1319</ele>
        <time>2016-05-08T08:23:35.620Z</time>
      </trkpt>
      <trkpt lat="46.79099" lon="6.46326">
        <ele>1319</ele>
        <time>2016-05-08T08:23:38.620Z</time>
      </trkpt>
      <trkpt lat="46.79101" lon="6.46329">
        <ele>1320.9799808</ele>
        <time>2016-05-08T08:23:41.620Z</time>
      </trkpt>
      <trkpt lat="46.79102" lon="6.46332">
        <ele>1321</ele>
        <time>2016-05-08T08:23:43.620Z</time>
      </trkpt>
      <trkpt lat="46.79103" lon="6.46334">
        <ele>1321</ele>
        <time>2016-05-08T08:23:45.620Z</time>
      </trkpt>
      <trkpt lat="46.79105" lon="6.46337">
        <ele>1321</ele>
        <time>2016-05-08T08:23:47.620Z</time>
      </trkpt>
      <trkpt lat="46.79106" lon="6.46339">
        <ele>1321</ele>
        <time>2016-05-08T08:23:49.620Z</time>
      </trkpt>
      <trkpt lat="46.79107" lon="6.46342">
        <ele>1321</ele>
        <time>2016-05-08T08:23:51.620Z</time>
      </trkpt>
      <trkpt lat="46.79108" lon="6.46347">
        <ele>1321</ele>
        <time>2016-05-08T08:23:55.620Z</time>
      </trkpt>
      <trkpt lat="46.7911" lon="6.46349">
        <ele>1321</ele>
        <time>2016-05-08T08:23:57.620Z</time>
      </trkpt>
      <trkpt lat="46.79112" lon="6.46352">
        <ele>1321</ele>
        <time>2016-05-08T08:23:59.620Z</time>
      </trkpt>
      <trkpt lat="46.79115" lon="6.46355">
        <ele>1322.9799808</ele>
        <time>2016-05-08T08:24:01.620Z</time>
      </trkpt>
      <trkpt lat="46.79116" lon="6.46358">
        <ele>1323</ele>
        <time>2016-05-08T08:24:03.620Z</time>
      </trkpt>
      <trkpt lat="46.79119" lon="6.46362">
        <ele>1323</ele>
        <time>2016-05-08T08:24:06.620Z</time>
      </trkpt>
      <trkpt lat="46.79122" lon="6.46368">
        <ele>1323</ele>
        <time>2016-05-08T08:24:11.620Z</time>
      </trkpt>
      <trkpt lat="46.79123" lon="6.46371">
        <ele>1323</ele>
        <time>2016-05-08T08:24:13.620Z</time>
      </trkpt>
      <trkpt lat="46.79125" lon="6.46373">
        <ele>1323</ele>
        <time>2016-05-08T08:24:15.620Z</time>
      </trkpt>
      <trkpt lat="46.79129" lon="6.46379">
        <ele>1324</ele>
        <time>2016-05-08T08:24:22.620Z</time>
      </trkpt>
      <trkpt lat="46.7913" lon="6.46382">
        <ele>1324</ele>
        <time>2016-05-08T08:24:24.620Z</time>
      </trkpt>
      <trkpt lat="46.79132" lon="6.46384">
        <ele>1324</ele>
        <time>2016-05-08T08:24:26.620Z</time>
      </trkpt>
      <trkpt lat="46.79134" lon="6.46387">
        <ele>1324</ele>
        <time>2016-05-08T08:24:28.620Z</time>
      </trkpt>
      <trkpt lat="46.79136" lon="6.46389">
        <ele>1324</ele>
        <time>2016-05-08T08:24:30.620Z</time>
      </trkpt>
      <trkpt lat="46.79138" lon="6.46393">
        <ele>1325</ele>
        <time>2016-05-08T08:24:32.620Z</time>
      </trkpt>
      <trkpt lat="46.7914" lon="6.46396">
        <ele>1325</ele>
        <time>2016-05-08T08:24:34.620Z</time>
      </trkpt>
      <trkpt lat="46.79142" lon="6.46399">
        <ele>1325</ele>
        <time>2016-05-08T08:24:36.620Z</time>
      </trkpt>
      <trkpt lat="46.79144" lon="6.46402">
        <ele>1325</ele>
        <time>2016-05-08T08:24:38.620Z</time>
      </trkpt>
      <trkpt lat="46.79145" lon="6.46406">
        <ele>1325</ele>
        <time>2016-05-08T08:24:40.620Z</time>
      </trkpt>
      <trkpt lat="46.79146" lon="6.4641">
        <ele>1325</ele>
        <time>2016-05-08T08:24:42.620Z</time>
      </trkpt>
      <trkpt lat="46.79147" lon="6.46413">
        <ele>1325</ele>
        <time>2016-05-08T08:24:44.620Z</time>
      </trkpt>
      <trkpt lat="46.79149" lon="6.46416">
        <ele>1325</ele>
        <time>2016-05-08T08:24:46.620Z</time>
      </trkpt>
      <trkpt lat="46.7915" lon="6.46419">
        <ele>1325</ele>
        <time>2016-05-08T08:24:48.620Z</time>
      </trkpt>
      <trkpt lat="46.79152" lon="6.46423">
        <ele>1325</ele>
        <time>2016-05-08T08:24:50.620Z</time>
      </trkpt>
      <trkpt lat="46.79154" lon="6.46425">
        <ele>1325</ele>
        <time>2016-05-08T08:24:52.620Z</time>
      </trkpt>
      <trkpt lat="46.79156" lon="6.46429">
        <ele>1325</ele>
        <time>2016-05-08T08:24:54.620Z</time>
      </trkpt>
      <trkpt lat="46.79158" lon="6.46432">
        <ele>1325</ele>
        <time>2016-05-08T08:24:56.620Z</time>
      </trkpt>
      <trkpt lat="46.7916" lon="6.46435">
        <ele>1325</ele>
        <time>2016-05-08T08:24:58.620Z</time>
      </trkpt>
      <trkpt lat="46.79162" lon="6.46438">
        <ele>1325</ele>
        <time>2016-05-08T08:25:00.620Z</time>
      </trkpt>
      <trkpt lat="46.79164" lon="6.4644">
        <ele>1325</ele>
        <time>2016-05-08T08:25:02.620Z</time>
      </trkpt>
      <trkpt lat="46.79166" lon="6.46442">
        <ele>1325</ele>
        <time>2016-05-08T08:25:04.620Z</time>
      </trkpt>
      <trkpt lat="46.79168" lon="6.46444">
        <ele>1325</ele>
        <time>2016-05-08T08:25:06.620Z</time>
      </trkpt>
      <trkpt lat="46.79169" lon="6.46447">
        <ele>1325</ele>
        <time>2016-05-08T08:25:09.620Z</time>
      </trkpt>
      <trkpt lat="46.79171" lon="6.46449">
        <ele>1325</ele>
        <time>2016-05-08T08:25:11.620Z</time>
      </trkpt>
      <trkpt lat="46.79172" lon="6.46451">
        <ele>1325</ele>
        <time>2016-05-08T08:25:13.620Z</time>
      </trkpt>
      <trkpt lat="46.79174" lon="6.46454">
        <ele>1325</ele>
        <time>2016-05-08T08:25:15.620Z</time>
      </trkpt>
      <trkpt lat="46.79176" lon="6.46457">
        <ele>1325</ele>
        <time>2016-05-08T08:25:17.620Z</time>
      </trkpt>
      <trkpt lat="46.79177" lon="6.4646">
        <ele>1325</ele>
        <time>2016-05-08T08:25:19.620Z</time>
      </trkpt>
      <trkpt lat="46.79179" lon="6.46465">
        <ele>1325</ele>
        <time>2016-05-08T08:25:22.620Z</time>
      </trkpt>
      <trkpt lat="46.79184" lon="6.46471">
        <ele>1325</ele>
        <time>2016-05-08T08:25:26.620Z</time>
      </trkpt>
      <trkpt lat="46.79186" lon="6.46474">
        <ele>1325</ele>
        <time>2016-05-08T08:25:28.620Z</time>
      </trkpt>
      <trkpt lat="46.79189" lon="6.46479">
        <ele>1326</ele>
        <time>2016-05-08T08:25:31.620Z</time>
      </trkpt>
      <trkpt lat="46.7919" lon="6.46481">
        <ele>1326</ele>
        <time>2016-05-08T08:25:34.620Z</time>
      </trkpt>
      <trkpt lat="46.79191" lon="6.46484">
        <ele>1326</ele>
        <time>2016-05-08T08:25:40.620Z</time>
      </trkpt>
      <trkpt lat="46.79193" lon="6.46487">
        <ele>1326</ele>
        <time>2016-05-08T08:25:42.620Z</time>
      </trkpt>
      <trkpt lat="46.79196" lon="6.46493">
        <ele>1326</ele>
        <time>2016-05-08T08:25:45.620Z</time>
      </trkpt>
      <trkpt lat="46.79197" lon="6.46497">
        <ele>1326</ele>
        <time>2016-05-08T08:25:47.620Z</time>
      </trkpt>
      <trkpt lat="46.79198" lon="6.46501">
        <ele>1326</ele>
        <time>2016-05-08T08:25:49.620Z</time>
      </trkpt>
      <trkpt lat="46.792" lon="6.46504">
        <ele>1325.0100096</ele>
        <time>2016-05-08T08:25:51.620Z</time>
      </trkpt>
      <trkpt lat="46.792" lon="6.46508">
        <ele>1325</ele>
        <time>2016-05-08T08:25:53.620Z</time>
      </trkpt>
      <trkpt lat="46.79201" lon="6.46512">
        <ele>1325</ele>
        <time>2016-05-08T08:25:55.620Z</time>
      </trkpt>
      <trkpt lat="46.79202" lon="6.46515">
        <ele>1325</ele>
        <time>2016-05-08T08:25:57.620Z</time>
      </trkpt>
      <trkpt lat="46.79202" lon="6.46518">
        <ele>1325</ele>
        <time>2016-05-08T08:25:59.620Z</time>
      </trkpt>
      <trkpt lat="46.79203" lon="6.46522">
        <ele>1325</ele>
        <time>2016-05-08T08:26:01.620Z</time>
      </trkpt>
      <trkpt lat="46.79204" lon="6.46525">
        <ele>1325</ele>
        <time>2016-05-08T08:26:03.620Z</time>
      </trkpt>
      <trkpt lat="46.79203" lon="6.46522">
        <ele>1325</ele>
        <time>2016-05-08T08:26:07.620Z</time>
      </trkpt>
      <trkpt lat="46.79202" lon="6.46519">
        <ele>1325</ele>
        <time>2016-05-08T08:26:09.620Z</time>
      </trkpt>
      <trkpt lat="46.79201" lon="6.46517">
        <ele>1325</ele>
        <time>2016-05-08T08:26:11.620Z</time>
      </trkpt>
      <trkpt lat="46.79199" lon="6.46519">
        <ele>1325</ele>
        <time>2016-05-08T08:26:15.620Z</time>
      </trkpt>
      <trkpt lat="46.79198" lon="6.46521">
        <ele>1325</ele>
        <time>2016-05-08T08:26:17.620Z</time>
      </trkpt>
      <trkpt lat="46.79196" lon="6.46523">
        <ele>1325</ele>
        <time>2016-05-08T08:26:19.620Z</time>
      </trkpt>
      <trkpt lat="46.79194" lon="6.46525">
        <ele>1325.9755869131</ele>
        <time>2016-05-08T08:26:21.620Z</time>
      </trkpt>
      <trkpt lat="46.79192" lon="6.46526">
        <ele>1326</ele>
        <time>2016-05-08T08:26:23.620Z</time>
      </trkpt>
      <trkpt lat="46.79189" lon="6.46528">
        <ele>1326</ele>
        <time>2016-05-08T08:26:25.620Z</time>
      </trkpt>
      <trkpt lat="46.79188" lon="6.4653">
        <ele>1326</ele>
        <time>2016-05-08T08:26:28.620Z</time>
      </trkpt>
      <trkpt lat="46.79188" lon="6.46533">
        <ele>1326</ele>
        <time>2016-05-08T08:26:30.620Z</time>
      </trkpt>
      <trkpt lat="46.79189" lon="6.46536">
        <ele>1328</ele>
        <time>2016-05-08T08:26:32.620Z</time>
      </trkpt>
      <trkpt lat="46.79188" lon="6.46539">
        <ele>1328</ele>
        <time>2016-05-08T08:26:34.620Z</time>
      </trkpt>
      <trkpt lat="46.79187" lon="6.46542">
        <ele>1328</ele>
        <time>2016-05-08T08:26:36.620Z</time>
      </trkpt>
      <trkpt lat="46.79186" lon="6.46544">
        <ele>1328</ele>
        <time>2016-05-08T08:26:38.620Z</time>
      </trkpt>
      <trkpt lat="46.79185" lon="6.46547">
        <ele>1328</ele>
        <time>2016-05-08T08:26:40.620Z</time>
      </trkpt>
      <trkpt lat="46.79184" lon="6.4655">
        <ele>1330</ele>
        <time>2016-05-08T08:26:42.620Z</time>
      </trkpt>
      <trkpt lat="46.79183" lon="6.46552">
        <ele>1330</ele>
        <time>2016-05-08T08:26:44.620Z</time>
      </trkpt>
      <trkpt lat="46.79183" lon="6.46556">
        <ele>1330</ele>
        <time>2016-05-08T08:26:47.620Z</time>
      </trkpt>
      <trkpt lat="46.79181" lon="6.46558">
        <ele>1330</ele>
        <time>2016-05-08T08:26:49.620Z</time>
      </trkpt>
      <trkpt lat="46.79181" lon="6.46561">
        <ele>1331</ele>
        <time>2016-05-08T08:26:52.620Z</time>
      </trkpt>
      <trkpt lat="46.79179" lon="6.46564">
        <ele>1331</ele>
        <time>2016-05-08T08:26:55.620Z</time>
      </trkpt>
      <trkpt lat="46.79178" lon="6.46567">
        <ele>1331</ele>
        <time>2016-05-08T08:26:57.620Z</time>
      </trkpt>
      <trkpt lat="46.79177" lon="6.46569">
        <ele>1331</ele>
        <time>2016-05-08T08:26:59.620Z</time>
      </trkpt>
      <trkpt lat="46.79176" lon="6.46573">
        <ele>1329.0200192</ele>
        <time>2016-05-08T08:27:01.620Z</time>
      </trkpt>
      <trkpt lat="46.79175" lon="6.46575">
        <ele>1329</ele>
        <time>2016-05-08T08:27:03.620Z</time>
      </trkpt>
      <trkpt lat="46.79173" lon="6.46577">
        <ele>1329</ele>
        <time>2016-05-08T08:27:05.620Z</time>
      </trkpt>
      <trkpt lat="46.79171" lon="6.4658">
        <ele>1329</ele>
        <time>2016-05-08T08:27:07.620Z</time>
      </trkpt>
      <trkpt lat="46.79169" lon="6.46584">
        <ele>1329</ele>
        <time>2016-05-08T08:27:09.620Z</time>
      </trkpt>
      <trkpt lat="46.79167" lon="6.46587">
        <ele>1329</ele>
        <time>2016-05-08T08:27:11.620Z</time>
      </trkpt>
      <trkpt lat="46.79165" lon="6.46591">
        <ele>1329</ele>
        <time>2016-05-08T08:27:13.620Z</time>
      </trkpt>
      <trkpt lat="46.79164" lon="6.46594">
        <ele>1329</ele>
        <time>2016-05-08T08:27:15.620Z</time>
      </trkpt>
      <trkpt lat="46.79163" lon="6.46597">
        <ele>1329</ele>
        <time>2016-05-08T08:27:17.620Z</time>
      </trkpt>
      <trkpt lat="46.79164" lon="6.466">
        <ele>1329</ele>
        <time>2016-05-08T08:27:20.620Z</time>
      </trkpt>
      <trkpt lat="46.79165" lon="6.46603">
        <ele>1330</ele>
        <time>2016-05-08T08:27:22.620Z</time>
      </trkpt>
      <trkpt lat="46.79167" lon="6.46605">
        <ele>1330</ele>
        <time>2016-05-08T08:27:24.620Z</time>
      </trkpt>
      <trkpt lat="46.79168" lon="6.46608">
        <ele>1330</ele>
        <time>2016-05-08T08:27:26.620Z</time>
      </trkpt>
      <trkpt lat="46.7917" lon="6.46611">
        <ele>1330</ele>
        <time>2016-05-08T08:27:28.620Z</time>
      </trkpt>
      <trkpt lat="46.79171" lon="6.46614">
        <ele>1330</ele>
        <time>2016-05-08T08:27:30.620Z</time>
      </trkpt>
      <trkpt lat="46.79173" lon="6.46616">
        <ele>1330</ele>
        <time>2016-05-08T08:27:32.620Z</time>
      </trkpt>
      <trkpt lat="46.79174" lon="6.46619">
        <ele>1330</ele>
        <time>2016-05-08T08:27:34.620Z</time>
      </trkpt>
      <trkpt lat="46.79175" lon="6.46622">
        <ele>1330</ele>
        <time>2016-05-08T08:27:36.620Z</time>
      </trkpt>
      <trkpt lat="46.79176" lon="6.46624">
        <ele>1330</ele>
        <time>2016-05-08T08:27:38.620Z</time>
      </trkpt>
      <trkpt lat="46.79177" lon="6.46627">
        <ele>1330</ele>
        <time>2016-05-08T08:27:40.620Z</time>
      </trkpt>
      <trkpt lat="46.79179" lon="6.46631">
        <ele>1332</ele>
        <time>2016-05-08T08:27:42.620Z</time>
      </trkpt>
      <trkpt lat="46.79179" lon="6.46634">
        <ele>1332</ele>
        <time>2016-05-08T08:27:44.620Z</time>
      </trkpt>
      <trkpt lat="46.7918" lon="6.46638">
        <ele>1332</ele>
        <time>2016-05-08T08:27:46.620Z</time>
      </trkpt>
      <trkpt lat="46.7918" lon="6.46641">
        <ele>1332</ele>
        <time>2016-05-08T08:27:48.620Z</time>
      </trkpt>
      <trkpt lat="46.7918" lon="6.46644">
        <ele>1332</ele>
        <time>2016-05-08T08:27:50.620Z</time>
      </trkpt>
      <trkpt lat="46.7918" lon="6.46647">
        <ele>1333</ele>
        <time>2016-05-08T08:27:52.620Z</time>
      </trkpt>
      <trkpt lat="46.79181" lon="6.4665">
        <ele>1333</ele>
        <time>2016-05-08T08:27:54.620Z</time>
      </trkpt>
      <trkpt lat="46.79182" lon="6.46653">
        <ele>1333</ele>
        <time>2016-05-08T08:27:56.620Z</time>
      </trkpt>
      <trkpt lat="46.79184" lon="6.46656">
        <ele>1333</ele>
        <time>2016-05-08T08:27:58.620Z</time>
      </trkpt>
      <trkpt lat="46.79184" lon="6.46659">
        <ele>1333</ele>
        <time>2016-05-08T08:28:00.620Z</time>
      </trkpt>
      <trkpt lat="46.79184" lon="6.46662">
        <ele>1335</ele>
        <time>2016-05-08T08:28:02.620Z</time>
      </trkpt>
      <trkpt lat="46.79184" lon="6.46665">
        <ele>1335</ele>
        <time>2016-05-08T08:28:04.620Z</time>
      </trkpt>
      <trkpt lat="46.79184" lon="6.46669">
        <ele>1335</ele>
        <time>2016-05-08T08:28:07.620Z</time>
      </trkpt>
      <trkpt lat="46.79184" lon="6.46673">
        <ele>1335</ele>
        <time>2016-05-08T08:28:10.620Z</time>
      </trkpt>
      <trkpt lat="46.79183" lon="6.46675">
        <ele>1337</ele>
        <time>2016-05-08T08:28:13.620Z</time>
      </trkpt>
      <trkpt lat="46.79182" lon="6.46678">
        <ele>1337</ele>
        <time>2016-05-08T08:28:16.620Z</time>
      </trkpt>
      <trkpt lat="46.79181" lon="6.46681">
        <ele>1337</ele>
        <time>2016-05-08T08:28:19.620Z</time>
      </trkpt>
      <trkpt lat="46.79181" lon="6.4669">
        <ele>1341</ele>
        <time>2016-05-08T08:28:32.620Z</time>
      </trkpt>
      <trkpt lat="46.79181" lon="6.46694">
        <ele>1341</ele>
        <time>2016-05-08T08:28:35.620Z</time>
      </trkpt>
      <trkpt lat="46.79181" lon="6.46697">
        <ele>1341</ele>
        <time>2016-05-08T08:28:38.620Z</time>
      </trkpt>
      <trkpt lat="46.79181" lon="6.46701">
        <ele>1343</ele>
        <time>2016-05-08T08:28:42.620Z</time>
      </trkpt>
      <trkpt lat="46.79181" lon="6.46704">
        <ele>1343</ele>
        <time>2016-05-08T08:28:45.620Z</time>
      </trkpt>
      <trkpt lat="46.79182" lon="6.46708">
        <ele>1344</ele>
        <time>2016-05-08T08:28:48.620Z</time>
      </trkpt>
      <trkpt lat="46.79183" lon="6.4671">
        <ele>1345</ele>
        <time>2016-05-08T08:28:51.620Z</time>
      </trkpt>
      <trkpt lat="46.79187" lon="6.46715">
        <ele>1345</ele>
        <time>2016-05-08T08:28:57.620Z</time>
      </trkpt>
      <trkpt lat="46.79188" lon="6.46718">
        <ele>1345</ele>
        <time>2016-05-08T08:28:59.620Z</time>
      </trkpt>
      <trkpt lat="46.79188" lon="6.46722">
        <ele>1346.9799808</ele>
        <time>2016-05-08T08:29:01.620Z</time>
      </trkpt>
      <trkpt lat="46.79187" lon="6.46725">
        <ele>1347</ele>
        <time>2016-05-08T08:29:03.620Z</time>
      </trkpt>
      <trkpt lat="46.79188" lon="6.46728">
        <ele>1347</ele>
        <time>2016-05-08T08:29:05.620Z</time>
      </trkpt>
      <trkpt lat="46.79188" lon="6.46732">
        <ele>1347</ele>
        <time>2016-05-08T08:29:07.620Z</time>
      </trkpt>
      <trkpt lat="46.79189" lon="6.46735">
        <ele>1347</ele>
        <time>2016-05-08T08:29:09.620Z</time>
      </trkpt>
      <trkpt lat="46.7919" lon="6.46739">
        <ele>1347.7575734068</ele>
        <time>2016-05-08T08:29:11.620Z</time>
      </trkpt>
      <trkpt lat="46.79191" lon="6.46741">
        <ele>1348</ele>
        <time>2016-05-08T08:29:13.620Z</time>
      </trkpt>
      <trkpt lat="46.79193" lon="6.46744">
        <ele>1348</ele>
        <time>2016-05-08T08:29:15.620Z</time>
      </trkpt>
      <trkpt lat="46.79195" lon="6.46746">
        <ele>1348</ele>
        <time>2016-05-08T08:29:17.620Z</time>
      </trkpt>
      <trkpt lat="46.79196" lon="6.46748">
        <ele>1348</ele>
        <time>2016-05-08T08:29:19.620Z</time>
      </trkpt>
      <trkpt lat="46.79198" lon="6.4675">
        <ele>1348.9899904</ele>
        <time>2016-05-08T08:29:21.620Z</time>
      </trkpt>
      <trkpt lat="46.792" lon="6.46753">
        <ele>1349</ele>
        <time>2016-05-08T08:29:24.620Z</time>
      </trkpt>
      <trkpt lat="46.79202" lon="6.46754">
        <ele>1349</ele>
        <time>2016-05-08T08:29:26.620Z</time>
      </trkpt>
      <trkpt lat="46.79203" lon="6.46756">
        <ele>1349</ele>
        <time>2016-05-08T08:29:28.620Z</time>
      </trkpt>
      <trkpt lat="46.79205" lon="6.46758">
        <ele>1349</ele>
        <time>2016-05-08T08:29:30.620Z</time>
      </trkpt>
      <trkpt lat="46.79206" lon="6.4676">
        <ele>1351</ele>
        <time>2016-05-08T08:29:32.620Z</time>
      </trkpt>
      <trkpt lat="46.79208" lon="6.46762">
        <ele>1351</ele>
        <time>2016-05-08T08:29:34.620Z</time>
      </trkpt>
      <trkpt lat="46.7921" lon="6.46765">
        <ele>1351</ele>
        <time>2016-05-08T08:29:36.620Z</time>
      </trkpt>
      <trkpt lat="46.79211" lon="6.46767">
        <ele>1351</ele>
        <time>2016-05-08T08:29:38.620Z</time>
      </trkpt>
      <trkpt lat="46.79213" lon="6.46769">
        <ele>1351</ele>
        <time>2016-05-08T08:29:40.620Z</time>
      </trkpt>
      <trkpt lat="46.79214" lon="6.46771">
        <ele>1352</ele>
        <time>2016-05-08T08:29:42.620Z</time>
      </trkpt>
      <trkpt lat="46.79216" lon="6.46773">
        <ele>1352</ele>
        <time>2016-05-08T08:29:44.620Z</time>
      </trkpt>
      <trkpt lat="46.79217" lon="6.46775">
        <ele>1352</ele>
        <time>2016-05-08T08:29:46.620Z</time>
      </trkpt>
      <trkpt lat="46.79219" lon="6.46778">
        <ele>1352</ele>
        <time>2016-05-08T08:29:48.620Z</time>
      </trkpt>
      <trkpt lat="46.79221" lon="6.46779">
        <ele>1352</ele>
        <time>2016-05-08T08:29:50.620Z</time>
      </trkpt>
      <trkpt lat="46.79223" lon="6.46781">
        <ele>1353</ele>
        <time>2016-05-08T08:29:52.620Z</time>
      </trkpt>
      <trkpt lat="46.79224" lon="6.46784">
        <ele>1353</ele>
        <time>2016-05-08T08:29:54.620Z</time>
      </trkpt>
      <trkpt lat="46.79225" lon="6.46786">
        <ele>1353</ele>
        <time>2016-05-08T08:29:56.620Z</time>
      </trkpt>
      <trkpt lat="46.79227" lon="6.46788">
        <ele>1353</ele>
        <time>2016-05-08T08:29:58.620Z</time>
      </trkpt>
      <trkpt lat="46.79228" lon="6.46791">
        <ele>1353</ele>
        <time>2016-05-08T08:30:00.620Z</time>
      </trkpt>
      <trkpt lat="46.79229" lon="6.46794">
        <ele>1356</ele>
        <time>2016-05-08T08:30:02.620Z</time>
      </trkpt>
      <trkpt lat="46.79231" lon="6.46797">
        <ele>1356</ele>
        <time>2016-05-08T08:30:04.620Z</time>
      </trkpt>
      <trkpt lat="46.79232" lon="6.46799">
        <ele>1356</ele>
        <time>2016-05-08T08:30:06.620Z</time>
      </trkpt>
      <trkpt lat="46.79233" lon="6.46801">
        <ele>1356</ele>
        <time>2016-05-08T08:30:08.620Z</time>
      </trkpt>
      <trkpt lat="46.79235" lon="6.46803">
        <ele>1356</ele>
        <time>2016-05-08T08:30:10.620Z</time>
      </trkpt>
      <trkpt lat="46.79236" lon="6.46806">
        <ele>1356</ele>
        <time>2016-05-08T08:30:12.620Z</time>
      </trkpt>
      <trkpt lat="46.79238" lon="6.46809">
        <ele>1356</ele>
        <time>2016-05-08T08:30:14.620Z</time>
      </trkpt>
      <trkpt lat="46.79239" lon="6.46811">
        <ele>1356</ele>
        <time>2016-05-08T08:30:16.620Z</time>
      </trkpt>
      <trkpt lat="46.7924" lon="6.46814">
        <ele>1356</ele>
        <time>2016-05-08T08:30:18.620Z</time>
      </trkpt>
      <trkpt lat="46.79241" lon="6.46817">
        <ele>1356</ele>
        <time>2016-05-08T08:30:20.620Z</time>
      </trkpt>
      <trkpt lat="46.79243" lon="6.46819">
        <ele>1357</ele>
        <time>2016-05-08T08:30:22.620Z</time>
      </trkpt>
      <trkpt lat="46.79244" lon="6.46821">
        <ele>1357</ele>
        <time>2016-05-08T08:30:24.620Z</time>
      </trkpt>
      <trkpt lat="46.79246" lon="6.46824">
        <ele>1357</ele>
        <time>2016-05-08T08:30:26.620Z</time>
      </trkpt>
      <trkpt lat="46.79247" lon="6.46827">
        <ele>1357</ele>
        <time>2016-05-08T08:30:28.620Z</time>
      </trkpt>
      <trkpt lat="46.79249" lon="6.4683">
        <ele>1358</ele>
        <time>2016-05-08T08:30:31.620Z</time>
      </trkpt>
      <trkpt lat="46.79251" lon="6.46833">
        <ele>1358</ele>
        <time>2016-05-08T08:30:33.620Z</time>
      </trkpt>
      <trkpt lat="46.79252" lon="6.46835">
        <ele>1358</ele>
        <time>2016-05-08T08:30:35.620Z</time>
      </trkpt>
      <trkpt lat="46.79253" lon="6.46838">
        <ele>1358</ele>
        <time>2016-05-08T08:30:37.620Z</time>
      </trkpt>
      <trkpt lat="46.79255" lon="6.46841">
        <ele>1358</ele>
        <time>2016-05-08T08:30:39.620Z</time>
      </trkpt>
      <trkpt lat="46.79256" lon="6.46844">
        <ele>1360.9699712</ele>
        <time>2016-05-08T08:30:41.620Z</time>
      </trkpt>
      <trkpt lat="46.79257" lon="6.46847">
        <ele>1361</ele>
        <time>2016-05-08T08:30:43.620Z</time>
      </trkpt>
      <trkpt lat="46.79259" lon="6.4685">
        <ele>1361</ele>
        <time>2016-05-08T08:30:45.620Z</time>
      </trkpt>
      <trkpt lat="46.7926" lon="6.46852">
        <ele>1361</ele>
        <time>2016-05-08T08:30:47.620Z</time>
      </trkpt>
      <trkpt lat="46.79261" lon="6.46855">
        <ele>1361</ele>
        <time>2016-05-08T08:30:49.620Z</time>
      </trkpt>
      <trkpt lat="46.79262" lon="6.46858">
        <ele>1363</ele>
        <time>2016-05-08T08:30:51.620Z</time>
      </trkpt>
      <trkpt lat="46.79264" lon="6.4686">
        <ele>1363</ele>
        <time>2016-05-08T08:30:53.620Z</time>
      </trkpt>
      <trkpt lat="46.79266" lon="6.46863">
        <ele>1363</ele>
        <time>2016-05-08T08:30:55.620Z</time>
      </trkpt>
      <trkpt lat="46.79267" lon="6.46866">
        <ele>1363</ele>
        <time>2016-05-08T08:30:57.620Z</time>
      </trkpt>
      <trkpt lat="46.79268" lon="6.46869">
        <ele>1363</ele>
        <time>2016-05-08T08:30:59.620Z</time>
      </trkpt>
      <trkpt lat="46.7927" lon="6.46871">
        <ele>1363</ele>
        <time>2016-05-08T08:31:01.620Z</time>
      </trkpt>
      <trkpt lat="46.79271" lon="6.46874">
        <ele>1363</ele>
        <time>2016-05-08T08:31:03.620Z</time>
      </trkpt>
      <trkpt lat="46.79272" lon="6.46877">
        <ele>1363</ele>
        <time>2016-05-08T08:31:05.620Z</time>
      </trkpt>
      <trkpt lat="46.79274" lon="6.46879">
        <ele>1363</ele>
        <time>2016-05-08T08:31:07.620Z</time>
      </trkpt>
      <trkpt lat="46.79276" lon="6.46881">
        <ele>1363</ele>
        <time>2016-05-08T08:31:09.620Z</time>
      </trkpt>
      <trkpt lat="46.79277" lon="6.46884">
        <ele>1363.9899904</ele>
        <time>2016-05-08T08:31:11.620Z</time>
      </trkpt>
      <trkpt lat="46.79278" lon="6.46887">
        <ele>1364</ele>
        <time>2016-05-08T08:31:13.620Z</time>
      </trkpt>
      <trkpt lat="46.79279" lon="6.46889">
        <ele>1364</ele>
        <time>2016-05-08T08:31:15.620Z</time>
      </trkpt>
      <trkpt lat="46.79281" lon="6.46891">
        <ele>1364</ele>
        <time>2016-05-08T08:31:17.620Z</time>
      </trkpt>
      <trkpt lat="46.79282" lon="6.46893">
        <ele>1364</ele>
        <time>2016-05-08T08:31:19.620Z</time>
      </trkpt>
      <trkpt lat="46.79284" lon="6.46895">
        <ele>1365.9799808</ele>
        <time>2016-05-08T08:31:21.620Z</time>
      </trkpt>
      <trkpt lat="46.79285" lon="6.46898">
        <ele>1366</ele>
        <time>2016-05-08T08:31:23.620Z</time>
      </trkpt>
      <trkpt lat="46.79287" lon="6.469">
        <ele>1366</ele>
        <time>2016-05-08T08:31:25.620Z</time>
      </trkpt>
      <trkpt lat="46.79288" lon="6.46903">
        <ele>1366</ele>
        <time>2016-05-08T08:31:27.620Z</time>
      </trkpt>
      <trkpt lat="46.7929" lon="6.46906">
        <ele>1366</ele>
        <time>2016-05-08T08:31:29.620Z</time>
      </trkpt>
      <trkpt lat="46.79291" lon="6.46908">
        <ele>1368</ele>
        <time>2016-05-08T08:31:31.620Z</time>
      </trkpt>
      <trkpt lat="46.79293" lon="6.46911">
        <ele>1368</ele>
        <time>2016-05-08T08:31:33.620Z</time>
      </trkpt>
      <trkpt lat="46.79294" lon="6.46914">
        <ele>1368</ele>
        <time>2016-05-08T08:31:35.620Z</time>
      </trkpt>
      <trkpt lat="46.79296" lon="6.46917">
        <ele>1368</ele>
        <time>2016-05-08T08:31:37.620Z</time>
      </trkpt>
      <trkpt lat="46.79298" lon="6.4692">
        <ele>1368</ele>
        <time>2016-05-08T08:31:39.620Z</time>
      </trkpt>
      <trkpt lat="46.79299" lon="6.46922">
        <ele>1369</ele>
        <time>2016-05-08T08:31:41.620Z</time>
      </trkpt>
      <trkpt lat="46.79301" lon="6.46925">
        <ele>1369</ele>
        <time>2016-05-08T08:31:43.620Z</time>
      </trkpt>
      <trkpt lat="46.79302" lon="6.46928">
        <ele>1369</ele>
        <time>2016-05-08T08:31:45.620Z</time>
      </trkpt>
      <trkpt lat="46.79303" lon="6.46931">
        <ele>1369</ele>
        <time>2016-05-08T08:31:47.620Z</time>
      </trkpt>
      <trkpt lat="46.79305" lon="6.46933">
        <ele>1369</ele>
        <time>2016-05-08T08:31:49.620Z</time>
      </trkpt>
      <trkpt lat="46.79306" lon="6.46936">
        <ele>1370.9799808</ele>
        <time>2016-05-08T08:31:51.620Z</time>
      </trkpt>
      <trkpt lat="46.79308" lon="6.46939">
        <ele>1371</ele>
        <time>2016-05-08T08:31:53.620Z</time>
      </trkpt>
      <trkpt lat="46.79309" lon="6.46942">
        <ele>1371</ele>
        <time>2016-05-08T08:31:55.620Z</time>
      </trkpt>
      <trkpt lat="46.7931" lon="6.46944">
        <ele>1371</ele>
        <time>2016-05-08T08:31:57.620Z</time>
      </trkpt>
      <trkpt lat="46.79312" lon="6.46947">
        <ele>1371</ele>
        <time>2016-05-08T08:31:59.620Z</time>
      </trkpt>
      <trkpt lat="46.79313" lon="6.4695">
        <ele>1371.9899904</ele>
        <time>2016-05-08T08:32:01.620Z</time>
      </trkpt>
      <trkpt lat="46.79315" lon="6.46952">
        <ele>1372</ele>
        <time>2016-05-08T08:32:04.620Z</time>
      </trkpt>
      <trkpt lat="46.79317" lon="6.46955">
        <ele>1372</ele>
        <time>2016-05-08T08:32:06.620Z</time>
      </trkpt>
      <trkpt lat="46.79318" lon="6.46957">
        <ele>1372</ele>
        <time>2016-05-08T08:32:08.620Z</time>
      </trkpt>
      <trkpt lat="46.7932" lon="6.4696">
        <ele>1372</ele>
        <time>2016-05-08T08:32:10.620Z</time>
      </trkpt>
      <trkpt lat="46.79321" lon="6.46962">
        <ele>1374</ele>
        <time>2016-05-08T08:32:12.620Z</time>
      </trkpt>
      <trkpt lat="46.79322" lon="6.46966">
        <ele>1374</ele>
        <time>2016-05-08T08:32:14.620Z</time>
      </trkpt>
      <trkpt lat="46.79324" lon="6.46969">
        <ele>1374</ele>
        <time>2016-05-08T08:32:16.620Z</time>
      </trkpt>
      <trkpt lat="46.79326" lon="6.46971">
        <ele>1374</ele>
        <time>2016-05-08T08:32:18.620Z</time>
      </trkpt>
      <trkpt lat="46.79327" lon="6.46974">
        <ele>1374</ele>
        <time>2016-05-08T08:32:20.620Z</time>
      </trkpt>
      <trkpt lat="46.79328" lon="6.46978">
        <ele>1376</ele>
        <time>2016-05-08T08:32:22.620Z</time>
      </trkpt>
      <trkpt lat="46.79329" lon="6.46981">
        <ele>1376</ele>
        <time>2016-05-08T08:32:24.620Z</time>
      </trkpt>
      <trkpt lat="46.79331" lon="6.46984">
        <ele>1376</ele>
        <time>2016-05-08T08:32:26.620Z</time>
      </trkpt>
      <trkpt lat="46.79332" lon="6.46986">
        <ele>1376</ele>
        <time>2016-05-08T08:32:28.620Z</time>
      </trkpt>
      <trkpt lat="46.79333" lon="6.46989">
        <ele>1376</ele>
        <time>2016-05-08T08:32:30.620Z</time>
      </trkpt>
      <trkpt lat="46.79334" lon="6.46992">
        <ele>1376</ele>
        <time>2016-05-08T08:32:32.620Z</time>
      </trkpt>
      <trkpt lat="46.79335" lon="6.46994">
        <ele>1376</ele>
        <time>2016-05-08T08:32:34.620Z</time>
      </trkpt>
      <trkpt lat="46.79337" lon="6.46998">
        <ele>1376</ele>
        <time>2016-05-08T08:32:36.620Z</time>
      </trkpt>
      <trkpt lat="46.79338" lon="6.47001">
        <ele>1376</ele>
        <time>2016-05-08T08:32:38.620Z</time>
      </trkpt>
      <trkpt lat="46.79341" lon="6.47005">
        <ele>1377.9709865321</ele>
        <time>2016-05-08T08:32:41.620Z</time>
      </trkpt>
      <trkpt lat="46.79342" lon="6.47007">
        <ele>1378</ele>
        <time>2016-05-08T08:32:43.620Z</time>
      </trkpt>
      <trkpt lat="46.79344" lon="6.4701">
        <ele>1378</ele>
        <time>2016-05-08T08:32:45.620Z</time>
      </trkpt>
      <trkpt lat="46.79346" lon="6.47013">
        <ele>1378</ele>
        <time>2016-05-08T08:32:47.620Z</time>
      </trkpt>
      <trkpt lat="46.79347" lon="6.47015">
        <ele>1378</ele>
        <time>2016-05-08T08:32:49.620Z</time>
      </trkpt>
      <trkpt lat="46.79349" lon="6.47019">
        <ele>1380</ele>
        <time>2016-05-08T08:32:51.620Z</time>
      </trkpt>
      <trkpt lat="46.7935" lon="6.47022">
        <ele>1380</ele>
        <time>2016-05-08T08:32:53.620Z</time>
      </trkpt>
      <trkpt lat="46.79352" lon="6.47025">
        <ele>1380</ele>
        <time>2016-05-08T08:32:55.620Z</time>
      </trkpt>
      <trkpt lat="46.79353" lon="6.47028">
        <ele>1380</ele>
        <time>2016-05-08T08:32:57.620Z</time>
      </trkpt>
      <trkpt lat="46.79355" lon="6.4703">
        <ele>1380</ele>
        <time>2016-05-08T08:32:59.620Z</time>
      </trkpt>
      <trkpt lat="46.79357" lon="6.47034">
        <ele>1380</ele>
        <time>2016-05-08T08:33:01.620Z</time>
      </trkpt>
      <trkpt lat="46.79358" lon="6.47037">
        <ele>1383</ele>
        <time>2016-05-08T08:33:03.620Z</time>
      </trkpt>
      <trkpt lat="46.79356" lon="6.47036">
        <ele>1383</ele>
        <time>2016-05-08T08:33:06.620Z</time>
      </trkpt>
      <trkpt lat="46.79354" lon="6.47035">
        <ele>1384</ele>
        <time>2016-05-08T08:33:08.620Z</time>
      </trkpt>
      <trkpt lat="46.79352" lon="6.47035">
        <ele>1384</ele>
        <time>2016-05-08T08:33:10.620Z</time>
      </trkpt>
      <trkpt lat="46.7935" lon="6.47034">
        <ele>1385</ele>
        <time>2016-05-08T08:33:13.620Z</time>
      </trkpt>
      <trkpt lat="46.79347" lon="6.47033">
        <ele>1385</ele>
        <time>2016-05-08T08:33:16.620Z</time>
      </trkpt>
      <trkpt lat="46.79346" lon="6.47032">
        <ele>1385</ele>
        <time>2016-05-08T08:33:18.620Z</time>
      </trkpt>
      <trkpt lat="46.7934" lon="6.47032">
        <ele>1386</ele>
        <time>2016-05-08T08:33:30.620Z</time>
      </trkpt>
      <trkpt lat="46.79338" lon="6.4703">
        <ele>1388</ele>
        <time>2016-05-08T08:33:33.620Z</time>
      </trkpt>
      <trkpt lat="46.79336" lon="6.47029">
        <ele>1388</ele>
        <time>2016-05-08T08:33:35.620Z</time>
      </trkpt>
      <trkpt lat="46.79334" lon="6.47027">
        <ele>1388</ele>
        <time>2016-05-08T08:33:37.620Z</time>
      </trkpt>
      <trkpt lat="46.79331" lon="6.47026">
        <ele>1388</ele>
        <time>2016-05-08T08:33:40.620Z</time>
      </trkpt>
      <trkpt lat="46.7933" lon="6.47024">
        <ele>1390</ele>
        <time>2016-05-08T08:33:43.620Z</time>
      </trkpt>
      <trkpt lat="46.79325" lon="6.4702">
        <ele>1391</ele>
        <time>2016-05-08T08:33:53.620Z</time>
      </trkpt>
      <trkpt lat="46.79323" lon="6.47019">
        <ele>1391</ele>
        <time>2016-05-08T08:33:55.620Z</time>
      </trkpt>
      <trkpt lat="46.79321" lon="6.47019">
        <ele>1391</ele>
        <time>2016-05-08T08:33:58.620Z</time>
      </trkpt>
      <trkpt lat="46.79319" lon="6.47017">
        <ele>1391</ele>
        <time>2016-05-08T08:34:00.620Z</time>
      </trkpt>
      <trkpt lat="46.79317" lon="6.47016">
        <ele>1393</ele>
        <time>2016-05-08T08:34:03.620Z</time>
      </trkpt>
      <trkpt lat="46.79315" lon="6.47014">
        <ele>1393</ele>
        <time>2016-05-08T08:34:07.620Z</time>
      </trkpt>
      <trkpt lat="46.79313" lon="6.47013">
        <ele>1393</ele>
        <time>2016-05-08T08:34:10.620Z</time>
      </trkpt>
      <trkpt lat="46.79311" lon="6.47014">
        <ele>1395</ele>
        <time>2016-05-08T08:34:15.620Z</time>
      </trkpt>
      <trkpt lat="46.79308" lon="6.47014">
        <ele>1395</ele>
        <time>2016-05-08T08:34:18.620Z</time>
      </trkpt>
      <trkpt lat="46.79304" lon="6.47012">
        <ele>1396</ele>
        <time>2016-05-08T08:34:26.620Z</time>
      </trkpt>
      <trkpt lat="46.79298" lon="6.47008">
        <ele>1398</ele>
        <time>2016-05-08T08:34:36.620Z</time>
      </trkpt>
      <trkpt lat="46.79296" lon="6.47007">
        <ele>1398</ele>
        <time>2016-05-08T08:34:39.620Z</time>
      </trkpt>
      <trkpt lat="46.79291" lon="6.47004">
        <ele>1401.9799808</ele>
        <time>2016-05-08T08:34:51.620Z</time>
      </trkpt>
      <trkpt lat="46.79287" lon="6.47003">
        <ele>1402</ele>
        <time>2016-05-08T08:34:58.620Z</time>
      </trkpt>
      <trkpt lat="46.79285" lon="6.47002">
        <ele>1404</ele>
        <time>2016-05-08T08:35:02.620Z</time>
      </trkpt>
      <trkpt lat="46.79283" lon="6.47">
        <ele>1404</ele>
        <time>2016-05-08T08:35:05.620Z</time>
      </trkpt>
      <trkpt lat="46.79281" lon="6.46999">
        <ele>1404</ele>
        <time>2016-05-08T08:35:07.620Z</time>
      </trkpt>
      <trkpt lat="46.79279" lon="6.46997">
        <ele>1404</ele>
        <time>2016-05-08T08:35:10.620Z</time>
      </trkpt>
      <trkpt lat="46.79277" lon="6.46996">
        <ele>1405</ele>
        <time>2016-05-08T08:35:13.620Z</time>
      </trkpt>
      <trkpt lat="46.79273" lon="6.46995">
        <ele>1407</ele>
        <time>2016-05-08T08:35:21.620Z</time>
      </trkpt>
      <trkpt lat="46.7927" lon="6.46994">
        <ele>1407</ele>
        <time>2016-05-08T08:35:24.620Z</time>
      </trkpt>
      <trkpt lat="46.79268" lon="6.46993">
        <ele>1407</ele>
        <time>2016-05-08T08:35:27.620Z</time>
      </trkpt>
      <trkpt lat="46.79266" lon="6.46991">
        <ele>1408</ele>
        <time>2016-05-08T08:35:32.620Z</time>
      </trkpt>
      <trkpt lat="46.79264" lon="6.4699">
        <ele>1408</ele>
        <time>2016-05-08T08:35:35.620Z</time>
      </trkpt>
      <trkpt lat="46.79261" lon="6.46989">
        <ele>1409.9223054841</ele>
        <time>2016-05-08T08:35:41.620Z</time>
      </trkpt>
      <trkpt lat="46.79259" lon="6.46988">
        <ele>1410</ele>
        <time>2016-05-08T08:35:44.620Z</time>
      </trkpt>
      <trkpt lat="46.79257" lon="6.46987">
        <ele>1410</ele>
        <time>2016-05-08T08:35:48.620Z</time>
      </trkpt>
      <trkpt lat="46.79255" lon="6.46987">
        <ele>1413</ele>
        <time>2016-05-08T08:35:51.620Z</time>
      </trkpt>
      <trkpt lat="46.79254" lon="6.46985">
        <ele>1413</ele>
        <time>2016-05-08T08:35:55.620Z</time>
      </trkpt>
      <trkpt lat="46.7925" lon="6.46982">
        <ele>1414</ele>
        <time>2016-05-08T08:36:03.620Z</time>
      </trkpt>
      <trkpt lat="46.79244" lon="6.46982">
        <ele>1416</ele>
        <time>2016-05-08T08:36:18.620Z</time>
      </trkpt>
      <trkpt lat="46.79244" lon="6.46986">
        <ele>1417</ele>
        <time>2016-05-08T08:36:26.620Z</time>
      </trkpt>
      <trkpt lat="46.79245" lon="6.46989">
        <ele>1417</ele>
        <time>2016-05-08T08:36:30.620Z</time>
      </trkpt>
      <trkpt lat="46.79244" lon="6.4699">
        <ele>1419</ele>
        <time>2016-05-08T08:36:34.620Z</time>
      </trkpt>
      <trkpt lat="46.79242" lon="6.4699">
        <ele>1419</ele>
        <time>2016-05-08T08:36:38.620Z</time>
      </trkpt>
      <trkpt lat="46.7924" lon="6.4699">
        <ele>1420</ele>
        <time>2016-05-08T08:36:46.620Z</time>
      </trkpt>
      <trkpt lat="46.79239" lon="6.46993">
        <ele>1421</ele>
        <time>2016-05-08T08:36:54.620Z</time>
      </trkpt>
      <trkpt lat="46.79239" lon="6.46996">
        <ele>1421</ele>
        <time>2016-05-08T08:36:57.620Z</time>
      </trkpt>
      <trkpt lat="46.7924" lon="6.46998">
        <ele>1423</ele>
        <time>2016-05-08T08:37:01.620Z</time>
      </trkpt>
      <trkpt lat="46.79241" lon="6.47">
        <ele>1423</ele>
        <time>2016-05-08T08:37:03.620Z</time>
      </trkpt>
      <trkpt lat="46.79243" lon="6.47003">
        <ele>1423</ele>
        <time>2016-05-08T08:37:06.620Z</time>
      </trkpt>
      <trkpt lat="46.79243" lon="6.47005">
        <ele>1423</ele>
        <time>2016-05-08T08:37:10.620Z</time>
      </trkpt>
      <trkpt lat="46.79245" lon="6.47007">
        <ele>1425</ele>
        <time>2016-05-08T08:37:13.620Z</time>
      </trkpt>
      <trkpt lat="46.79246" lon="6.4701">
        <ele>1425</ele>
        <time>2016-05-08T08:37:16.620Z</time>
      </trkpt>
      <trkpt lat="46.79247" lon="6.47013">
        <ele>1425</ele>
        <time>2016-05-08T08:37:20.620Z</time>
      </trkpt>
      <trkpt lat="46.79247" lon="6.47017">
        <ele>1426</ele>
        <time>2016-05-08T08:37:26.620Z</time>
      </trkpt>
      <trkpt lat="46.79248" lon="6.4702">
        <ele>1426</ele>
        <time>2016-05-08T08:37:30.620Z</time>
      </trkpt>
      <trkpt lat="46.79248" lon="6.47023">
        <ele>1428</ele>
        <time>2016-05-08T08:37:34.620Z</time>
      </trkpt>
      <trkpt lat="46.79248" lon="6.47027">
        <ele>1431</ele>
        <time>2016-05-08T08:37:42.620Z</time>
      </trkpt>
      <trkpt lat="46.79248" lon="6.4703">
        <ele>1431</ele>
        <time>2016-05-08T08:37:47.620Z</time>
      </trkpt>
      <trkpt lat="46.7925" lon="6.47033">
        <ele>1432</ele>
        <time>2016-05-08T08:37:53.620Z</time>
      </trkpt>
      <trkpt lat="46.79251" lon="6.47036">
        <ele>1432</ele>
        <time>2016-05-08T08:37:58.620Z</time>
      </trkpt>
      <trkpt lat="46.79251" lon="6.47039">
        <ele>1435</ele>
        <time>2016-05-08T08:38:02.620Z</time>
      </trkpt>
      <trkpt lat="46.79252" lon="6.47042">
        <ele>1435</ele>
        <time>2016-05-08T08:38:07.620Z</time>
      </trkpt>
      <trkpt lat="46.79253" lon="6.47045">
        <ele>1435</ele>
        <time>2016-05-08T08:38:10.620Z</time>
      </trkpt>
      <trkpt lat="46.79255" lon="6.47049">
        <ele>1436</ele>
        <time>2016-05-08T08:38:16.620Z</time>
      </trkpt>
      <trkpt lat="46.79256" lon="6.47052">
        <ele>1436</ele>
        <time>2016-05-08T08:38:19.620Z</time>
      </trkpt>
      <trkpt lat="46.79257" lon="6.47055">
        <ele>1437</ele>
        <time>2016-05-08T08:38:22.620Z</time>
      </trkpt>
      <trkpt lat="46.7926" lon="6.47061">
        <ele>1439</ele>
        <time>2016-05-08T08:38:31.620Z</time>
      </trkpt>
      <trkpt lat="46.79261" lon="6.47064">
        <ele>1439</ele>
        <time>2016-05-08T08:38:34.620Z</time>
      </trkpt>
      <trkpt lat="46.79262" lon="6.47068">
        <ele>1439</ele>
        <time>2016-05-08T08:38:40.620Z</time>
      </trkpt>
      <trkpt lat="46.79264" lon="6.47071">
        <ele>1440</ele>
        <time>2016-05-08T08:38:44.620Z</time>
      </trkpt>
      <trkpt lat="46.79264" lon="6.47073">
        <ele>1440</ele>
        <time>2016-05-08T08:38:47.620Z</time>
      </trkpt>
      <trkpt lat="46.79264" lon="6.47076">
        <ele>1441.9799808</ele>
        <time>2016-05-08T08:38:51.620Z</time>
      </trkpt>
      <trkpt lat="46.79265" lon="6.47078">
        <ele>1442</ele>
        <time>2016-05-08T08:38:55.620Z</time>
      </trkpt>
      <trkpt lat="46.79266" lon="6.47085">
        <ele>1444</ele>
        <time>2016-05-08T08:39:07.620Z</time>
      </trkpt>
      <trkpt lat="46.79267" lon="6.4709">
        <ele>1445</ele>
        <time>2016-05-08T08:39:13.620Z</time>
      </trkpt>
      <trkpt lat="46.79267" lon="6.47092">
        <ele>1445</ele>
        <time>2016-05-08T08:39:17.620Z</time>
      </trkpt>
      <trkpt lat="46.79266" lon="6.47094">
        <ele>1445</ele>
        <time>2016-05-08T08:39:21.620Z</time>
      </trkpt>
      <trkpt lat="46.79264" lon="6.47092">
        <ele>1448</ele>
        <time>2016-05-08T08:39:25.620Z</time>
      </trkpt>
      <trkpt lat="46.79264" lon="6.47099">
        <ele>1450</ele>
        <time>2016-05-08T08:39:40.620Z</time>
      </trkpt>
      <trkpt lat="46.79265" lon="6.47102">
        <ele>1450</ele>
        <time>2016-05-08T08:39:44.620Z</time>
      </trkpt>
      <trkpt lat="46.79265" lon="6.47105">
        <ele>1450</ele>
        <time>2016-05-08T08:39:49.620Z</time>
      </trkpt>
      <trkpt lat="46.79263" lon="6.4711">
        <ele>1454</ele>
        <time>2016-05-08T08:40:06.620Z</time>
      </trkpt>
      <trkpt lat="46.79264" lon="6.47113">
        <ele>1454</ele>
        <time>2016-05-08T08:40:10.620Z</time>
      </trkpt>
      <trkpt lat="46.79265" lon="6.47119">
        <ele>1456</ele>
        <time>2016-05-08T08:40:20.620Z</time>
      </trkpt>
      <trkpt lat="46.79266" lon="6.47122">
        <ele>1457</ele>
        <time>2016-05-08T08:40:23.620Z</time>
      </trkpt>
      <trkpt lat="46.79267" lon="6.47125">
        <ele>1457</ele>
        <time>2016-05-08T08:40:27.620Z</time>
      </trkpt>
      <trkpt lat="46.79267" lon="6.47129">
        <ele>1458.9799808</ele>
        <time>2016-05-08T08:40:31.620Z</time>
      </trkpt>
      <trkpt lat="46.79268" lon="6.47132">
        <ele>1459</ele>
        <time>2016-05-08T08:40:35.620Z</time>
      </trkpt>
      <trkpt lat="46.79269" lon="6.47134">
        <ele>1459</ele>
        <time>2016-05-08T08:40:39.620Z</time>
      </trkpt>
      <trkpt lat="46.79269" lon="6.47137">
        <ele>1461</ele>
        <time>2016-05-08T08:40:44.620Z</time>
      </trkpt>
      <trkpt lat="46.79271" lon="6.47139">
        <ele>1461</ele>
        <time>2016-05-08T08:40:46.620Z</time>
      </trkpt>
      <trkpt lat="46.79272" lon="6.47141">
        <ele>1461</ele>
        <time>2016-05-08T08:40:48.620Z</time>
      </trkpt>
      <trkpt lat="46.79272" lon="6.47145">
        <ele>1461</ele>
        <time>2016-05-08T08:40:51.620Z</time>
      </trkpt>
      <trkpt lat="46.79272" lon="6.47148">
        <ele>1463</ele>
        <time>2016-05-08T08:40:56.620Z</time>
      </trkpt>
      <trkpt lat="46.79273" lon="6.47151">
        <ele>1463</ele>
        <time>2016-05-08T08:40:59.620Z</time>
      </trkpt>
      <trkpt lat="46.79274" lon="6.47154">
        <ele>1463</ele>
        <time>2016-05-08T08:41:03.620Z</time>
      </trkpt>
      <trkpt lat="46.79274" lon="6.47156">
        <ele>1463</ele>
        <time>2016-05-08T08:41:07.620Z</time>
      </trkpt>
      <trkpt lat="46.79273" lon="6.4716">
        <ele>1465</ele>
        <time>2016-05-08T08:41:13.620Z</time>
      </trkpt>
      <trkpt lat="46.79273" lon="6.47163">
        <ele>1466</ele>
        <time>2016-05-08T08:41:18.620Z</time>
      </trkpt>
      <trkpt lat="46.79273" lon="6.47167">
        <ele>1467</ele>
        <time>2016-05-08T08:41:27.620Z</time>
      </trkpt>
      <trkpt lat="46.79273" lon="6.4717">
        <ele>1467</ele>
        <time>2016-05-08T08:41:30.620Z</time>
      </trkpt>
      <trkpt lat="46.79274" lon="6.47173">
        <ele>1468</ele>
        <time>2016-05-08T08:41:34.620Z</time>
      </trkpt>
      <trkpt lat="46.79274" lon="6.47176">
        <ele>1468</ele>
        <time>2016-05-08T08:41:38.620Z</time>
      </trkpt>
      <trkpt lat="46.79274" lon="6.47179">
        <ele>1470</ele>
        <time>2016-05-08T08:41:43.620Z</time>
      </trkpt>
      <trkpt lat="46.79274" lon="6.47182">
        <ele>1470</ele>
        <time>2016-05-08T08:41:47.620Z</time>
      </trkpt>
      <trkpt lat="46.79276" lon="6.47188">
        <ele>1472</ele>
        <time>2016-05-08T08:41:56.620Z</time>
      </trkpt>
      <trkpt lat="46.79276" lon="6.47191">
        <ele>1472</ele>
        <time>2016-05-08T08:42:00.620Z</time>
      </trkpt>
      <trkpt lat="46.79276" lon="6.47194">
        <ele>1474</ele>
        <time>2016-05-08T08:42:07.620Z</time>
      </trkpt>
      <trkpt lat="46.79276" lon="6.47199">
        <ele>1476</ele>
        <time>2016-05-08T08:42:14.620Z</time>
      </trkpt>
      <trkpt lat="46.79275" lon="6.47201">
        <ele>1476</ele>
        <time>2016-05-08T08:42:18.620Z</time>
      </trkpt>
      <trkpt lat="46.79275" lon="6.47204">
        <ele>1478</ele>
        <time>2016-05-08T08:42:22.620Z</time>
      </trkpt>
      <trkpt lat="46.79276" lon="6.47207">
        <ele>1478</ele>
        <time>2016-05-08T08:42:25.620Z</time>
      </trkpt>
      <trkpt lat="46.79277" lon="6.4721">
        <ele>1478</ele>
        <time>2016-05-08T08:42:28.620Z</time>
      </trkpt>
      <trkpt lat="46.79279" lon="6.47213">
        <ele>1478</ele>
        <time>2016-05-08T08:42:31.620Z</time>
      </trkpt>
      <trkpt lat="46.79279" lon="6.47215">
        <ele>1478</ele>
        <time>2016-05-08T08:42:34.620Z</time>
      </trkpt>
      <trkpt lat="46.79278" lon="6.47223">
        <ele>1480</ele>
        <time>2016-05-08T08:42:48.620Z</time>
      </trkpt>
      <trkpt lat="46.79279" lon="6.47226">
        <ele>1482</ele>
        <time>2016-05-08T08:42:52.620Z</time>
      </trkpt>
      <trkpt lat="46.79279" lon="6.47228">
        <ele>1482.9900032</ele>
        <time>2016-05-08T08:42:56.620Z</time>
      </trkpt>
      <trkpt lat="46.7928" lon="6.47234">
        <ele>1484</ele>
        <time>2016-05-08T08:43:05.620Z</time>
      </trkpt>
      <trkpt lat="46.7928" lon="6.47237">
        <ele>1484</ele>
        <time>2016-05-08T08:43:10.620Z</time>
      </trkpt>
      <trkpt lat="46.79278" lon="6.4724">
        <ele>1485</ele>
        <time>2016-05-08T08:43:14.620Z</time>
      </trkpt>
      <trkpt lat="46.79277" lon="6.47242">
        <ele>1485</ele>
        <time>2016-05-08T08:43:17.620Z</time>
      </trkpt>
      <trkpt lat="46.79276" lon="6.47247">
        <ele>1487</ele>
        <time>2016-05-08T08:43:26.620Z</time>
      </trkpt>
      <trkpt lat="46.79277" lon="6.4725">
        <ele>1487</ele>
        <time>2016-05-08T08:43:29.620Z</time>
      </trkpt>
      <trkpt lat="46.79277" lon="6.47258">
        <ele>1491</ele>
        <time>2016-05-08T08:43:43.620Z</time>
      </trkpt>
      <trkpt lat="46.79272" lon="6.47258">
        <ele>1493</ele>
        <time>2016-05-08T08:43:54.620Z</time>
      </trkpt>
      <trkpt lat="46.7927" lon="6.47257">
        <ele>1493</ele>
        <time>2016-05-08T08:43:58.620Z</time>
      </trkpt>
      <trkpt lat="46.79266" lon="6.47252">
        <ele>1495</ele>
        <time>2016-05-08T08:44:10.620Z</time>
      </trkpt>
      <trkpt lat="46.79264" lon="6.4725">
        <ele>1496</ele>
        <time>2016-05-08T08:44:14.620Z</time>
      </trkpt>
      <trkpt lat="46.79261" lon="6.47245">
        <ele>1497</ele>
        <time>2016-05-08T08:44:22.620Z</time>
      </trkpt>
      <trkpt lat="46.79261" lon="6.47242">
        <ele>1497</ele>
        <time>2016-05-08T08:44:25.620Z</time>
      </trkpt>
      <trkpt lat="46.7926" lon="6.47245">
        <ele>1499</ele>
        <time>2016-05-08T08:44:32.620Z</time>
      </trkpt>
      <trkpt lat="46.79259" lon="6.47248">
        <ele>1499</ele>
        <time>2016-05-08T08:44:35.620Z</time>
      </trkpt>
      <trkpt lat="46.79258" lon="6.47251">
        <ele>1499</ele>
        <time>2016-05-08T08:44:37.620Z</time>
      </trkpt>
      <trkpt lat="46.79257" lon="6.4726">
        <ele>1501</ele>
        <time>2016-05-08T08:44:50.620Z</time>
      </trkpt>
      <trkpt lat="46.79257" lon="6.47262">
        <ele>1502</ele>
        <time>2016-05-08T08:44:53.620Z</time>
      </trkpt>
      <trkpt lat="46.79257" lon="6.47265">
        <ele>1502</ele>
        <time>2016-05-08T08:44:57.620Z</time>
      </trkpt>
      <trkpt lat="46.79254" lon="6.4727">
        <ele>1505</ele>
        <time>2016-05-08T08:45:12.620Z</time>
      </trkpt>
      <trkpt lat="46.79253" lon="6.47276">
        <ele>1507</ele>
        <time>2016-05-08T08:45:25.620Z</time>
      </trkpt>
      <trkpt lat="46.79253" lon="6.47281">
        <ele>1509</ele>
        <time>2016-05-08T08:45:32.620Z</time>
      </trkpt>
      <trkpt lat="46.79253" lon="6.47284">
        <ele>1509</ele>
        <time>2016-05-08T08:45:35.620Z</time>
      </trkpt>
      <trkpt lat="46.79252" lon="6.47289">
        <ele>1510.9800064</ele>
        <time>2016-05-08T08:45:42.620Z</time>
      </trkpt>
      <trkpt lat="46.79252" lon="6.47292">
        <ele>1511</ele>
        <time>2016-05-08T08:45:45.620Z</time>
      </trkpt>
      <trkpt lat="46.79252" lon="6.47295">
        <ele>1511</ele>
        <time>2016-05-08T08:45:48.620Z</time>
      </trkpt>
      <trkpt lat="46.79252" lon="6.47298">
        <ele>1511</ele>
        <time>2016-05-08T08:45:51.620Z</time>
      </trkpt>
      <trkpt lat="46.79252" lon="6.47301">
        <ele>1511</ele>
        <time>2016-05-08T08:45:54.620Z</time>
      </trkpt>
      <trkpt lat="46.79251" lon="6.47304">
        <ele>1511</ele>
        <time>2016-05-08T08:45:57.620Z</time>
      </trkpt>
      <trkpt lat="46.79252" lon="6.47307">
        <ele>1511</ele>
        <time>2016-05-08T08:46:00.620Z</time>
      </trkpt>
      <trkpt lat="46.79253" lon="6.4731">
        <ele>1512</ele>
        <time>2016-05-08T08:46:03.620Z</time>
      </trkpt>
      <trkpt lat="46.79253" lon="6.47313">
        <ele>1512</ele>
        <time>2016-05-08T08:46:06.620Z</time>
      </trkpt>
      <trkpt lat="46.79253" lon="6.47316">
        <ele>1512</ele>
        <time>2016-05-08T08:46:09.620Z</time>
      </trkpt>
      <trkpt lat="46.79252" lon="6.47319">
        <ele>1513</ele>
        <time>2016-05-08T08:46:12.620Z</time>
      </trkpt>
      <trkpt lat="46.79251" lon="6.47322">
        <ele>1513</ele>
        <time>2016-05-08T08:46:15.620Z</time>
      </trkpt>
      <trkpt lat="46.79249" lon="6.47324">
        <ele>1513</ele>
        <time>2016-05-08T08:46:17.620Z</time>
      </trkpt>
      <trkpt lat="46.79248" lon="6.47325">
        <ele>1514.9799808</ele>
        <time>2016-05-08T08:46:21.620Z</time>
      </trkpt>
      <trkpt lat="46.79245" lon="6.47326">
        <ele>1515</ele>
        <time>2016-05-08T08:46:25.620Z</time>
      </trkpt>
      <trkpt lat="46.79243" lon="6.47326">
        <ele>1515</ele>
        <time>2016-05-08T08:46:29.620Z</time>
      </trkpt>
      <trkpt lat="46.79241" lon="6.47327">
        <ele>1517</ele>
        <time>2016-05-08T08:46:33.620Z</time>
      </trkpt>
      <trkpt lat="46.79238" lon="6.47328">
        <ele>1517</ele>
        <time>2016-05-08T08:46:36.620Z</time>
      </trkpt>
      <trkpt lat="46.79235" lon="6.4733">
        <ele>1519</ele>
        <time>2016-05-08T08:46:49.620Z</time>
      </trkpt>
      <trkpt lat="46.79235" lon="6.47333">
        <ele>1519.9854932661</ele>
        <time>2016-05-08T08:46:51.620Z</time>
      </trkpt>
      <trkpt lat="46.79234" lon="6.47336">
        <ele>1520</ele>
        <time>2016-05-08T08:46:54.620Z</time>
      </trkpt>
      <trkpt lat="46.79231" lon="6.47334">
        <ele>1520</ele>
        <time>2016-05-08T08:46:57.620Z</time>
      </trkpt>
      <trkpt lat="46.79229" lon="6.47333">
        <ele>1521</ele>
        <time>2016-05-08T08:47:03.620Z</time>
      </trkpt>
      <trkpt lat="46.79228" lon="6.47331">
        <ele>1521</ele>
        <time>2016-05-08T08:47:07.620Z</time>
      </trkpt>
      <trkpt lat="46.79226" lon="6.47329">
        <ele>1522</ele>
        <time>2016-05-08T08:47:12.620Z</time>
      </trkpt>
      <trkpt lat="46.79224" lon="6.47328">
        <ele>1522</ele>
        <time>2016-05-08T08:47:15.620Z</time>
      </trkpt>
      <trkpt lat="46.79224" lon="6.47332">
        <ele>1523.9799808</ele>
        <time>2016-05-08T08:47:21.620Z</time>
      </trkpt>
      <trkpt lat="46.79222" lon="6.47334">
        <ele>1524</ele>
        <time>2016-05-08T08:47:24.620Z</time>
      </trkpt>
      <trkpt lat="46.79221" lon="6.47339">
        <ele>1526</ele>
        <time>2016-05-08T08:47:32.620Z</time>
      </trkpt>
      <trkpt lat="46.79219" lon="6.47338">
        <ele>1527</ele>
        <time>2016-05-08T08:47:39.620Z</time>
      </trkpt>
      <trkpt lat="46.79216" lon="6.47337">
        <ele>1527</ele>
        <time>2016-05-08T08:47:43.620Z</time>
      </trkpt>
      <trkpt lat="46.79214" lon="6.47336">
        <ele>1527</ele>
        <time>2016-05-08T08:47:48.620Z</time>
      </trkpt>
      <trkpt lat="46.7921" lon="6.47331">
        <ele>1529</ele>
        <time>2016-05-08T08:47:58.620Z</time>
      </trkpt>
      <trkpt lat="46.79209" lon="6.47329">
        <ele>1530.9799808</ele>
        <time>2016-05-08T08:48:01.620Z</time>
      </trkpt>
      <trkpt lat="46.79207" lon="6.47327">
        <ele>1531</ele>
        <time>2016-05-08T08:48:03.620Z</time>
      </trkpt>
      <trkpt lat="46.79204" lon="6.4732">
        <ele>1532</ele>
        <time>2016-05-08T08:48:12.620Z</time>
      </trkpt>
      <trkpt lat="46.79203" lon="6.47316">
        <ele>1532</ele>
        <time>2016-05-08T08:48:19.620Z</time>
      </trkpt>
      <trkpt lat="46.79202" lon="6.47312">
        <ele>1533</ele>
        <time>2016-05-08T08:48:22.620Z</time>
      </trkpt>
      <trkpt lat="46.79201" lon="6.47309">
        <ele>1533</ele>
        <time>2016-05-08T08:48:25.620Z</time>
      </trkpt>
      <trkpt lat="46.792" lon="6.47306">
        <ele>1533</ele>
        <time>2016-05-08T08:48:27.620Z</time>
      </trkpt>
      <trkpt lat="46.79199" lon="6.47304">
        <ele>1533</ele>
        <time>2016-05-08T08:48:30.620Z</time>
      </trkpt>
      <trkpt lat="46.79194" lon="6.47298">
        <ele>1534</ele>
        <time>2016-05-08T08:48:39.620Z</time>
      </trkpt>
      <trkpt lat="46.79192" lon="6.47296">
        <ele>1535</ele>
        <time>2016-05-08T08:48:42.620Z</time>
      </trkpt>
      <trkpt lat="46.7919" lon="6.47295">
        <ele>1535</ele>
        <time>2016-05-08T08:48:44.620Z</time>
      </trkpt>
      <trkpt lat="46.79189" lon="6.47291">
        <ele>1535</ele>
        <time>2016-05-08T08:48:47.620Z</time>
      </trkpt>
      <trkpt lat="46.79188" lon="6.47288">
        <ele>1535</ele>
        <time>2016-05-08T08:48:50.620Z</time>
      </trkpt>
      <trkpt lat="46.79185" lon="6.47286">
        <ele>1537</ele>
        <time>2016-05-08T08:48:57.620Z</time>
      </trkpt>
      <trkpt lat="46.79183" lon="6.47284">
        <ele>1537</ele>
        <time>2016-05-08T08:49:00.620Z</time>
      </trkpt>
      <trkpt lat="46.79182" lon="6.47282">
        <ele>1538</ele>
        <time>2016-05-08T08:49:03.620Z</time>
      </trkpt>
      <trkpt lat="46.79179" lon="6.47281">
        <ele>1538</ele>
        <time>2016-05-08T08:49:10.620Z</time>
      </trkpt>
      <trkpt lat="46.79175" lon="6.47276">
        <ele>1542</ele>
        <time>2016-05-08T08:49:24.620Z</time>
      </trkpt>
      <trkpt lat="46.79173" lon="6.47273">
        <ele>1542</ele>
        <time>2016-05-08T08:49:27.620Z</time>
      </trkpt>
      <trkpt lat="46.79171" lon="6.47271">
        <ele>1543</ele>
        <time>2016-05-08T08:49:33.620Z</time>
      </trkpt>
      <trkpt lat="46.7917" lon="6.47269">
        <ele>1543</ele>
        <time>2016-05-08T08:49:36.620Z</time>
      </trkpt>
      <trkpt lat="46.79168" lon="6.47268">
        <ele>1543</ele>
        <time>2016-05-08T08:49:39.620Z</time>
      </trkpt>
      <trkpt lat="46.79167" lon="6.47266">
        <ele>1543</ele>
        <time>2016-05-08T08:49:42.620Z</time>
      </trkpt>
      <trkpt lat="46.79164" lon="6.47263">
        <ele>1543</ele>
        <time>2016-05-08T08:49:48.620Z</time>
      </trkpt>
      <trkpt lat="46.79162" lon="6.47262">
        <ele>1543</ele>
        <time>2016-05-08T08:49:50.620Z</time>
      </trkpt>
      <trkpt lat="46.7916" lon="6.47261">
        <ele>1545</ele>
        <time>2016-05-08T08:49:52.620Z</time>
      </trkpt>
      <trkpt lat="46.79158" lon="6.47261">
        <ele>1545</ele>
        <time>2016-05-08T08:49:54.620Z</time>
      </trkpt>
      <trkpt lat="46.79156" lon="6.47259">
        <ele>1545</ele>
        <time>2016-05-08T08:49:57.620Z</time>
      </trkpt>
      <trkpt lat="46.79152" lon="6.47256">
        <ele>1545</ele>
        <time>2016-05-08T08:50:07.620Z</time>
      </trkpt>
      <trkpt lat="46.79146" lon="6.47253">
        <ele>1548</ele>
        <time>2016-05-08T08:50:58.620Z</time>
      </trkpt>
      <trkpt lat="46.79144" lon="6.47253">
        <ele>1548</ele>
        <time>2016-05-08T08:51:02.620Z</time>
      </trkpt>
      <trkpt lat="46.79142" lon="6.47254">
        <ele>1548</ele>
        <time>2016-05-08T08:51:05.620Z</time>
      </trkpt>
      <trkpt lat="46.79141" lon="6.47254">
        <ele>1548</ele>
        <time>2016-05-08T08:51:09.620Z</time>
      </trkpt>
      <trkpt lat="46.79139" lon="6.47254">
        <ele>1550</ele>
        <time>2016-05-08T08:51:12.620Z</time>
      </trkpt>
      <trkpt lat="46.79136" lon="6.47254">
        <ele>1550</ele>
        <time>2016-05-08T08:51:15.620Z</time>
      </trkpt>
      <trkpt lat="46.79135" lon="6.47257">
        <ele>1550</ele>
        <time>2016-05-08T08:51:19.620Z</time>
      </trkpt>
      <trkpt lat="46.79133" lon="6.47258">
        <ele>1552</ele>
        <time>2016-05-08T08:51:22.620Z</time>
      </trkpt>
      <trkpt lat="46.79131" lon="6.47259">
        <ele>1552</ele>
        <time>2016-05-08T08:51:26.620Z</time>
      </trkpt>
      <trkpt lat="46.79127" lon="6.47262">
        <ele>1553</ele>
        <time>2016-05-08T08:51:58.620Z</time>
      </trkpt>
      <trkpt lat="46.79125" lon="6.47258">
        <ele>1554</ele>
        <time>2016-05-08T08:52:24.620Z</time>
      </trkpt>
      <trkpt lat="46.79123" lon="6.47255">
        <ele>1554</ele>
        <time>2016-05-08T08:52:27.620Z</time>
      </trkpt>
      <trkpt lat="46.79122" lon="6.47252">
        <ele>1554</ele>
        <time>2016-05-08T08:52:30.620Z</time>
      </trkpt>
      <trkpt lat="46.79121" lon="6.4725">
        <ele>1555</ele>
        <time>2016-05-08T08:52:33.620Z</time>
      </trkpt>
      <trkpt lat="46.79119" lon="6.47248">
        <ele>1555</ele>
        <time>2016-05-08T08:52:36.620Z</time>
      </trkpt>
      <trkpt lat="46.7912" lon="6.47245">
        <ele>1554</ele>
        <time>2016-05-08T08:54:44.620Z</time>
      </trkpt>
      <trkpt lat="46.79122" lon="6.47243">
        <ele>1554</ele>
        <time>2016-05-08T08:54:48.620Z</time>
      </trkpt>
      <trkpt lat="46.79123" lon="6.4724">
        <ele>1554</ele>
        <time>2016-05-08T08:54:50.620Z</time>
      </trkpt>
      <trkpt lat="46.79122" lon="6.47238">
        <ele>1556</ele>
        <time>2016-05-08T08:54:53.620Z</time>
      </trkpt>
      <trkpt lat="46.79121" lon="6.47235">
        <ele>1556</ele>
        <time>2016-05-08T08:54:57.620Z</time>
      </trkpt>
      <trkpt lat="46.7912" lon="6.47232">
        <ele>1556</ele>
        <time>2016-05-08T08:55:00.620Z</time>
      </trkpt>
      <trkpt lat="46.79119" lon="6.4723">
        <ele>1557</ele>
        <time>2016-05-08T08:55:04.620Z</time>
      </trkpt>
      <trkpt lat="46.7912" lon="6.47227">
        <ele>1557</ele>
        <time>2016-05-08T08:55:06.620Z</time>
      </trkpt>
      <trkpt lat="46.79122" lon="6.47225">
        <ele>1557</ele>
        <time>2016-05-08T08:55:08.620Z</time>
      </trkpt>
      <trkpt lat="46.79124" lon="6.47223">
        <ele>1557</ele>
        <time>2016-05-08T08:55:10.620Z</time>
      </trkpt>
      <trkpt lat="46.79125" lon="6.47221">
        <ele>1555</ele>
        <time>2016-05-08T08:55:13.620Z</time>
      </trkpt>
      <trkpt lat="46.79127" lon="6.4722">
        <ele>1555</ele>
        <time>2016-05-08T08:55:17.620Z</time>
      </trkpt>
      <trkpt lat="46.79128" lon="6.47217">
        <ele>1555</ele>
        <time>2016-05-08T08:55:20.620Z</time>
      </trkpt>
      <trkpt lat="46.7913" lon="6.47215">
        <ele>1552</ele>
        <time>2016-05-08T08:55:22.620Z</time>
      </trkpt>
      <trkpt lat="46.7913" lon="6.47211">
        <ele>1552</ele>
        <time>2016-05-08T08:55:25.620Z</time>
      </trkpt>
      <trkpt lat="46.7913" lon="6.47208">
        <ele>1552</ele>
        <time>2016-05-08T08:55:27.620Z</time>
      </trkpt>
      <trkpt lat="46.79129" lon="6.47206">
        <ele>1552</ele>
        <time>2016-05-08T08:55:29.620Z</time>
      </trkpt>
      <trkpt lat="46.79126" lon="6.47204">
        <ele>1552</ele>
        <time>2016-05-08T08:55:32.620Z</time>
      </trkpt>
      <trkpt lat="46.79126" lon="6.47202">
        <ele>1552</ele>
        <time>2016-05-08T08:55:34.620Z</time>
      </trkpt>
      <trkpt lat="46.79124" lon="6.47199">
        <ele>1553</ele>
        <time>2016-05-08T08:55:36.620Z</time>
      </trkpt>
      <trkpt lat="46.79123" lon="6.47196">
        <ele>1553</ele>
        <time>2016-05-08T08:55:38.620Z</time>
      </trkpt>
      <trkpt lat="46.79122" lon="6.47194">
        <ele>1553</ele>
        <time>2016-05-08T08:55:40.620Z</time>
      </trkpt>
      <trkpt lat="46.79122" lon="6.47191">
        <ele>1553</ele>
        <time>2016-05-08T08:55:42.620Z</time>
      </trkpt>
      <trkpt lat="46.79121" lon="6.47188">
        <ele>1553</ele>
        <time>2016-05-08T08:55:44.620Z</time>
      </trkpt>
      <trkpt lat="46.7912" lon="6.47185">
        <ele>1553</ele>
        <time>2016-05-08T08:55:46.620Z</time>
      </trkpt>
      <trkpt lat="46.79119" lon="6.47183">
        <ele>1553</ele>
        <time>2016-05-08T08:55:48.620Z</time>
      </trkpt>
      <trkpt lat="46.79118" lon="6.4718">
        <ele>1553</ele>
        <time>2016-05-08T08:55:50.620Z</time>
      </trkpt>
      <trkpt lat="46.79116" lon="6.47178">
        <ele>1552.0099968</ele>
        <time>2016-05-08T08:55:52.620Z</time>
      </trkpt>
      <trkpt lat="46.79115" lon="6.47175">
        <ele>1552</ele>
        <time>2016-05-08T08:55:55.620Z</time>
      </trkpt>
      <trkpt lat="46.79115" lon="6.47171">
        <ele>1552</ele>
        <time>2016-05-08T08:55:58.620Z</time>
      </trkpt>
      <trkpt lat="46.79114" lon="6.47168">
        <ele>1550.0200192</ele>
        <time>2016-05-08T08:56:01.620Z</time>
      </trkpt>
      <trkpt lat="46.79113" lon="6.47166">
        <ele>1550</ele>
        <time>2016-05-08T08:56:03.620Z</time>
      </trkpt>
      <trkpt lat="46.79112" lon="6.47163">
        <ele>1550</ele>
        <time>2016-05-08T08:56:05.620Z</time>
      </trkpt>
      <trkpt lat="46.79111" lon="6.4716">
        <ele>1550</ele>
        <time>2016-05-08T08:56:07.620Z</time>
      </trkpt>
      <trkpt lat="46.79111" lon="6.47157">
        <ele>1550</ele>
        <time>2016-05-08T08:56:09.620Z</time>
      </trkpt>
      <trkpt lat="46.79109" lon="6.47155">
        <ele>1550</ele>
        <time>2016-05-08T08:56:11.620Z</time>
      </trkpt>
      <trkpt lat="46.79107" lon="6.47152">
        <ele>1550</ele>
        <time>2016-05-08T08:56:14.620Z</time>
      </trkpt>
      <trkpt lat="46.79107" lon="6.47149">
        <ele>1550</ele>
        <time>2016-05-08T08:56:16.620Z</time>
      </trkpt>
      <trkpt lat="46.79106" lon="6.47146">
        <ele>1550</ele>
        <time>2016-05-08T08:56:19.620Z</time>
      </trkpt>
      <trkpt lat="46.79108" lon="6.47143">
        <ele>1549</ele>
        <time>2016-05-08T08:56:26.620Z</time>
      </trkpt>
      <trkpt lat="46.7911" lon="6.47142">
        <ele>1549</ele>
        <time>2016-05-08T08:56:29.620Z</time>
      </trkpt>
      <trkpt lat="46.79113" lon="6.47142">
        <ele>1546</ele>
        <time>2016-05-08T08:56:34.620Z</time>
      </trkpt>
      <trkpt lat="46.79114" lon="6.47138">
        <ele>1543</ele>
        <time>2016-05-08T08:56:42.620Z</time>
      </trkpt>
      <trkpt lat="46.79114" lon="6.47135">
        <ele>1541</ele>
        <time>2016-05-08T08:56:47.620Z</time>
      </trkpt>
      <trkpt lat="46.79113" lon="6.47132">
        <ele>1541</ele>
        <time>2016-05-08T08:56:49.620Z</time>
      </trkpt>
      <trkpt lat="46.79111" lon="6.47128">
        <ele>1540.038847258</ele>
        <time>2016-05-08T08:56:51.620Z</time>
      </trkpt>
      <trkpt lat="46.79109" lon="6.47125">
        <ele>1540</ele>
        <time>2016-05-08T08:56:53.620Z</time>
      </trkpt>
      <trkpt lat="46.79108" lon="6.47121">
        <ele>1540</ele>
        <time>2016-05-08T08:56:55.620Z</time>
      </trkpt>
      <trkpt lat="46.79107" lon="6.47118">
        <ele>1540</ele>
        <time>2016-05-08T08:56:57.620Z</time>
      </trkpt>
      <trkpt lat="46.79107" lon="6.47115">
        <ele>1540</ele>
        <time>2016-05-08T08:57:00.620Z</time>
      </trkpt>
      <trkpt lat="46.79107" lon="6.47111">
        <ele>1539</ele>
        <time>2016-05-08T08:57:03.620Z</time>
      </trkpt>
      <trkpt lat="46.79106" lon="6.47108">
        <ele>1539</ele>
        <time>2016-05-08T08:57:05.620Z</time>
      </trkpt>
      <trkpt lat="46.79106" lon="6.47105">
        <ele>1539</ele>
        <time>2016-05-08T08:57:07.620Z</time>
      </trkpt>
      <trkpt lat="46.79105" lon="6.47101">
        <ele>1539</ele>
        <time>2016-05-08T08:57:09.620Z</time>
      </trkpt>
      <trkpt lat="46.79106" lon="6.47098">
        <ele>1538</ele>
        <time>2016-05-08T08:57:11.620Z</time>
      </trkpt>
      <trkpt lat="46.79105" lon="6.47094">
        <ele>1538</ele>
        <time>2016-05-08T08:57:13.620Z</time>
      </trkpt>
      <trkpt lat="46.79104" lon="6.47091">
        <ele>1538</ele>
        <time>2016-05-08T08:57:16.620Z</time>
      </trkpt>
      <trkpt lat="46.79102" lon="6.47085">
        <ele>1538</ele>
        <time>2016-05-08T08:57:26.620Z</time>
      </trkpt>
      <trkpt lat="46.791" lon="6.47082">
        <ele>1538</ele>
        <time>2016-05-08T08:57:30.620Z</time>
      </trkpt>
      <trkpt lat="46.791" lon="6.47079">
        <ele>1536</ele>
        <time>2016-05-08T08:57:33.620Z</time>
      </trkpt>
      <trkpt lat="46.79101" lon="6.47075">
        <ele>1536</ele>
        <time>2016-05-08T08:57:36.620Z</time>
      </trkpt>
      <trkpt lat="46.791" lon="6.47071">
        <ele>1536</ele>
        <time>2016-05-08T08:57:39.620Z</time>
      </trkpt>
      <trkpt lat="46.79099" lon="6.47069">
        <ele>1534</ele>
        <time>2016-05-08T08:57:42.620Z</time>
      </trkpt>
      <trkpt lat="46.79098" lon="6.47066">
        <ele>1534</ele>
        <time>2016-05-08T08:57:45.620Z</time>
      </trkpt>
      <trkpt lat="46.79097" lon="6.47063">
        <ele>1532</ele>
        <time>2016-05-08T08:57:48.620Z</time>
      </trkpt>
      <trkpt lat="46.79096" lon="6.47061">
        <ele>1532</ele>
        <time>2016-05-08T08:57:51.620Z</time>
      </trkpt>
      <trkpt lat="46.79094" lon="6.47061">
        <ele>1532</ele>
        <time>2016-05-08T08:58:29.620Z</time>
      </trkpt>
      <trkpt lat="46.79093" lon="6.47058">
        <ele>1532</ele>
        <time>2016-05-08T08:58:31.620Z</time>
      </trkpt>
      <trkpt lat="46.79092" lon="6.47056">
        <ele>1532</ele>
        <time>2016-05-08T08:58:33.620Z</time>
      </trkpt>
      <trkpt lat="46.79091" lon="6.47053">
        <ele>1532</ele>
        <time>2016-05-08T08:58:35.620Z</time>
      </trkpt>
      <trkpt lat="46.79089" lon="6.4705">
        <ele>1532</ele>
        <time>2016-05-08T08:58:37.620Z</time>
      </trkpt>
      <trkpt lat="46.79088" lon="6.47047">
        <ele>1532</ele>
        <time>2016-05-08T08:58:39.620Z</time>
      </trkpt>
      <trkpt lat="46.79088" lon="6.47044">
        <ele>1531</ele>
        <time>2016-05-08T08:58:42.620Z</time>
      </trkpt>
      <trkpt lat="46.79087" lon="6.47036">
        <ele>1529</ele>
        <time>2016-05-08T08:58:51.620Z</time>
      </trkpt>
      <trkpt lat="46.79086" lon="6.47033">
        <ele>1529</ele>
        <time>2016-05-08T08:58:54.620Z</time>
      </trkpt>
      <trkpt lat="46.79085" lon="6.4703">
        <ele>1529</ele>
        <time>2016-05-08T08:58:56.620Z</time>
      </trkpt>
      <trkpt lat="46.79086" lon="6.47027">
        <ele>1529</ele>
        <time>2016-05-08T08:58:59.620Z</time>
      </trkpt>
      <trkpt lat="46.79085" lon="6.47024">
        <ele>1526</ele>
        <time>2016-05-08T08:59:04.620Z</time>
      </trkpt>
      <trkpt lat="46.79084" lon="6.47021">
        <ele>1526.9900032</ele>
        <time>2016-05-08T08:59:06.620Z</time>
      </trkpt>
      <trkpt lat="46.79084" lon="6.47018">
        <ele>1527</ele>
        <time>2016-05-08T08:59:10.620Z</time>
      </trkpt>
      <trkpt lat="46.79084" lon="6.47016">
        <ele>1527</ele>
        <time>2016-05-08T08:59:14.620Z</time>
      </trkpt>
      <trkpt lat="46.79085" lon="6.47012">
        <ele>1527</ele>
        <time>2016-05-08T09:00:37.620Z</time>
      </trkpt>
      <trkpt lat="46.79082" lon="6.4701">
        <ele>1527</ele>
        <time>2016-05-08T09:00:40.620Z</time>
      </trkpt>
      <trkpt lat="46.79081" lon="6.47009">
        <ele>1525.0289758287</ele>
        <time>2016-05-08T09:00:42.620Z</time>
      </trkpt>
      <trkpt lat="46.79079" lon="6.47006">
        <ele>1525</ele>
        <time>2016-05-08T09:00:45.620Z</time>
      </trkpt>
      <trkpt lat="46.79079" lon="6.47003">
        <ele>1525</ele>
        <time>2016-05-08T09:00:47.620Z</time>
      </trkpt>
      <trkpt lat="46.79077" lon="6.47001">
        <ele>1525</ele>
        <time>2016-05-08T09:00:50.620Z</time>
      </trkpt>
      <trkpt lat="46.79076" lon="6.46999">
        <ele>1524</ele>
        <time>2016-05-08T09:00:53.620Z</time>
      </trkpt>
      <trkpt lat="46.79075" lon="6.46996">
        <ele>1524</ele>
        <time>2016-05-08T09:00:56.620Z</time>
      </trkpt>
      <trkpt lat="46.79074" lon="6.46994">
        <ele>1524</ele>
        <time>2016-05-08T09:00:59.620Z</time>
      </trkpt>
      <trkpt lat="46.79072" lon="6.46992">
        <ele>1521</ele>
        <time>2016-05-08T09:01:03.620Z</time>
      </trkpt>
      <trkpt lat="46.79072" lon="6.46989">
        <ele>1521</ele>
        <time>2016-05-08T09:01:07.620Z</time>
      </trkpt>
      <trkpt lat="46.79072" lon="6.46986">
        <ele>1521</ele>
        <time>2016-05-08T09:01:10.620Z</time>
      </trkpt>
      <trkpt lat="46.79072" lon="6.46983">
        <ele>1519</ele>
        <time>2016-05-08T09:01:13.620Z</time>
      </trkpt>
      <trkpt lat="46.79071" lon="6.4698">
        <ele>1515</ele>
        <time>2016-05-08T09:01:17.620Z</time>
      </trkpt>
      <trkpt lat="46.7907" lon="6.46973">
        <ele>1513</ele>
        <time>2016-05-08T09:01:27.620Z</time>
      </trkpt>
      <trkpt lat="46.7907" lon="6.4697">
        <ele>1513</ele>
        <time>2016-05-08T09:01:30.620Z</time>
      </trkpt>
      <trkpt lat="46.79072" lon="6.46968">
        <ele>1513</ele>
        <time>2016-05-08T09:01:33.620Z</time>
      </trkpt>
      <trkpt lat="46.7907" lon="6.4696">
        <ele>1511</ele>
        <time>2016-05-08T09:01:43.620Z</time>
      </trkpt>
      <trkpt lat="46.79069" lon="6.46957">
        <ele>1511</ele>
        <time>2016-05-08T09:01:46.620Z</time>
      </trkpt>
      <trkpt lat="46.79068" lon="6.46954">
        <ele>1511</ele>
        <time>2016-05-08T09:01:48.620Z</time>
      </trkpt>
      <trkpt lat="46.79069" lon="6.46951">
        <ele>1509.0200192</ele>
        <time>2016-05-08T09:01:51.620Z</time>
      </trkpt>
      <trkpt lat="46.79068" lon="6.46948">
        <ele>1509</ele>
        <time>2016-05-08T09:01:54.620Z</time>
      </trkpt>
      <trkpt lat="46.79068" lon="6.46944">
        <ele>1509</ele>
        <time>2016-05-08T09:01:57.620Z</time>
      </trkpt>
      <trkpt lat="46.79068" lon="6.46942">
        <ele>1509</ele>
        <time>2016-05-08T09:02:00.620Z</time>
      </trkpt>
      <trkpt lat="46.79068" lon="6.46937">
        <ele>1504</ele>
        <time>2016-05-08T09:02:05.620Z</time>
      </trkpt>
      <trkpt lat="46.79068" lon="6.46934">
        <ele>1504</ele>
        <time>2016-05-08T09:02:08.620Z</time>
      </trkpt>
      <trkpt lat="46.79067" lon="6.46926">
        <ele>1504</ele>
        <time>2016-05-08T09:02:19.620Z</time>
      </trkpt>
      <trkpt lat="46.79065" lon="6.46924">
        <ele>1502</ele>
        <time>2016-05-08T09:02:22.620Z</time>
      </trkpt>
      <trkpt lat="46.79065" lon="6.46918">
        <ele>1499</ele>
        <time>2016-05-08T09:02:33.620Z</time>
      </trkpt>
      <trkpt lat="46.79064" lon="6.46915">
        <ele>1498</ele>
        <time>2016-05-08T09:02:36.620Z</time>
      </trkpt>
      <trkpt lat="46.79065" lon="6.46912">
        <ele>1496</ele>
        <time>2016-05-08T09:02:42.620Z</time>
      </trkpt>
      <trkpt lat="46.79066" lon="6.46907">
        <ele>1493.0200192</ele>
        <time>2016-05-08T09:02:51.620Z</time>
      </trkpt>
      <trkpt lat="46.79064" lon="6.46906">
        <ele>1493</ele>
        <time>2016-05-08T09:02:54.620Z</time>
      </trkpt>
      <trkpt lat="46.79062" lon="6.46905">
        <ele>1492</ele>
        <time>2016-05-08T09:02:58.620Z</time>
      </trkpt>
      <trkpt lat="46.7906" lon="6.46904">
        <ele>1490.0200192</ele>
        <time>2016-05-08T09:03:01.620Z</time>
      </trkpt>
      <trkpt lat="46.79059" lon="6.46901">
        <ele>1490</ele>
        <time>2016-05-08T09:03:04.620Z</time>
      </trkpt>
      <trkpt lat="46.79057" lon="6.469">
        <ele>1490</ele>
        <time>2016-05-08T09:03:07.620Z</time>
      </trkpt>
      <trkpt lat="46.79056" lon="6.46898">
        <ele>1488</ele>
        <time>2016-05-08T09:03:12.620Z</time>
      </trkpt>
      <trkpt lat="46.79056" lon="6.4689">
        <ele>1485</ele>
        <time>2016-05-08T09:03:25.620Z</time>
      </trkpt>
      <trkpt lat="46.79056" lon="6.46887">
        <ele>1484</ele>
        <time>2016-05-08T09:03:28.620Z</time>
      </trkpt>
      <trkpt lat="46.79054" lon="6.46885">
        <ele>1482</ele>
        <time>2016-05-08T09:03:34.620Z</time>
      </trkpt>
      <trkpt lat="46.79052" lon="6.46885">
        <ele>1481.0099968</ele>
        <time>2016-05-08T09:03:36.620Z</time>
      </trkpt>
      <trkpt lat="46.79054" lon="6.46879">
        <ele>1480</ele>
        <time>2016-05-08T09:03:47.620Z</time>
      </trkpt>
      <trkpt lat="46.79052" lon="6.46873">
        <ele>1476</ele>
        <time>2016-05-08T09:03:57.620Z</time>
      </trkpt>
      <trkpt lat="46.79049" lon="6.46866">
        <ele>1473</ele>
        <time>2016-05-08T09:04:14.620Z</time>
      </trkpt>
      <trkpt lat="46.79047" lon="6.46862">
        <ele>1471</ele>
        <time>2016-05-08T09:04:30.620Z</time>
      </trkpt>
      <trkpt lat="46.79046" lon="6.46857">
        <ele>1467</ele>
        <time>2016-05-08T09:04:41.620Z</time>
      </trkpt>
      <trkpt lat="46.79044" lon="6.46856">
        <ele>1466</ele>
        <time>2016-05-08T09:04:44.620Z</time>
      </trkpt>
      <trkpt lat="46.79042" lon="6.4685">
        <ele>1463</ele>
        <time>2016-05-08T09:04:53.620Z</time>
      </trkpt>
      <trkpt lat="46.7904" lon="6.46849">
        <ele>1463</ele>
        <time>2016-05-08T09:04:56.620Z</time>
      </trkpt>
      <trkpt lat="46.79042" lon="6.46844">
        <ele>1458</ele>
        <time>2016-05-08T09:05:08.620Z</time>
      </trkpt>
      <trkpt lat="46.79042" lon="6.46835">
        <ele>1456</ele>
        <time>2016-05-08T09:05:23.620Z</time>
      </trkpt>
      <trkpt lat="46.79041" lon="6.46832">
        <ele>1456</ele>
        <time>2016-05-08T09:05:26.620Z</time>
      </trkpt>
      <trkpt lat="46.7904" lon="6.46828">
        <ele>1456</ele>
        <time>2016-05-08T09:05:30.620Z</time>
      </trkpt>
      <trkpt lat="46.79038" lon="6.46824">
        <ele>1450.4732666302</ele>
        <time>2016-05-08T09:05:36.620Z</time>
      </trkpt>
      <trkpt lat="46.79042" lon="6.46822">
        <ele>1449</ele>
        <time>2016-05-08T09:05:44.620Z</time>
      </trkpt>
      <trkpt lat="46.79042" lon="6.46819">
        <ele>1448</ele>
        <time>2016-05-08T09:05:51.620Z</time>
      </trkpt>
      <trkpt lat="46.79041" lon="6.46816">
        <ele>1448</ele>
        <time>2016-05-08T09:05:57.620Z</time>
      </trkpt>
      <trkpt lat="46.7904" lon="6.46813">
        <ele>1442</ele>
        <time>2016-05-08T09:06:11.620Z</time>
      </trkpt>
      <trkpt lat="46.79038" lon="6.46809">
        <ele>1442</ele>
        <time>2016-05-08T09:06:17.620Z</time>
      </trkpt>
      <trkpt lat="46.79037" lon="6.46806">
        <ele>1439.0300288</ele>
        <time>2016-05-08T09:06:21.620Z</time>
      </trkpt>
      <trkpt lat="46.79034" lon="6.46802">
        <ele>1436</ele>
        <time>2016-05-08T09:06:33.620Z</time>
      </trkpt>
      <trkpt lat="46.79032" lon="6.46796">
        <ele>1433</ele>
        <time>2016-05-08T09:06:57.620Z</time>
      </trkpt>
      <trkpt lat="46.79036" lon="6.46794">
        <ele>1432</ele>
        <time>2016-05-08T09:07:10.620Z</time>
      </trkpt>
      <trkpt lat="46.79035" lon="6.46789">
        <ele>1429</ele>
        <time>2016-05-08T09:07:27.620Z</time>
      </trkpt>
      <trkpt lat="46.79033" lon="6.46787">
        <ele>1426.0428978935</ele>
        <time>2016-05-08T09:07:31.620Z</time>
      </trkpt>
      <trkpt lat="46.79029" lon="6.46783">
        <ele>1425</ele>
        <time>2016-05-08T09:07:43.620Z</time>
      </trkpt>
      <trkpt lat="46.79031" lon="6.46775">
        <ele>1422</ele>
        <time>2016-05-08T09:07:55.620Z</time>
      </trkpt>
      <trkpt lat="46.7903" lon="6.46767">
        <ele>1416</ele>
        <time>2016-05-08T09:08:09.620Z</time>
      </trkpt>
      <trkpt lat="46.79031" lon="6.46764">
        <ele>1416</ele>
        <time>2016-05-08T09:08:12.620Z</time>
      </trkpt>
      <trkpt lat="46.79034" lon="6.4676">
        <ele>1414</ele>
        <time>2016-05-08T09:08:16.620Z</time>
      </trkpt>
      <trkpt lat="46.79035" lon="6.46756">
        <ele>1414</ele>
        <time>2016-05-08T09:08:19.620Z</time>
      </trkpt>
      <trkpt lat="46.79037" lon="6.46754">
        <ele>1411</ele>
        <time>2016-05-08T09:08:21.620Z</time>
      </trkpt>
      <trkpt lat="46.79032" lon="6.46759">
        <ele>1411</ele>
        <time>2016-05-08T09:08:30.620Z</time>
      </trkpt>
      <trkpt lat="46.7903" lon="6.46759">
        <ele>1411</ele>
        <time>2016-05-08T09:08:33.620Z</time>
      </trkpt>
      <trkpt lat="46.79027" lon="6.4676">
        <ele>1411</ele>
        <time>2016-05-08T09:08:38.620Z</time>
      </trkpt>
      <trkpt lat="46.79024" lon="6.46761">
        <ele>1411</ele>
        <time>2016-05-08T09:08:40.620Z</time>
      </trkpt>
      <trkpt lat="46.79022" lon="6.46759">
        <ele>1409</ele>
        <time>2016-05-08T09:08:43.620Z</time>
      </trkpt>
      <trkpt lat="46.7902" lon="6.46758">
        <ele>1409</ele>
        <time>2016-05-08T09:08:46.620Z</time>
      </trkpt>
      <trkpt lat="46.79017" lon="6.46758">
        <ele>1409</ele>
        <time>2016-05-08T09:08:49.620Z</time>
      </trkpt>
      <trkpt lat="46.79015" lon="6.46757">
        <ele>1406</ele>
        <time>2016-05-08T09:08:52.620Z</time>
      </trkpt>
      <trkpt lat="46.79013" lon="6.46755">
        <ele>1406</ele>
        <time>2016-05-08T09:08:55.620Z</time>
      </trkpt>
      <trkpt lat="46.79011" lon="6.46753">
        <ele>1405</ele>
        <time>2016-05-08T09:09:00.620Z</time>
      </trkpt>
      <trkpt lat="46.79009" lon="6.46752">
        <ele>1402</ele>
        <time>2016-05-08T09:09:03.620Z</time>
      </trkpt>
      <trkpt lat="46.79006" lon="6.46752">
        <ele>1402</ele>
        <time>2016-05-08T09:09:06.620Z</time>
      </trkpt>
      <trkpt lat="46.79004" lon="6.46751">
        <ele>1402</ele>
        <time>2016-05-08T09:09:09.620Z</time>
      </trkpt>
      <trkpt lat="46.79003" lon="6.4675">
        <ele>1401</ele>
        <time>2016-05-08T09:09:11.620Z</time>
      </trkpt>
      <trkpt lat="46.79" lon="6.4675">
        <ele>1401</ele>
        <time>2016-05-08T09:09:14.620Z</time>
      </trkpt>
      <trkpt lat="46.78997" lon="6.46751">
        <ele>1401</ele>
        <time>2016-05-08T09:09:16.620Z</time>
      </trkpt>
      <trkpt lat="46.78997" lon="6.46753">
        <ele>1401</ele>
        <time>2016-05-08T09:09:18.620Z</time>
      </trkpt>
      <trkpt lat="46.78993" lon="6.46758">
        <ele>1401</ele>
        <time>2016-05-08T09:09:32.620Z</time>
      </trkpt>
      <trkpt lat="46.78991" lon="6.46759">
        <ele>1401</ele>
        <time>2016-05-08T09:09:35.620Z</time>
      </trkpt>
      <trkpt lat="46.7899" lon="6.46764">
        <ele>1401</ele>
        <time>2016-05-08T09:09:57.620Z</time>
      </trkpt>
      <trkpt lat="46.78987" lon="6.46764">
        <ele>1401</ele>
        <time>2016-05-08T09:10:00.620Z</time>
      </trkpt>
      <trkpt lat="46.78985" lon="6.46766">
        <ele>1399</ele>
        <time>2016-05-08T09:10:03.620Z</time>
      </trkpt>
      <trkpt lat="46.78982" lon="6.46766">
        <ele>1399</ele>
        <time>2016-05-08T09:10:06.620Z</time>
      </trkpt>
      <trkpt lat="46.78981" lon="6.46766">
        <ele>1399</ele>
        <time>2016-05-08T09:10:08.620Z</time>
      </trkpt>
      <trkpt lat="46.78979" lon="6.46765">
        <ele>1398.0100096</ele>
        <time>2016-05-08T09:10:11.620Z</time>
      </trkpt>
      <trkpt lat="46.78977" lon="6.46765">
        <ele>1398</ele>
        <time>2016-05-08T09:10:13.620Z</time>
      </trkpt>
      <trkpt lat="46.78974" lon="6.46765">
        <ele>1398</ele>
        <time>2016-05-08T09:10:16.620Z</time>
      </trkpt>
      <trkpt lat="46.78972" lon="6.46764">
        <ele>1398</ele>
        <time>2016-05-08T09:10:19.620Z</time>
      </trkpt>
      <trkpt lat="46.7897" lon="6.46762">
        <ele>1394</ele>
        <time>2016-05-08T09:10:22.620Z</time>
      </trkpt>
      <trkpt lat="46.78971" lon="6.46759">
        <ele>1394</ele>
        <time>2016-05-08T09:10:24.620Z</time>
      </trkpt>
      <trkpt lat="46.78972" lon="6.46756">
        <ele>1391</ele>
        <time>2016-05-08T09:10:27.620Z</time>
      </trkpt>
      <trkpt lat="46.7897" lon="6.46757">
        <ele>1391</ele>
        <time>2016-05-08T09:10:30.620Z</time>
      </trkpt>
      <trkpt lat="46.78967" lon="6.46757">
        <ele>1390</ele>
        <time>2016-05-08T09:10:32.620Z</time>
      </trkpt>
      <trkpt lat="46.78966" lon="6.46757">
        <ele>1390</ele>
        <time>2016-05-08T09:10:34.620Z</time>
      </trkpt>
      <trkpt lat="46.78963" lon="6.46757">
        <ele>1389.0099968</ele>
        <time>2016-05-08T09:10:36.620Z</time>
      </trkpt>
      <trkpt lat="46.78961" lon="6.46759">
        <ele>1389</ele>
        <time>2016-05-08T09:10:38.620Z</time>
      </trkpt>
      <trkpt lat="46.78959" lon="6.46761">
        <ele>1389</ele>
        <time>2016-05-08T09:10:40.620Z</time>
      </trkpt>
      <trkpt lat="46.78958" lon="6.46763">
        <ele>1388</ele>
        <time>2016-05-08T09:10:42.620Z</time>
      </trkpt>
      <trkpt lat="46.78956" lon="6.46764">
        <ele>1388</ele>
        <time>2016-05-08T09:10:45.620Z</time>
      </trkpt>
      <trkpt lat="46.78954" lon="6.46765">
        <ele>1388</ele>
        <time>2016-05-08T09:10:47.620Z</time>
      </trkpt>
      <trkpt lat="46.78952" lon="6.46767">
        <ele>1388</ele>
        <time>2016-05-08T09:10:49.620Z</time>
      </trkpt>
      <trkpt lat="46.78949" lon="6.46768">
        <ele>1386</ele>
        <time>2016-05-08T09:10:52.620Z</time>
      </trkpt>
      <trkpt lat="46.7895" lon="6.46765">
        <ele>1386</ele>
        <time>2016-05-08T09:10:54.620Z</time>
      </trkpt>
      <trkpt lat="46.78952" lon="6.46763">
        <ele>1386</ele>
        <time>2016-05-08T09:10:55.620Z</time>
      </trkpt>
      <trkpt lat="46.78953" lon="6.46761">
        <ele>1386</ele>
        <time>2016-05-08T09:10:56.620Z</time>
      </trkpt>
      <trkpt lat="46.78955" lon="6.46758">
        <ele>1386</ele>
        <time>2016-05-08T09:10:58.620Z</time>
      </trkpt>
      <trkpt lat="46.78958" lon="6.46755">
        <ele>1386</ele>
        <time>2016-05-08T09:11:00.620Z</time>
      </trkpt>
      <trkpt lat="46.78955" lon="6.46754">
        <ele>1383</ele>
        <time>2016-05-08T09:11:05.620Z</time>
      </trkpt>
      <trkpt lat="46.78953" lon="6.46755">
        <ele>1383</ele>
        <time>2016-05-08T09:11:07.620Z</time>
      </trkpt>
      <trkpt lat="46.7895" lon="6.46756">
        <ele>1383</ele>
        <time>2016-05-08T09:11:09.620Z</time>
      </trkpt>
      <trkpt lat="46.78948" lon="6.46758">
        <ele>1383</ele>
        <time>2016-05-08T09:11:11.620Z</time>
      </trkpt>
      <trkpt lat="46.78946" lon="6.4676">
        <ele>1382</ele>
        <time>2016-05-08T09:11:13.620Z</time>
      </trkpt>
      <trkpt lat="46.78944" lon="6.46762">
        <ele>1382</ele>
        <time>2016-05-08T09:11:15.620Z</time>
      </trkpt>
      <trkpt lat="46.78942" lon="6.46764">
        <ele>1382</ele>
        <time>2016-05-08T09:11:18.620Z</time>
      </trkpt>
      <trkpt lat="46.7894" lon="6.46764">
        <ele>1382</ele>
        <time>2016-05-08T09:11:20.620Z</time>
      </trkpt>
      <trkpt lat="46.78937" lon="6.46765">
        <ele>1379</ele>
        <time>2016-05-08T09:11:22.620Z</time>
      </trkpt>
      <trkpt lat="46.78935" lon="6.46764">
        <ele>1379</ele>
        <time>2016-05-08T09:11:25.620Z</time>
      </trkpt>
      <trkpt lat="46.78933" lon="6.46764">
        <ele>1378</ele>
        <time>2016-05-08T09:11:28.620Z</time>
      </trkpt>
      <trkpt lat="46.78932" lon="6.46767">
        <ele>1377</ele>
        <time>2016-05-08T09:11:32.620Z</time>
      </trkpt>
      <trkpt lat="46.78929" lon="6.46767">
        <ele>1377</ele>
        <time>2016-05-08T09:11:34.620Z</time>
      </trkpt>
      <trkpt lat="46.78927" lon="6.46769">
        <ele>1377</ele>
        <time>2016-05-08T09:11:36.620Z</time>
      </trkpt>
      <trkpt lat="46.78926" lon="6.46772">
        <ele>1377</ele>
        <time>2016-05-08T09:11:38.620Z</time>
      </trkpt>
      <trkpt lat="46.78924" lon="6.46773">
        <ele>1377</ele>
        <time>2016-05-08T09:11:41.620Z</time>
      </trkpt>
      <trkpt lat="46.78922" lon="6.46771">
        <ele>1374</ele>
        <time>2016-05-08T09:11:51.620Z</time>
      </trkpt>
      <trkpt lat="46.78923" lon="6.46768">
        <ele>1373</ele>
        <time>2016-05-08T09:11:54.620Z</time>
      </trkpt>
      <trkpt lat="46.78921" lon="6.4677">
        <ele>1373</ele>
        <time>2016-05-08T09:11:59.620Z</time>
      </trkpt>
      <trkpt lat="46.7892" lon="6.46772">
        <ele>1370</ele>
        <time>2016-05-08T09:12:02.620Z</time>
      </trkpt>
      <trkpt lat="46.78918" lon="6.46774">
        <ele>1370</ele>
        <time>2016-05-08T09:12:05.620Z</time>
      </trkpt>
      <trkpt lat="46.78916" lon="6.46775">
        <ele>1369</ele>
        <time>2016-05-08T09:12:12.620Z</time>
      </trkpt>
      <trkpt lat="46.78917" lon="6.46772">
        <ele>1369</ele>
        <time>2016-05-08T09:12:15.620Z</time>
      </trkpt>
      <trkpt lat="46.78917" lon="6.46767">
        <ele>1366</ele>
        <time>2016-05-08T09:12:23.620Z</time>
      </trkpt>
      <trkpt lat="46.78915" lon="6.46768">
        <ele>1365</ele>
        <time>2016-05-08T09:12:27.620Z</time>
      </trkpt>
      <trkpt lat="46.78914" lon="6.46765">
        <ele>1364</ele>
        <time>2016-05-08T09:12:32.620Z</time>
      </trkpt>
      <trkpt lat="46.78913" lon="6.46762">
        <ele>1364</ele>
        <time>2016-05-08T09:12:36.620Z</time>
      </trkpt>
      <trkpt lat="46.78913" lon="6.46759">
        <ele>1364</ele>
        <time>2016-05-08T09:12:39.620Z</time>
      </trkpt>
      <trkpt lat="46.78911" lon="6.46757">
        <ele>1361</ele>
        <time>2016-05-08T09:12:45.620Z</time>
      </trkpt>
      <trkpt lat="46.78909" lon="6.46758">
        <ele>1359</ele>
        <time>2016-05-08T09:12:49.620Z</time>
      </trkpt>
      <trkpt lat="46.78907" lon="6.46757">
        <ele>1355.0199936</ele>
        <time>2016-05-08T09:12:56.620Z</time>
      </trkpt>
      <trkpt lat="46.78905" lon="6.46754">
        <ele>1355</ele>
        <time>2016-05-08T09:12:59.620Z</time>
      </trkpt>
      <trkpt lat="46.78904" lon="6.46751">
        <ele>1354</ele>
        <time>2016-05-08T09:13:02.620Z</time>
      </trkpt>
      <trkpt lat="46.78904" lon="6.46748">
        <ele>1354</ele>
        <time>2016-05-08T09:13:05.620Z</time>
      </trkpt>
      <trkpt lat="46.78902" lon="6.46746">
        <ele>1353</ele>
        <time>2016-05-08T09:13:08.620Z</time>
      </trkpt>
      <trkpt lat="46.78902" lon="6.46743">
        <ele>1352.0100096</ele>
        <time>2016-05-08T09:13:11.620Z</time>
      </trkpt>
      <trkpt lat="46.78901" lon="6.46739">
        <ele>1352</ele>
        <time>2016-05-08T09:13:14.620Z</time>
      </trkpt>
      <trkpt lat="46.789" lon="6.46737">
        <ele>1352</ele>
        <time>2016-05-08T09:13:17.620Z</time>
      </trkpt>
      <trkpt lat="46.78899" lon="6.46729">
        <ele>1350</ele>
        <time>2016-05-08T09:13:24.620Z</time>
      </trkpt>
      <trkpt lat="46.78897" lon="6.46728">
        <ele>1350</ele>
        <time>2016-05-08T09:13:27.620Z</time>
      </trkpt>
      <trkpt lat="46.78896" lon="6.46731">
        <ele>1347</ele>
        <time>2016-05-08T09:13:33.620Z</time>
      </trkpt>
      <trkpt lat="46.78895" lon="6.46734">
        <ele>1346.0099968</ele>
        <time>2016-05-08T09:13:36.620Z</time>
      </trkpt>
      <trkpt lat="46.78895" lon="6.46738">
        <ele>1346</ele>
        <time>2016-05-08T09:13:39.620Z</time>
      </trkpt>
      <trkpt lat="46.78894" lon="6.4674">
        <ele>1345.0100096</ele>
        <time>2016-05-08T09:13:41.620Z</time>
      </trkpt>
      <trkpt lat="46.78887" lon="6.46748">
        <ele>1345</ele>
        <time>2016-05-08T09:13:48.620Z</time>
      </trkpt>
      <trkpt lat="46.78879" lon="6.46757">
        <ele>1344</ele>
        <time>2016-05-08T09:13:55.620Z</time>
      </trkpt>
      <trkpt lat="46.78878" lon="6.4676">
        <ele>1344</ele>
        <time>2016-05-08T09:14:00.620Z</time>
      </trkpt>
      <trkpt lat="46.78876" lon="6.46756">
        <ele>1339.050048</ele>
        <time>2016-05-08T09:14:01.620Z</time>
      </trkpt>
      <trkpt lat="46.78876" lon="6.46753">
        <ele>1339</ele>
        <time>2016-05-08T09:14:03.620Z</time>
      </trkpt>
      <trkpt lat="46.78876" lon="6.4675">
        <ele>1339</ele>
        <time>2016-05-08T09:14:05.620Z</time>
      </trkpt>
      <trkpt lat="46.78875" lon="6.46746">
        <ele>1339</ele>
        <time>2016-05-08T09:14:08.620Z</time>
      </trkpt>
      <trkpt lat="46.78875" lon="6.46744">
        <ele>1339</ele>
        <time>2016-05-08T09:14:10.620Z</time>
      </trkpt>
      <trkpt lat="46.78873" lon="6.46739">
        <ele>1338</ele>
        <time>2016-05-08T09:14:14.620Z</time>
      </trkpt>
      <trkpt lat="46.78873" lon="6.46735">
        <ele>1338</ele>
        <time>2016-05-08T09:14:16.620Z</time>
      </trkpt>
      <trkpt lat="46.78872" lon="6.46732">
        <ele>1338</ele>
        <time>2016-05-08T09:14:18.620Z</time>
      </trkpt>
      <trkpt lat="46.78873" lon="6.46729">
        <ele>1338</ele>
        <time>2016-05-08T09:14:20.620Z</time>
      </trkpt>
      <trkpt lat="46.78871" lon="6.46724">
        <ele>1333</ele>
        <time>2016-05-08T09:14:26.620Z</time>
      </trkpt>
      <trkpt lat="46.78873" lon="6.46717">
        <ele>1332</ele>
        <time>2016-05-08T09:14:35.620Z</time>
      </trkpt>
      <trkpt lat="46.78874" lon="6.4671">
        <ele>1332</ele>
        <time>2016-05-08T09:15:18.620Z</time>
      </trkpt>
      <trkpt lat="46.78876" lon="6.46715">
        <ele>1332</ele>
        <time>2016-05-08T09:16:54.620Z</time>
      </trkpt>
      <trkpt lat="46.78874" lon="6.46718">
        <ele>1332</ele>
        <time>2016-05-08T09:16:57.620Z</time>
      </trkpt>
      <trkpt lat="46.78872" lon="6.4672">
        <ele>1332</ele>
        <time>2016-05-08T09:16:59.620Z</time>
      </trkpt>
      <trkpt lat="46.7887" lon="6.46721">
        <ele>1331.0142992978</ele>
        <time>2016-05-08T09:17:01.620Z</time>
      </trkpt>
      <trkpt lat="46.78868" lon="6.46724">
        <ele>1331</ele>
        <time>2016-05-08T09:17:03.620Z</time>
      </trkpt>
      <trkpt lat="46.78865" lon="6.46729">
        <ele>1331</ele>
        <time>2016-05-08T09:17:07.620Z</time>
      </trkpt>
      <trkpt lat="46.78863" lon="6.46731">
        <ele>1331</ele>
        <time>2016-05-08T09:17:09.620Z</time>
      </trkpt>
      <trkpt lat="46.78859" lon="6.46736">
        <ele>1330</ele>
        <time>2016-05-08T09:17:14.620Z</time>
      </trkpt>
      <trkpt lat="46.78857" lon="6.46738">
        <ele>1330</ele>
        <time>2016-05-08T09:17:17.620Z</time>
      </trkpt>
      <trkpt lat="46.78853" lon="6.46743">
        <ele>1327</ele>
        <time>2016-05-08T09:17:23.620Z</time>
      </trkpt>
      <trkpt lat="46.78852" lon="6.46745">
        <ele>1325.0392028913</ele>
        <time>2016-05-08T09:17:26.620Z</time>
      </trkpt>
      <trkpt lat="46.78845" lon="6.46754">
        <ele>1322</ele>
        <time>2016-05-08T09:17:36.620Z</time>
      </trkpt>
      <trkpt lat="46.78841" lon="6.46758">
        <ele>1322</ele>
        <time>2016-05-08T09:17:39.620Z</time>
      </trkpt>
      <trkpt lat="46.78839" lon="6.46761">
        <ele>1321</ele>
        <time>2016-05-08T09:17:42.620Z</time>
      </trkpt>
      <trkpt lat="46.78837" lon="6.46763">
        <ele>1321</ele>
        <time>2016-05-08T09:17:44.620Z</time>
      </trkpt>
      <trkpt lat="46.78835" lon="6.46765">
        <ele>1321</ele>
        <time>2016-05-08T09:17:46.620Z</time>
      </trkpt>
      <trkpt lat="46.78832" lon="6.46767">
        <ele>1321</ele>
        <time>2016-05-08T09:17:48.620Z</time>
      </trkpt>
      <trkpt lat="46.78829" lon="6.46768">
        <ele>1321</ele>
        <time>2016-05-08T09:17:50.620Z</time>
      </trkpt>
      <trkpt lat="46.78827" lon="6.46768">
        <ele>1317.0792335184</ele>
        <time>2016-05-08T09:17:51.620Z</time>
      </trkpt>
      <trkpt lat="46.78824" lon="6.4677">
        <ele>1317</ele>
        <time>2016-05-08T09:17:53.620Z</time>
      </trkpt>
      <trkpt lat="46.78823" lon="6.46772">
        <ele>1314</ele>
        <time>2016-05-08T09:17:56.620Z</time>
      </trkpt>
      <trkpt lat="46.78821" lon="6.46774">
        <ele>1314</ele>
        <time>2016-05-08T09:17:58.620Z</time>
      </trkpt>
      <trkpt lat="46.78818" lon="6.46777">
        <ele>1311.0300288</ele>
        <time>2016-05-08T09:18:01.620Z</time>
      </trkpt>
      <trkpt lat="46.78816" lon="6.46779">
        <ele>1310.0100096</ele>
        <time>2016-05-08T09:18:03.620Z</time>
      </trkpt>
      <trkpt lat="46.78814" lon="6.4678">
        <ele>1309.0100096</ele>
        <time>2016-05-08T09:18:05.620Z</time>
      </trkpt>
      <trkpt lat="46.78812" lon="6.4678">
        <ele>1309</ele>
        <time>2016-05-08T09:18:07.620Z</time>
      </trkpt>
      <trkpt lat="46.7881" lon="6.46778">
        <ele>1309</ele>
        <time>2016-05-08T09:18:09.620Z</time>
      </trkpt>
      <trkpt lat="46.7881" lon="6.46775">
        <ele>1308</ele>
        <time>2016-05-08T09:18:11.620Z</time>
      </trkpt>
      <trkpt lat="46.7881" lon="6.46771">
        <ele>1308</ele>
        <time>2016-05-08T09:18:13.620Z</time>
      </trkpt>
      <trkpt lat="46.78807" lon="6.46775">
        <ele>1308</ele>
        <time>2016-05-08T09:18:24.620Z</time>
      </trkpt>
      <trkpt lat="46.78805" lon="6.46776">
        <ele>1308</ele>
        <time>2016-05-08T09:18:26.620Z</time>
      </trkpt>
      <trkpt lat="46.78799" lon="6.4678">
        <ele>1305</ele>
        <time>2016-05-08T09:18:33.620Z</time>
      </trkpt>
      <trkpt lat="46.78798" lon="6.46782">
        <ele>1305</ele>
        <time>2016-05-08T09:18:35.620Z</time>
      </trkpt>
      <trkpt lat="46.78796" lon="6.46785">
        <ele>1304</ele>
        <time>2016-05-08T09:18:37.620Z</time>
      </trkpt>
      <trkpt lat="46.78795" lon="6.46788">
        <ele>1304</ele>
        <time>2016-05-08T09:18:39.620Z</time>
      </trkpt>
      <trkpt lat="46.78794" lon="6.46792">
        <ele>1302.0200192</ele>
        <time>2016-05-08T09:18:41.620Z</time>
      </trkpt>
      <trkpt lat="46.78794" lon="6.46795">
        <ele>1302</ele>
        <time>2016-05-08T09:18:43.620Z</time>
      </trkpt>
      <trkpt lat="46.78793" lon="6.46798">
        <ele>1302</ele>
        <time>2016-05-08T09:18:45.620Z</time>
      </trkpt>
      <trkpt lat="46.78792" lon="6.46802">
        <ele>1302</ele>
        <time>2016-05-08T09:18:47.620Z</time>
      </trkpt>
      <trkpt lat="46.78791" lon="6.46803">
        <ele>1302</ele>
        <time>2016-05-08T09:18:48.620Z</time>
      </trkpt>
      <trkpt lat="46.78788" lon="6.46806">
        <ele>1302</ele>
        <time>2016-05-08T09:18:50.620Z</time>
      </trkpt>
      <trkpt lat="46.78787" lon="6.46808">
        <ele>1300.0200192</ele>
        <time>2016-05-08T09:18:51.620Z</time>
      </trkpt>
      <trkpt lat="46.78786" lon="6.4681">
        <ele>1300</ele>
        <time>2016-05-08T09:18:53.620Z</time>
      </trkpt>
      <trkpt lat="46.78784" lon="6.46818">
        <ele>1300</ele>
        <time>2016-05-08T09:18:59.620Z</time>
      </trkpt>
      <trkpt lat="46.78782" lon="6.46821">
        <ele>1296.0400384</ele>
        <time>2016-05-08T09:19:01.620Z</time>
      </trkpt>
      <trkpt lat="46.78782" lon="6.46824">
        <ele>1296</ele>
        <time>2016-05-08T09:19:03.620Z</time>
      </trkpt>
      <trkpt lat="46.78783" lon="6.46826">
        <ele>1296</ele>
        <time>2016-05-08T09:19:05.620Z</time>
      </trkpt>
      <trkpt lat="46.78781" lon="6.46833">
        <ele>1294.0200192</ele>
        <time>2016-05-08T09:19:11.620Z</time>
      </trkpt>
      <trkpt lat="46.7878" lon="6.46836">
        <ele>1294</ele>
        <time>2016-05-08T09:19:13.620Z</time>
      </trkpt>
      <trkpt lat="46.78778" lon="6.46839">
        <ele>1294</ele>
        <time>2016-05-08T09:19:16.620Z</time>
      </trkpt>
      <trkpt lat="46.78778" lon="6.46843">
        <ele>1294</ele>
        <time>2016-05-08T09:19:18.620Z</time>
      </trkpt>
      <trkpt lat="46.78779" lon="6.46846">
        <ele>1294</ele>
        <time>2016-05-08T09:19:20.620Z</time>
      </trkpt>
      <trkpt lat="46.7878" lon="6.4685">
        <ele>1292</ele>
        <time>2016-05-08T09:19:23.620Z</time>
      </trkpt>
      <trkpt lat="46.78784" lon="6.46862">
        <ele>1292</ele>
        <time>2016-05-08T09:19:30.620Z</time>
      </trkpt>
      <trkpt lat="46.78786" lon="6.46875">
        <ele>1292</ele>
        <time>2016-05-08T09:19:37.620Z</time>
      </trkpt>
      <trkpt lat="46.78787" lon="6.46879">
        <ele>1292</ele>
        <time>2016-05-08T09:19:39.620Z</time>
      </trkpt>
      <trkpt lat="46.78788" lon="6.46882">
        <ele>1292</ele>
        <time>2016-05-08T09:19:41.620Z</time>
      </trkpt>
      <trkpt lat="46.78792" lon="6.46895">
        <ele>1292</ele>
        <time>2016-05-08T09:19:49.620Z</time>
      </trkpt>
      <trkpt lat="46.7879" lon="6.469">
        <ele>1292</ele>
        <time>2016-05-08T09:19:52.620Z</time>
      </trkpt>
      <trkpt lat="46.7879" lon="6.46916">
        <ele>1292</ele>
        <time>2016-05-08T09:19:59.620Z</time>
      </trkpt>
      <trkpt lat="46.78788" lon="6.46929">
        <ele>1292</ele>
        <time>2016-05-08T09:20:05.620Z</time>
      </trkpt>
      <trkpt lat="46.78789" lon="6.46943">
        <ele>1292</ele>
        <time>2016-05-08T09:20:13.620Z</time>
      </trkpt>
      <trkpt lat="46.78788" lon="6.46957">
        <ele>1292</ele>
        <time>2016-05-08T09:20:19.620Z</time>
      </trkpt>
      <trkpt lat="46.78786" lon="6.4697">
        <ele>1293</ele>
        <time>2016-05-08T09:20:25.620Z</time>
      </trkpt>
      <trkpt lat="46.78785" lon="6.46976">
        <ele>1293</ele>
        <time>2016-05-08T09:20:28.620Z</time>
      </trkpt>
      <trkpt lat="46.78786" lon="6.4699">
        <ele>1292</ele>
        <time>2016-05-08T09:20:35.620Z</time>
      </trkpt>
      <trkpt lat="46.78786" lon="6.47">
        <ele>1292</ele>
        <time>2016-05-08T09:20:39.620Z</time>
      </trkpt>
      <trkpt lat="46.78785" lon="6.47005">
        <ele>1292</ele>
        <time>2016-05-08T09:20:41.620Z</time>
      </trkpt>
      <trkpt lat="46.78786" lon="6.47009">
        <ele>1292</ele>
        <time>2016-05-08T09:20:43.620Z</time>
      </trkpt>
      <trkpt lat="46.78787" lon="6.47023">
        <ele>1292</ele>
        <time>2016-05-08T09:20:50.620Z</time>
      </trkpt>
      <trkpt lat="46.78787" lon="6.47028">
        <ele>1293</ele>
        <time>2016-05-08T09:20:53.620Z</time>
      </trkpt>
      <trkpt lat="46.78787" lon="6.47042">
        <ele>1293</ele>
        <time>2016-05-08T09:20:59.620Z</time>
      </trkpt>
      <trkpt lat="46.78787" lon="6.47052">
        <ele>1292</ele>
        <time>2016-05-08T09:21:05.620Z</time>
      </trkpt>
      <trkpt lat="46.78786" lon="6.47066">
        <ele>1292</ele>
        <time>2016-05-08T09:21:11.620Z</time>
      </trkpt>
      <trkpt lat="46.78787" lon="6.4707">
        <ele>1292</ele>
        <time>2016-05-08T09:21:13.620Z</time>
      </trkpt>
      <trkpt lat="46.78788" lon="6.47073">
        <ele>1292</ele>
        <time>2016-05-08T09:21:15.620Z</time>
      </trkpt>
      <trkpt lat="46.78788" lon="6.47087">
        <ele>1292</ele>
        <time>2016-05-08T09:21:23.620Z</time>
      </trkpt>
      <trkpt lat="46.78787" lon="6.471">
        <ele>1292</ele>
        <time>2016-05-08T09:21:28.620Z</time>
      </trkpt>
      <trkpt lat="46.78786" lon="6.47113">
        <ele>1292</ele>
        <time>2016-05-08T09:21:34.620Z</time>
      </trkpt>
      <trkpt lat="46.78784" lon="6.47122">
        <ele>1292</ele>
        <time>2016-05-08T09:21:39.620Z</time>
      </trkpt>
      <trkpt lat="46.78787" lon="6.47136">
        <ele>1292</ele>
        <time>2016-05-08T09:21:45.620Z</time>
      </trkpt>
      <trkpt lat="46.78789" lon="6.4715">
        <ele>1292</ele>
        <time>2016-05-08T09:21:50.620Z</time>
      </trkpt>
      <trkpt lat="46.78787" lon="6.47164">
        <ele>1292</ele>
        <time>2016-05-08T09:21:57.620Z</time>
      </trkpt>
      <trkpt lat="46.78787" lon="6.47172">
        <ele>1292</ele>
        <time>2016-05-08T09:22:00.620Z</time>
      </trkpt>
      <trkpt lat="46.78788" lon="6.47175">
        <ele>1293</ele>
        <time>2016-05-08T09:22:02.620Z</time>
      </trkpt>
      <trkpt lat="46.78788" lon="6.47186">
        <ele>1293</ele>
        <time>2016-05-08T09:22:07.620Z</time>
      </trkpt>
      <trkpt lat="46.78788" lon="6.47189">
        <ele>1293</ele>
        <time>2016-05-08T09:22:09.620Z</time>
      </trkpt>
      <trkpt lat="46.78788" lon="6.47193">
        <ele>1292</ele>
        <time>2016-05-08T09:22:11.620Z</time>
      </trkpt>
      <trkpt lat="46.78787" lon="6.47198">
        <ele>1292</ele>
        <time>2016-05-08T09:22:13.620Z</time>
      </trkpt>
      <trkpt lat="46.78786" lon="6.47202">
        <ele>1292</ele>
        <time>2016-05-08T09:22:15.620Z</time>
      </trkpt>
      <trkpt lat="46.78786" lon="6.47206">
        <ele>1292</ele>
        <time>2016-05-08T09:22:17.620Z</time>
      </trkpt>
      <trkpt lat="46.78787" lon="6.47211">
        <ele>1292</ele>
        <time>2016-05-08T09:22:19.620Z</time>
      </trkpt>
      <trkpt lat="46.78787" lon="6.47214">
        <ele>1292</ele>
        <time>2016-05-08T09:22:21.620Z</time>
      </trkpt>
      <trkpt lat="46.78787" lon="6.47218">
        <ele>1292</ele>
        <time>2016-05-08T09:22:23.620Z</time>
      </trkpt>
      <trkpt lat="46.78785" lon="6.47223">
        <ele>1292</ele>
        <time>2016-05-08T09:22:25.620Z</time>
      </trkpt>
      <trkpt lat="46.78784" lon="6.47227">
        <ele>1292</ele>
        <time>2016-05-08T09:22:27.620Z</time>
      </trkpt>
      <trkpt lat="46.78783" lon="6.47234">
        <ele>1292</ele>
        <time>2016-05-08T09:22:30.620Z</time>
      </trkpt>
      <trkpt lat="46.78783" lon="6.47244">
        <ele>1292</ele>
        <time>2016-05-08T09:22:35.620Z</time>
      </trkpt>
      <trkpt lat="46.78784" lon="6.4725">
        <ele>1292</ele>
        <time>2016-05-08T09:22:38.620Z</time>
      </trkpt>
      <trkpt lat="46.78784" lon="6.47255">
        <ele>1292</ele>
        <time>2016-05-08T09:22:40.620Z</time>
      </trkpt>
      <trkpt lat="46.78785" lon="6.47258">
        <ele>1291</ele>
        <time>2016-05-08T09:22:42.620Z</time>
      </trkpt>
      <trkpt lat="46.78786" lon="6.47263">
        <ele>1291</ele>
        <time>2016-05-08T09:22:44.620Z</time>
      </trkpt>
      <trkpt lat="46.78786" lon="6.47268">
        <ele>1291</ele>
        <time>2016-05-08T09:22:46.620Z</time>
      </trkpt>
      <trkpt lat="46.78786" lon="6.47273">
        <ele>1291</ele>
        <time>2016-05-08T09:22:48.620Z</time>
      </trkpt>
      <trkpt lat="46.78786" lon="6.47276">
        <ele>1291</ele>
        <time>2016-05-08T09:22:49.620Z</time>
      </trkpt>
      <trkpt lat="46.78786" lon="6.47278">
        <ele>1291</ele>
        <time>2016-05-08T09:22:50.620Z</time>
      </trkpt>
      <trkpt lat="46.78785" lon="6.47282">
        <ele>1292</ele>
        <time>2016-05-08T09:22:52.620Z</time>
      </trkpt>
      <trkpt lat="46.78784" lon="6.47286">
        <ele>1292</ele>
        <time>2016-05-08T09:22:54.620Z</time>
      </trkpt>
      <trkpt lat="46.78783" lon="6.47289">
        <ele>1292</ele>
        <time>2016-05-08T09:22:56.620Z</time>
      </trkpt>
      <trkpt lat="46.78782" lon="6.47294">
        <ele>1292</ele>
        <time>2016-05-08T09:22:58.620Z</time>
      </trkpt>
      <trkpt lat="46.78782" lon="6.47297">
        <ele>1292</ele>
        <time>2016-05-08T09:22:59.620Z</time>
      </trkpt>
      <trkpt lat="46.78781" lon="6.47301">
        <ele>1291.2424265932</ele>
        <time>2016-05-08T09:23:01.620Z</time>
      </trkpt>
      <trkpt lat="46.78781" lon="6.47306">
        <ele>1291</ele>
        <time>2016-05-08T09:23:03.620Z</time>
      </trkpt>
      <trkpt lat="46.78781" lon="6.47309">
        <ele>1291</ele>
        <time>2016-05-08T09:23:05.620Z</time>
      </trkpt>
      <trkpt lat="46.78781" lon="6.47312">
        <ele>1291</ele>
        <time>2016-05-08T09:23:07.620Z</time>
      </trkpt>
      <trkpt lat="46.78781" lon="6.4732">
        <ele>1291</ele>
        <time>2016-05-08T09:23:10.620Z</time>
      </trkpt>
      <trkpt lat="46.7878" lon="6.47325">
        <ele>1292</ele>
        <time>2016-05-08T09:23:12.620Z</time>
      </trkpt>
      <trkpt lat="46.78779" lon="6.47329">
        <ele>1292</ele>
        <time>2016-05-08T09:23:14.620Z</time>
      </trkpt>
      <trkpt lat="46.78779" lon="6.47334">
        <ele>1292</ele>
        <time>2016-05-08T09:23:16.620Z</time>
      </trkpt>
      <trkpt lat="46.78779" lon="6.47338">
        <ele>1292</ele>
        <time>2016-05-08T09:23:18.620Z</time>
      </trkpt>
      <trkpt lat="46.7878" lon="6.47342">
        <ele>1292</ele>
        <time>2016-05-08T09:23:20.620Z</time>
      </trkpt>
      <trkpt lat="46.7878" lon="6.47347">
        <ele>1292</ele>
        <time>2016-05-08T09:23:22.620Z</time>
      </trkpt>
      <trkpt lat="46.78779" lon="6.47351">
        <ele>1292</ele>
        <time>2016-05-08T09:23:23.620Z</time>
      </trkpt>
      <trkpt lat="46.78779" lon="6.47355">
        <ele>1292</ele>
        <time>2016-05-08T09:23:25.620Z</time>
      </trkpt>
      <trkpt lat="46.78778" lon="6.4736">
        <ele>1292</ele>
        <time>2016-05-08T09:23:27.620Z</time>
      </trkpt>
      <trkpt lat="46.78778" lon="6.47364">
        <ele>1292</ele>
        <time>2016-05-08T09:23:29.620Z</time>
      </trkpt>
      <trkpt lat="46.78778" lon="6.47368">
        <ele>1292</ele>
        <time>2016-05-08T09:23:31.620Z</time>
      </trkpt>
      <trkpt lat="46.78778" lon="6.47372">
        <ele>1292</ele>
        <time>2016-05-08T09:23:33.620Z</time>
      </trkpt>
      <trkpt lat="46.78778" lon="6.47377">
        <ele>1292</ele>
        <time>2016-05-08T09:23:35.620Z</time>
      </trkpt>
      <trkpt lat="46.78777" lon="6.47382">
        <ele>1292</ele>
        <time>2016-05-08T09:23:37.620Z</time>
      </trkpt>
      <trkpt lat="46.78777" lon="6.47386">
        <ele>1292</ele>
        <time>2016-05-08T09:23:39.620Z</time>
      </trkpt>
      <trkpt lat="46.78777" lon="6.4739">
        <ele>1292</ele>
        <time>2016-05-08T09:23:41.620Z</time>
      </trkpt>
      <trkpt lat="46.78777" lon="6.47394">
        <ele>1291</ele>
        <time>2016-05-08T09:23:43.620Z</time>
      </trkpt>
      <trkpt lat="46.78776" lon="6.47398">
        <ele>1291</ele>
        <time>2016-05-08T09:23:45.620Z</time>
      </trkpt>
      <trkpt lat="46.78777" lon="6.47402">
        <ele>1291</ele>
        <time>2016-05-08T09:23:47.620Z</time>
      </trkpt>
      <trkpt lat="46.78776" lon="6.47406">
        <ele>1291</ele>
        <time>2016-05-08T09:23:49.620Z</time>
      </trkpt>
      <trkpt lat="46.78776" lon="6.4741">
        <ele>1291</ele>
        <time>2016-05-08T09:23:51.620Z</time>
      </trkpt>
      <trkpt lat="46.78778" lon="6.47414">
        <ele>1291</ele>
        <time>2016-05-08T09:23:53.620Z</time>
      </trkpt>
      <trkpt lat="46.78778" lon="6.47419">
        <ele>1291</ele>
        <time>2016-05-08T09:23:55.620Z</time>
      </trkpt>
      <trkpt lat="46.78778" lon="6.47424">
        <ele>1290</ele>
        <time>2016-05-08T09:23:57.620Z</time>
      </trkpt>
      <trkpt lat="46.78778" lon="6.47428">
        <ele>1290</ele>
        <time>2016-05-08T09:23:59.620Z</time>
      </trkpt>
      <trkpt lat="46.78779" lon="6.47433">
        <ele>1290</ele>
        <time>2016-05-08T09:24:01.620Z</time>
      </trkpt>
      <trkpt lat="46.7878" lon="6.47437">
        <ele>1290</ele>
        <time>2016-05-08T09:24:03.620Z</time>
      </trkpt>
      <trkpt lat="46.78779" lon="6.47442">
        <ele>1290</ele>
        <time>2016-05-08T09:24:05.620Z</time>
      </trkpt>
      <trkpt lat="46.78779" lon="6.47446">
        <ele>1290</ele>
        <time>2016-05-08T09:24:07.620Z</time>
      </trkpt>
      <trkpt lat="46.78779" lon="6.47451">
        <ele>1290</ele>
        <time>2016-05-08T09:24:09.620Z</time>
      </trkpt>
      <trkpt lat="46.78779" lon="6.47454">
        <ele>1290</ele>
        <time>2016-05-08T09:24:10.620Z</time>
      </trkpt>
      <trkpt lat="46.78779" lon="6.47457">
        <ele>1290</ele>
        <time>2016-05-08T09:24:11.620Z</time>
      </trkpt>
      <trkpt lat="46.78779" lon="6.47461">
        <ele>1290</ele>
        <time>2016-05-08T09:24:13.620Z</time>
      </trkpt>
      <trkpt lat="46.78778" lon="6.47466">
        <ele>1290</ele>
        <time>2016-05-08T09:24:15.620Z</time>
      </trkpt>
      <trkpt lat="46.78779" lon="6.47469">
        <ele>1290</ele>
        <time>2016-05-08T09:24:17.620Z</time>
      </trkpt>
      <trkpt lat="46.78779" lon="6.47473">
        <ele>1290</ele>
        <time>2016-05-08T09:24:19.620Z</time>
      </trkpt>
      <trkpt lat="46.78779" lon="6.47477">
        <ele>1290</ele>
        <time>2016-05-08T09:24:21.620Z</time>
      </trkpt>
      <trkpt lat="46.78778" lon="6.47481">
        <ele>1290</ele>
        <time>2016-05-08T09:24:23.620Z</time>
      </trkpt>
      <trkpt lat="46.78778" lon="6.47485">
        <ele>1290</ele>
        <time>2016-05-08T09:24:25.620Z</time>
      </trkpt>
      <trkpt lat="46.78777" lon="6.47489">
        <ele>1290</ele>
        <time>2016-05-08T09:24:27.620Z</time>
      </trkpt>
      <trkpt lat="46.78778" lon="6.47493">
        <ele>1290</ele>
        <time>2016-05-08T09:24:29.620Z</time>
      </trkpt>
      <trkpt lat="46.78778" lon="6.47497">
        <ele>1290</ele>
        <time>2016-05-08T09:24:31.620Z</time>
      </trkpt>
      <trkpt lat="46.78778" lon="6.47501">
        <ele>1290</ele>
        <time>2016-05-08T09:24:33.620Z</time>
      </trkpt>
      <trkpt lat="46.78778" lon="6.47506">
        <ele>1290</ele>
        <time>2016-05-08T09:24:35.620Z</time>
      </trkpt>
      <trkpt lat="46.78777" lon="6.4751">
        <ele>1290</ele>
        <time>2016-05-08T09:24:37.620Z</time>
      </trkpt>
      <trkpt lat="46.78777" lon="6.47514">
        <ele>1290</ele>
        <time>2016-05-08T09:24:39.620Z</time>
      </trkpt>
      <trkpt lat="46.78776" lon="6.47518">
        <ele>1289.0100096</ele>
        <time>2016-05-08T09:24:41.620Z</time>
      </trkpt>
      <trkpt lat="46.78776" lon="6.47521">
        <ele>1289</ele>
        <time>2016-05-08T09:24:43.620Z</time>
      </trkpt>
      <trkpt lat="46.78776" lon="6.47526">
        <ele>1289</ele>
        <time>2016-05-08T09:24:45.620Z</time>
      </trkpt>
      <trkpt lat="46.78776" lon="6.4753">
        <ele>1289</ele>
        <time>2016-05-08T09:24:47.620Z</time>
      </trkpt>
      <trkpt lat="46.78775" lon="6.47534">
        <ele>1289</ele>
        <time>2016-05-08T09:24:49.620Z</time>
      </trkpt>
      <trkpt lat="46.78772" lon="6.47536">
        <ele>1288.0100096</ele>
        <time>2016-05-08T09:24:51.620Z</time>
      </trkpt>
      <trkpt lat="46.7877" lon="6.47537">
        <ele>1288</ele>
        <time>2016-05-08T09:24:53.620Z</time>
      </trkpt>
      <trkpt lat="46.78769" lon="6.47539">
        <ele>1288</ele>
        <time>2016-05-08T09:24:55.620Z</time>
      </trkpt>
      <trkpt lat="46.78768" lon="6.47542">
        <ele>1287</ele>
        <time>2016-05-08T09:24:57.620Z</time>
      </trkpt>
      <trkpt lat="46.78766" lon="6.47546">
        <ele>1287</ele>
        <time>2016-05-08T09:24:59.620Z</time>
      </trkpt>
      <trkpt lat="46.78764" lon="6.47549">
        <ele>1286</ele>
        <time>2016-05-08T09:25:01.620Z</time>
      </trkpt>
      <trkpt lat="46.78763" lon="6.47552">
        <ele>1286</ele>
        <time>2016-05-08T09:25:03.620Z</time>
      </trkpt>
      <trkpt lat="46.78761" lon="6.47556">
        <ele>1286</ele>
        <time>2016-05-08T09:25:05.620Z</time>
      </trkpt>
      <trkpt lat="46.7876" lon="6.47559">
        <ele>1286</ele>
        <time>2016-05-08T09:25:07.620Z</time>
      </trkpt>
      <trkpt lat="46.78759" lon="6.47563">
        <ele>1285</ele>
        <time>2016-05-08T09:25:09.620Z</time>
      </trkpt>
      <trkpt lat="46.78757" lon="6.47566">
        <ele>1285</ele>
        <time>2016-05-08T09:25:11.620Z</time>
      </trkpt>
      <trkpt lat="46.78756" lon="6.4757">
        <ele>1285</ele>
        <time>2016-05-08T09:25:13.620Z</time>
      </trkpt>
      <trkpt lat="46.78754" lon="6.47573">
        <ele>1285</ele>
        <time>2016-05-08T09:25:15.620Z</time>
      </trkpt>
      <trkpt lat="46.78753" lon="6.47575">
        <ele>1285</ele>
        <time>2016-05-08T09:25:16.620Z</time>
      </trkpt>
      <trkpt lat="46.7875" lon="6.47579">
        <ele>1285</ele>
        <time>2016-05-08T09:25:18.620Z</time>
      </trkpt>
      <trkpt lat="46.78748" lon="6.47583">
        <ele>1285</ele>
        <time>2016-05-08T09:25:20.620Z</time>
      </trkpt>
      <trkpt lat="46.78747" lon="6.47586">
        <ele>1284</ele>
        <time>2016-05-08T09:25:22.620Z</time>
      </trkpt>
      <trkpt lat="46.78745" lon="6.47589">
        <ele>1284</ele>
        <time>2016-05-08T09:25:24.620Z</time>
      </trkpt>
      <trkpt lat="46.78744" lon="6.47593">
        <ele>1284</ele>
        <time>2016-05-08T09:25:27.620Z</time>
      </trkpt>
      <trkpt lat="46.78743" lon="6.47597">
        <ele>1284</ele>
        <time>2016-05-08T09:25:29.620Z</time>
      </trkpt>
      <trkpt lat="46.78742" lon="6.47601">
        <ele>1282</ele>
        <time>2016-05-08T09:25:31.620Z</time>
      </trkpt>
      <trkpt lat="46.78741" lon="6.47604">
        <ele>1282</ele>
        <time>2016-05-08T09:25:33.620Z</time>
      </trkpt>
      <trkpt lat="46.7874" lon="6.47607">
        <ele>1282</ele>
        <time>2016-05-08T09:25:35.620Z</time>
      </trkpt>
      <trkpt lat="46.78739" lon="6.4761">
        <ele>1281</ele>
        <time>2016-05-08T09:25:37.620Z</time>
      </trkpt>
      <trkpt lat="46.78738" lon="6.47613">
        <ele>1281</ele>
        <time>2016-05-08T09:25:39.620Z</time>
      </trkpt>
      <trkpt lat="46.78737" lon="6.47615">
        <ele>1280</ele>
        <time>2016-05-08T09:25:41.620Z</time>
      </trkpt>
      <trkpt lat="46.78736" lon="6.47619">
        <ele>1280</ele>
        <time>2016-05-08T09:25:43.620Z</time>
      </trkpt>
      <trkpt lat="46.78735" lon="6.47622">
        <ele>1280</ele>
        <time>2016-05-08T09:25:45.620Z</time>
      </trkpt>
      <trkpt lat="46.78733" lon="6.47625">
        <ele>1280</ele>
        <time>2016-05-08T09:25:47.620Z</time>
      </trkpt>
      <trkpt lat="46.78732" lon="6.47628">
        <ele>1280</ele>
        <time>2016-05-08T09:25:49.620Z</time>
      </trkpt>
      <trkpt lat="46.78731" lon="6.47632">
        <ele>1279.0100096</ele>
        <time>2016-05-08T09:25:51.620Z</time>
      </trkpt>
      <trkpt lat="46.78729" lon="6.47636">
        <ele>1279</ele>
        <time>2016-05-08T09:25:53.620Z</time>
      </trkpt>
      <trkpt lat="46.78728" lon="6.47639">
        <ele>1279</ele>
        <time>2016-05-08T09:25:55.620Z</time>
      </trkpt>
      <trkpt lat="46.78727" lon="6.47642">
        <ele>1279</ele>
        <time>2016-05-08T09:25:57.620Z</time>
      </trkpt>
      <trkpt lat="46.78726" lon="6.47645">
        <ele>1279</ele>
        <time>2016-05-08T09:25:59.620Z</time>
      </trkpt>
      <trkpt lat="46.78724" lon="6.47648">
        <ele>1279</ele>
        <time>2016-05-08T09:26:01.620Z</time>
      </trkpt>
      <trkpt lat="46.78723" lon="6.47651">
        <ele>1279</ele>
        <time>2016-05-08T09:26:03.620Z</time>
      </trkpt>
      <trkpt lat="46.78721" lon="6.47653">
        <ele>1279</ele>
        <time>2016-05-08T09:26:05.620Z</time>
      </trkpt>
      <trkpt lat="46.7872" lon="6.47656">
        <ele>1279</ele>
        <time>2016-05-08T09:26:07.620Z</time>
      </trkpt>
      <trkpt lat="46.78718" lon="6.47659">
        <ele>1279</ele>
        <time>2016-05-08T09:26:09.620Z</time>
      </trkpt>
      <trkpt lat="46.78717" lon="6.47661">
        <ele>1277.4732907966</ele>
        <time>2016-05-08T09:26:11.620Z</time>
      </trkpt>
      <trkpt lat="46.78716" lon="6.47664">
        <ele>1277</ele>
        <time>2016-05-08T09:26:13.620Z</time>
      </trkpt>
      <trkpt lat="46.78714" lon="6.47667">
        <ele>1277</ele>
        <time>2016-05-08T09:26:15.620Z</time>
      </trkpt>
      <trkpt lat="46.78712" lon="6.4767">
        <ele>1277</ele>
        <time>2016-05-08T09:26:17.620Z</time>
      </trkpt>
      <trkpt lat="46.78711" lon="6.47673">
        <ele>1277</ele>
        <time>2016-05-08T09:26:19.620Z</time>
      </trkpt>
      <trkpt lat="46.78709" lon="6.47675">
        <ele>1276</ele>
        <time>2016-05-08T09:26:21.620Z</time>
      </trkpt>
      <trkpt lat="46.78706" lon="6.47677">
        <ele>1276</ele>
        <time>2016-05-08T09:26:23.620Z</time>
      </trkpt>
      <trkpt lat="46.78703" lon="6.47679">
        <ele>1276</ele>
        <time>2016-05-08T09:26:25.620Z</time>
      </trkpt>
      <trkpt lat="46.78702" lon="6.47681">
        <ele>1276</ele>
        <time>2016-05-08T09:26:27.620Z</time>
      </trkpt>
      <trkpt lat="46.787" lon="6.47683">
        <ele>1276</ele>
        <time>2016-05-08T09:26:29.620Z</time>
      </trkpt>
      <trkpt lat="46.78698" lon="6.47684">
        <ele>1276.9857007022</ele>
        <time>2016-05-08T09:26:31.620Z</time>
      </trkpt>
      <trkpt lat="46.78696" lon="6.47686">
        <ele>1277</ele>
        <time>2016-05-08T09:26:33.620Z</time>
      </trkpt>
      <trkpt lat="46.78695" lon="6.47687">
        <ele>1277</ele>
        <time>2016-05-08T09:26:35.620Z</time>
      </trkpt>
      <trkpt lat="46.78692" lon="6.4769">
        <ele>1277</ele>
        <time>2016-05-08T09:26:37.620Z</time>
      </trkpt>
      <trkpt lat="46.7869" lon="6.47691">
        <ele>1276</ele>
        <time>2016-05-08T09:26:39.620Z</time>
      </trkpt>
      <trkpt lat="46.78688" lon="6.4769">
        <ele>1277</ele>
        <time>2016-05-08T09:26:42.620Z</time>
      </trkpt>
      <trkpt lat="46.78686" lon="6.47687">
        <ele>1277</ele>
        <time>2016-05-08T09:27:13.620Z</time>
      </trkpt>
      <trkpt lat="46.78685" lon="6.47685">
        <ele>1277</ele>
        <time>2016-05-08T09:27:15.620Z</time>
      </trkpt>
      <trkpt lat="46.78684" lon="6.47681">
        <ele>1277</ele>
        <time>2016-05-08T09:27:17.620Z</time>
      </trkpt>
      <trkpt lat="46.78683" lon="6.47678">
        <ele>1277</ele>
        <time>2016-05-08T09:27:19.620Z</time>
      </trkpt>
      <trkpt lat="46.78683" lon="6.47674">
        <ele>1277</ele>
        <time>2016-05-08T09:27:21.620Z</time>
      </trkpt>
      <trkpt lat="46.78683" lon="6.47671">
        <ele>1277</ele>
        <time>2016-05-08T09:27:23.620Z</time>
      </trkpt>
      <trkpt lat="46.78682" lon="6.47668">
        <ele>1277</ele>
        <time>2016-05-08T09:27:25.620Z</time>
      </trkpt>
      <trkpt lat="46.78682" lon="6.47665">
        <ele>1277</ele>
        <time>2016-05-08T09:27:27.620Z</time>
      </trkpt>
      <trkpt lat="46.78682" lon="6.47662">
        <ele>1277</ele>
        <time>2016-05-08T09:27:29.620Z</time>
      </trkpt>
      <trkpt lat="46.78681" lon="6.47659">
        <ele>1276</ele>
        <time>2016-05-08T09:28:03.620Z</time>
      </trkpt>
      <trkpt lat="46.7868" lon="6.47656">
        <ele>1276</ele>
        <time>2016-05-08T09:28:05.620Z</time>
      </trkpt>
      <trkpt lat="46.78679" lon="6.47652">
        <ele>1276</ele>
        <time>2016-05-08T09:28:08.620Z</time>
      </trkpt>
      <trkpt lat="46.78679" lon="6.47649">
        <ele>1276</ele>
        <time>2016-05-08T09:28:10.620Z</time>
      </trkpt>
      <trkpt lat="46.78678" lon="6.47646">
        <ele>1275</ele>
        <time>2016-05-08T09:28:12.620Z</time>
      </trkpt>
      <trkpt lat="46.78677" lon="6.47642">
        <ele>1275</ele>
        <time>2016-05-08T09:28:14.620Z</time>
      </trkpt>
      <trkpt lat="46.78676" lon="6.47639">
        <ele>1275</ele>
        <time>2016-05-08T09:28:16.620Z</time>
      </trkpt>
      <trkpt lat="46.78674" lon="6.47637">
        <ele>1275</ele>
        <time>2016-05-08T09:28:18.620Z</time>
      </trkpt>
      <trkpt lat="46.78673" lon="6.47633">
        <ele>1275</ele>
        <time>2016-05-08T09:28:20.620Z</time>
      </trkpt>
      <trkpt lat="46.78673" lon="6.47629">
        <ele>1274</ele>
        <time>2016-05-08T09:28:22.620Z</time>
      </trkpt>
      <trkpt lat="46.78672" lon="6.47626">
        <ele>1274</ele>
        <time>2016-05-08T09:28:24.620Z</time>
      </trkpt>
      <trkpt lat="46.78672" lon="6.47622">
        <ele>1274</ele>
        <time>2016-05-08T09:28:26.620Z</time>
      </trkpt>
      <trkpt lat="46.78671" lon="6.47618">
        <ele>1274</ele>
        <time>2016-05-08T09:28:28.620Z</time>
      </trkpt>
      <trkpt lat="46.78671" lon="6.47615">
        <ele>1274</ele>
        <time>2016-05-08T09:28:30.620Z</time>
      </trkpt>
      <trkpt lat="46.7867" lon="6.47611">
        <ele>1273</ele>
        <time>2016-05-08T09:28:32.620Z</time>
      </trkpt>
      <trkpt lat="46.7867" lon="6.47608">
        <ele>1273</ele>
        <time>2016-05-08T09:28:34.620Z</time>
      </trkpt>
      <trkpt lat="46.78669" lon="6.47604">
        <ele>1273</ele>
        <time>2016-05-08T09:28:36.620Z</time>
      </trkpt>
      <trkpt lat="46.78668" lon="6.476">
        <ele>1273</ele>
        <time>2016-05-08T09:28:38.620Z</time>
      </trkpt>
      <trkpt lat="46.78668" lon="6.47597">
        <ele>1273</ele>
        <time>2016-05-08T09:28:40.620Z</time>
      </trkpt>
      <trkpt lat="46.78667" lon="6.47594">
        <ele>1271</ele>
        <time>2016-05-08T09:28:42.620Z</time>
      </trkpt>
      <trkpt lat="46.78667" lon="6.4759">
        <ele>1271</ele>
        <time>2016-05-08T09:28:44.620Z</time>
      </trkpt>
      <trkpt lat="46.78666" lon="6.47587">
        <ele>1271</ele>
        <time>2016-05-08T09:28:46.620Z</time>
      </trkpt>
      <trkpt lat="46.78665" lon="6.47584">
        <ele>1271</ele>
        <time>2016-05-08T09:28:48.620Z</time>
      </trkpt>
      <trkpt lat="46.78665" lon="6.4758">
        <ele>1271</ele>
        <time>2016-05-08T09:28:50.620Z</time>
      </trkpt>
      <trkpt lat="46.78664" lon="6.47576">
        <ele>1270</ele>
        <time>2016-05-08T09:28:52.620Z</time>
      </trkpt>
      <trkpt lat="46.78664" lon="6.47573">
        <ele>1270</ele>
        <time>2016-05-08T09:28:54.620Z</time>
      </trkpt>
      <trkpt lat="46.78663" lon="6.47569">
        <ele>1270</ele>
        <time>2016-05-08T09:28:56.620Z</time>
      </trkpt>
      <trkpt lat="46.78662" lon="6.47566">
        <ele>1270</ele>
        <time>2016-05-08T09:28:58.620Z</time>
      </trkpt>
      <trkpt lat="46.78662" lon="6.47562">
        <ele>1270</ele>
        <time>2016-05-08T09:29:00.620Z</time>
      </trkpt>
      <trkpt lat="46.78661" lon="6.47557">
        <ele>1269</ele>
        <time>2016-05-08T09:29:02.620Z</time>
      </trkpt>
      <trkpt lat="46.7866" lon="6.47554">
        <ele>1269</ele>
        <time>2016-05-08T09:29:04.620Z</time>
      </trkpt>
      <trkpt lat="46.7866" lon="6.47549">
        <ele>1269</ele>
        <time>2016-05-08T09:29:06.620Z</time>
      </trkpt>
      <trkpt lat="46.78659" lon="6.47545">
        <ele>1269</ele>
        <time>2016-05-08T09:29:08.620Z</time>
      </trkpt>
      <trkpt lat="46.78658" lon="6.47541">
        <ele>1269</ele>
        <time>2016-05-08T09:29:10.620Z</time>
      </trkpt>
      <trkpt lat="46.78657" lon="6.47538">
        <ele>1267</ele>
        <time>2016-05-08T09:29:12.620Z</time>
      </trkpt>
      <trkpt lat="46.78656" lon="6.47534">
        <ele>1267</ele>
        <time>2016-05-08T09:29:14.620Z</time>
      </trkpt>
      <trkpt lat="46.78655" lon="6.4753">
        <ele>1267</ele>
        <time>2016-05-08T09:29:16.620Z</time>
      </trkpt>
      <trkpt lat="46.78654" lon="6.47526">
        <ele>1267</ele>
        <time>2016-05-08T09:29:18.620Z</time>
      </trkpt>
      <trkpt lat="46.78653" lon="6.47522">
        <ele>1267</ele>
        <time>2016-05-08T09:29:20.620Z</time>
      </trkpt>
      <trkpt lat="46.78652" lon="6.47518">
        <ele>1266</ele>
        <time>2016-05-08T09:29:22.620Z</time>
      </trkpt>
      <trkpt lat="46.78651" lon="6.47514">
        <ele>1266</ele>
        <time>2016-05-08T09:29:24.620Z</time>
      </trkpt>
      <trkpt lat="46.7865" lon="6.4751">
        <ele>1266</ele>
        <time>2016-05-08T09:29:26.620Z</time>
      </trkpt>
      <trkpt lat="46.78649" lon="6.47506">
        <ele>1266</ele>
        <time>2016-05-08T09:29:28.620Z</time>
      </trkpt>
      <trkpt lat="46.78649" lon="6.47502">
        <ele>1266</ele>
        <time>2016-05-08T09:29:30.620Z</time>
      </trkpt>
      <trkpt lat="46.78649" lon="6.47498">
        <ele>1265</ele>
        <time>2016-05-08T09:29:32.620Z</time>
      </trkpt>
      <trkpt lat="46.78648" lon="6.47494">
        <ele>1265</ele>
        <time>2016-05-08T09:29:34.620Z</time>
      </trkpt>
      <trkpt lat="46.78647" lon="6.47491">
        <ele>1265</ele>
        <time>2016-05-08T09:29:36.620Z</time>
      </trkpt>
      <trkpt lat="46.78647" lon="6.47488">
        <ele>1265</ele>
        <time>2016-05-08T09:29:38.620Z</time>
      </trkpt>
      <trkpt lat="46.78645" lon="6.47485">
        <ele>1265</ele>
        <time>2016-05-08T09:29:40.620Z</time>
      </trkpt>
      <trkpt lat="46.78645" lon="6.47481">
        <ele>1264</ele>
        <time>2016-05-08T09:29:42.620Z</time>
      </trkpt>
      <trkpt lat="46.78644" lon="6.47477">
        <ele>1264</ele>
        <time>2016-05-08T09:29:44.620Z</time>
      </trkpt>
      <trkpt lat="46.78644" lon="6.47473">
        <ele>1264</ele>
        <time>2016-05-08T09:29:46.620Z</time>
      </trkpt>
      <trkpt lat="46.78643" lon="6.47469">
        <ele>1264</ele>
        <time>2016-05-08T09:29:48.620Z</time>
      </trkpt>
      <trkpt lat="46.78643" lon="6.47465">
        <ele>1264</ele>
        <time>2016-05-08T09:29:50.620Z</time>
      </trkpt>
      <trkpt lat="46.78642" lon="6.47462">
        <ele>1263</ele>
        <time>2016-05-08T09:29:52.620Z</time>
      </trkpt>
      <trkpt lat="46.78641" lon="6.47458">
        <ele>1263</ele>
        <time>2016-05-08T09:29:54.620Z</time>
      </trkpt>
      <trkpt lat="46.7864" lon="6.47453">
        <ele>1263</ele>
        <time>2016-05-08T09:29:56.620Z</time>
      </trkpt>
      <trkpt lat="46.78641" lon="6.47449">
        <ele>1263</ele>
        <time>2016-05-08T09:29:58.620Z</time>
      </trkpt>
      <trkpt lat="46.7864" lon="6.47446">
        <ele>1263</ele>
        <time>2016-05-08T09:30:00.620Z</time>
      </trkpt>
      <trkpt lat="46.7864" lon="6.47442">
        <ele>1261</ele>
        <time>2016-05-08T09:30:02.620Z</time>
      </trkpt>
      <trkpt lat="46.7864" lon="6.47438">
        <ele>1261</ele>
        <time>2016-05-08T09:30:04.620Z</time>
      </trkpt>
      <trkpt lat="46.7864" lon="6.47435">
        <ele>1261</ele>
        <time>2016-05-08T09:30:06.620Z</time>
      </trkpt>
      <trkpt lat="46.7864" lon="6.47431">
        <ele>1261</ele>
        <time>2016-05-08T09:30:08.620Z</time>
      </trkpt>
      <trkpt lat="46.7864" lon="6.47427">
        <ele>1261</ele>
        <time>2016-05-08T09:30:10.620Z</time>
      </trkpt>
      <trkpt lat="46.78641" lon="6.47423">
        <ele>1260</ele>
        <time>2016-05-08T09:30:12.620Z</time>
      </trkpt>
      <trkpt lat="46.78641" lon="6.4742">
        <ele>1260</ele>
        <time>2016-05-08T09:30:14.620Z</time>
      </trkpt>
      <trkpt lat="46.78642" lon="6.47417">
        <ele>1260</ele>
        <time>2016-05-08T09:30:16.620Z</time>
      </trkpt>
      <trkpt lat="46.78641" lon="6.47413">
        <ele>1260</ele>
        <time>2016-05-08T09:30:18.620Z</time>
      </trkpt>
      <trkpt lat="46.7864" lon="6.47409">
        <ele>1260</ele>
        <time>2016-05-08T09:30:20.620Z</time>
      </trkpt>
      <trkpt lat="46.78639" lon="6.47406">
        <ele>1259.0099968</ele>
        <time>2016-05-08T09:30:22.620Z</time>
      </trkpt>
      <trkpt lat="46.78638" lon="6.47402">
        <ele>1259</ele>
        <time>2016-05-08T09:30:24.620Z</time>
      </trkpt>
      <trkpt lat="46.78637" lon="6.47399">
        <ele>1259</ele>
        <time>2016-05-08T09:30:26.620Z</time>
      </trkpt>
      <trkpt lat="46.78637" lon="6.47392">
        <ele>1259</ele>
        <time>2016-05-08T09:30:30.620Z</time>
      </trkpt>
      <trkpt lat="46.78637" lon="6.47388">
        <ele>1256.0299904</ele>
        <time>2016-05-08T09:30:32.620Z</time>
      </trkpt>
      <trkpt lat="46.78636" lon="6.47384">
        <ele>1256</ele>
        <time>2016-05-08T09:30:34.620Z</time>
      </trkpt>
      <trkpt lat="46.78635" lon="6.47381">
        <ele>1256</ele>
        <time>2016-05-08T09:30:36.620Z</time>
      </trkpt>
      <trkpt lat="46.78634" lon="6.47375">
        <ele>1255</ele>
        <time>2016-05-08T09:30:39.620Z</time>
      </trkpt>
      <trkpt lat="46.78631" lon="6.47368">
        <ele>1256</ele>
        <time>2016-05-08T09:30:43.620Z</time>
      </trkpt>
      <trkpt lat="46.78629" lon="6.47361">
        <ele>1256</ele>
        <time>2016-05-08T09:30:46.620Z</time>
      </trkpt>
      <trkpt lat="46.78627" lon="6.47347">
        <ele>1255</ele>
        <time>2016-05-08T09:30:53.620Z</time>
      </trkpt>
      <trkpt lat="46.78626" lon="6.47336">
        <ele>1255</ele>
        <time>2016-05-08T09:30:59.620Z</time>
      </trkpt>
      <trkpt lat="46.78627" lon="6.47332">
        <ele>1253</ele>
        <time>2016-05-08T09:31:01.620Z</time>
      </trkpt>
      <trkpt lat="46.78627" lon="6.47329">
        <ele>1253</ele>
        <time>2016-05-08T09:31:03.620Z</time>
      </trkpt>
      <trkpt lat="46.78626" lon="6.47325">
        <ele>1253</ele>
        <time>2016-05-08T09:31:05.620Z</time>
      </trkpt>
      <trkpt lat="46.78624" lon="6.47323">
        <ele>1253</ele>
        <time>2016-05-08T09:31:07.620Z</time>
      </trkpt>
      <trkpt lat="46.78622" lon="6.4732">
        <ele>1253</ele>
        <time>2016-05-08T09:31:09.620Z</time>
      </trkpt>
      <trkpt lat="46.78622" lon="6.47316">
        <ele>1253</ele>
        <time>2016-05-08T09:31:11.620Z</time>
      </trkpt>
      <trkpt lat="46.78621" lon="6.47312">
        <ele>1253</ele>
        <time>2016-05-08T09:31:13.620Z</time>
      </trkpt>
      <trkpt lat="46.78621" lon="6.4731">
        <ele>1253</ele>
        <time>2016-05-08T09:31:14.620Z</time>
      </trkpt>
      <trkpt lat="46.7862" lon="6.47306">
        <ele>1253</ele>
        <time>2016-05-08T09:31:16.620Z</time>
      </trkpt>
      <trkpt lat="46.78619" lon="6.47303">
        <ele>1253</ele>
        <time>2016-05-08T09:31:18.620Z</time>
      </trkpt>
      <trkpt lat="46.78619" lon="6.473">
        <ele>1253</ele>
        <time>2016-05-08T09:31:20.620Z</time>
      </trkpt>
      <trkpt lat="46.78618" lon="6.47295">
        <ele>1251</ele>
        <time>2016-05-08T09:31:22.620Z</time>
      </trkpt>
      <trkpt lat="46.78617" lon="6.47291">
        <ele>1251</ele>
        <time>2016-05-08T09:31:24.620Z</time>
      </trkpt>
      <trkpt lat="46.78616" lon="6.47288">
        <ele>1251</ele>
        <time>2016-05-08T09:31:26.620Z</time>
      </trkpt>
      <trkpt lat="46.78615" lon="6.47283">
        <ele>1251</ele>
        <time>2016-05-08T09:31:28.620Z</time>
      </trkpt>
      <trkpt lat="46.78612" lon="6.47278">
        <ele>1250</ele>
        <time>2016-05-08T09:31:31.620Z</time>
      </trkpt>
      <trkpt lat="46.7861" lon="6.47276">
        <ele>1250</ele>
        <time>2016-05-08T09:31:33.620Z</time>
      </trkpt>
      <trkpt lat="46.78607" lon="6.47263">
        <ele>1250</ele>
        <time>2016-05-08T09:31:39.620Z</time>
      </trkpt>
      <trkpt lat="46.78607" lon="6.47249">
        <ele>1249</ele>
        <time>2016-05-08T09:31:45.620Z</time>
      </trkpt>
      <trkpt lat="46.78606" lon="6.47235">
        <ele>1248</ele>
        <time>2016-05-08T09:31:52.620Z</time>
      </trkpt>
      <trkpt lat="46.78604" lon="6.4722">
        <ele>1248</ele>
        <time>2016-05-08T09:32:00.620Z</time>
      </trkpt>
      <trkpt lat="46.78603" lon="6.47215">
        <ele>1246</ele>
        <time>2016-05-08T09:32:03.620Z</time>
      </trkpt>
      <trkpt lat="46.78603" lon="6.47212">
        <ele>1246</ele>
        <time>2016-05-08T09:32:05.620Z</time>
      </trkpt>
      <trkpt lat="46.78602" lon="6.47208">
        <ele>1246</ele>
        <time>2016-05-08T09:32:07.620Z</time>
      </trkpt>
      <trkpt lat="46.78601" lon="6.47205">
        <ele>1246</ele>
        <time>2016-05-08T09:32:09.620Z</time>
      </trkpt>
      <trkpt lat="46.786" lon="6.47201">
        <ele>1246</ele>
        <time>2016-05-08T09:32:11.620Z</time>
      </trkpt>
      <trkpt lat="46.78601" lon="6.47197">
        <ele>1246</ele>
        <time>2016-05-08T09:32:13.620Z</time>
      </trkpt>
      <trkpt lat="46.78601" lon="6.47193">
        <ele>1246</ele>
        <time>2016-05-08T09:32:15.620Z</time>
      </trkpt>
      <trkpt lat="46.78599" lon="6.47189">
        <ele>1246</ele>
        <time>2016-05-08T09:32:17.620Z</time>
      </trkpt>
      <trkpt lat="46.78597" lon="6.47187">
        <ele>1246</ele>
        <time>2016-05-08T09:32:19.620Z</time>
      </trkpt>
      <trkpt lat="46.78595" lon="6.47185">
        <ele>1246</ele>
        <time>2016-05-08T09:32:20.620Z</time>
      </trkpt>
      <trkpt lat="46.78593" lon="6.47182">
        <ele>1246</ele>
        <time>2016-05-08T09:32:21.620Z</time>
      </trkpt>
      <trkpt lat="46.78592" lon="6.4718">
        <ele>1246</ele>
        <time>2016-05-08T09:32:22.620Z</time>
      </trkpt>
      <trkpt lat="46.7859" lon="6.47178">
        <ele>1246</ele>
        <time>2016-05-08T09:32:24.620Z</time>
      </trkpt>
      <trkpt lat="46.78589" lon="6.47174">
        <ele>1246</ele>
        <time>2016-05-08T09:32:26.620Z</time>
      </trkpt>
      <trkpt lat="46.78588" lon="6.47171">
        <ele>1246</ele>
        <time>2016-05-08T09:32:28.620Z</time>
      </trkpt>
      <trkpt lat="46.78588" lon="6.47168">
        <ele>1246</ele>
        <time>2016-05-08T09:32:30.620Z</time>
      </trkpt>
      <trkpt lat="46.78586" lon="6.47164">
        <ele>1245</ele>
        <time>2016-05-08T09:32:32.620Z</time>
      </trkpt>
      <trkpt lat="46.78585" lon="6.4716">
        <ele>1245</ele>
        <time>2016-05-08T09:32:34.620Z</time>
      </trkpt>
      <trkpt lat="46.78583" lon="6.47155">
        <ele>1245</ele>
        <time>2016-05-08T09:32:36.620Z</time>
      </trkpt>
      <trkpt lat="46.78582" lon="6.4715">
        <ele>1245</ele>
        <time>2016-05-08T09:32:38.620Z</time>
      </trkpt>
      <trkpt lat="46.78581" lon="6.47145">
        <ele>1245</ele>
        <time>2016-05-08T09:32:40.620Z</time>
      </trkpt>
      <trkpt lat="46.78581" lon="6.47141">
        <ele>1243</ele>
        <time>2016-05-08T09:32:42.620Z</time>
      </trkpt>
      <trkpt lat="46.7858" lon="6.47136">
        <ele>1243</ele>
        <time>2016-05-08T09:32:44.620Z</time>
      </trkpt>
      <trkpt lat="46.78579" lon="6.47134">
        <ele>1243</ele>
        <time>2016-05-08T09:32:45.620Z</time>
      </trkpt>
      <trkpt lat="46.78578" lon="6.47131">
        <ele>1243</ele>
        <time>2016-05-08T09:32:46.620Z</time>
      </trkpt>
      <trkpt lat="46.78577" lon="6.47129">
        <ele>1243</ele>
        <time>2016-05-08T09:32:47.620Z</time>
      </trkpt>
      <trkpt lat="46.78576" lon="6.47127">
        <ele>1243</ele>
        <time>2016-05-08T09:32:48.620Z</time>
      </trkpt>
      <trkpt lat="46.78575" lon="6.47124">
        <ele>1243</ele>
        <time>2016-05-08T09:32:49.620Z</time>
      </trkpt>
      <trkpt lat="46.78574" lon="6.47122">
        <ele>1243</ele>
        <time>2016-05-08T09:32:50.620Z</time>
      </trkpt>
      <trkpt lat="46.78573" lon="6.47119">
        <ele>1242.0142992978</ele>
        <time>2016-05-08T09:32:51.620Z</time>
      </trkpt>
      <trkpt lat="46.78571" lon="6.47114">
        <ele>1242</ele>
        <time>2016-05-08T09:32:53.620Z</time>
      </trkpt>
      <trkpt lat="46.78571" lon="6.4711">
        <ele>1242</ele>
        <time>2016-05-08T09:32:55.620Z</time>
      </trkpt>
      <trkpt lat="46.78571" lon="6.47105">
        <ele>1242</ele>
        <time>2016-05-08T09:32:57.620Z</time>
      </trkpt>
      <trkpt lat="46.78572" lon="6.47102">
        <ele>1242</ele>
        <time>2016-05-08T09:32:59.620Z</time>
      </trkpt>
      <trkpt lat="46.78571" lon="6.47099">
        <ele>1240</ele>
        <time>2016-05-08T09:33:01.620Z</time>
      </trkpt>
      <trkpt lat="46.7857" lon="6.47095">
        <ele>1240</ele>
        <time>2016-05-08T09:33:03.620Z</time>
      </trkpt>
      <trkpt lat="46.78569" lon="6.47091">
        <ele>1240</ele>
        <time>2016-05-08T09:33:05.620Z</time>
      </trkpt>
      <trkpt lat="46.78569" lon="6.47087">
        <ele>1240</ele>
        <time>2016-05-08T09:33:07.620Z</time>
      </trkpt>
      <trkpt lat="46.78569" lon="6.47083">
        <ele>1240</ele>
        <time>2016-05-08T09:33:09.620Z</time>
      </trkpt>
      <trkpt lat="46.78568" lon="6.47079">
        <ele>1240</ele>
        <time>2016-05-08T09:33:11.620Z</time>
      </trkpt>
      <trkpt lat="46.78567" lon="6.47074">
        <ele>1240</ele>
        <time>2016-05-08T09:33:13.620Z</time>
      </trkpt>
      <trkpt lat="46.78566" lon="6.47071">
        <ele>1240</ele>
        <time>2016-05-08T09:33:15.620Z</time>
      </trkpt>
      <trkpt lat="46.78565" lon="6.47066">
        <ele>1240</ele>
        <time>2016-05-08T09:33:17.620Z</time>
      </trkpt>
      <trkpt lat="46.78565" lon="6.47062">
        <ele>1240</ele>
        <time>2016-05-08T09:33:19.620Z</time>
      </trkpt>
      <trkpt lat="46.78564" lon="6.47059">
        <ele>1240</ele>
        <time>2016-05-08T09:33:21.620Z</time>
      </trkpt>
      <trkpt lat="46.78563" lon="6.47055">
        <ele>1240</ele>
        <time>2016-05-08T09:33:23.620Z</time>
      </trkpt>
      <trkpt lat="46.78561" lon="6.47051">
        <ele>1240</ele>
        <time>2016-05-08T09:33:25.620Z</time>
      </trkpt>
      <trkpt lat="46.7856" lon="6.47048">
        <ele>1240</ele>
        <time>2016-05-08T09:33:27.620Z</time>
      </trkpt>
      <trkpt lat="46.7856" lon="6.47045">
        <ele>1240</ele>
        <time>2016-05-08T09:33:29.620Z</time>
      </trkpt>
      <trkpt lat="46.78559" lon="6.47041">
        <ele>1238.5000145455</ele>
        <time>2016-05-08T09:33:31.620Z</time>
      </trkpt>
      <trkpt lat="46.78558" lon="6.47038">
        <ele>1238</ele>
        <time>2016-05-08T09:33:33.620Z</time>
      </trkpt>
      <trkpt lat="46.78558" lon="6.47034">
        <ele>1238</ele>
        <time>2016-05-08T09:33:35.620Z</time>
      </trkpt>
      <trkpt lat="46.78557" lon="6.47031">
        <ele>1238</ele>
        <time>2016-05-08T09:33:37.620Z</time>
      </trkpt>
      <trkpt lat="46.78556" lon="6.47027">
        <ele>1238</ele>
        <time>2016-05-08T09:33:39.620Z</time>
      </trkpt>
      <trkpt lat="46.78555" lon="6.47024">
        <ele>1237</ele>
        <time>2016-05-08T09:33:41.620Z</time>
      </trkpt>
      <trkpt lat="46.78555" lon="6.4702">
        <ele>1237</ele>
        <time>2016-05-08T09:33:43.620Z</time>
      </trkpt>
      <trkpt lat="46.78553" lon="6.47016">
        <ele>1237</ele>
        <time>2016-05-08T09:33:45.620Z</time>
      </trkpt>
      <trkpt lat="46.78553" lon="6.47013">
        <ele>1237</ele>
        <time>2016-05-08T09:33:47.620Z</time>
      </trkpt>
      <trkpt lat="46.78553" lon="6.4701">
        <ele>1237</ele>
        <time>2016-05-08T09:33:49.620Z</time>
      </trkpt>
      <trkpt lat="46.78552" lon="6.47006">
        <ele>1237</ele>
        <time>2016-05-08T09:33:51.620Z</time>
      </trkpt>
      <trkpt lat="46.78551" lon="6.47003">
        <ele>1237</ele>
        <time>2016-05-08T09:33:53.620Z</time>
      </trkpt>
      <trkpt lat="46.78551" lon="6.46999">
        <ele>1237</ele>
        <time>2016-05-08T09:33:55.620Z</time>
      </trkpt>
      <trkpt lat="46.78549" lon="6.46995">
        <ele>1237</ele>
        <time>2016-05-08T09:33:57.620Z</time>
      </trkpt>
      <trkpt lat="46.78548" lon="6.46992">
        <ele>1237</ele>
        <time>2016-05-08T09:33:59.620Z</time>
      </trkpt>
      <trkpt lat="46.78547" lon="6.4699">
        <ele>1234.0300288</ele>
        <time>2016-05-08T09:34:01.620Z</time>
      </trkpt>
      <trkpt lat="46.78546" lon="6.46987">
        <ele>1234</ele>
        <time>2016-05-08T09:34:03.620Z</time>
      </trkpt>
      <trkpt lat="46.78546" lon="6.46983">
        <ele>1234</ele>
        <time>2016-05-08T09:34:05.620Z</time>
      </trkpt>
      <trkpt lat="46.78545" lon="6.4698">
        <ele>1234</ele>
        <time>2016-05-08T09:34:07.620Z</time>
      </trkpt>
      <trkpt lat="46.78545" lon="6.46976">
        <ele>1234</ele>
        <time>2016-05-08T09:34:09.620Z</time>
      </trkpt>
      <trkpt lat="46.78544" lon="6.46972">
        <ele>1233</ele>
        <time>2016-05-08T09:34:11.620Z</time>
      </trkpt>
      <trkpt lat="46.78543" lon="6.46969">
        <ele>1233</ele>
        <time>2016-05-08T09:34:13.620Z</time>
      </trkpt>
      <trkpt lat="46.78542" lon="6.46966">
        <ele>1233</ele>
        <time>2016-05-08T09:34:15.620Z</time>
      </trkpt>
      <trkpt lat="46.78542" lon="6.46962">
        <ele>1233</ele>
        <time>2016-05-08T09:34:17.620Z</time>
      </trkpt>
      <trkpt lat="46.78541" lon="6.46958">
        <ele>1233</ele>
        <time>2016-05-08T09:34:19.620Z</time>
      </trkpt>
      <trkpt lat="46.78541" lon="6.46953">
        <ele>1233</ele>
        <time>2016-05-08T09:34:21.620Z</time>
      </trkpt>
      <trkpt lat="46.78541" lon="6.46949">
        <ele>1233</ele>
        <time>2016-05-08T09:34:23.620Z</time>
      </trkpt>
      <trkpt lat="46.7854" lon="6.46945">
        <ele>1233</ele>
        <time>2016-05-08T09:34:25.620Z</time>
      </trkpt>
      <trkpt lat="46.78539" lon="6.46942">
        <ele>1233</ele>
        <time>2016-05-08T09:34:27.620Z</time>
      </trkpt>
      <trkpt lat="46.78538" lon="6.46939">
        <ele>1233</ele>
        <time>2016-05-08T09:34:29.620Z</time>
      </trkpt>
      <trkpt lat="46.78537" lon="6.46935">
        <ele>1232</ele>
        <time>2016-05-08T09:34:31.620Z</time>
      </trkpt>
      <trkpt lat="46.78537" lon="6.46931">
        <ele>1232</ele>
        <time>2016-05-08T09:34:33.620Z</time>
      </trkpt>
      <trkpt lat="46.78536" lon="6.46928">
        <ele>1232</ele>
        <time>2016-05-08T09:34:35.620Z</time>
      </trkpt>
      <trkpt lat="46.78535" lon="6.46925">
        <ele>1232</ele>
        <time>2016-05-08T09:34:37.620Z</time>
      </trkpt>
      <trkpt lat="46.78533" lon="6.46921">
        <ele>1232</ele>
        <time>2016-05-08T09:34:39.620Z</time>
      </trkpt>
      <trkpt lat="46.78532" lon="6.46918">
        <ele>1232</ele>
        <time>2016-05-08T09:34:41.620Z</time>
      </trkpt>
      <trkpt lat="46.78531" lon="6.46914">
        <ele>1232</ele>
        <time>2016-05-08T09:34:43.620Z</time>
      </trkpt>
      <trkpt lat="46.78531" lon="6.4691">
        <ele>1231.0142992978</ele>
        <time>2016-05-08T09:34:45.620Z</time>
      </trkpt>
      <trkpt lat="46.7853" lon="6.46907">
        <ele>1231</ele>
        <time>2016-05-08T09:34:47.620Z</time>
      </trkpt>
      <trkpt lat="46.7853" lon="6.46903">
        <ele>1231</ele>
        <time>2016-05-08T09:34:49.620Z</time>
      </trkpt>
      <trkpt lat="46.78529" lon="6.469">
        <ele>1230</ele>
        <time>2016-05-08T09:34:51.620Z</time>
      </trkpt>
      <trkpt lat="46.78529" lon="6.46896">
        <ele>1230</ele>
        <time>2016-05-08T09:34:53.620Z</time>
      </trkpt>
      <trkpt lat="46.78528" lon="6.46892">
        <ele>1230</ele>
        <time>2016-05-08T09:34:55.620Z</time>
      </trkpt>
      <trkpt lat="46.78527" lon="6.46889">
        <ele>1230</ele>
        <time>2016-05-08T09:34:57.620Z</time>
      </trkpt>
      <trkpt lat="46.78526" lon="6.46885">
        <ele>1230</ele>
        <time>2016-05-08T09:34:59.620Z</time>
      </trkpt>
      <trkpt lat="46.78524" lon="6.46882">
        <ele>1229</ele>
        <time>2016-05-08T09:35:01.620Z</time>
      </trkpt>
      <trkpt lat="46.78523" lon="6.46878">
        <ele>1228.2366453983</ele>
        <time>2016-05-08T09:35:03.620Z</time>
      </trkpt>
      <trkpt lat="46.78522" lon="6.46875">
        <ele>1228</ele>
        <time>2016-05-08T09:35:05.620Z</time>
      </trkpt>
      <trkpt lat="46.78521" lon="6.46871">
        <ele>1228</ele>
        <time>2016-05-08T09:35:07.620Z</time>
      </trkpt>
      <trkpt lat="46.78519" lon="6.46867">
        <ele>1228</ele>
        <time>2016-05-08T09:35:09.620Z</time>
      </trkpt>
      <trkpt lat="46.78518" lon="6.46864">
        <ele>1228</ele>
        <time>2016-05-08T09:35:11.620Z</time>
      </trkpt>
      <trkpt lat="46.78518" lon="6.46861">
        <ele>1228</ele>
        <time>2016-05-08T09:35:13.620Z</time>
      </trkpt>
      <trkpt lat="46.78517" lon="6.46858">
        <ele>1228</ele>
        <time>2016-05-08T09:35:15.620Z</time>
      </trkpt>
      <trkpt lat="46.78517" lon="6.46855">
        <ele>1228</ele>
        <time>2016-05-08T09:35:17.620Z</time>
      </trkpt>
      <trkpt lat="46.78517" lon="6.4685">
        <ele>1228</ele>
        <time>2016-05-08T09:35:19.620Z</time>
      </trkpt>
      <trkpt lat="46.78516" lon="6.46846">
        <ele>1227.0100096</ele>
        <time>2016-05-08T09:35:21.620Z</time>
      </trkpt>
      <trkpt lat="46.78516" lon="6.46842">
        <ele>1227</ele>
        <time>2016-05-08T09:35:23.620Z</time>
      </trkpt>
      <trkpt lat="46.78516" lon="6.46839">
        <ele>1227</ele>
        <time>2016-05-08T09:35:25.620Z</time>
      </trkpt>
      <trkpt lat="46.78516" lon="6.46835">
        <ele>1227</ele>
        <time>2016-05-08T09:35:27.620Z</time>
      </trkpt>
      <trkpt lat="46.78515" lon="6.46832">
        <ele>1227</ele>
        <time>2016-05-08T09:35:28.620Z</time>
      </trkpt>
      <trkpt lat="46.78514" lon="6.46828">
        <ele>1227</ele>
        <time>2016-05-08T09:35:30.620Z</time>
      </trkpt>
      <trkpt lat="46.78513" lon="6.46825">
        <ele>1224</ele>
        <time>2016-05-08T09:35:32.620Z</time>
      </trkpt>
      <trkpt lat="46.78512" lon="6.46822">
        <ele>1224</ele>
        <time>2016-05-08T09:35:34.620Z</time>
      </trkpt>
      <trkpt lat="46.78512" lon="6.46819">
        <ele>1224</ele>
        <time>2016-05-08T09:35:36.620Z</time>
      </trkpt>
      <trkpt lat="46.78511" lon="6.46814">
        <ele>1224</ele>
        <time>2016-05-08T09:35:38.620Z</time>
      </trkpt>
      <trkpt lat="46.78512" lon="6.4681">
        <ele>1224</ele>
        <time>2016-05-08T09:35:40.620Z</time>
      </trkpt>
      <trkpt lat="46.78512" lon="6.46806">
        <ele>1224</ele>
        <time>2016-05-08T09:35:42.620Z</time>
      </trkpt>
      <trkpt lat="46.7851" lon="6.46803">
        <ele>1224</ele>
        <time>2016-05-08T09:35:44.620Z</time>
      </trkpt>
      <trkpt lat="46.7851" lon="6.468">
        <ele>1224</ele>
        <time>2016-05-08T09:35:46.620Z</time>
      </trkpt>
      <trkpt lat="46.7851" lon="6.46796">
        <ele>1223</ele>
        <time>2016-05-08T09:35:48.620Z</time>
      </trkpt>
      <trkpt lat="46.7851" lon="6.46793">
        <ele>1223</ele>
        <time>2016-05-08T09:35:50.620Z</time>
      </trkpt>
      <trkpt lat="46.7851" lon="6.46788">
        <ele>1223</ele>
        <time>2016-05-08T09:35:52.620Z</time>
      </trkpt>
      <trkpt lat="46.7851" lon="6.46785">
        <ele>1223</ele>
        <time>2016-05-08T09:35:54.620Z</time>
      </trkpt>
      <trkpt lat="46.7851" lon="6.46782">
        <ele>1223</ele>
        <time>2016-05-08T09:35:56.620Z</time>
      </trkpt>
      <trkpt lat="46.78509" lon="6.46778">
        <ele>1223</ele>
        <time>2016-05-08T09:35:58.620Z</time>
      </trkpt>
      <trkpt lat="46.78508" lon="6.46775">
        <ele>1223</ele>
        <time>2016-05-08T09:36:00.620Z</time>
      </trkpt>
      <trkpt lat="46.78507" lon="6.4677">
        <ele>1221</ele>
        <time>2016-05-08T09:36:02.620Z</time>
      </trkpt>
      <trkpt lat="46.78506" lon="6.46766">
        <ele>1221</ele>
        <time>2016-05-08T09:36:04.620Z</time>
      </trkpt>
      <trkpt lat="46.78505" lon="6.46762">
        <ele>1221</ele>
        <time>2016-05-08T09:36:06.620Z</time>
      </trkpt>
      <trkpt lat="46.78504" lon="6.46758">
        <ele>1221</ele>
        <time>2016-05-08T09:36:08.620Z</time>
      </trkpt>
      <trkpt lat="46.78503" lon="6.46754">
        <ele>1221</ele>
        <time>2016-05-08T09:36:10.620Z</time>
      </trkpt>
      <trkpt lat="46.78502" lon="6.4675">
        <ele>1221</ele>
        <time>2016-05-08T09:36:12.620Z</time>
      </trkpt>
      <trkpt lat="46.78501" lon="6.46745">
        <ele>1221</ele>
        <time>2016-05-08T09:36:14.620Z</time>
      </trkpt>
      <trkpt lat="46.78501" lon="6.46742">
        <ele>1221</ele>
        <time>2016-05-08T09:36:16.620Z</time>
      </trkpt>
      <trkpt lat="46.785" lon="6.46739">
        <ele>1221</ele>
        <time>2016-05-08T09:36:18.620Z</time>
      </trkpt>
      <trkpt lat="46.78498" lon="6.46736">
        <ele>1221</ele>
        <time>2016-05-08T09:36:20.620Z</time>
      </trkpt>
      <trkpt lat="46.78497" lon="6.46732">
        <ele>1221</ele>
        <time>2016-05-08T09:36:22.620Z</time>
      </trkpt>
      <trkpt lat="46.78495" lon="6.46728">
        <ele>1221</ele>
        <time>2016-05-08T09:36:24.620Z</time>
      </trkpt>
      <trkpt lat="46.78493" lon="6.46725">
        <ele>1221</ele>
        <time>2016-05-08T09:36:26.620Z</time>
      </trkpt>
      <trkpt lat="46.78492" lon="6.46721">
        <ele>1221</ele>
        <time>2016-05-08T09:36:28.620Z</time>
      </trkpt>
      <trkpt lat="46.78492" lon="6.46716">
        <ele>1221</ele>
        <time>2016-05-08T09:36:30.620Z</time>
      </trkpt>
      <trkpt lat="46.78492" lon="6.46712">
        <ele>1220</ele>
        <time>2016-05-08T09:36:32.620Z</time>
      </trkpt>
      <trkpt lat="46.78491" lon="6.46708">
        <ele>1220</ele>
        <time>2016-05-08T09:36:34.620Z</time>
      </trkpt>
      <trkpt lat="46.7849" lon="6.46704">
        <ele>1220</ele>
        <time>2016-05-08T09:36:36.620Z</time>
      </trkpt>
      <trkpt lat="46.78489" lon="6.46701">
        <ele>1220</ele>
        <time>2016-05-08T09:36:38.620Z</time>
      </trkpt>
      <trkpt lat="46.78489" lon="6.46697">
        <ele>1220</ele>
        <time>2016-05-08T09:36:40.620Z</time>
      </trkpt>
      <trkpt lat="46.78488" lon="6.46693">
        <ele>1219</ele>
        <time>2016-05-08T09:36:42.620Z</time>
      </trkpt>
      <trkpt lat="46.78488" lon="6.46688">
        <ele>1219</ele>
        <time>2016-05-08T09:36:44.620Z</time>
      </trkpt>
      <trkpt lat="46.78487" lon="6.46684">
        <ele>1219</ele>
        <time>2016-05-08T09:36:46.620Z</time>
      </trkpt>
      <trkpt lat="46.78486" lon="6.46681">
        <ele>1219</ele>
        <time>2016-05-08T09:36:48.620Z</time>
      </trkpt>
      <trkpt lat="46.78485" lon="6.46678">
        <ele>1219</ele>
        <time>2016-05-08T09:36:50.620Z</time>
      </trkpt>
      <trkpt lat="46.78485" lon="6.46674">
        <ele>1218</ele>
        <time>2016-05-08T09:36:52.620Z</time>
      </trkpt>
      <trkpt lat="46.78483" lon="6.46669">
        <ele>1218</ele>
        <time>2016-05-08T09:36:54.620Z</time>
      </trkpt>
      <trkpt lat="46.78483" lon="6.46665">
        <ele>1218</ele>
        <time>2016-05-08T09:36:56.620Z</time>
      </trkpt>
      <trkpt lat="46.78482" lon="6.46662">
        <ele>1218</ele>
        <time>2016-05-08T09:36:58.620Z</time>
      </trkpt>
      <trkpt lat="46.78481" lon="6.46658">
        <ele>1218</ele>
        <time>2016-05-08T09:37:00.620Z</time>
      </trkpt>
      <trkpt lat="46.7848" lon="6.46654">
        <ele>1217</ele>
        <time>2016-05-08T09:37:02.620Z</time>
      </trkpt>
      <trkpt lat="46.7848" lon="6.4665">
        <ele>1217</ele>
        <time>2016-05-08T09:37:04.620Z</time>
      </trkpt>
      <trkpt lat="46.78481" lon="6.46647">
        <ele>1217</ele>
        <time>2016-05-08T09:37:06.620Z</time>
      </trkpt>
      <trkpt lat="46.78481" lon="6.46644">
        <ele>1217</ele>
        <time>2016-05-08T09:37:08.620Z</time>
      </trkpt>
      <trkpt lat="46.78481" lon="6.4664">
        <ele>1217</ele>
        <time>2016-05-08T09:37:10.620Z</time>
      </trkpt>
      <trkpt lat="46.78481" lon="6.46636">
        <ele>1217</ele>
        <time>2016-05-08T09:37:12.620Z</time>
      </trkpt>
      <trkpt lat="46.78482" lon="6.46632">
        <ele>1217</ele>
        <time>2016-05-08T09:37:14.620Z</time>
      </trkpt>
      <trkpt lat="46.78482" lon="6.46628">
        <ele>1217</ele>
        <time>2016-05-08T09:37:16.620Z</time>
      </trkpt>
      <trkpt lat="46.78481" lon="6.46624">
        <ele>1217</ele>
        <time>2016-05-08T09:37:18.620Z</time>
      </trkpt>
      <trkpt lat="46.78481" lon="6.4662">
        <ele>1217</ele>
        <time>2016-05-08T09:37:20.620Z</time>
      </trkpt>
      <trkpt lat="46.78481" lon="6.46617">
        <ele>1217</ele>
        <time>2016-05-08T09:37:22.620Z</time>
      </trkpt>
      <trkpt lat="46.7848" lon="6.46612">
        <ele>1217</ele>
        <time>2016-05-08T09:37:24.620Z</time>
      </trkpt>
      <trkpt lat="46.78479" lon="6.46609">
        <ele>1217</ele>
        <time>2016-05-08T09:37:26.620Z</time>
      </trkpt>
      <trkpt lat="46.78479" lon="6.46605">
        <ele>1217</ele>
        <time>2016-05-08T09:37:28.620Z</time>
      </trkpt>
      <trkpt lat="46.7848" lon="6.46601">
        <ele>1217</ele>
        <time>2016-05-08T09:37:30.620Z</time>
      </trkpt>
      <trkpt lat="46.78482" lon="6.46599">
        <ele>1216</ele>
        <time>2016-05-08T09:37:32.620Z</time>
      </trkpt>
      <trkpt lat="46.78489" lon="6.46598">
        <ele>1216</ele>
        <time>2016-05-08T09:38:05.620Z</time>
      </trkpt>
      <trkpt lat="46.78492" lon="6.46596">
        <ele>1216</ele>
        <time>2016-05-08T09:38:07.620Z</time>
      </trkpt>
      <trkpt lat="46.78494" lon="6.46597">
        <ele>1216</ele>
        <time>2016-05-08T09:38:09.620Z</time>
      </trkpt>
      <trkpt lat="46.78496" lon="6.46599">
        <ele>1216</ele>
        <time>2016-05-08T09:38:11.620Z</time>
      </trkpt>
      <trkpt lat="46.78498" lon="6.46601">
        <ele>1216</ele>
        <time>2016-05-08T09:38:13.620Z</time>
      </trkpt>
      <trkpt lat="46.785" lon="6.46605">
        <ele>1216</ele>
        <time>2016-05-08T09:38:15.620Z</time>
      </trkpt>
      <trkpt lat="46.78501" lon="6.46609">
        <ele>1216</ele>
        <time>2016-05-08T09:38:17.620Z</time>
      </trkpt>
      <trkpt lat="46.78502" lon="6.46612">
        <ele>1215.0099968</ele>
        <time>2016-05-08T09:38:18.620Z</time>
      </trkpt>
      <trkpt lat="46.78504" lon="6.46614">
        <ele>1215</ele>
        <time>2016-05-08T09:38:19.620Z</time>
      </trkpt>
      <trkpt lat="46.78505" lon="6.46616">
        <ele>1215</ele>
        <time>2016-05-08T09:38:20.620Z</time>
      </trkpt>
      <trkpt lat="46.78508" lon="6.4662">
        <ele>1213</ele>
        <time>2016-05-08T09:38:22.620Z</time>
      </trkpt>
      <trkpt lat="46.78509" lon="6.46622">
        <ele>1213</ele>
        <time>2016-05-08T09:38:23.620Z</time>
      </trkpt>
      <trkpt lat="46.78511" lon="6.46626">
        <ele>1213</ele>
        <time>2016-05-08T09:38:25.620Z</time>
      </trkpt>
      <trkpt lat="46.78512" lon="6.46628">
        <ele>1212</ele>
        <time>2016-05-08T09:38:26.620Z</time>
      </trkpt>
      <trkpt lat="46.78513" lon="6.4663">
        <ele>1212</ele>
        <time>2016-05-08T09:38:27.620Z</time>
      </trkpt>
      <trkpt lat="46.78514" lon="6.46633">
        <ele>1212</ele>
        <time>2016-05-08T09:38:28.620Z</time>
      </trkpt>
      <trkpt lat="46.78516" lon="6.46637">
        <ele>1212</ele>
        <time>2016-05-08T09:38:30.620Z</time>
      </trkpt>
      <trkpt lat="46.78517" lon="6.4664">
        <ele>1211</ele>
        <time>2016-05-08T09:38:31.620Z</time>
      </trkpt>
      <trkpt lat="46.78518" lon="6.46644">
        <ele>1211</ele>
        <time>2016-05-08T09:38:33.620Z</time>
      </trkpt>
      <trkpt lat="46.78515" lon="6.46645">
        <ele>1211</ele>
        <time>2016-05-08T09:38:43.620Z</time>
      </trkpt>
      <trkpt lat="46.78515" lon="6.46648">
        <ele>1211</ele>
        <time>2016-05-08T09:38:45.620Z</time>
      </trkpt>
      <trkpt lat="46.78516" lon="6.46652">
        <ele>1211</ele>
        <time>2016-05-08T09:38:47.620Z</time>
      </trkpt>
      <trkpt lat="46.78518" lon="6.46656">
        <ele>1211</ele>
        <time>2016-05-08T09:38:49.620Z</time>
      </trkpt>
      <trkpt lat="46.7852" lon="6.46659">
        <ele>1210.238465174</ele>
        <time>2016-05-08T09:38:51.620Z</time>
      </trkpt>
      <trkpt lat="46.78522" lon="6.46662">
        <ele>1209</ele>
        <time>2016-05-08T09:38:53.620Z</time>
      </trkpt>
      <trkpt lat="46.78523" lon="6.46666">
        <ele>1209</ele>
        <time>2016-05-08T09:38:55.620Z</time>
      </trkpt>
      <trkpt lat="46.78524" lon="6.46669">
        <ele>1209</ele>
        <time>2016-05-08T09:38:57.620Z</time>
      </trkpt>
      <trkpt lat="46.78526" lon="6.46672">
        <ele>1209</ele>
        <time>2016-05-08T09:38:59.620Z</time>
      </trkpt>
      <trkpt lat="46.78528" lon="6.46675">
        <ele>1208.0142992978</ele>
        <time>2016-05-08T09:39:01.620Z</time>
      </trkpt>
      <trkpt lat="46.78529" lon="6.46679">
        <ele>1208</ele>
        <time>2016-05-08T09:39:03.620Z</time>
      </trkpt>
      <trkpt lat="46.7853" lon="6.46682">
        <ele>1208</ele>
        <time>2016-05-08T09:39:05.620Z</time>
      </trkpt>
      <trkpt lat="46.78532" lon="6.46686">
        <ele>1208</ele>
        <time>2016-05-08T09:39:07.620Z</time>
      </trkpt>
      <trkpt lat="46.78534" lon="6.46689">
        <ele>1208</ele>
        <time>2016-05-08T09:39:09.620Z</time>
      </trkpt>
      <trkpt lat="46.78535" lon="6.46692">
        <ele>1208</ele>
        <time>2016-05-08T09:39:11.620Z</time>
      </trkpt>
      <trkpt lat="46.78537" lon="6.46695">
        <ele>1208</ele>
        <time>2016-05-08T09:39:13.620Z</time>
      </trkpt>
      <trkpt lat="46.78538" lon="6.46698">
        <ele>1208</ele>
        <time>2016-05-08T09:39:15.620Z</time>
      </trkpt>
      <trkpt lat="46.7854" lon="6.467">
        <ele>1208</ele>
        <time>2016-05-08T09:39:16.620Z</time>
      </trkpt>
      <trkpt lat="46.78541" lon="6.46704">
        <ele>1208</ele>
        <time>2016-05-08T09:39:18.620Z</time>
      </trkpt>
      <trkpt lat="46.78543" lon="6.46707">
        <ele>1208</ele>
        <time>2016-05-08T09:39:20.620Z</time>
      </trkpt>
      <trkpt lat="46.78545" lon="6.4671">
        <ele>1207</ele>
        <time>2016-05-08T09:39:22.620Z</time>
      </trkpt>
      <trkpt lat="46.78547" lon="6.46714">
        <ele>1207</ele>
        <time>2016-05-08T09:39:24.620Z</time>
      </trkpt>
      <trkpt lat="46.78548" lon="6.46717">
        <ele>1207</ele>
        <time>2016-05-08T09:39:26.620Z</time>
      </trkpt>
      <trkpt lat="46.78549" lon="6.46721">
        <ele>1207</ele>
        <time>2016-05-08T09:39:28.620Z</time>
      </trkpt>
      <trkpt lat="46.78551" lon="6.46726">
        <ele>1207</ele>
        <time>2016-05-08T09:39:30.620Z</time>
      </trkpt>
      <trkpt lat="46.78552" lon="6.46728">
        <ele>1207</ele>
        <time>2016-05-08T09:39:31.620Z</time>
      </trkpt>
      <trkpt lat="46.78552" lon="6.46733">
        <ele>1206</ele>
        <time>2016-05-08T09:39:33.620Z</time>
      </trkpt>
      <trkpt lat="46.78553" lon="6.46735">
        <ele>1206</ele>
        <time>2016-05-08T09:39:34.620Z</time>
      </trkpt>
      <trkpt lat="46.78555" lon="6.46739">
        <ele>1206</ele>
        <time>2016-05-08T09:39:36.620Z</time>
      </trkpt>
      <trkpt lat="46.78556" lon="6.46742">
        <ele>1206</ele>
        <time>2016-05-08T09:39:37.620Z</time>
      </trkpt>
      <trkpt lat="46.78558" lon="6.46744">
        <ele>1206</ele>
        <time>2016-05-08T09:39:38.620Z</time>
      </trkpt>
      <trkpt lat="46.78559" lon="6.46747">
        <ele>1206</ele>
        <time>2016-05-08T09:39:39.620Z</time>
      </trkpt>
      <trkpt lat="46.7856" lon="6.46749">
        <ele>1206</ele>
        <time>2016-05-08T09:39:40.620Z</time>
      </trkpt>
      <trkpt lat="46.78561" lon="6.46751">
        <ele>1205</ele>
        <time>2016-05-08T09:39:41.620Z</time>
      </trkpt>
      <trkpt lat="46.78563" lon="6.46753">
        <ele>1205</ele>
        <time>2016-05-08T09:39:42.620Z</time>
      </trkpt>
      <trkpt lat="46.78564" lon="6.46755">
        <ele>1205</ele>
        <time>2016-05-08T09:39:43.620Z</time>
      </trkpt>
      <trkpt lat="46.78566" lon="6.46758">
        <ele>1205</ele>
        <time>2016-05-08T09:39:45.620Z</time>
      </trkpt>
      <trkpt lat="46.78568" lon="6.46761">
        <ele>1205</ele>
        <time>2016-05-08T09:39:47.620Z</time>
      </trkpt>
      <trkpt lat="46.78569" lon="6.46765">
        <ele>1205</ele>
        <time>2016-05-08T09:39:49.620Z</time>
      </trkpt>
      <trkpt lat="46.7857" lon="6.46768">
        <ele>1205</ele>
        <time>2016-05-08T09:39:51.620Z</time>
      </trkpt>
      <trkpt lat="46.78572" lon="6.46771">
        <ele>1205</ele>
        <time>2016-05-08T09:39:53.620Z</time>
      </trkpt>
      <trkpt lat="46.78573" lon="6.46775">
        <ele>1205</ele>
        <time>2016-05-08T09:39:55.620Z</time>
      </trkpt>
      <trkpt lat="46.78575" lon="6.46779">
        <ele>1205</ele>
        <time>2016-05-08T09:39:57.620Z</time>
      </trkpt>
      <trkpt lat="46.78576" lon="6.46783">
        <ele>1205</ele>
        <time>2016-05-08T09:39:59.620Z</time>
      </trkpt>
      <trkpt lat="46.78577" lon="6.46786">
        <ele>1204.0198083796</ele>
        <time>2016-05-08T09:40:01.620Z</time>
      </trkpt>
      <trkpt lat="46.78578" lon="6.4679">
        <ele>1204</ele>
        <time>2016-05-08T09:40:03.620Z</time>
      </trkpt>
      <trkpt lat="46.78578" lon="6.46793">
        <ele>1204</ele>
        <time>2016-05-08T09:40:05.620Z</time>
      </trkpt>
      <trkpt lat="46.78579" lon="6.46796">
        <ele>1204</ele>
        <time>2016-05-08T09:40:07.620Z</time>
      </trkpt>
      <trkpt lat="46.7858" lon="6.468">
        <ele>1204</ele>
        <time>2016-05-08T09:40:09.620Z</time>
      </trkpt>
      <trkpt lat="46.78581" lon="6.46803">
        <ele>1204.9899904</ele>
        <time>2016-05-08T09:40:11.620Z</time>
      </trkpt>
      <trkpt lat="46.78583" lon="6.46806">
        <ele>1205</ele>
        <time>2016-05-08T09:40:13.620Z</time>
      </trkpt>
      <trkpt lat="46.78585" lon="6.46809">
        <ele>1205</ele>
        <time>2016-05-08T09:40:15.620Z</time>
      </trkpt>
      <trkpt lat="46.78586" lon="6.46812">
        <ele>1205</ele>
        <time>2016-05-08T09:40:17.620Z</time>
      </trkpt>
      <trkpt lat="46.78588" lon="6.46815">
        <ele>1205</ele>
        <time>2016-05-08T09:40:19.620Z</time>
      </trkpt>
      <trkpt lat="46.7859" lon="6.46819">
        <ele>1205</ele>
        <time>2016-05-08T09:40:21.620Z</time>
      </trkpt>
      <trkpt lat="46.78591" lon="6.46823">
        <ele>1205</ele>
        <time>2016-05-08T09:40:23.620Z</time>
      </trkpt>
      <trkpt lat="46.78592" lon="6.46826">
        <ele>1205</ele>
        <time>2016-05-08T09:40:25.620Z</time>
      </trkpt>
      <trkpt lat="46.78594" lon="6.4683">
        <ele>1205</ele>
        <time>2016-05-08T09:40:27.620Z</time>
      </trkpt>
      <trkpt lat="46.78595" lon="6.46832">
        <ele>1205</ele>
        <time>2016-05-08T09:40:28.620Z</time>
      </trkpt>
      <trkpt lat="46.78596" lon="6.46834">
        <ele>1205</ele>
        <time>2016-05-08T09:40:29.620Z</time>
      </trkpt>
      <trkpt lat="46.78598" lon="6.46838">
        <ele>1204</ele>
        <time>2016-05-08T09:40:31.620Z</time>
      </trkpt>
      <trkpt lat="46.78599" lon="6.4684">
        <ele>1204</ele>
        <time>2016-05-08T09:40:32.620Z</time>
      </trkpt>
      <trkpt lat="46.786" lon="6.46844">
        <ele>1204</ele>
        <time>2016-05-08T09:40:34.620Z</time>
      </trkpt>
      <trkpt lat="46.78603" lon="6.46846">
        <ele>1204</ele>
        <time>2016-05-08T09:40:36.620Z</time>
      </trkpt>
      <trkpt lat="46.78605" lon="6.46847">
        <ele>1204</ele>
        <time>2016-05-08T09:40:39.620Z</time>
      </trkpt>
      <trkpt lat="46.78606" lon="6.46846">
        <ele>1204</ele>
        <time>2016-05-08T09:40:41.620Z</time>
      </trkpt>
      <trkpt lat="46.78609" lon="6.46845">
        <ele>1204</ele>
        <time>2016-05-08T09:40:44.620Z</time>
      </trkpt>
      <trkpt lat="46.78611" lon="6.46843">
        <ele>1204</ele>
        <time>2016-05-08T09:40:46.620Z</time>
      </trkpt>
      <trkpt lat="46.78613" lon="6.4684">
        <ele>1203</ele>
        <time>2016-05-08T09:40:48.620Z</time>
      </trkpt>
      <trkpt lat="46.78615" lon="6.46837">
        <ele>1203</ele>
        <time>2016-05-08T09:40:50.620Z</time>
      </trkpt>
      <trkpt lat="46.78616" lon="6.46834">
        <ele>1203.9900032</ele>
        <time>2016-05-08T09:40:52.620Z</time>
      </trkpt>
      <trkpt lat="46.78617" lon="6.46831">
        <ele>1204</ele>
        <time>2016-05-08T09:40:54.620Z</time>
      </trkpt>
      <trkpt lat="46.78619" lon="6.46827">
        <ele>1204</ele>
        <time>2016-05-08T09:40:56.620Z</time>
      </trkpt>
      <trkpt lat="46.7862" lon="6.46822">
        <ele>1204</ele>
        <time>2016-05-08T09:40:58.620Z</time>
      </trkpt>
      <trkpt lat="46.7862" lon="6.46819">
        <ele>1204</ele>
        <time>2016-05-08T09:41:00.620Z</time>
      </trkpt>
      <trkpt lat="46.7862" lon="6.46815">
        <ele>1203</ele>
        <time>2016-05-08T09:41:02.620Z</time>
      </trkpt>
      <trkpt lat="46.78619" lon="6.46812">
        <ele>1203</ele>
        <time>2016-05-08T09:41:04.620Z</time>
      </trkpt>
      <trkpt lat="46.78619" lon="6.46808">
        <ele>1203</ele>
        <time>2016-05-08T09:41:06.620Z</time>
      </trkpt>
      <trkpt lat="46.78618" lon="6.46804">
        <ele>1203</ele>
        <time>2016-05-08T09:41:08.620Z</time>
      </trkpt>
      <trkpt lat="46.78618" lon="6.468">
        <ele>1203</ele>
        <time>2016-05-08T09:41:10.620Z</time>
      </trkpt>
      <trkpt lat="46.78618" lon="6.46796">
        <ele>1203</ele>
        <time>2016-05-08T09:41:12.620Z</time>
      </trkpt>
      <trkpt lat="46.78619" lon="6.46792">
        <ele>1203</ele>
        <time>2016-05-08T09:41:14.620Z</time>
      </trkpt>
      <trkpt lat="46.78619" lon="6.46788">
        <ele>1203</ele>
        <time>2016-05-08T09:41:16.620Z</time>
      </trkpt>
      <trkpt lat="46.78619" lon="6.46784">
        <ele>1203</ele>
        <time>2016-05-08T09:41:18.620Z</time>
      </trkpt>
      <trkpt lat="46.78619" lon="6.4678">
        <ele>1203</ele>
        <time>2016-05-08T09:41:20.620Z</time>
      </trkpt>
      <trkpt lat="46.78618" lon="6.46776">
        <ele>1202</ele>
        <time>2016-05-08T09:41:22.620Z</time>
      </trkpt>
      <trkpt lat="46.78618" lon="6.46772">
        <ele>1202</ele>
        <time>2016-05-08T09:41:24.620Z</time>
      </trkpt>
      <trkpt lat="46.78617" lon="6.46768">
        <ele>1202</ele>
        <time>2016-05-08T09:41:26.620Z</time>
      </trkpt>
      <trkpt lat="46.78618" lon="6.46764">
        <ele>1202</ele>
        <time>2016-05-08T09:41:28.620Z</time>
      </trkpt>
      <trkpt lat="46.78618" lon="6.46759">
        <ele>1202</ele>
        <time>2016-05-08T09:41:30.620Z</time>
      </trkpt>
      <trkpt lat="46.78618" lon="6.46755">
        <ele>1202</ele>
        <time>2016-05-08T09:41:32.620Z</time>
      </trkpt>
      <trkpt lat="46.78618" lon="6.46751">
        <ele>1202</ele>
        <time>2016-05-08T09:41:34.620Z</time>
      </trkpt>
      <trkpt lat="46.78617" lon="6.46747">
        <ele>1202</ele>
        <time>2016-05-08T09:41:36.620Z</time>
      </trkpt>
      <trkpt lat="46.78617" lon="6.46743">
        <ele>1202</ele>
        <time>2016-05-08T09:41:38.620Z</time>
      </trkpt>
      <trkpt lat="46.78618" lon="6.46739">
        <ele>1202</ele>
        <time>2016-05-08T09:41:40.620Z</time>
      </trkpt>
      <trkpt lat="46.78619" lon="6.46735">
        <ele>1201</ele>
        <time>2016-05-08T09:41:42.620Z</time>
      </trkpt>
      <trkpt lat="46.78619" lon="6.46731">
        <ele>1201</ele>
        <time>2016-05-08T09:41:44.620Z</time>
      </trkpt>
      <trkpt lat="46.7862" lon="6.46727">
        <ele>1201</ele>
        <time>2016-05-08T09:41:46.620Z</time>
      </trkpt>
      <trkpt lat="46.7862" lon="6.46722">
        <ele>1201</ele>
        <time>2016-05-08T09:41:48.620Z</time>
      </trkpt>
      <trkpt lat="46.7862" lon="6.46717">
        <ele>1201</ele>
        <time>2016-05-08T09:41:50.620Z</time>
      </trkpt>
      <trkpt lat="46.7862" lon="6.46713">
        <ele>1201</ele>
        <time>2016-05-08T09:41:52.620Z</time>
      </trkpt>
      <trkpt lat="46.7862" lon="6.4671">
        <ele>1201</ele>
        <time>2016-05-08T09:41:54.620Z</time>
      </trkpt>
      <trkpt lat="46.78621" lon="6.46706">
        <ele>1201</ele>
        <time>2016-05-08T09:41:56.620Z</time>
      </trkpt>
      <trkpt lat="46.78621" lon="6.46702">
        <ele>1201</ele>
        <time>2016-05-08T09:41:58.620Z</time>
      </trkpt>
      <trkpt lat="46.7862" lon="6.46699">
        <ele>1201</ele>
        <time>2016-05-08T09:42:00.620Z</time>
      </trkpt>
      <trkpt lat="46.7862" lon="6.46695">
        <ele>1200</ele>
        <time>2016-05-08T09:42:02.620Z</time>
      </trkpt>
      <trkpt lat="46.78616" lon="6.46682">
        <ele>1200</ele>
        <time>2016-05-08T09:42:10.620Z</time>
      </trkpt>
      <trkpt lat="46.7861" lon="6.4667">
        <ele>1200</ele>
        <time>2016-05-08T09:42:18.620Z</time>
      </trkpt>
      <trkpt lat="46.78607" lon="6.46657">
        <ele>1199</ele>
        <time>2016-05-08T09:42:25.620Z</time>
      </trkpt>
      <trkpt lat="46.78605" lon="6.46641">
        <ele>1198</ele>
        <time>2016-05-08T09:42:31.620Z</time>
      </trkpt>
      <trkpt lat="46.78604" lon="6.46627">
        <ele>1198</ele>
        <time>2016-05-08T09:42:36.620Z</time>
      </trkpt>
      <trkpt lat="46.78603" lon="6.46613">
        <ele>1198</ele>
        <time>2016-05-08T09:42:42.620Z</time>
      </trkpt>
      <trkpt lat="46.78602" lon="6.466">
        <ele>1198</ele>
        <time>2016-05-08T09:42:48.620Z</time>
      </trkpt>
      <trkpt lat="46.78603" lon="6.46595">
        <ele>1198</ele>
        <time>2016-05-08T09:42:50.620Z</time>
      </trkpt>
      <trkpt lat="46.78604" lon="6.46591">
        <ele>1197</ele>
        <time>2016-05-08T09:42:52.620Z</time>
      </trkpt>
      <trkpt lat="46.78604" lon="6.46588">
        <ele>1197</ele>
        <time>2016-05-08T09:42:53.620Z</time>
      </trkpt>
      <trkpt lat="46.78604" lon="6.46585">
        <ele>1197</ele>
        <time>2016-05-08T09:42:54.620Z</time>
      </trkpt>
      <trkpt lat="46.78604" lon="6.46582">
        <ele>1197</ele>
        <time>2016-05-08T09:42:55.620Z</time>
      </trkpt>
      <trkpt lat="46.78604" lon="6.46579">
        <ele>1197</ele>
        <time>2016-05-08T09:42:56.620Z</time>
      </trkpt>
      <trkpt lat="46.78604" lon="6.46576">
        <ele>1197</ele>
        <time>2016-05-08T09:42:57.620Z</time>
      </trkpt>
      <trkpt lat="46.78604" lon="6.46574">
        <ele>1197</ele>
        <time>2016-05-08T09:42:58.620Z</time>
      </trkpt>
      <trkpt lat="46.78603" lon="6.46569">
        <ele>1197</ele>
        <time>2016-05-08T09:43:00.620Z</time>
      </trkpt>
      <trkpt lat="46.78603" lon="6.46564">
        <ele>1196</ele>
        <time>2016-05-08T09:43:02.620Z</time>
      </trkpt>
      <trkpt lat="46.78604" lon="6.46559">
        <ele>1196</ele>
        <time>2016-05-08T09:43:04.620Z</time>
      </trkpt>
      <trkpt lat="46.78606" lon="6.46555">
        <ele>1196</ele>
        <time>2016-05-08T09:43:06.620Z</time>
      </trkpt>
      <trkpt lat="46.78606" lon="6.46551">
        <ele>1196</ele>
        <time>2016-05-08T09:43:08.620Z</time>
      </trkpt>
      <trkpt lat="46.78608" lon="6.46547">
        <ele>1196</ele>
        <time>2016-05-08T09:43:10.620Z</time>
      </trkpt>
      <trkpt lat="46.78609" lon="6.46544">
        <ele>1196</ele>
        <time>2016-05-08T09:43:12.620Z</time>
      </trkpt>
      <trkpt lat="46.78611" lon="6.4654">
        <ele>1196</ele>
        <time>2016-05-08T09:43:14.620Z</time>
      </trkpt>
      <trkpt lat="46.78612" lon="6.46537">
        <ele>1196</ele>
        <time>2016-05-08T09:43:16.620Z</time>
      </trkpt>
      <trkpt lat="46.78613" lon="6.46534">
        <ele>1196</ele>
        <time>2016-05-08T09:43:18.620Z</time>
      </trkpt>
      <trkpt lat="46.78613" lon="6.4653">
        <ele>1196</ele>
        <time>2016-05-08T09:43:20.620Z</time>
      </trkpt>
      <trkpt lat="46.78613" lon="6.46526">
        <ele>1196</ele>
        <time>2016-05-08T09:43:22.620Z</time>
      </trkpt>
      <trkpt lat="46.78613" lon="6.46522">
        <ele>1196</ele>
        <time>2016-05-08T09:43:24.620Z</time>
      </trkpt>
      <trkpt lat="46.78614" lon="6.46518">
        <ele>1196</ele>
        <time>2016-05-08T09:43:26.620Z</time>
      </trkpt>
      <trkpt lat="46.78614" lon="6.46515">
        <ele>1196</ele>
        <time>2016-05-08T09:43:28.620Z</time>
      </trkpt>
      <trkpt lat="46.78615" lon="6.46511">
        <ele>1196</ele>
        <time>2016-05-08T09:43:30.620Z</time>
      </trkpt>
      <trkpt lat="46.78616" lon="6.46507">
        <ele>1196</ele>
        <time>2016-05-08T09:43:32.620Z</time>
      </trkpt>
      <trkpt lat="46.78616" lon="6.46503">
        <ele>1196</ele>
        <time>2016-05-08T09:43:34.620Z</time>
      </trkpt>
      <trkpt lat="46.78616" lon="6.46499">
        <ele>1196</ele>
        <time>2016-05-08T09:43:36.620Z</time>
      </trkpt>
      <trkpt lat="46.78617" lon="6.46495">
        <ele>1196</ele>
        <time>2016-05-08T09:43:38.620Z</time>
      </trkpt>
      <trkpt lat="46.78617" lon="6.46491">
        <ele>1196</ele>
        <time>2016-05-08T09:43:40.620Z</time>
      </trkpt>
      <trkpt lat="46.78616" lon="6.46488">
        <ele>1195.0100096</ele>
        <time>2016-05-08T09:43:41.620Z</time>
      </trkpt>
      <trkpt lat="46.78617" lon="6.46483">
        <ele>1195</ele>
        <time>2016-05-08T09:43:43.620Z</time>
      </trkpt>
      <trkpt lat="46.78618" lon="6.46473">
        <ele>1195</ele>
        <time>2016-05-08T09:43:47.620Z</time>
      </trkpt>
      <trkpt lat="46.78618" lon="6.4647">
        <ele>1195</ele>
        <time>2016-05-08T09:43:48.620Z</time>
      </trkpt>
      <trkpt lat="46.78619" lon="6.46467">
        <ele>1195</ele>
        <time>2016-05-08T09:43:49.620Z</time>
      </trkpt>
      <trkpt lat="46.78621" lon="6.46465">
        <ele>1195</ele>
        <time>2016-05-08T09:43:50.620Z</time>
      </trkpt>
      <trkpt lat="46.78621" lon="6.46462">
        <ele>1193.0200192</ele>
        <time>2016-05-08T09:43:51.620Z</time>
      </trkpt>
      <trkpt lat="46.78622" lon="6.46455">
        <ele>1193</ele>
        <time>2016-05-08T09:43:54.620Z</time>
      </trkpt>
      <trkpt lat="46.78623" lon="6.46444">
        <ele>1193</ele>
        <time>2016-05-08T09:43:59.620Z</time>
      </trkpt>
      <trkpt lat="46.78625" lon="6.46441">
        <ele>1193</ele>
        <time>2016-05-08T09:44:01.620Z</time>
      </trkpt>
      <trkpt lat="46.78627" lon="6.46437">
        <ele>1193</ele>
        <time>2016-05-08T09:44:03.620Z</time>
      </trkpt>
      <trkpt lat="46.78627" lon="6.46432">
        <ele>1193</ele>
        <time>2016-05-08T09:44:05.620Z</time>
      </trkpt>
      <trkpt lat="46.78628" lon="6.46429">
        <ele>1193</ele>
        <time>2016-05-08T09:44:07.620Z</time>
      </trkpt>
      <trkpt lat="46.78629" lon="6.46425">
        <ele>1193</ele>
        <time>2016-05-08T09:44:09.620Z</time>
      </trkpt>
      <trkpt lat="46.78629" lon="6.46421">
        <ele>1193</ele>
        <time>2016-05-08T09:44:12.620Z</time>
      </trkpt>
      <trkpt lat="46.78629" lon="6.46417">
        <ele>1193</ele>
        <time>2016-05-08T09:44:14.620Z</time>
      </trkpt>
      <trkpt lat="46.78629" lon="6.46414">
        <ele>1193</ele>
        <time>2016-05-08T09:44:16.620Z</time>
      </trkpt>
      <trkpt lat="46.78629" lon="6.46411">
        <ele>1193</ele>
        <time>2016-05-08T09:44:18.620Z</time>
      </trkpt>
      <trkpt lat="46.78629" lon="6.46408">
        <ele>1193</ele>
        <time>2016-05-08T09:44:20.620Z</time>
      </trkpt>
      <trkpt lat="46.78629" lon="6.46405">
        <ele>1192</ele>
        <time>2016-05-08T09:44:22.620Z</time>
      </trkpt>
      <trkpt lat="46.78631" lon="6.46401">
        <ele>1192</ele>
        <time>2016-05-08T09:44:24.620Z</time>
      </trkpt>
      <trkpt lat="46.78632" lon="6.46398">
        <ele>1192</ele>
        <time>2016-05-08T09:44:25.620Z</time>
      </trkpt>
      <trkpt lat="46.78634" lon="6.46396">
        <ele>1192</ele>
        <time>2016-05-08T09:44:26.620Z</time>
      </trkpt>
      <trkpt lat="46.78635" lon="6.46394">
        <ele>1192</ele>
        <time>2016-05-08T09:44:27.620Z</time>
      </trkpt>
      <trkpt lat="46.78637" lon="6.46386">
        <ele>1192</ele>
        <time>2016-05-08T09:44:30.620Z</time>
      </trkpt>
      <trkpt lat="46.78639" lon="6.46383">
        <ele>1191</ele>
        <time>2016-05-08T09:44:32.620Z</time>
      </trkpt>
      <trkpt lat="46.7864" lon="6.46379">
        <ele>1191</ele>
        <time>2016-05-08T09:44:34.620Z</time>
      </trkpt>
      <trkpt lat="46.78642" lon="6.46375">
        <ele>1191</ele>
        <time>2016-05-08T09:44:36.620Z</time>
      </trkpt>
      <trkpt lat="46.78644" lon="6.46372">
        <ele>1191</ele>
        <time>2016-05-08T09:44:38.620Z</time>
      </trkpt>
      <trkpt lat="46.78646" lon="6.46369">
        <ele>1191</ele>
        <time>2016-05-08T09:44:40.620Z</time>
      </trkpt>
      <trkpt lat="46.78648" lon="6.46366">
        <ele>1190</ele>
        <time>2016-05-08T09:44:42.620Z</time>
      </trkpt>
      <trkpt lat="46.7865" lon="6.46362">
        <ele>1190</ele>
        <time>2016-05-08T09:44:44.620Z</time>
      </trkpt>
      <trkpt lat="46.78651" lon="6.46359">
        <ele>1190</ele>
        <time>2016-05-08T09:44:46.620Z</time>
      </trkpt>
      <trkpt lat="46.78652" lon="6.46355">
        <ele>1190</ele>
        <time>2016-05-08T09:44:48.620Z</time>
      </trkpt>
      <trkpt lat="46.78654" lon="6.46353">
        <ele>1190</ele>
        <time>2016-05-08T09:44:49.620Z</time>
      </trkpt>
      <trkpt lat="46.78655" lon="6.46351">
        <ele>1190</ele>
        <time>2016-05-08T09:44:50.620Z</time>
      </trkpt>
      <trkpt lat="46.78656" lon="6.46349">
        <ele>1189</ele>
        <time>2016-05-08T09:44:51.620Z</time>
      </trkpt>
      <trkpt lat="46.78658" lon="6.46345">
        <ele>1189</ele>
        <time>2016-05-08T09:44:53.620Z</time>
      </trkpt>
      <trkpt lat="46.7866" lon="6.4634">
        <ele>1189</ele>
        <time>2016-05-08T09:44:55.620Z</time>
      </trkpt>
      <trkpt lat="46.7866" lon="6.46338">
        <ele>1189</ele>
        <time>2016-05-08T09:44:56.620Z</time>
      </trkpt>
      <trkpt lat="46.78662" lon="6.46335">
        <ele>1189</ele>
        <time>2016-05-08T09:44:57.620Z</time>
      </trkpt>
      <trkpt lat="46.78663" lon="6.46333">
        <ele>1189</ele>
        <time>2016-05-08T09:44:58.620Z</time>
      </trkpt>
      <trkpt lat="46.78665" lon="6.46329">
        <ele>1189</ele>
        <time>2016-05-08T09:45:00.620Z</time>
      </trkpt>
      <trkpt lat="46.78668" lon="6.46326">
        <ele>1188</ele>
        <time>2016-05-08T09:45:02.620Z</time>
      </trkpt>
      <trkpt lat="46.78669" lon="6.46323">
        <ele>1188</ele>
        <time>2016-05-08T09:45:04.620Z</time>
      </trkpt>
      <trkpt lat="46.78671" lon="6.4632">
        <ele>1188</ele>
        <time>2016-05-08T09:45:06.620Z</time>
      </trkpt>
      <trkpt lat="46.78673" lon="6.46317">
        <ele>1188</ele>
        <time>2016-05-08T09:45:08.620Z</time>
      </trkpt>
      <trkpt lat="46.78675" lon="6.46314">
        <ele>1188</ele>
        <time>2016-05-08T09:45:10.620Z</time>
      </trkpt>
      <trkpt lat="46.78679" lon="6.46312">
        <ele>1188</ele>
        <time>2016-05-08T09:45:12.620Z</time>
      </trkpt>
      <trkpt lat="46.78682" lon="6.4631">
        <ele>1188</ele>
        <time>2016-05-08T09:45:14.620Z</time>
      </trkpt>
      <trkpt lat="46.78683" lon="6.46308">
        <ele>1188</ele>
        <time>2016-05-08T09:45:15.620Z</time>
      </trkpt>
      <trkpt lat="46.78686" lon="6.46305">
        <ele>1188</ele>
        <time>2016-05-08T09:45:17.620Z</time>
      </trkpt>
      <trkpt lat="46.78688" lon="6.46302">
        <ele>1188</ele>
        <time>2016-05-08T09:45:19.620Z</time>
      </trkpt>
      <trkpt lat="46.7869" lon="6.463">
        <ele>1187.0100096</ele>
        <time>2016-05-08T09:45:21.620Z</time>
      </trkpt>
      <trkpt lat="46.78692" lon="6.46296">
        <ele>1187</ele>
        <time>2016-05-08T09:45:23.620Z</time>
      </trkpt>
      <trkpt lat="46.78694" lon="6.46293">
        <ele>1187</ele>
        <time>2016-05-08T09:45:25.620Z</time>
      </trkpt>
      <trkpt lat="46.78696" lon="6.4629">
        <ele>1187</ele>
        <time>2016-05-08T09:45:27.620Z</time>
      </trkpt>
      <trkpt lat="46.78698" lon="6.46287">
        <ele>1187</ele>
        <time>2016-05-08T09:45:29.620Z</time>
      </trkpt>
      <trkpt lat="46.787" lon="6.46284">
        <ele>1187</ele>
        <time>2016-05-08T09:45:31.620Z</time>
      </trkpt>
      <trkpt lat="46.78701" lon="6.4628">
        <ele>1187</ele>
        <time>2016-05-08T09:45:33.620Z</time>
      </trkpt>
      <trkpt lat="46.78702" lon="6.46277">
        <ele>1187</ele>
        <time>2016-05-08T09:45:35.620Z</time>
      </trkpt>
      <trkpt lat="46.78703" lon="6.46274">
        <ele>1187</ele>
        <time>2016-05-08T09:45:37.620Z</time>
      </trkpt>
      <trkpt lat="46.78703" lon="6.46271">
        <ele>1187</ele>
        <time>2016-05-08T09:45:39.620Z</time>
      </trkpt>
      <trkpt lat="46.78704" lon="6.46268">
        <ele>1187</ele>
        <time>2016-05-08T09:45:41.620Z</time>
      </trkpt>
      <trkpt lat="46.78705" lon="6.46264">
        <ele>1187</ele>
        <time>2016-05-08T09:45:43.620Z</time>
      </trkpt>
      <trkpt lat="46.78707" lon="6.46261">
        <ele>1187</ele>
        <time>2016-05-08T09:45:45.620Z</time>
      </trkpt>
      <trkpt lat="46.78709" lon="6.46258">
        <ele>1187</ele>
        <time>2016-05-08T09:45:47.620Z</time>
      </trkpt>
      <trkpt lat="46.78711" lon="6.46256">
        <ele>1187</ele>
        <time>2016-05-08T09:45:49.620Z</time>
      </trkpt>
      <trkpt lat="46.78714" lon="6.46254">
        <ele>1187</ele>
        <time>2016-05-08T09:45:51.620Z</time>
      </trkpt>
      <trkpt lat="46.78716" lon="6.46252">
        <ele>1187</ele>
        <time>2016-05-08T09:45:53.620Z</time>
      </trkpt>
      <trkpt lat="46.78718" lon="6.4625">
        <ele>1187</ele>
        <time>2016-05-08T09:45:55.620Z</time>
      </trkpt>
      <trkpt lat="46.78721" lon="6.46248">
        <ele>1187</ele>
        <time>2016-05-08T09:45:57.620Z</time>
      </trkpt>
      <trkpt lat="46.78723" lon="6.46246">
        <ele>1187</ele>
        <time>2016-05-08T09:45:59.620Z</time>
      </trkpt>
      <trkpt lat="46.78725" lon="6.46244">
        <ele>1185</ele>
        <time>2016-05-08T09:46:01.620Z</time>
      </trkpt>
      <trkpt lat="46.78728" lon="6.46242">
        <ele>1185</ele>
        <time>2016-05-08T09:46:03.620Z</time>
      </trkpt>
      <trkpt lat="46.7873" lon="6.4624">
        <ele>1185</ele>
        <time>2016-05-08T09:46:05.620Z</time>
      </trkpt>
      <trkpt lat="46.78733" lon="6.46239">
        <ele>1185</ele>
        <time>2016-05-08T09:46:07.620Z</time>
      </trkpt>
      <trkpt lat="46.78735" lon="6.46238">
        <ele>1185</ele>
        <time>2016-05-08T09:46:09.620Z</time>
      </trkpt>
      <trkpt lat="46.78737" lon="6.46237">
        <ele>1185</ele>
        <time>2016-05-08T09:46:11.620Z</time>
      </trkpt>
      <trkpt lat="46.78739" lon="6.46237">
        <ele>1185</ele>
        <time>2016-05-08T09:46:27.620Z</time>
      </trkpt>
      <trkpt lat="46.78741" lon="6.46236">
        <ele>1185</ele>
        <time>2016-05-08T09:46:29.620Z</time>
      </trkpt>
      <trkpt lat="46.78743" lon="6.46235">
        <ele>1185</ele>
        <time>2016-05-08T09:46:31.620Z</time>
      </trkpt>
      <trkpt lat="46.78745" lon="6.46233">
        <ele>1185</ele>
        <time>2016-05-08T09:46:33.620Z</time>
      </trkpt>
      <trkpt lat="46.78746" lon="6.4623">
        <ele>1185</ele>
        <time>2016-05-08T09:46:35.620Z</time>
      </trkpt>
      <trkpt lat="46.78747" lon="6.46228">
        <ele>1185</ele>
        <time>2016-05-08T09:46:37.620Z</time>
      </trkpt>
      <trkpt lat="46.78748" lon="6.46224">
        <ele>1185</ele>
        <time>2016-05-08T09:46:39.620Z</time>
      </trkpt>
      <trkpt lat="46.78749" lon="6.46219">
        <ele>1183</ele>
        <time>2016-05-08T09:46:41.620Z</time>
      </trkpt>
      <trkpt lat="46.7875" lon="6.46215">
        <ele>1183</ele>
        <time>2016-05-08T09:46:43.620Z</time>
      </trkpt>
      <trkpt lat="46.78749" lon="6.46211">
        <ele>1183</ele>
        <time>2016-05-08T09:46:45.620Z</time>
      </trkpt>
      <trkpt lat="46.78749" lon="6.46208">
        <ele>1183</ele>
        <time>2016-05-08T09:46:47.620Z</time>
      </trkpt>
      <trkpt lat="46.78748" lon="6.46204">
        <ele>1183</ele>
        <time>2016-05-08T09:46:49.620Z</time>
      </trkpt>
      <trkpt lat="46.78747" lon="6.46201">
        <ele>1182</ele>
        <time>2016-05-08T09:46:51.620Z</time>
      </trkpt>
      <trkpt lat="46.78746" lon="6.46197">
        <ele>1182</ele>
        <time>2016-05-08T09:46:53.620Z</time>
      </trkpt>
      <trkpt lat="46.78745" lon="6.46194">
        <ele>1182</ele>
        <time>2016-05-08T09:46:55.620Z</time>
      </trkpt>
      <trkpt lat="46.78744" lon="6.46191">
        <ele>1182</ele>
        <time>2016-05-08T09:46:57.620Z</time>
      </trkpt>
      <trkpt lat="46.78743" lon="6.46188">
        <ele>1182</ele>
        <time>2016-05-08T09:46:59.620Z</time>
      </trkpt>
      <trkpt lat="46.78742" lon="6.46184">
        <ele>1180</ele>
        <time>2016-05-08T09:47:01.620Z</time>
      </trkpt>
      <trkpt lat="46.7874" lon="6.46181">
        <ele>1180</ele>
        <time>2016-05-08T09:47:03.620Z</time>
      </trkpt>
      <trkpt lat="46.78738" lon="6.46178">
        <ele>1180</ele>
        <time>2016-05-08T09:47:05.620Z</time>
      </trkpt>
      <trkpt lat="46.78737" lon="6.46176">
        <ele>1180</ele>
        <time>2016-05-08T09:47:06.620Z</time>
      </trkpt>
      <trkpt lat="46.78735" lon="6.46173">
        <ele>1180</ele>
        <time>2016-05-08T09:47:08.620Z</time>
      </trkpt>
      <trkpt lat="46.78733" lon="6.4617">
        <ele>1180</ele>
        <time>2016-05-08T09:47:10.620Z</time>
      </trkpt>
      <trkpt lat="46.78731" lon="6.46167">
        <ele>1180</ele>
        <time>2016-05-08T09:47:12.620Z</time>
      </trkpt>
      <trkpt lat="46.78729" lon="6.46164">
        <ele>1180</ele>
        <time>2016-05-08T09:47:14.620Z</time>
      </trkpt>
      <trkpt lat="46.78727" lon="6.46162">
        <ele>1180</ele>
        <time>2016-05-08T09:47:16.620Z</time>
      </trkpt>
      <trkpt lat="46.78725" lon="6.46159">
        <ele>1180</ele>
        <time>2016-05-08T09:47:18.620Z</time>
      </trkpt>
      <trkpt lat="46.78723" lon="6.46155">
        <ele>1180</ele>
        <time>2016-05-08T09:47:20.620Z</time>
      </trkpt>
      <trkpt lat="46.78721" lon="6.46152">
        <ele>1180</ele>
        <time>2016-05-08T09:47:22.620Z</time>
      </trkpt>
      <trkpt lat="46.78719" lon="6.46148">
        <ele>1180</ele>
        <time>2016-05-08T09:47:24.620Z</time>
      </trkpt>
      <trkpt lat="46.78717" lon="6.46146">
        <ele>1180</ele>
        <time>2016-05-08T09:47:26.620Z</time>
      </trkpt>
      <trkpt lat="46.78715" lon="6.46143">
        <ele>1180</ele>
        <time>2016-05-08T09:47:28.620Z</time>
      </trkpt>
      <trkpt lat="46.78713" lon="6.4614">
        <ele>1180</ele>
        <time>2016-05-08T09:47:30.620Z</time>
      </trkpt>
      <trkpt lat="46.7871" lon="6.46137">
        <ele>1180</ele>
        <time>2016-05-08T09:47:32.620Z</time>
      </trkpt>
      <trkpt lat="46.78708" lon="6.46134">
        <ele>1180</ele>
        <time>2016-05-08T09:47:34.620Z</time>
      </trkpt>
      <trkpt lat="46.78705" lon="6.46131">
        <ele>1180</ele>
        <time>2016-05-08T09:47:36.620Z</time>
      </trkpt>
      <trkpt lat="46.78703" lon="6.46129">
        <ele>1180</ele>
        <time>2016-05-08T09:47:38.620Z</time>
      </trkpt>
      <trkpt lat="46.78701" lon="6.46127">
        <ele>1180</ele>
        <time>2016-05-08T09:47:39.620Z</time>
      </trkpt>
      <trkpt lat="46.78699" lon="6.46125">
        <ele>1179.0100096</ele>
        <time>2016-05-08T09:47:41.620Z</time>
      </trkpt>
      <trkpt lat="46.78697" lon="6.46122">
        <ele>1179</ele>
        <time>2016-05-08T09:47:43.620Z</time>
      </trkpt>
      <trkpt lat="46.78694" lon="6.4612">
        <ele>1179</ele>
        <time>2016-05-08T09:47:45.620Z</time>
      </trkpt>
      <trkpt lat="46.78692" lon="6.46118">
        <ele>1179</ele>
        <time>2016-05-08T09:47:47.620Z</time>
      </trkpt>
      <trkpt lat="46.7869" lon="6.46115">
        <ele>1179</ele>
        <time>2016-05-08T09:47:49.620Z</time>
      </trkpt>
      <trkpt lat="46.78688" lon="6.46112">
        <ele>1178</ele>
        <time>2016-05-08T09:47:51.620Z</time>
      </trkpt>
      <trkpt lat="46.78685" lon="6.46109">
        <ele>1178</ele>
        <time>2016-05-08T09:47:53.620Z</time>
      </trkpt>
      <trkpt lat="46.78683" lon="6.46106">
        <ele>1178</ele>
        <time>2016-05-08T09:47:55.620Z</time>
      </trkpt>
      <trkpt lat="46.78681" lon="6.46103">
        <ele>1178</ele>
        <time>2016-05-08T09:47:57.620Z</time>
      </trkpt>
      <trkpt lat="46.78679" lon="6.46101">
        <ele>1178</ele>
        <time>2016-05-08T09:47:59.620Z</time>
      </trkpt>
      <trkpt lat="46.78677" lon="6.46098">
        <ele>1176.0396167592</ele>
        <time>2016-05-08T09:48:01.620Z</time>
      </trkpt>
      <trkpt lat="46.78676" lon="6.46095">
        <ele>1176</ele>
        <time>2016-05-08T09:48:03.620Z</time>
      </trkpt>
      <trkpt lat="46.78675" lon="6.46091">
        <ele>1176</ele>
        <time>2016-05-08T09:48:05.620Z</time>
      </trkpt>
      <trkpt lat="46.78674" lon="6.46088">
        <ele>1176</ele>
        <time>2016-05-08T09:48:07.620Z</time>
      </trkpt>
      <trkpt lat="46.78672" lon="6.46085">
        <ele>1176</ele>
        <time>2016-05-08T09:48:09.620Z</time>
      </trkpt>
      <trkpt lat="46.78669" lon="6.46083">
        <ele>1176</ele>
        <time>2016-05-08T09:48:11.620Z</time>
      </trkpt>
      <trkpt lat="46.78668" lon="6.4608">
        <ele>1176</ele>
        <time>2016-05-08T09:48:13.620Z</time>
      </trkpt>
      <trkpt lat="46.78666" lon="6.46077">
        <ele>1176</ele>
        <time>2016-05-08T09:48:15.620Z</time>
      </trkpt>
      <trkpt lat="46.78663" lon="6.46073">
        <ele>1176</ele>
        <time>2016-05-08T09:48:17.620Z</time>
      </trkpt>
      <trkpt lat="46.78662" lon="6.4607">
        <ele>1176</ele>
        <time>2016-05-08T09:48:19.620Z</time>
      </trkpt>
      <trkpt lat="46.78659" lon="6.46067">
        <ele>1175.2442765993</ele>
        <time>2016-05-08T09:48:21.620Z</time>
      </trkpt>
      <trkpt lat="46.78657" lon="6.46064">
        <ele>1175</ele>
        <time>2016-05-08T09:48:23.620Z</time>
      </trkpt>
      <trkpt lat="46.78656" lon="6.46061">
        <ele>1175</ele>
        <time>2016-05-08T09:48:25.620Z</time>
      </trkpt>
      <trkpt lat="46.78655" lon="6.46058">
        <ele>1175</ele>
        <time>2016-05-08T09:48:27.620Z</time>
      </trkpt>
      <trkpt lat="46.78654" lon="6.46054">
        <ele>1175</ele>
        <time>2016-05-08T09:48:29.620Z</time>
      </trkpt>
      <trkpt lat="46.78652" lon="6.46051">
        <ele>1175</ele>
        <time>2016-05-08T09:48:31.620Z</time>
      </trkpt>
      <trkpt lat="46.7865" lon="6.46049">
        <ele>1175</ele>
        <time>2016-05-08T09:48:33.620Z</time>
      </trkpt>
      <trkpt lat="46.78649" lon="6.46046">
        <ele>1175</ele>
        <time>2016-05-08T09:48:35.620Z</time>
      </trkpt>
      <trkpt lat="46.78648" lon="6.46043">
        <ele>1175</ele>
        <time>2016-05-08T09:48:37.620Z</time>
      </trkpt>
      <trkpt lat="46.78647" lon="6.4604">
        <ele>1175</ele>
        <time>2016-05-08T09:48:39.620Z</time>
      </trkpt>
      <trkpt lat="46.78645" lon="6.46036">
        <ele>1175</ele>
        <time>2016-05-08T09:48:41.620Z</time>
      </trkpt>
      <trkpt lat="46.78644" lon="6.46033">
        <ele>1175</ele>
        <time>2016-05-08T09:48:43.620Z</time>
      </trkpt>
      <trkpt lat="46.78643" lon="6.46029">
        <ele>1175</ele>
        <time>2016-05-08T09:48:45.620Z</time>
      </trkpt>
      <trkpt lat="46.78642" lon="6.46025">
        <ele>1175</ele>
        <time>2016-05-08T09:48:47.620Z</time>
      </trkpt>
      <trkpt lat="46.78641" lon="6.46023">
        <ele>1175</ele>
        <time>2016-05-08T09:48:49.620Z</time>
      </trkpt>
      <trkpt lat="46.7864" lon="6.46019">
        <ele>1175</ele>
        <time>2016-05-08T09:48:51.620Z</time>
      </trkpt>
      <trkpt lat="46.78639" lon="6.46015">
        <ele>1175</ele>
        <time>2016-05-08T09:48:53.620Z</time>
      </trkpt>
      <trkpt lat="46.7864" lon="6.46011">
        <ele>1175</ele>
        <time>2016-05-08T09:48:55.620Z</time>
      </trkpt>
      <trkpt lat="46.78639" lon="6.46008">
        <ele>1175</ele>
        <time>2016-05-08T09:48:57.620Z</time>
      </trkpt>
      <trkpt lat="46.78638" lon="6.46005">
        <ele>1175</ele>
        <time>2016-05-08T09:48:59.620Z</time>
      </trkpt>
      <trkpt lat="46.78638" lon="6.46001">
        <ele>1175</ele>
        <time>2016-05-08T09:49:01.620Z</time>
      </trkpt>
      <trkpt lat="46.78638" lon="6.45997">
        <ele>1173</ele>
        <time>2016-05-08T09:49:03.620Z</time>
      </trkpt>
      <trkpt lat="46.78637" lon="6.45993">
        <ele>1173</ele>
        <time>2016-05-08T09:49:05.620Z</time>
      </trkpt>
      <trkpt lat="46.78636" lon="6.4599">
        <ele>1173</ele>
        <time>2016-05-08T09:49:07.620Z</time>
      </trkpt>
      <trkpt lat="46.78635" lon="6.45987">
        <ele>1173</ele>
        <time>2016-05-08T09:49:09.620Z</time>
      </trkpt>
      <trkpt lat="46.78634" lon="6.45984">
        <ele>1173</ele>
        <time>2016-05-08T09:49:11.620Z</time>
      </trkpt>
      <trkpt lat="46.78633" lon="6.4598">
        <ele>1173</ele>
        <time>2016-05-08T09:49:13.620Z</time>
      </trkpt>
      <trkpt lat="46.78631" lon="6.45977">
        <ele>1173</ele>
        <time>2016-05-08T09:49:15.620Z</time>
      </trkpt>
      <trkpt lat="46.78629" lon="6.45974">
        <ele>1173</ele>
        <time>2016-05-08T09:49:17.620Z</time>
      </trkpt>
      <trkpt lat="46.78628" lon="6.45971">
        <ele>1173</ele>
        <time>2016-05-08T09:49:19.620Z</time>
      </trkpt>
      <trkpt lat="46.78626" lon="6.45967">
        <ele>1173</ele>
        <time>2016-05-08T09:49:21.620Z</time>
      </trkpt>
      <trkpt lat="46.78625" lon="6.45964">
        <ele>1173</ele>
        <time>2016-05-08T09:49:23.620Z</time>
      </trkpt>
      <trkpt lat="46.78623" lon="6.45962">
        <ele>1173</ele>
        <time>2016-05-08T09:49:25.620Z</time>
      </trkpt>
      <trkpt lat="46.78622" lon="6.45959">
        <ele>1173</ele>
        <time>2016-05-08T09:49:27.620Z</time>
      </trkpt>
      <trkpt lat="46.78621" lon="6.45955">
        <ele>1173</ele>
        <time>2016-05-08T09:49:29.620Z</time>
      </trkpt>
      <trkpt lat="46.7862" lon="6.45952">
        <ele>1173</ele>
        <time>2016-05-08T09:49:31.620Z</time>
      </trkpt>
      <trkpt lat="46.78618" lon="6.45949">
        <ele>1172</ele>
        <time>2016-05-08T09:49:33.620Z</time>
      </trkpt>
      <trkpt lat="46.78616" lon="6.45946">
        <ele>1172</ele>
        <time>2016-05-08T09:49:35.620Z</time>
      </trkpt>
      <trkpt lat="46.78615" lon="6.45943">
        <ele>1172</ele>
        <time>2016-05-08T09:49:37.620Z</time>
      </trkpt>
      <trkpt lat="46.78614" lon="6.4594">
        <ele>1172</ele>
        <time>2016-05-08T09:49:39.620Z</time>
      </trkpt>
      <trkpt lat="46.78612" lon="6.45936">
        <ele>1172</ele>
        <time>2016-05-08T09:49:41.620Z</time>
      </trkpt>
      <trkpt lat="46.78611" lon="6.45933">
        <ele>1171</ele>
        <time>2016-05-08T09:49:43.620Z</time>
      </trkpt>
      <trkpt lat="46.78611" lon="6.4593">
        <ele>1171</ele>
        <time>2016-05-08T09:49:45.620Z</time>
      </trkpt>
      <trkpt lat="46.78611" lon="6.45926">
        <ele>1171</ele>
        <time>2016-05-08T09:49:47.620Z</time>
      </trkpt>
      <trkpt lat="46.78611" lon="6.45923">
        <ele>1171</ele>
        <time>2016-05-08T09:49:49.620Z</time>
      </trkpt>
      <trkpt lat="46.7861" lon="6.4592">
        <ele>1171</ele>
        <time>2016-05-08T09:49:51.620Z</time>
      </trkpt>
      <trkpt lat="46.78609" lon="6.45917">
        <ele>1170</ele>
        <time>2016-05-08T09:49:53.620Z</time>
      </trkpt>
      <trkpt lat="46.78609" lon="6.45914">
        <ele>1170</ele>
        <time>2016-05-08T09:49:55.620Z</time>
      </trkpt>
      <trkpt lat="46.78608" lon="6.4591">
        <ele>1170</ele>
        <time>2016-05-08T09:49:57.620Z</time>
      </trkpt>
      <trkpt lat="46.78607" lon="6.45906">
        <ele>1170</ele>
        <time>2016-05-08T09:49:59.620Z</time>
      </trkpt>
      <trkpt lat="46.78606" lon="6.45902">
        <ele>1169.0100096</ele>
        <time>2016-05-08T09:50:01.620Z</time>
      </trkpt>
      <trkpt lat="46.78605" lon="6.45899">
        <ele>1169</ele>
        <time>2016-05-08T09:50:03.620Z</time>
      </trkpt>
      <trkpt lat="46.78603" lon="6.45896">
        <ele>1169</ele>
        <time>2016-05-08T09:50:05.620Z</time>
      </trkpt>
      <trkpt lat="46.78602" lon="6.45892">
        <ele>1169</ele>
        <time>2016-05-08T09:50:07.620Z</time>
      </trkpt>
      <trkpt lat="46.78601" lon="6.45889">
        <ele>1169</ele>
        <time>2016-05-08T09:50:09.620Z</time>
      </trkpt>
      <trkpt lat="46.786" lon="6.45885">
        <ele>1168.0100096</ele>
        <time>2016-05-08T09:50:11.620Z</time>
      </trkpt>
      <trkpt lat="46.78599" lon="6.45882">
        <ele>1168</ele>
        <time>2016-05-08T09:50:13.620Z</time>
      </trkpt>
      <trkpt lat="46.78598" lon="6.45879">
        <ele>1168</ele>
        <time>2016-05-08T09:50:15.620Z</time>
      </trkpt>
      <trkpt lat="46.78596" lon="6.45876">
        <ele>1168</ele>
        <time>2016-05-08T09:50:17.620Z</time>
      </trkpt>
      <trkpt lat="46.78595" lon="6.45873">
        <ele>1168</ele>
        <time>2016-05-08T09:50:19.620Z</time>
      </trkpt>
      <trkpt lat="46.78593" lon="6.45871">
        <ele>1166</ele>
        <time>2016-05-08T09:50:21.620Z</time>
      </trkpt>
      <trkpt lat="46.7859" lon="6.45869">
        <ele>1166</ele>
        <time>2016-05-08T09:50:23.620Z</time>
      </trkpt>
      <trkpt lat="46.78589" lon="6.45867">
        <ele>1166</ele>
        <time>2016-05-08T09:50:25.620Z</time>
      </trkpt>
      <trkpt lat="46.78588" lon="6.45865">
        <ele>1166</ele>
        <time>2016-05-08T09:50:27.620Z</time>
      </trkpt>
      <trkpt lat="46.78586" lon="6.45863">
        <ele>1166</ele>
        <time>2016-05-08T09:50:29.620Z</time>
      </trkpt>
      <trkpt lat="46.78584" lon="6.45861">
        <ele>1164.0200192</ele>
        <time>2016-05-08T09:50:31.620Z</time>
      </trkpt>
      <trkpt lat="46.78582" lon="6.45859">
        <ele>1164</ele>
        <time>2016-05-08T09:50:33.620Z</time>
      </trkpt>
      <trkpt lat="46.7858" lon="6.45857">
        <ele>1164</ele>
        <time>2016-05-08T09:50:36.620Z</time>
      </trkpt>
      <trkpt lat="46.78577" lon="6.45855">
        <ele>1164</ele>
        <time>2016-05-08T09:50:39.620Z</time>
      </trkpt>
      <trkpt lat="46.78575" lon="6.45853">
        <ele>1163.0291295919</ele>
        <time>2016-05-08T09:50:41.620Z</time>
      </trkpt>
      <trkpt lat="46.78573" lon="6.4585">
        <ele>1163</ele>
        <time>2016-05-08T09:50:44.620Z</time>
      </trkpt>
      <trkpt lat="46.78571" lon="6.45849">
        <ele>1163</ele>
        <time>2016-05-08T09:50:46.620Z</time>
      </trkpt>
      <trkpt lat="46.78569" lon="6.45847">
        <ele>1162</ele>
        <time>2016-05-08T09:50:48.620Z</time>
      </trkpt>
      <trkpt lat="46.78567" lon="6.45846">
        <ele>1162</ele>
        <time>2016-05-08T09:50:50.620Z</time>
      </trkpt>
      <trkpt lat="46.78565" lon="6.45844">
        <ele>1160</ele>
        <time>2016-05-08T09:50:52.620Z</time>
      </trkpt>
      <trkpt lat="46.78564" lon="6.45842">
        <ele>1160</ele>
        <time>2016-05-08T09:50:54.620Z</time>
      </trkpt>
      <trkpt lat="46.78562" lon="6.45841">
        <ele>1158.0199936</ele>
        <time>2016-05-08T09:50:56.620Z</time>
      </trkpt>
      <trkpt lat="46.7856" lon="6.45838">
        <ele>1158</ele>
        <time>2016-05-08T09:50:58.620Z</time>
      </trkpt>
      <trkpt lat="46.78559" lon="6.45835">
        <ele>1158</ele>
        <time>2016-05-08T09:51:00.620Z</time>
      </trkpt>
      <trkpt lat="46.78558" lon="6.45832">
        <ele>1158</ele>
        <time>2016-05-08T09:51:02.620Z</time>
      </trkpt>
      <trkpt lat="46.78556" lon="6.45828">
        <ele>1158</ele>
        <time>2016-05-08T09:51:05.620Z</time>
      </trkpt>
      <trkpt lat="46.78556" lon="6.45825">
        <ele>1158</ele>
        <time>2016-05-08T09:51:07.620Z</time>
      </trkpt>
      <trkpt lat="46.78554" lon="6.45823">
        <ele>1158</ele>
        <time>2016-05-08T09:51:09.620Z</time>
      </trkpt>
      <trkpt lat="46.78553" lon="6.4582">
        <ele>1156.058830173</ele>
        <time>2016-05-08T09:51:11.620Z</time>
      </trkpt>
      <trkpt lat="46.78551" lon="6.45818">
        <ele>1156</ele>
        <time>2016-05-08T09:51:13.620Z</time>
      </trkpt>
      <trkpt lat="46.78549" lon="6.45817">
        <ele>1156</ele>
        <time>2016-05-08T09:51:15.620Z</time>
      </trkpt>
      <trkpt lat="46.78547" lon="6.45816">
        <ele>1156</ele>
        <time>2016-05-08T09:51:17.620Z</time>
      </trkpt>
      <trkpt lat="46.78544" lon="6.45814">
        <ele>1156</ele>
        <time>2016-05-08T09:51:19.620Z</time>
      </trkpt>
      <trkpt lat="46.78542" lon="6.45812">
        <ele>1153.1165417739</ele>
        <time>2016-05-08T09:51:21.620Z</time>
      </trkpt>
      <trkpt lat="46.78541" lon="6.4581">
        <ele>1153</ele>
        <time>2016-05-08T09:51:23.620Z</time>
      </trkpt>
      <trkpt lat="46.78539" lon="6.45808">
        <ele>1153</ele>
        <time>2016-05-08T09:51:25.620Z</time>
      </trkpt>
      <trkpt lat="46.78538" lon="6.45805">
        <ele>1152</ele>
        <time>2016-05-08T09:51:27.620Z</time>
      </trkpt>
      <trkpt lat="46.78536" lon="6.45802">
        <ele>1152</ele>
        <time>2016-05-08T09:51:29.620Z</time>
      </trkpt>
      <trkpt lat="46.78534" lon="6.45798">
        <ele>1150.5000145455</ele>
        <time>2016-05-08T09:51:31.620Z</time>
      </trkpt>
      <trkpt lat="46.78533" lon="6.45796">
        <ele>1150</ele>
        <time>2016-05-08T09:51:33.620Z</time>
      </trkpt>
      <trkpt lat="46.78533" lon="6.45793">
        <ele>1150</ele>
        <time>2016-05-08T09:51:35.620Z</time>
      </trkpt>
      <trkpt lat="46.78531" lon="6.4579">
        <ele>1149</ele>
        <time>2016-05-08T09:51:37.620Z</time>
      </trkpt>
      <trkpt lat="46.78529" lon="6.45787">
        <ele>1149</ele>
        <time>2016-05-08T09:51:39.620Z</time>
      </trkpt>
      <trkpt lat="46.78528" lon="6.45785">
        <ele>1148</ele>
        <time>2016-05-08T09:51:41.620Z</time>
      </trkpt>
      <trkpt lat="46.78526" lon="6.45783">
        <ele>1148</ele>
        <time>2016-05-08T09:51:43.620Z</time>
      </trkpt>
      <trkpt lat="46.78524" lon="6.45781">
        <ele>1148</ele>
        <time>2016-05-08T09:51:45.620Z</time>
      </trkpt>
      <trkpt lat="46.78522" lon="6.45777">
        <ele>1148</ele>
        <time>2016-05-08T09:51:47.620Z</time>
      </trkpt>
      <trkpt lat="46.78521" lon="6.45775">
        <ele>1148</ele>
        <time>2016-05-08T09:51:49.620Z</time>
      </trkpt>
      <trkpt lat="46.78519" lon="6.45772">
        <ele>1146</ele>
        <time>2016-05-08T09:51:51.620Z</time>
      </trkpt>
      <trkpt lat="46.78518" lon="6.4577">
        <ele>1146</ele>
        <time>2016-05-08T09:51:53.620Z</time>
      </trkpt>
      <trkpt lat="46.78515" lon="6.45767">
        <ele>1146</ele>
        <time>2016-05-08T09:51:55.620Z</time>
      </trkpt>
      <trkpt lat="46.78514" lon="6.45765">
        <ele>1146</ele>
        <time>2016-05-08T09:51:57.620Z</time>
      </trkpt>
      <trkpt lat="46.78512" lon="6.45763">
        <ele>1146</ele>
        <time>2016-05-08T09:51:59.620Z</time>
      </trkpt>
      <trkpt lat="46.78511" lon="6.45762">
        <ele>1144.0776945159</ele>
        <time>2016-05-08T09:52:01.620Z</time>
      </trkpt>
      <trkpt lat="46.78509" lon="6.45759">
        <ele>1144</ele>
        <time>2016-05-08T09:52:03.620Z</time>
      </trkpt>
      <trkpt lat="46.78507" lon="6.45758">
        <ele>1143.0099968</ele>
        <time>2016-05-08T09:52:06.620Z</time>
      </trkpt>
      <trkpt lat="46.78506" lon="6.45755">
        <ele>1143</ele>
        <time>2016-05-08T09:52:09.620Z</time>
      </trkpt>
      <trkpt lat="46.78504" lon="6.45753">
        <ele>1143</ele>
        <time>2016-05-08T09:52:11.620Z</time>
      </trkpt>
      <trkpt lat="46.78503" lon="6.45751">
        <ele>1142</ele>
        <time>2016-05-08T09:52:14.620Z</time>
      </trkpt>
      <trkpt lat="46.78501" lon="6.45749">
        <ele>1142</ele>
        <time>2016-05-08T09:52:17.620Z</time>
      </trkpt>
      <trkpt lat="46.78498" lon="6.45748">
        <ele>1142</ele>
        <time>2016-05-08T09:52:20.620Z</time>
      </trkpt>
      <trkpt lat="46.78497" lon="6.45751">
        <ele>1140</ele>
        <time>2016-05-08T09:52:24.620Z</time>
      </trkpt>
      <trkpt lat="46.78494" lon="6.45752">
        <ele>1140</ele>
        <time>2016-05-08T09:52:27.620Z</time>
      </trkpt>
      <trkpt lat="46.78492" lon="6.45751">
        <ele>1140</ele>
        <time>2016-05-08T09:52:30.620Z</time>
      </trkpt>
      <trkpt lat="46.7849" lon="6.45751">
        <ele>1138</ele>
        <time>2016-05-08T09:52:32.620Z</time>
      </trkpt>
      <trkpt lat="46.78487" lon="6.45749">
        <ele>1138</ele>
        <time>2016-05-08T09:52:34.620Z</time>
      </trkpt>
      <trkpt lat="46.78484" lon="6.45747">
        <ele>1137.0099968</ele>
        <time>2016-05-08T09:52:36.620Z</time>
      </trkpt>
      <trkpt lat="46.78482" lon="6.45744">
        <ele>1137</ele>
        <time>2016-05-08T09:52:38.620Z</time>
      </trkpt>
      <trkpt lat="46.7848" lon="6.45742">
        <ele>1137</ele>
        <time>2016-05-08T09:52:40.620Z</time>
      </trkpt>
      <trkpt lat="46.78479" lon="6.4574">
        <ele>1136</ele>
        <time>2016-05-08T09:52:42.620Z</time>
      </trkpt>
      <trkpt lat="46.78477" lon="6.45738">
        <ele>1136</ele>
        <time>2016-05-08T09:52:44.620Z</time>
      </trkpt>
      <trkpt lat="46.78475" lon="6.45736">
        <ele>1136</ele>
        <time>2016-05-08T09:52:46.620Z</time>
      </trkpt>
      <trkpt lat="46.78473" lon="6.45735">
        <ele>1136</ele>
        <time>2016-05-08T09:52:48.620Z</time>
      </trkpt>
      <trkpt lat="46.78472" lon="6.45732">
        <ele>1133.0300288</ele>
        <time>2016-05-08T09:52:51.620Z</time>
      </trkpt>
      <trkpt lat="46.78469" lon="6.4573">
        <ele>1133</ele>
        <time>2016-05-08T09:52:54.620Z</time>
      </trkpt>
      <trkpt lat="46.78468" lon="6.45727">
        <ele>1132</ele>
        <time>2016-05-08T09:52:57.620Z</time>
      </trkpt>
      <trkpt lat="46.78465" lon="6.45726">
        <ele>1132</ele>
        <time>2016-05-08T09:52:59.620Z</time>
      </trkpt>
      <trkpt lat="46.78464" lon="6.45725">
        <ele>1131.0100096</ele>
        <time>2016-05-08T09:53:01.620Z</time>
      </trkpt>
      <trkpt lat="46.78462" lon="6.45724">
        <ele>1131</ele>
        <time>2016-05-08T09:53:03.620Z</time>
      </trkpt>
      <trkpt lat="46.7846" lon="6.45722">
        <ele>1131</ele>
        <time>2016-05-08T09:53:05.620Z</time>
      </trkpt>
      <trkpt lat="46.78458" lon="6.45721">
        <ele>1131</ele>
        <time>2016-05-08T09:53:07.620Z</time>
      </trkpt>
      <trkpt lat="46.78456" lon="6.45719">
        <ele>1131</ele>
        <time>2016-05-08T09:53:09.620Z</time>
      </trkpt>
      <trkpt lat="46.78454" lon="6.45717">
        <ele>1129</ele>
        <time>2016-05-08T09:53:11.620Z</time>
      </trkpt>
      <trkpt lat="46.78452" lon="6.45716">
        <ele>1129</ele>
        <time>2016-05-08T09:53:13.620Z</time>
      </trkpt>
      <trkpt lat="46.7845" lon="6.45715">
        <ele>1129</ele>
        <time>2016-05-08T09:53:15.620Z</time>
      </trkpt>
      <trkpt lat="46.78448" lon="6.45713">
        <ele>1129</ele>
        <time>2016-05-08T09:53:17.620Z</time>
      </trkpt>
      <trkpt lat="46.78445" lon="6.45711">
        <ele>1129</ele>
        <time>2016-05-08T09:53:19.620Z</time>
      </trkpt>
      <trkpt lat="46.78444" lon="6.4571">
        <ele>1128</ele>
        <time>2016-05-08T09:53:21.620Z</time>
      </trkpt>
      <trkpt lat="46.78442" lon="6.45709">
        <ele>1128</ele>
        <time>2016-05-08T09:53:23.620Z</time>
      </trkpt>
      <trkpt lat="46.7844" lon="6.45707">
        <ele>1128</ele>
        <time>2016-05-08T09:53:25.620Z</time>
      </trkpt>
      <trkpt lat="46.78438" lon="6.45706">
        <ele>1128</ele>
        <time>2016-05-08T09:53:27.620Z</time>
      </trkpt>
      <trkpt lat="46.78436" lon="6.45704">
        <ele>1128</ele>
        <time>2016-05-08T09:53:29.620Z</time>
      </trkpt>
      <trkpt lat="46.78435" lon="6.45701">
        <ele>1125.0300288</ele>
        <time>2016-05-08T09:53:31.620Z</time>
      </trkpt>
      <trkpt lat="46.78434" lon="6.45699">
        <ele>1125</ele>
        <time>2016-05-08T09:53:33.620Z</time>
      </trkpt>
      <trkpt lat="46.78432" lon="6.45697">
        <ele>1125</ele>
        <time>2016-05-08T09:53:35.620Z</time>
      </trkpt>
      <trkpt lat="46.7843" lon="6.45695">
        <ele>1123</ele>
        <time>2016-05-08T09:53:38.620Z</time>
      </trkpt>
      <trkpt lat="46.78428" lon="6.45694">
        <ele>1121</ele>
        <time>2016-05-08T09:53:41.620Z</time>
      </trkpt>
      <trkpt lat="46.78426" lon="6.45692">
        <ele>1121</ele>
        <time>2016-05-08T09:53:43.620Z</time>
      </trkpt>
      <trkpt lat="46.78424" lon="6.4569">
        <ele>1121</ele>
        <time>2016-05-08T09:53:45.620Z</time>
      </trkpt>
      <trkpt lat="46.78422" lon="6.45687">
        <ele>1120.0100096</ele>
        <time>2016-05-08T09:53:47.620Z</time>
      </trkpt>
      <trkpt lat="46.7842" lon="6.45685">
        <ele>1120</ele>
        <time>2016-05-08T09:53:49.620Z</time>
      </trkpt>
      <trkpt lat="46.78418" lon="6.45682">
        <ele>1120</ele>
        <time>2016-05-08T09:53:51.620Z</time>
      </trkpt>
      <trkpt lat="46.78417" lon="6.4568">
        <ele>1120</ele>
        <time>2016-05-08T09:53:53.620Z</time>
      </trkpt>
      <trkpt lat="46.78416" lon="6.45677">
        <ele>1120</ele>
        <time>2016-05-08T09:53:56.620Z</time>
      </trkpt>
      <trkpt lat="46.78416" lon="6.45674">
        <ele>1120</ele>
        <time>2016-05-08T09:53:59.620Z</time>
      </trkpt>
      <trkpt lat="46.78413" lon="6.45666">
        <ele>1118</ele>
        <time>2016-05-08T09:54:07.620Z</time>
      </trkpt>
      <trkpt lat="46.78411" lon="6.45663">
        <ele>1118</ele>
        <time>2016-05-08T09:54:10.620Z</time>
      </trkpt>
      <trkpt lat="46.78409" lon="6.45659">
        <ele>1116</ele>
        <time>2016-05-08T09:54:12.620Z</time>
      </trkpt>
      <trkpt lat="46.78403" lon="6.45648">
        <ele>1113</ele>
        <time>2016-05-08T09:54:21.620Z</time>
      </trkpt>
      <trkpt lat="46.78395" lon="6.45639">
        <ele>1112</ele>
        <time>2016-05-08T09:54:28.620Z</time>
      </trkpt>
      <trkpt lat="46.78388" lon="6.45629">
        <ele>1111</ele>
        <time>2016-05-08T09:54:36.620Z</time>
      </trkpt>
      <trkpt lat="46.78383" lon="6.45629">
        <ele>1110</ele>
        <time>2016-05-08T09:54:43.620Z</time>
      </trkpt>
      <trkpt lat="46.78386" lon="6.4562">
        <ele>1110</ele>
        <time>2016-05-08T09:54:54.620Z</time>
      </trkpt>
      <trkpt lat="46.78385" lon="6.45616">
        <ele>1110</ele>
        <time>2016-05-08T09:54:57.620Z</time>
      </trkpt>
      <trkpt lat="46.78385" lon="6.45613">
        <ele>1110</ele>
        <time>2016-05-08T09:54:59.620Z</time>
      </trkpt>
      <trkpt lat="46.78383" lon="6.45599">
        <ele>1109</ele>
        <time>2016-05-08T09:55:07.620Z</time>
      </trkpt>
      <trkpt lat="46.78375" lon="6.45591">
        <ele>1108</ele>
        <time>2016-05-08T09:55:16.620Z</time>
      </trkpt>
      <trkpt lat="46.78373" lon="6.4559">
        <ele>1108</ele>
        <time>2016-05-08T09:55:18.620Z</time>
      </trkpt>
      <trkpt lat="46.78371" lon="6.45589">
        <ele>1108</ele>
        <time>2016-05-08T09:55:20.620Z</time>
      </trkpt>
      <trkpt lat="46.78369" lon="6.45587">
        <ele>1106</ele>
        <time>2016-05-08T09:55:22.620Z</time>
      </trkpt>
      <trkpt lat="46.78368" lon="6.45584">
        <ele>1106</ele>
        <time>2016-05-08T09:55:24.620Z</time>
      </trkpt>
      <trkpt lat="46.78365" lon="6.45583">
        <ele>1106</ele>
        <time>2016-05-08T09:55:27.620Z</time>
      </trkpt>
      <trkpt lat="46.78363" lon="6.4558">
        <ele>1106</ele>
        <time>2016-05-08T09:55:29.620Z</time>
      </trkpt>
      <trkpt lat="46.78364" lon="6.45577">
        <ele>1105</ele>
        <time>2016-05-08T09:55:31.620Z</time>
      </trkpt>
      <trkpt lat="46.78365" lon="6.45568">
        <ele>1105</ele>
        <time>2016-05-08T09:55:42.620Z</time>
      </trkpt>
      <trkpt lat="46.78367" lon="6.45565">
        <ele>1105</ele>
        <time>2016-05-08T09:55:44.620Z</time>
      </trkpt>
      <trkpt lat="46.78368" lon="6.45558">
        <ele>1106</ele>
        <time>2016-05-08T09:55:51.620Z</time>
      </trkpt>
      <trkpt lat="46.78367" lon="6.45555">
        <ele>1106</ele>
        <time>2016-05-08T09:56:00.620Z</time>
      </trkpt>
      <trkpt lat="46.78366" lon="6.45553">
        <ele>1105</ele>
        <time>2016-05-08T09:56:03.620Z</time>
      </trkpt>
      <trkpt lat="46.78363" lon="6.45552">
        <ele>1105</ele>
        <time>2016-05-08T09:56:20.620Z</time>
      </trkpt>
      <trkpt lat="46.78361" lon="6.45551">
        <ele>1104</ele>
        <time>2016-05-08T09:56:22.620Z</time>
      </trkpt>
      <trkpt lat="46.78359" lon="6.45544">
        <ele>1104</ele>
        <time>2016-05-08T09:56:31.620Z</time>
      </trkpt>
      <trkpt lat="46.78357" lon="6.45543">
        <ele>1104</ele>
        <time>2016-05-08T09:56:35.620Z</time>
      </trkpt>
      <trkpt lat="46.78355" lon="6.45542">
        <ele>1104</ele>
        <time>2016-05-08T09:56:39.620Z</time>
      </trkpt>
      <trkpt lat="46.78357" lon="6.45536">
        <ele>1104</ele>
        <time>2016-05-08T09:56:48.620Z</time>
      </trkpt>
      <trkpt lat="46.78355" lon="6.45533">
        <ele>1104</ele>
        <time>2016-05-08T09:56:50.620Z</time>
      </trkpt>
      <trkpt lat="46.78352" lon="6.45529">
        <ele>1104</ele>
        <time>2016-05-08T09:56:55.620Z</time>
      </trkpt>
      <trkpt lat="46.78355" lon="6.45525">
        <ele>1102</ele>
        <time>2016-05-08T09:57:08.620Z</time>
      </trkpt>
      <trkpt lat="46.78357" lon="6.45522">
        <ele>1104</ele>
        <time>2016-05-08T09:57:14.620Z</time>
      </trkpt>
      <trkpt lat="46.78358" lon="6.4552">
        <ele>1106</ele>
        <time>2016-05-08T09:57:21.620Z</time>
      </trkpt>
      <trkpt lat="46.78355" lon="6.45517">
        <ele>1106</ele>
        <time>2016-05-08T09:57:37.620Z</time>
      </trkpt>
      <trkpt lat="46.78359" lon="6.45512">
        <ele>1110</ele>
        <time>2016-05-08T09:58:02.620Z</time>
      </trkpt>
      <trkpt lat="46.78356" lon="6.45508">
        <ele>1110</ele>
        <time>2016-05-08T09:58:08.620Z</time>
      </trkpt>
      <trkpt lat="46.78357" lon="6.45505">
        <ele>1110</ele>
        <time>2016-05-08T09:58:11.620Z</time>
      </trkpt>
      <trkpt lat="46.78356" lon="6.45502">
        <ele>1110</ele>
        <time>2016-05-08T09:58:13.620Z</time>
      </trkpt>
      <trkpt lat="46.78355" lon="6.455">
        <ele>1110</ele>
        <time>2016-05-08T09:58:15.620Z</time>
      </trkpt>
      <trkpt lat="46.78354" lon="6.45497">
        <ele>1110</ele>
        <time>2016-05-08T09:58:18.620Z</time>
      </trkpt>
      <trkpt lat="46.78353" lon="6.45495">
        <ele>1110</ele>
        <time>2016-05-08T09:58:21.620Z</time>
      </trkpt>
      <trkpt lat="46.78351" lon="6.45494">
        <ele>1110</ele>
        <time>2016-05-08T09:58:24.620Z</time>
      </trkpt>
      <trkpt lat="46.78348" lon="6.45495">
        <ele>1110</ele>
        <time>2016-05-08T09:58:29.620Z</time>
      </trkpt>
      <trkpt lat="46.78345" lon="6.45494">
        <ele>1109</ele>
        <time>2016-05-08T09:58:32.620Z</time>
      </trkpt>
      <trkpt lat="46.78342" lon="6.45493">
        <ele>1109</ele>
        <time>2016-05-08T09:58:36.620Z</time>
      </trkpt>
      <trkpt lat="46.78339" lon="6.45493">
        <ele>1109</ele>
        <time>2016-05-08T09:58:39.620Z</time>
      </trkpt>
      <trkpt lat="46.78337" lon="6.45492">
        <ele>1108.0100096</ele>
        <time>2016-05-08T09:58:41.620Z</time>
      </trkpt>
      <trkpt lat="46.78335" lon="6.45492">
        <ele>1108</ele>
        <time>2016-05-08T09:58:43.620Z</time>
      </trkpt>
      <trkpt lat="46.78332" lon="6.45491">
        <ele>1108</ele>
        <time>2016-05-08T09:58:46.620Z</time>
      </trkpt>
      <trkpt lat="46.7833" lon="6.45491">
        <ele>1108</ele>
        <time>2016-05-08T09:58:48.620Z</time>
      </trkpt>
      <trkpt lat="46.78327" lon="6.45491">
        <ele>1108</ele>
        <time>2016-05-08T09:58:50.620Z</time>
      </trkpt>
      <trkpt lat="46.78324" lon="6.45489">
        <ele>1107</ele>
        <time>2016-05-08T09:58:52.620Z</time>
      </trkpt>
      <trkpt lat="46.78321" lon="6.45488">
        <ele>1107</ele>
        <time>2016-05-08T09:58:54.620Z</time>
      </trkpt>
      <trkpt lat="46.78318" lon="6.45486">
        <ele>1107</ele>
        <time>2016-05-08T09:58:56.620Z</time>
      </trkpt>
      <trkpt lat="46.78316" lon="6.45483">
        <ele>1107</ele>
        <time>2016-05-08T09:58:58.620Z</time>
      </trkpt>
      <trkpt lat="46.78314" lon="6.45482">
        <ele>1107</ele>
        <time>2016-05-08T09:59:00.620Z</time>
      </trkpt>
      <trkpt lat="46.78312" lon="6.4548">
        <ele>1102</ele>
        <time>2016-05-08T09:59:02.620Z</time>
      </trkpt>
      <trkpt lat="46.7831" lon="6.45476">
        <ele>1102</ele>
        <time>2016-05-08T09:59:04.620Z</time>
      </trkpt>
      <trkpt lat="46.78308" lon="6.45472">
        <ele>1102</ele>
        <time>2016-05-08T09:59:06.620Z</time>
      </trkpt>
      <trkpt lat="46.78305" lon="6.45469">
        <ele>1102</ele>
        <time>2016-05-08T09:59:08.620Z</time>
      </trkpt>
      <trkpt lat="46.78304" lon="6.45464">
        <ele>1101</ele>
        <time>2016-05-08T09:59:11.620Z</time>
      </trkpt>
      <trkpt lat="46.78302" lon="6.45461">
        <ele>1101</ele>
        <time>2016-05-08T09:59:13.620Z</time>
      </trkpt>
      <trkpt lat="46.78301" lon="6.45457">
        <ele>1101</ele>
        <time>2016-05-08T09:59:15.620Z</time>
      </trkpt>
      <trkpt lat="46.783" lon="6.45454">
        <ele>1101</ele>
        <time>2016-05-08T09:59:17.620Z</time>
      </trkpt>
      <trkpt lat="46.78299" lon="6.45451">
        <ele>1101</ele>
        <time>2016-05-08T09:59:19.620Z</time>
      </trkpt>
      <trkpt lat="46.78298" lon="6.45448">
        <ele>1100</ele>
        <time>2016-05-08T09:59:21.620Z</time>
      </trkpt>
      <trkpt lat="46.78297" lon="6.45444">
        <ele>1100</ele>
        <time>2016-05-08T09:59:23.620Z</time>
      </trkpt>
      <trkpt lat="46.78297" lon="6.4544">
        <ele>1100</ele>
        <time>2016-05-08T09:59:25.620Z</time>
      </trkpt>
      <trkpt lat="46.78296" lon="6.45437">
        <ele>1100</ele>
        <time>2016-05-08T09:59:27.620Z</time>
      </trkpt>
      <trkpt lat="46.78295" lon="6.45433">
        <ele>1100</ele>
        <time>2016-05-08T09:59:29.620Z</time>
      </trkpt>
      <trkpt lat="46.78294" lon="6.4543">
        <ele>1099.0100096</ele>
        <time>2016-05-08T09:59:31.620Z</time>
      </trkpt>
      <trkpt lat="46.78292" lon="6.45427">
        <ele>1099</ele>
        <time>2016-05-08T09:59:33.620Z</time>
      </trkpt>
      <trkpt lat="46.78291" lon="6.45424">
        <ele>1099</ele>
        <time>2016-05-08T09:59:35.620Z</time>
      </trkpt>
      <trkpt lat="46.78291" lon="6.4542">
        <ele>1099</ele>
        <time>2016-05-08T09:59:37.620Z</time>
      </trkpt>
      <trkpt lat="46.78289" lon="6.45417">
        <ele>1099</ele>
        <time>2016-05-08T09:59:39.620Z</time>
      </trkpt>
      <trkpt lat="46.78287" lon="6.45414">
        <ele>1099</ele>
        <time>2016-05-08T09:59:41.620Z</time>
      </trkpt>
      <trkpt lat="46.78285" lon="6.45411">
        <ele>1099</ele>
        <time>2016-05-08T09:59:43.620Z</time>
      </trkpt>
      <trkpt lat="46.78283" lon="6.45408">
        <ele>1099</ele>
        <time>2016-05-08T09:59:45.620Z</time>
      </trkpt>
      <trkpt lat="46.7828" lon="6.45405">
        <ele>1099</ele>
        <time>2016-05-08T09:59:47.620Z</time>
      </trkpt>
      <trkpt lat="46.78279" lon="6.45402">
        <ele>1099</ele>
        <time>2016-05-08T09:59:49.620Z</time>
      </trkpt>
      <trkpt lat="46.78277" lon="6.454">
        <ele>1098.0100096</ele>
        <time>2016-05-08T09:59:51.620Z</time>
      </trkpt>
      <trkpt lat="46.78275" lon="6.45398">
        <ele>1098</ele>
        <time>2016-05-08T09:59:53.620Z</time>
      </trkpt>
      <trkpt lat="46.78273" lon="6.45395">
        <ele>1098</ele>
        <time>2016-05-08T09:59:55.620Z</time>
      </trkpt>
      <trkpt lat="46.78272" lon="6.45392">
        <ele>1098</ele>
        <time>2016-05-08T09:59:57.620Z</time>
      </trkpt>
      <trkpt lat="46.7827" lon="6.45388">
        <ele>1098</ele>
        <time>2016-05-08T09:59:59.620Z</time>
      </trkpt>
      <trkpt lat="46.78268" lon="6.45386">
        <ele>1098</ele>
        <time>2016-05-08T10:00:01.620Z</time>
      </trkpt>
      <trkpt lat="46.78267" lon="6.45381">
        <ele>1096</ele>
        <time>2016-05-08T10:00:03.620Z</time>
      </trkpt>
      <trkpt lat="46.78265" lon="6.45377">
        <ele>1096</ele>
        <time>2016-05-08T10:00:05.620Z</time>
      </trkpt>
      <trkpt lat="46.78263" lon="6.45374">
        <ele>1096</ele>
        <time>2016-05-08T10:00:07.620Z</time>
      </trkpt>
      <trkpt lat="46.78261" lon="6.45372">
        <ele>1096</ele>
        <time>2016-05-08T10:00:09.620Z</time>
      </trkpt>
      <trkpt lat="46.78259" lon="6.45369">
        <ele>1096</ele>
        <time>2016-05-08T10:00:11.620Z</time>
      </trkpt>
      <trkpt lat="46.78257" lon="6.45366">
        <ele>1095</ele>
        <time>2016-05-08T10:00:13.620Z</time>
      </trkpt>
      <trkpt lat="46.78254" lon="6.45364">
        <ele>1095</ele>
        <time>2016-05-08T10:00:15.620Z</time>
      </trkpt>
      <trkpt lat="46.78252" lon="6.45361">
        <ele>1095</ele>
        <time>2016-05-08T10:00:17.620Z</time>
      </trkpt>
      <trkpt lat="46.7825" lon="6.45358">
        <ele>1095</ele>
        <time>2016-05-08T10:00:19.620Z</time>
      </trkpt>
      <trkpt lat="46.78249" lon="6.45354">
        <ele>1095</ele>
        <time>2016-05-08T10:00:21.620Z</time>
      </trkpt>
      <trkpt lat="46.78247" lon="6.45351">
        <ele>1094</ele>
        <time>2016-05-08T10:00:23.620Z</time>
      </trkpt>
      <trkpt lat="46.78244" lon="6.45349">
        <ele>1094</ele>
        <time>2016-05-08T10:00:25.620Z</time>
      </trkpt>
      <trkpt lat="46.78241" lon="6.45347">
        <ele>1094</ele>
        <time>2016-05-08T10:00:27.620Z</time>
      </trkpt>
      <trkpt lat="46.78239" lon="6.45343">
        <ele>1094</ele>
        <time>2016-05-08T10:00:29.620Z</time>
      </trkpt>
      <trkpt lat="46.78237" lon="6.45341">
        <ele>1094</ele>
        <time>2016-05-08T10:00:31.620Z</time>
      </trkpt>
      <trkpt lat="46.78235" lon="6.45337">
        <ele>1094</ele>
        <time>2016-05-08T10:00:33.620Z</time>
      </trkpt>
      <trkpt lat="46.78233" lon="6.45334">
        <ele>1094</ele>
        <time>2016-05-08T10:00:35.620Z</time>
      </trkpt>
      <trkpt lat="46.78232" lon="6.45331">
        <ele>1094</ele>
        <time>2016-05-08T10:00:37.620Z</time>
      </trkpt>
      <trkpt lat="46.7823" lon="6.45328">
        <ele>1094</ele>
        <time>2016-05-08T10:00:39.620Z</time>
      </trkpt>
      <trkpt lat="46.78228" lon="6.45324">
        <ele>1094</ele>
        <time>2016-05-08T10:00:41.620Z</time>
      </trkpt>
      <trkpt lat="46.78227" lon="6.45321">
        <ele>1093</ele>
        <time>2016-05-08T10:00:43.620Z</time>
      </trkpt>
      <trkpt lat="46.78225" lon="6.45318">
        <ele>1093</ele>
        <time>2016-05-08T10:00:45.620Z</time>
      </trkpt>
      <trkpt lat="46.78223" lon="6.45314">
        <ele>1093</ele>
        <time>2016-05-08T10:00:47.620Z</time>
      </trkpt>
      <trkpt lat="46.78221" lon="6.4531">
        <ele>1093</ele>
        <time>2016-05-08T10:00:49.620Z</time>
      </trkpt>
      <trkpt lat="46.78219" lon="6.45306">
        <ele>1093</ele>
        <time>2016-05-08T10:00:51.620Z</time>
      </trkpt>
      <trkpt lat="46.78219" lon="6.45302">
        <ele>1093</ele>
        <time>2016-05-08T10:00:53.620Z</time>
      </trkpt>
      <trkpt lat="46.78218" lon="6.45299">
        <ele>1093</ele>
        <time>2016-05-08T10:00:54.620Z</time>
      </trkpt>
      <trkpt lat="46.78217" lon="6.45295">
        <ele>1093</ele>
        <time>2016-05-08T10:00:56.620Z</time>
      </trkpt>
      <trkpt lat="46.78217" lon="6.45291">
        <ele>1093</ele>
        <time>2016-05-08T10:00:58.620Z</time>
      </trkpt>
      <trkpt lat="46.78216" lon="6.45287">
        <ele>1093</ele>
        <time>2016-05-08T10:01:00.620Z</time>
      </trkpt>
      <trkpt lat="46.78215" lon="6.45284">
        <ele>1092</ele>
        <time>2016-05-08T10:01:02.620Z</time>
      </trkpt>
      <trkpt lat="46.78213" lon="6.45281">
        <ele>1092</ele>
        <time>2016-05-08T10:01:04.620Z</time>
      </trkpt>
      <trkpt lat="46.78211" lon="6.45278">
        <ele>1092</ele>
        <time>2016-05-08T10:01:06.620Z</time>
      </trkpt>
      <trkpt lat="46.78209" lon="6.45275">
        <ele>1092</ele>
        <time>2016-05-08T10:01:08.620Z</time>
      </trkpt>
      <trkpt lat="46.78206" lon="6.45271">
        <ele>1092</ele>
        <time>2016-05-08T10:01:10.620Z</time>
      </trkpt>
      <trkpt lat="46.78205" lon="6.45268">
        <ele>1092</ele>
        <time>2016-05-08T10:01:12.620Z</time>
      </trkpt>
      <trkpt lat="46.78203" lon="6.45264">
        <ele>1092</ele>
        <time>2016-05-08T10:01:14.620Z</time>
      </trkpt>
      <trkpt lat="46.78202" lon="6.45261">
        <ele>1092</ele>
        <time>2016-05-08T10:01:16.620Z</time>
      </trkpt>
      <trkpt lat="46.78201" lon="6.45258">
        <ele>1092</ele>
        <time>2016-05-08T10:01:18.620Z</time>
      </trkpt>
      <trkpt lat="46.78199" lon="6.45254">
        <ele>1092</ele>
        <time>2016-05-08T10:01:20.620Z</time>
      </trkpt>
      <trkpt lat="46.78199" lon="6.45251">
        <ele>1091</ele>
        <time>2016-05-08T10:01:22.620Z</time>
      </trkpt>
      <trkpt lat="46.78198" lon="6.45247">
        <ele>1091</ele>
        <time>2016-05-08T10:01:24.620Z</time>
      </trkpt>
      <trkpt lat="46.78197" lon="6.45243">
        <ele>1091</ele>
        <time>2016-05-08T10:01:26.620Z</time>
      </trkpt>
      <trkpt lat="46.78196" lon="6.45239">
        <ele>1091</ele>
        <time>2016-05-08T10:01:28.620Z</time>
      </trkpt>
      <trkpt lat="46.78194" lon="6.45235">
        <ele>1091</ele>
        <time>2016-05-08T10:01:30.620Z</time>
      </trkpt>
      <trkpt lat="46.78193" lon="6.45232">
        <ele>1090</ele>
        <time>2016-05-08T10:01:32.620Z</time>
      </trkpt>
      <trkpt lat="46.78191" lon="6.45229">
        <ele>1090</ele>
        <time>2016-05-08T10:01:34.620Z</time>
      </trkpt>
      <trkpt lat="46.7819" lon="6.45226">
        <ele>1090</ele>
        <time>2016-05-08T10:01:36.620Z</time>
      </trkpt>
      <trkpt lat="46.78188" lon="6.45223">
        <ele>1090</ele>
        <time>2016-05-08T10:01:38.620Z</time>
      </trkpt>
      <trkpt lat="46.78186" lon="6.45219">
        <ele>1090</ele>
        <time>2016-05-08T10:01:40.620Z</time>
      </trkpt>
      <trkpt lat="46.78184" lon="6.45215">
        <ele>1088.0199936</ele>
        <time>2016-05-08T10:01:42.620Z</time>
      </trkpt>
      <trkpt lat="46.78182" lon="6.45211">
        <ele>1088</ele>
        <time>2016-05-08T10:01:44.620Z</time>
      </trkpt>
      <trkpt lat="46.78181" lon="6.45207">
        <ele>1088</ele>
        <time>2016-05-08T10:01:46.620Z</time>
      </trkpt>
      <trkpt lat="46.78181" lon="6.45203">
        <ele>1088</ele>
        <time>2016-05-08T10:01:48.620Z</time>
      </trkpt>
      <trkpt lat="46.7818" lon="6.45199">
        <ele>1088</ele>
        <time>2016-05-08T10:01:50.620Z</time>
      </trkpt>
      <trkpt lat="46.78179" lon="6.45194">
        <ele>1087</ele>
        <time>2016-05-08T10:01:52.620Z</time>
      </trkpt>
      <trkpt lat="46.78178" lon="6.4519">
        <ele>1087</ele>
        <time>2016-05-08T10:01:54.620Z</time>
      </trkpt>
      <trkpt lat="46.78178" lon="6.45186">
        <ele>1087</ele>
        <time>2016-05-08T10:01:56.620Z</time>
      </trkpt>
      <trkpt lat="46.78177" lon="6.45182">
        <ele>1087</ele>
        <time>2016-05-08T10:01:58.620Z</time>
      </trkpt>
      <trkpt lat="46.78176" lon="6.45179">
        <ele>1087</ele>
        <time>2016-05-08T10:02:00.620Z</time>
      </trkpt>
      <trkpt lat="46.78174" lon="6.45175">
        <ele>1085</ele>
        <time>2016-05-08T10:02:02.620Z</time>
      </trkpt>
      <trkpt lat="46.78173" lon="6.45171">
        <ele>1085</ele>
        <time>2016-05-08T10:02:04.620Z</time>
      </trkpt>
      <trkpt lat="46.78171" lon="6.45168">
        <ele>1085</ele>
        <time>2016-05-08T10:02:06.620Z</time>
      </trkpt>
      <trkpt lat="46.78169" lon="6.45164">
        <ele>1085</ele>
        <time>2016-05-08T10:02:08.620Z</time>
      </trkpt>
      <trkpt lat="46.78167" lon="6.45161">
        <ele>1085</ele>
        <time>2016-05-08T10:02:10.620Z</time>
      </trkpt>
      <trkpt lat="46.78165" lon="6.45158">
        <ele>1085</ele>
        <time>2016-05-08T10:02:12.620Z</time>
      </trkpt>
      <trkpt lat="46.78163" lon="6.45156">
        <ele>1085</ele>
        <time>2016-05-08T10:02:14.620Z</time>
      </trkpt>
      <trkpt lat="46.78162" lon="6.45151">
        <ele>1085</ele>
        <time>2016-05-08T10:02:16.620Z</time>
      </trkpt>
      <trkpt lat="46.78161" lon="6.45148">
        <ele>1085</ele>
        <time>2016-05-08T10:02:18.620Z</time>
      </trkpt>
      <trkpt lat="46.7816" lon="6.45144">
        <ele>1085</ele>
        <time>2016-05-08T10:02:20.620Z</time>
      </trkpt>
      <trkpt lat="46.78158" lon="6.4514">
        <ele>1085</ele>
        <time>2016-05-08T10:02:22.620Z</time>
      </trkpt>
      <trkpt lat="46.78157" lon="6.45137">
        <ele>1085</ele>
        <time>2016-05-08T10:02:24.620Z</time>
      </trkpt>
      <trkpt lat="46.78155" lon="6.45134">
        <ele>1085</ele>
        <time>2016-05-08T10:02:26.620Z</time>
      </trkpt>
      <trkpt lat="46.78153" lon="6.4513">
        <ele>1085</ele>
        <time>2016-05-08T10:02:28.620Z</time>
      </trkpt>
      <trkpt lat="46.78151" lon="6.45127">
        <ele>1085</ele>
        <time>2016-05-08T10:02:30.620Z</time>
      </trkpt>
      <trkpt lat="46.7815" lon="6.45123">
        <ele>1084</ele>
        <time>2016-05-08T10:02:32.620Z</time>
      </trkpt>
      <trkpt lat="46.78148" lon="6.45119">
        <ele>1084</ele>
        <time>2016-05-08T10:02:34.620Z</time>
      </trkpt>
      <trkpt lat="46.78146" lon="6.45116">
        <ele>1084</ele>
        <time>2016-05-08T10:02:36.620Z</time>
      </trkpt>
      <trkpt lat="46.78145" lon="6.45114">
        <ele>1084</ele>
        <time>2016-05-08T10:02:37.620Z</time>
      </trkpt>
      <trkpt lat="46.78143" lon="6.45112">
        <ele>1084</ele>
        <time>2016-05-08T10:02:38.620Z</time>
      </trkpt>
      <trkpt lat="46.78141" lon="6.45108">
        <ele>1084</ele>
        <time>2016-05-08T10:02:40.620Z</time>
      </trkpt>
      <trkpt lat="46.78138" lon="6.45104">
        <ele>1084</ele>
        <time>2016-05-08T10:02:42.620Z</time>
      </trkpt>
      <trkpt lat="46.78136" lon="6.45101">
        <ele>1084</ele>
        <time>2016-05-08T10:02:44.620Z</time>
      </trkpt>
      <trkpt lat="46.78134" lon="6.45097">
        <ele>1084</ele>
        <time>2016-05-08T10:02:46.620Z</time>
      </trkpt>
      <trkpt lat="46.78133" lon="6.45093">
        <ele>1084</ele>
        <time>2016-05-08T10:02:48.620Z</time>
      </trkpt>
      <trkpt lat="46.78131" lon="6.45089">
        <ele>1083</ele>
        <time>2016-05-08T10:02:50.620Z</time>
      </trkpt>
      <trkpt lat="46.78131" lon="6.45085">
        <ele>1083</ele>
        <time>2016-05-08T10:02:52.620Z</time>
      </trkpt>
      <trkpt lat="46.78129" lon="6.45082">
        <ele>1083</ele>
        <time>2016-05-08T10:02:54.620Z</time>
      </trkpt>
      <trkpt lat="46.78127" lon="6.45079">
        <ele>1083</ele>
        <time>2016-05-08T10:02:56.620Z</time>
      </trkpt>
      <trkpt lat="46.78126" lon="6.45076">
        <ele>1083</ele>
        <time>2016-05-08T10:02:58.620Z</time>
      </trkpt>
      <trkpt lat="46.78124" lon="6.45073">
        <ele>1083</ele>
        <time>2016-05-08T10:03:00.620Z</time>
      </trkpt>
      <trkpt lat="46.78122" lon="6.4507">
        <ele>1082</ele>
        <time>2016-05-08T10:03:02.620Z</time>
      </trkpt>
      <trkpt lat="46.7812" lon="6.45067">
        <ele>1082</ele>
        <time>2016-05-08T10:03:04.620Z</time>
      </trkpt>
      <trkpt lat="46.78118" lon="6.45063">
        <ele>1082</ele>
        <time>2016-05-08T10:03:06.620Z</time>
      </trkpt>
      <trkpt lat="46.78116" lon="6.4506">
        <ele>1082</ele>
        <time>2016-05-08T10:03:08.620Z</time>
      </trkpt>
      <trkpt lat="46.78115" lon="6.45057">
        <ele>1081.2442742125</ele>
        <time>2016-05-08T10:03:10.620Z</time>
      </trkpt>
      <trkpt lat="46.78112" lon="6.45054">
        <ele>1081</ele>
        <time>2016-05-08T10:03:12.620Z</time>
      </trkpt>
      <trkpt lat="46.7811" lon="6.45051">
        <ele>1081</ele>
        <time>2016-05-08T10:03:14.620Z</time>
      </trkpt>
      <trkpt lat="46.78109" lon="6.45048">
        <ele>1080.0099968</ele>
        <time>2016-05-08T10:03:16.620Z</time>
      </trkpt>
      <trkpt lat="46.78107" lon="6.45046">
        <ele>1080</ele>
        <time>2016-05-08T10:03:18.620Z</time>
      </trkpt>
      <trkpt lat="46.78106" lon="6.45043">
        <ele>1080</ele>
        <time>2016-05-08T10:03:20.620Z</time>
      </trkpt>
      <trkpt lat="46.78104" lon="6.4504">
        <ele>1079</ele>
        <time>2016-05-08T10:03:22.620Z</time>
      </trkpt>
      <trkpt lat="46.78102" lon="6.45036">
        <ele>1079</ele>
        <time>2016-05-08T10:03:24.620Z</time>
      </trkpt>
      <trkpt lat="46.781" lon="6.45033">
        <ele>1079</ele>
        <time>2016-05-08T10:03:26.620Z</time>
      </trkpt>
      <trkpt lat="46.78098" lon="6.45029">
        <ele>1079</ele>
        <time>2016-05-08T10:03:28.620Z</time>
      </trkpt>
      <trkpt lat="46.78095" lon="6.45026">
        <ele>1079</ele>
        <time>2016-05-08T10:03:30.620Z</time>
      </trkpt>
      <trkpt lat="46.78094" lon="6.45022">
        <ele>1079</ele>
        <time>2016-05-08T10:03:32.620Z</time>
      </trkpt>
      <trkpt lat="46.78092" lon="6.45019">
        <ele>1079</ele>
        <time>2016-05-08T10:03:34.620Z</time>
      </trkpt>
      <trkpt lat="46.7809" lon="6.45016">
        <ele>1079</ele>
        <time>2016-05-08T10:03:36.620Z</time>
      </trkpt>
      <trkpt lat="46.78089" lon="6.45013">
        <ele>1079</ele>
        <time>2016-05-08T10:03:38.620Z</time>
      </trkpt>
      <trkpt lat="46.78087" lon="6.45009">
        <ele>1079</ele>
        <time>2016-05-08T10:03:40.620Z</time>
      </trkpt>
      <trkpt lat="46.78086" lon="6.45006">
        <ele>1077</ele>
        <time>2016-05-08T10:03:42.620Z</time>
      </trkpt>
      <trkpt lat="46.78085" lon="6.45002">
        <ele>1077</ele>
        <time>2016-05-08T10:03:44.620Z</time>
      </trkpt>
      <trkpt lat="46.78083" lon="6.44998">
        <ele>1077</ele>
        <time>2016-05-08T10:03:46.620Z</time>
      </trkpt>
      <trkpt lat="46.78082" lon="6.44995">
        <ele>1077</ele>
        <time>2016-05-08T10:03:48.620Z</time>
      </trkpt>
      <trkpt lat="46.7808" lon="6.44992">
        <ele>1077</ele>
        <time>2016-05-08T10:03:50.620Z</time>
      </trkpt>
      <trkpt lat="46.78078" lon="6.44988">
        <ele>1076</ele>
        <time>2016-05-08T10:03:52.620Z</time>
      </trkpt>
      <trkpt lat="46.78077" lon="6.44985">
        <ele>1076</ele>
        <time>2016-05-08T10:03:54.620Z</time>
      </trkpt>
      <trkpt lat="46.78075" lon="6.44982">
        <ele>1076</ele>
        <time>2016-05-08T10:03:56.620Z</time>
      </trkpt>
      <trkpt lat="46.78073" lon="6.44979">
        <ele>1076</ele>
        <time>2016-05-08T10:03:58.620Z</time>
      </trkpt>
      <trkpt lat="46.78071" lon="6.44976">
        <ele>1076</ele>
        <time>2016-05-08T10:04:00.620Z</time>
      </trkpt>
      <trkpt lat="46.7807" lon="6.44973">
        <ele>1075</ele>
        <time>2016-05-08T10:04:02.620Z</time>
      </trkpt>
      <trkpt lat="46.78068" lon="6.44969">
        <ele>1075</ele>
        <time>2016-05-08T10:04:04.620Z</time>
      </trkpt>
      <trkpt lat="46.78067" lon="6.44966">
        <ele>1075</ele>
        <time>2016-05-08T10:04:06.620Z</time>
      </trkpt>
      <trkpt lat="46.78065" lon="6.44963">
        <ele>1075</ele>
        <time>2016-05-08T10:04:08.620Z</time>
      </trkpt>
      <trkpt lat="46.78064" lon="6.44959">
        <ele>1075</ele>
        <time>2016-05-08T10:04:10.620Z</time>
      </trkpt>
      <trkpt lat="46.78062" lon="6.44956">
        <ele>1075</ele>
        <time>2016-05-08T10:04:12.620Z</time>
      </trkpt>
      <trkpt lat="46.7806" lon="6.44953">
        <ele>1075</ele>
        <time>2016-05-08T10:04:14.620Z</time>
      </trkpt>
      <trkpt lat="46.78058" lon="6.4495">
        <ele>1075</ele>
        <time>2016-05-08T10:04:16.620Z</time>
      </trkpt>
      <trkpt lat="46.78056" lon="6.44946">
        <ele>1075</ele>
        <time>2016-05-08T10:04:18.620Z</time>
      </trkpt>
      <trkpt lat="46.78055" lon="6.44942">
        <ele>1075</ele>
        <time>2016-05-08T10:04:20.620Z</time>
      </trkpt>
      <trkpt lat="46.78053" lon="6.4494">
        <ele>1074</ele>
        <time>2016-05-08T10:04:22.620Z</time>
      </trkpt>
      <trkpt lat="46.78052" lon="6.44936">
        <ele>1074</ele>
        <time>2016-05-08T10:04:24.620Z</time>
      </trkpt>
      <trkpt lat="46.78052" lon="6.44931">
        <ele>1074</ele>
        <time>2016-05-08T10:04:26.620Z</time>
      </trkpt>
      <trkpt lat="46.7805" lon="6.44928">
        <ele>1074</ele>
        <time>2016-05-08T10:04:28.620Z</time>
      </trkpt>
      <trkpt lat="46.78049" lon="6.44925">
        <ele>1074</ele>
        <time>2016-05-08T10:04:30.620Z</time>
      </trkpt>
      <trkpt lat="46.78048" lon="6.44921">
        <ele>1073</ele>
        <time>2016-05-08T10:04:32.620Z</time>
      </trkpt>
      <trkpt lat="46.78046" lon="6.44918">
        <ele>1073</ele>
        <time>2016-05-08T10:04:34.620Z</time>
      </trkpt>
      <trkpt lat="46.78044" lon="6.44915">
        <ele>1073</ele>
        <time>2016-05-08T10:04:36.620Z</time>
      </trkpt>
      <trkpt lat="46.78042" lon="6.44912">
        <ele>1073</ele>
        <time>2016-05-08T10:04:38.620Z</time>
      </trkpt>
      <trkpt lat="46.7804" lon="6.44908">
        <ele>1073</ele>
        <time>2016-05-08T10:04:40.620Z</time>
      </trkpt>
      <trkpt lat="46.78039" lon="6.44905">
        <ele>1073</ele>
        <time>2016-05-08T10:04:42.620Z</time>
      </trkpt>
      <trkpt lat="46.78037" lon="6.44902">
        <ele>1073</ele>
        <time>2016-05-08T10:04:44.620Z</time>
      </trkpt>
      <trkpt lat="46.78035" lon="6.44898">
        <ele>1073</ele>
        <time>2016-05-08T10:04:46.620Z</time>
      </trkpt>
      <trkpt lat="46.78032" lon="6.44895">
        <ele>1073</ele>
        <time>2016-05-08T10:04:48.620Z</time>
      </trkpt>
      <trkpt lat="46.7803" lon="6.44892">
        <ele>1073</ele>
        <time>2016-05-08T10:04:50.620Z</time>
      </trkpt>
      <trkpt lat="46.78029" lon="6.44888">
        <ele>1071.0199936</ele>
        <time>2016-05-08T10:04:52.620Z</time>
      </trkpt>
      <trkpt lat="46.78026" lon="6.44885">
        <ele>1071</ele>
        <time>2016-05-08T10:04:54.620Z</time>
      </trkpt>
      <trkpt lat="46.78023" lon="6.44882">
        <ele>1071</ele>
        <time>2016-05-08T10:04:56.620Z</time>
      </trkpt>
      <trkpt lat="46.78021" lon="6.44879">
        <ele>1071</ele>
        <time>2016-05-08T10:04:58.620Z</time>
      </trkpt>
      <trkpt lat="46.78019" lon="6.44877">
        <ele>1071</ele>
        <time>2016-05-08T10:05:00.620Z</time>
      </trkpt>
      <trkpt lat="46.78017" lon="6.44874">
        <ele>1069</ele>
        <time>2016-05-08T10:05:02.620Z</time>
      </trkpt>
      <trkpt lat="46.78015" lon="6.44871">
        <ele>1069</ele>
        <time>2016-05-08T10:05:04.620Z</time>
      </trkpt>
      <trkpt lat="46.78014" lon="6.44867">
        <ele>1069</ele>
        <time>2016-05-08T10:05:06.620Z</time>
      </trkpt>
      <trkpt lat="46.78012" lon="6.44863">
        <ele>1069</ele>
        <time>2016-05-08T10:05:08.620Z</time>
      </trkpt>
      <trkpt lat="46.78011" lon="6.44861">
        <ele>1069</ele>
        <time>2016-05-08T10:05:10.620Z</time>
      </trkpt>
      <trkpt lat="46.78009" lon="6.44857">
        <ele>1069</ele>
        <time>2016-05-08T10:05:12.620Z</time>
      </trkpt>
      <trkpt lat="46.78007" lon="6.44855">
        <ele>1069</ele>
        <time>2016-05-08T10:05:14.620Z</time>
      </trkpt>
      <trkpt lat="46.78005" lon="6.44852">
        <ele>1069</ele>
        <time>2016-05-08T10:05:16.620Z</time>
      </trkpt>
      <trkpt lat="46.78004" lon="6.44848">
        <ele>1069</ele>
        <time>2016-05-08T10:05:18.620Z</time>
      </trkpt>
      <trkpt lat="46.78002" lon="6.44845">
        <ele>1069</ele>
        <time>2016-05-08T10:05:20.620Z</time>
      </trkpt>
      <trkpt lat="46.78" lon="6.44842">
        <ele>1069</ele>
        <time>2016-05-08T10:05:22.620Z</time>
      </trkpt>
      <trkpt lat="46.77998" lon="6.44838">
        <ele>1069</ele>
        <time>2016-05-08T10:05:24.620Z</time>
      </trkpt>
      <trkpt lat="46.77997" lon="6.44834">
        <ele>1069</ele>
        <time>2016-05-08T10:05:26.620Z</time>
      </trkpt>
      <trkpt lat="46.77995" lon="6.4483">
        <ele>1069</ele>
        <time>2016-05-08T10:05:28.620Z</time>
      </trkpt>
      <trkpt lat="46.77993" lon="6.44827">
        <ele>1069</ele>
        <time>2016-05-08T10:05:30.620Z</time>
      </trkpt>
      <trkpt lat="46.77991" lon="6.44823">
        <ele>1068</ele>
        <time>2016-05-08T10:05:32.620Z</time>
      </trkpt>
      <trkpt lat="46.77989" lon="6.4482">
        <ele>1068</ele>
        <time>2016-05-08T10:05:34.620Z</time>
      </trkpt>
      <trkpt lat="46.77988" lon="6.44817">
        <ele>1068</ele>
        <time>2016-05-08T10:05:36.620Z</time>
      </trkpt>
      <trkpt lat="46.77986" lon="6.44813">
        <ele>1068</ele>
        <time>2016-05-08T10:05:38.620Z</time>
      </trkpt>
      <trkpt lat="46.77984" lon="6.44811">
        <ele>1068</ele>
        <time>2016-05-08T10:05:40.620Z</time>
      </trkpt>
      <trkpt lat="46.77982" lon="6.44808">
        <ele>1067</ele>
        <time>2016-05-08T10:05:42.620Z</time>
      </trkpt>
      <trkpt lat="46.7798" lon="6.44805">
        <ele>1067</ele>
        <time>2016-05-08T10:05:44.620Z</time>
      </trkpt>
      <trkpt lat="46.77978" lon="6.44802">
        <ele>1067</ele>
        <time>2016-05-08T10:05:46.620Z</time>
      </trkpt>
      <trkpt lat="46.77976" lon="6.44798">
        <ele>1067</ele>
        <time>2016-05-08T10:05:48.620Z</time>
      </trkpt>
      <trkpt lat="46.77975" lon="6.44795">
        <ele>1067</ele>
        <time>2016-05-08T10:05:50.620Z</time>
      </trkpt>
      <trkpt lat="46.77974" lon="6.44791">
        <ele>1066</ele>
        <time>2016-05-08T10:05:52.620Z</time>
      </trkpt>
      <trkpt lat="46.77973" lon="6.44787">
        <ele>1066</ele>
        <time>2016-05-08T10:05:54.620Z</time>
      </trkpt>
      <trkpt lat="46.77972" lon="6.44784">
        <ele>1066</ele>
        <time>2016-05-08T10:05:56.620Z</time>
      </trkpt>
      <trkpt lat="46.7797" lon="6.4478">
        <ele>1066</ele>
        <time>2016-05-08T10:05:58.620Z</time>
      </trkpt>
      <trkpt lat="46.77969" lon="6.44777">
        <ele>1066</ele>
        <time>2016-05-08T10:06:00.620Z</time>
      </trkpt>
      <trkpt lat="46.77969" lon="6.44773">
        <ele>1065</ele>
        <time>2016-05-08T10:06:02.620Z</time>
      </trkpt>
      <trkpt lat="46.77968" lon="6.44769">
        <ele>1065</ele>
        <time>2016-05-08T10:06:04.620Z</time>
      </trkpt>
      <trkpt lat="46.77968" lon="6.44765">
        <ele>1065</ele>
        <time>2016-05-08T10:06:06.620Z</time>
      </trkpt>
      <trkpt lat="46.77967" lon="6.44761">
        <ele>1065</ele>
        <time>2016-05-08T10:06:08.620Z</time>
      </trkpt>
      <trkpt lat="46.77967" lon="6.44757">
        <ele>1065</ele>
        <time>2016-05-08T10:06:10.620Z</time>
      </trkpt>
      <trkpt lat="46.77967" lon="6.44753">
        <ele>1065</ele>
        <time>2016-05-08T10:06:12.620Z</time>
      </trkpt>
      <trkpt lat="46.77966" lon="6.4475">
        <ele>1065</ele>
        <time>2016-05-08T10:06:14.620Z</time>
      </trkpt>
      <trkpt lat="46.77965" lon="6.44747">
        <ele>1065</ele>
        <time>2016-05-08T10:06:15.620Z</time>
      </trkpt>
      <trkpt lat="46.77964" lon="6.44745">
        <ele>1065</ele>
        <time>2016-05-08T10:06:16.620Z</time>
      </trkpt>
      <trkpt lat="46.77963" lon="6.44741">
        <ele>1065</ele>
        <time>2016-05-08T10:06:18.620Z</time>
      </trkpt>
      <trkpt lat="46.77961" lon="6.44737">
        <ele>1065</ele>
        <time>2016-05-08T10:06:20.620Z</time>
      </trkpt>
      <trkpt lat="46.7796" lon="6.44733">
        <ele>1065</ele>
        <time>2016-05-08T10:06:22.620Z</time>
      </trkpt>
      <trkpt lat="46.77958" lon="6.4473">
        <ele>1065</ele>
        <time>2016-05-08T10:06:24.620Z</time>
      </trkpt>
      <trkpt lat="46.77956" lon="6.44726">
        <ele>1065</ele>
        <time>2016-05-08T10:06:26.620Z</time>
      </trkpt>
      <trkpt lat="46.77954" lon="6.44723">
        <ele>1065</ele>
        <time>2016-05-08T10:06:28.620Z</time>
      </trkpt>
      <trkpt lat="46.77953" lon="6.44721">
        <ele>1065</ele>
        <time>2016-05-08T10:06:29.620Z</time>
      </trkpt>
      <trkpt lat="46.77951" lon="6.44717">
        <ele>1064.0100096</ele>
        <time>2016-05-08T10:06:31.620Z</time>
      </trkpt>
      <trkpt lat="46.7795" lon="6.44714">
        <ele>1064</ele>
        <time>2016-05-08T10:06:33.620Z</time>
      </trkpt>
      <trkpt lat="46.77949" lon="6.44711">
        <ele>1064</ele>
        <time>2016-05-08T10:06:35.620Z</time>
      </trkpt>
      <trkpt lat="46.77948" lon="6.44708">
        <ele>1064</ele>
        <time>2016-05-08T10:06:37.620Z</time>
      </trkpt>
      <trkpt lat="46.77946" lon="6.44704">
        <ele>1064</ele>
        <time>2016-05-08T10:06:39.620Z</time>
      </trkpt>
      <trkpt lat="46.77945" lon="6.44701">
        <ele>1063</ele>
        <time>2016-05-08T10:06:41.620Z</time>
      </trkpt>
      <trkpt lat="46.77943" lon="6.44698">
        <ele>1063</ele>
        <time>2016-05-08T10:06:43.620Z</time>
      </trkpt>
      <trkpt lat="46.7794" lon="6.44695">
        <ele>1063</ele>
        <time>2016-05-08T10:06:45.620Z</time>
      </trkpt>
      <trkpt lat="46.77938" lon="6.44692">
        <ele>1063</ele>
        <time>2016-05-08T10:06:47.620Z</time>
      </trkpt>
      <trkpt lat="46.77936" lon="6.44687">
        <ele>1063</ele>
        <time>2016-05-08T10:06:49.620Z</time>
      </trkpt>
      <trkpt lat="46.77935" lon="6.44683">
        <ele>1062.0100096</ele>
        <time>2016-05-08T10:06:51.620Z</time>
      </trkpt>
      <trkpt lat="46.77932" lon="6.44679">
        <ele>1062</ele>
        <time>2016-05-08T10:06:53.620Z</time>
      </trkpt>
      <trkpt lat="46.7793" lon="6.44676">
        <ele>1062</ele>
        <time>2016-05-08T10:06:55.620Z</time>
      </trkpt>
      <trkpt lat="46.77928" lon="6.44673">
        <ele>1062</ele>
        <time>2016-05-08T10:06:57.620Z</time>
      </trkpt>
      <trkpt lat="46.77925" lon="6.4467">
        <ele>1062</ele>
        <time>2016-05-08T10:06:59.620Z</time>
      </trkpt>
      <trkpt lat="46.77925" lon="6.44666">
        <ele>1062</ele>
        <time>2016-05-08T10:07:01.620Z</time>
      </trkpt>
      <trkpt lat="46.77926" lon="6.44663">
        <ele>1062</ele>
        <time>2016-05-08T10:07:02.620Z</time>
      </trkpt>
      <trkpt lat="46.77925" lon="6.44659">
        <ele>1062</ele>
        <time>2016-05-08T10:07:04.620Z</time>
      </trkpt>
      <trkpt lat="46.77923" lon="6.44656">
        <ele>1062</ele>
        <time>2016-05-08T10:07:06.620Z</time>
      </trkpt>
      <trkpt lat="46.7792" lon="6.44653">
        <ele>1062</ele>
        <time>2016-05-08T10:07:08.620Z</time>
      </trkpt>
      <trkpt lat="46.77918" lon="6.4465">
        <ele>1062</ele>
        <time>2016-05-08T10:07:10.620Z</time>
      </trkpt>
      <trkpt lat="46.77916" lon="6.44647">
        <ele>1061</ele>
        <time>2016-05-08T10:07:12.620Z</time>
      </trkpt>
      <trkpt lat="46.77913" lon="6.44644">
        <ele>1061</ele>
        <time>2016-05-08T10:07:14.620Z</time>
      </trkpt>
      <trkpt lat="46.77911" lon="6.44641">
        <ele>1061</ele>
        <time>2016-05-08T10:07:16.620Z</time>
      </trkpt>
      <trkpt lat="46.77909" lon="6.44638">
        <ele>1061</ele>
        <time>2016-05-08T10:07:18.620Z</time>
      </trkpt>
      <trkpt lat="46.77907" lon="6.44635">
        <ele>1061</ele>
        <time>2016-05-08T10:07:20.620Z</time>
      </trkpt>
      <trkpt lat="46.77905" lon="6.44632">
        <ele>1060</ele>
        <time>2016-05-08T10:07:22.620Z</time>
      </trkpt>
      <trkpt lat="46.77903" lon="6.44629">
        <ele>1060</ele>
        <time>2016-05-08T10:07:24.620Z</time>
      </trkpt>
      <trkpt lat="46.77901" lon="6.44626">
        <ele>1060</ele>
        <time>2016-05-08T10:07:26.620Z</time>
      </trkpt>
      <trkpt lat="46.77899" lon="6.44623">
        <ele>1060</ele>
        <time>2016-05-08T10:07:28.620Z</time>
      </trkpt>
      <trkpt lat="46.77897" lon="6.4462">
        <ele>1060</ele>
        <time>2016-05-08T10:07:30.620Z</time>
      </trkpt>
      <trkpt lat="46.77896" lon="6.44616">
        <ele>1059</ele>
        <time>2016-05-08T10:07:32.620Z</time>
      </trkpt>
      <trkpt lat="46.77894" lon="6.44613">
        <ele>1059</ele>
        <time>2016-05-08T10:07:34.620Z</time>
      </trkpt>
      <trkpt lat="46.77892" lon="6.44609">
        <ele>1059</ele>
        <time>2016-05-08T10:07:36.620Z</time>
      </trkpt>
      <trkpt lat="46.77891" lon="6.44606">
        <ele>1059</ele>
        <time>2016-05-08T10:07:38.620Z</time>
      </trkpt>
      <trkpt lat="46.7789" lon="6.44603">
        <ele>1059</ele>
        <time>2016-05-08T10:07:40.620Z</time>
      </trkpt>
      <trkpt lat="46.77889" lon="6.44599">
        <ele>1058</ele>
        <time>2016-05-08T10:07:42.620Z</time>
      </trkpt>
      <trkpt lat="46.77887" lon="6.44596">
        <ele>1058</ele>
        <time>2016-05-08T10:07:44.620Z</time>
      </trkpt>
      <trkpt lat="46.77886" lon="6.44592">
        <ele>1058</ele>
        <time>2016-05-08T10:07:46.620Z</time>
      </trkpt>
      <trkpt lat="46.77885" lon="6.44588">
        <ele>1058</ele>
        <time>2016-05-08T10:07:48.620Z</time>
      </trkpt>
      <trkpt lat="46.77883" lon="6.44585">
        <ele>1058</ele>
        <time>2016-05-08T10:07:50.620Z</time>
      </trkpt>
      <trkpt lat="46.77881" lon="6.44581">
        <ele>1058</ele>
        <time>2016-05-08T10:07:52.620Z</time>
      </trkpt>
      <trkpt lat="46.77881" lon="6.44578">
        <ele>1058</ele>
        <time>2016-05-08T10:07:54.620Z</time>
      </trkpt>
      <trkpt lat="46.77879" lon="6.44574">
        <ele>1058</ele>
        <time>2016-05-08T10:07:56.620Z</time>
      </trkpt>
      <trkpt lat="46.77877" lon="6.44571">
        <ele>1058</ele>
        <time>2016-05-08T10:07:58.620Z</time>
      </trkpt>
      <trkpt lat="46.77876" lon="6.44568">
        <ele>1058</ele>
        <time>2016-05-08T10:08:00.620Z</time>
      </trkpt>
      <trkpt lat="46.77874" lon="6.44564">
        <ele>1055.0299904</ele>
        <time>2016-05-08T10:08:02.620Z</time>
      </trkpt>
      <trkpt lat="46.77872" lon="6.4456">
        <ele>1055</ele>
        <time>2016-05-08T10:08:04.620Z</time>
      </trkpt>
      <trkpt lat="46.7787" lon="6.44556">
        <ele>1055</ele>
        <time>2016-05-08T10:08:06.620Z</time>
      </trkpt>
      <trkpt lat="46.77868" lon="6.44553">
        <ele>1055</ele>
        <time>2016-05-08T10:08:08.620Z</time>
      </trkpt>
      <trkpt lat="46.77867" lon="6.44549">
        <ele>1055</ele>
        <time>2016-05-08T10:08:10.620Z</time>
      </trkpt>
      <trkpt lat="46.77865" lon="6.44546">
        <ele>1055</ele>
        <time>2016-05-08T10:08:12.620Z</time>
      </trkpt>
      <trkpt lat="46.77863" lon="6.44544">
        <ele>1055</ele>
        <time>2016-05-08T10:08:14.620Z</time>
      </trkpt>
      <trkpt lat="46.77861" lon="6.4454">
        <ele>1055</ele>
        <time>2016-05-08T10:08:16.620Z</time>
      </trkpt>
      <trkpt lat="46.77859" lon="6.44537">
        <ele>1055</ele>
        <time>2016-05-08T10:08:18.620Z</time>
      </trkpt>
      <trkpt lat="46.77856" lon="6.44534">
        <ele>1055</ele>
        <time>2016-05-08T10:08:20.620Z</time>
      </trkpt>
      <trkpt lat="46.77855" lon="6.44531">
        <ele>1055</ele>
        <time>2016-05-08T10:08:21.620Z</time>
      </trkpt>
      <trkpt lat="46.77853" lon="6.44529">
        <ele>1055</ele>
        <time>2016-05-08T10:08:23.620Z</time>
      </trkpt>
      <trkpt lat="46.77852" lon="6.44525">
        <ele>1055</ele>
        <time>2016-05-08T10:08:25.620Z</time>
      </trkpt>
      <trkpt lat="46.7785" lon="6.44523">
        <ele>1055</ele>
        <time>2016-05-08T10:08:26.620Z</time>
      </trkpt>
      <trkpt lat="46.77849" lon="6.44522">
        <ele>1055</ele>
        <time>2016-05-08T10:08:27.620Z</time>
      </trkpt>
      <trkpt lat="46.77846" lon="6.44519">
        <ele>1055</ele>
        <time>2016-05-08T10:08:29.620Z</time>
      </trkpt>
      <trkpt lat="46.77844" lon="6.44517">
        <ele>1055</ele>
        <time>2016-05-08T10:08:30.620Z</time>
      </trkpt>
      <trkpt lat="46.77842" lon="6.44515">
        <ele>1054.0099968</ele>
        <time>2016-05-08T10:08:32.620Z</time>
      </trkpt>
      <trkpt lat="46.7784" lon="6.44512">
        <ele>1054</ele>
        <time>2016-05-08T10:08:34.620Z</time>
      </trkpt>
      <trkpt lat="46.77839" lon="6.44509">
        <ele>1054</ele>
        <time>2016-05-08T10:08:36.620Z</time>
      </trkpt>
      <trkpt lat="46.77839" lon="6.44506">
        <ele>1054</ele>
        <time>2016-05-08T10:08:37.620Z</time>
      </trkpt>
      <trkpt lat="46.77838" lon="6.44503">
        <ele>1054</ele>
        <time>2016-05-08T10:08:38.620Z</time>
      </trkpt>
      <trkpt lat="46.77837" lon="6.445">
        <ele>1054</ele>
        <time>2016-05-08T10:08:40.620Z</time>
      </trkpt>
      <trkpt lat="46.77835" lon="6.44497">
        <ele>1053</ele>
        <time>2016-05-08T10:08:42.620Z</time>
      </trkpt>
      <trkpt lat="46.77833" lon="6.44493">
        <ele>1053</ele>
        <time>2016-05-08T10:08:44.620Z</time>
      </trkpt>
      <trkpt lat="46.77831" lon="6.4449">
        <ele>1053</ele>
        <time>2016-05-08T10:08:46.620Z</time>
      </trkpt>
      <trkpt lat="46.77828" lon="6.44486">
        <ele>1053</ele>
        <time>2016-05-08T10:08:48.620Z</time>
      </trkpt>
      <trkpt lat="46.77826" lon="6.44485">
        <ele>1053</ele>
        <time>2016-05-08T10:08:49.620Z</time>
      </trkpt>
      <trkpt lat="46.77825" lon="6.44481">
        <ele>1053</ele>
        <time>2016-05-08T10:08:51.620Z</time>
      </trkpt>
      <trkpt lat="46.77823" lon="6.44478">
        <ele>1052</ele>
        <time>2016-05-08T10:08:53.620Z</time>
      </trkpt>
      <trkpt lat="46.7782" lon="6.44476">
        <ele>1052</ele>
        <time>2016-05-08T10:08:55.620Z</time>
      </trkpt>
      <trkpt lat="46.77818" lon="6.44473">
        <ele>1052</ele>
        <time>2016-05-08T10:08:57.620Z</time>
      </trkpt>
      <trkpt lat="46.77817" lon="6.44469">
        <ele>1052</ele>
        <time>2016-05-08T10:08:59.620Z</time>
      </trkpt>
      <trkpt lat="46.77817" lon="6.44465">
        <ele>1049</ele>
        <time>2016-05-08T10:09:01.620Z</time>
      </trkpt>
      <trkpt lat="46.77815" lon="6.44462">
        <ele>1049</ele>
        <time>2016-05-08T10:09:03.620Z</time>
      </trkpt>
      <trkpt lat="46.77814" lon="6.44459">
        <ele>1049</ele>
        <time>2016-05-08T10:09:05.620Z</time>
      </trkpt>
      <trkpt lat="46.77812" lon="6.44455">
        <ele>1049</ele>
        <time>2016-05-08T10:09:07.620Z</time>
      </trkpt>
      <trkpt lat="46.77811" lon="6.44451">
        <ele>1049</ele>
        <time>2016-05-08T10:09:09.620Z</time>
      </trkpt>
      <trkpt lat="46.7781" lon="6.44448">
        <ele>1049</ele>
        <time>2016-05-08T10:09:11.620Z</time>
      </trkpt>
      <trkpt lat="46.77809" lon="6.44445">
        <ele>1049</ele>
        <time>2016-05-08T10:09:13.620Z</time>
      </trkpt>
      <trkpt lat="46.77808" lon="6.44442">
        <ele>1049</ele>
        <time>2016-05-08T10:09:15.620Z</time>
      </trkpt>
      <trkpt lat="46.77805" lon="6.44439">
        <ele>1049</ele>
        <time>2016-05-08T10:09:17.620Z</time>
      </trkpt>
      <trkpt lat="46.77804" lon="6.44437">
        <ele>1049</ele>
        <time>2016-05-08T10:09:19.620Z</time>
      </trkpt>
      <trkpt lat="46.77802" lon="6.44434">
        <ele>1049</ele>
        <time>2016-05-08T10:09:21.620Z</time>
      </trkpt>
      <trkpt lat="46.778" lon="6.4443">
        <ele>1049</ele>
        <time>2016-05-08T10:09:23.620Z</time>
      </trkpt>
      <trkpt lat="46.77799" lon="6.44427">
        <ele>1049</ele>
        <time>2016-05-08T10:09:25.620Z</time>
      </trkpt>
      <trkpt lat="46.77797" lon="6.44423">
        <ele>1049</ele>
        <time>2016-05-08T10:09:27.620Z</time>
      </trkpt>
      <trkpt lat="46.77796" lon="6.44422">
        <ele>1049</ele>
        <time>2016-05-08T10:09:28.620Z</time>
      </trkpt>
      <trkpt lat="46.77793" lon="6.44418">
        <ele>1049</ele>
        <time>2016-05-08T10:09:30.620Z</time>
      </trkpt>
      <trkpt lat="46.77792" lon="6.44415">
        <ele>1049</ele>
        <time>2016-05-08T10:09:32.620Z</time>
      </trkpt>
      <trkpt lat="46.77789" lon="6.44413">
        <ele>1049</ele>
        <time>2016-05-08T10:09:34.620Z</time>
      </trkpt>
      <trkpt lat="46.77787" lon="6.44411">
        <ele>1049</ele>
        <time>2016-05-08T10:09:36.620Z</time>
      </trkpt>
      <trkpt lat="46.77784" lon="6.4441">
        <ele>1049</ele>
        <time>2016-05-08T10:09:38.620Z</time>
      </trkpt>
      <trkpt lat="46.77781" lon="6.44407">
        <ele>1049</ele>
        <time>2016-05-08T10:09:40.620Z</time>
      </trkpt>
      <trkpt lat="46.77779" lon="6.44404">
        <ele>1048</ele>
        <time>2016-05-08T10:09:42.620Z</time>
      </trkpt>
      <trkpt lat="46.77776" lon="6.444">
        <ele>1048</ele>
        <time>2016-05-08T10:09:44.620Z</time>
      </trkpt>
      <trkpt lat="46.77774" lon="6.44398">
        <ele>1048</ele>
        <time>2016-05-08T10:09:46.620Z</time>
      </trkpt>
      <trkpt lat="46.77772" lon="6.44396">
        <ele>1048</ele>
        <time>2016-05-08T10:09:48.620Z</time>
      </trkpt>
      <trkpt lat="46.77769" lon="6.44394">
        <ele>1048</ele>
        <time>2016-05-08T10:09:50.620Z</time>
      </trkpt>
      <trkpt lat="46.77767" lon="6.44391">
        <ele>1047</ele>
        <time>2016-05-08T10:09:52.620Z</time>
      </trkpt>
      <trkpt lat="46.77765" lon="6.44388">
        <ele>1047</ele>
        <time>2016-05-08T10:09:54.620Z</time>
      </trkpt>
      <trkpt lat="46.77763" lon="6.44384">
        <ele>1047</ele>
        <time>2016-05-08T10:09:56.620Z</time>
      </trkpt>
      <trkpt lat="46.77762" lon="6.4438">
        <ele>1047</ele>
        <time>2016-05-08T10:09:58.620Z</time>
      </trkpt>
      <trkpt lat="46.77759" lon="6.44378">
        <ele>1047</ele>
        <time>2016-05-08T10:10:00.620Z</time>
      </trkpt>
      <trkpt lat="46.77757" lon="6.44375">
        <ele>1046</ele>
        <time>2016-05-08T10:10:02.620Z</time>
      </trkpt>
      <trkpt lat="46.77755" lon="6.44372">
        <ele>1046</ele>
        <time>2016-05-08T10:10:04.620Z</time>
      </trkpt>
      <trkpt lat="46.77753" lon="6.44369">
        <ele>1046</ele>
        <time>2016-05-08T10:10:06.620Z</time>
      </trkpt>
      <trkpt lat="46.77751" lon="6.44366">
        <ele>1046</ele>
        <time>2016-05-08T10:10:08.620Z</time>
      </trkpt>
      <trkpt lat="46.77749" lon="6.44362">
        <ele>1046</ele>
        <time>2016-05-08T10:10:10.620Z</time>
      </trkpt>
      <trkpt lat="46.77746" lon="6.4436">
        <ele>1046</ele>
        <time>2016-05-08T10:10:12.620Z</time>
      </trkpt>
      <trkpt lat="46.77744" lon="6.44357">
        <ele>1046</ele>
        <time>2016-05-08T10:10:14.620Z</time>
      </trkpt>
      <trkpt lat="46.77742" lon="6.44354">
        <ele>1046</ele>
        <time>2016-05-08T10:10:16.620Z</time>
      </trkpt>
      <trkpt lat="46.7774" lon="6.44351">
        <ele>1046</ele>
        <time>2016-05-08T10:10:18.620Z</time>
      </trkpt>
      <trkpt lat="46.77739" lon="6.44348">
        <ele>1046</ele>
        <time>2016-05-08T10:10:20.620Z</time>
      </trkpt>
      <trkpt lat="46.77737" lon="6.44344">
        <ele>1045</ele>
        <time>2016-05-08T10:10:22.620Z</time>
      </trkpt>
      <trkpt lat="46.77735" lon="6.4434">
        <ele>1045</ele>
        <time>2016-05-08T10:10:24.620Z</time>
      </trkpt>
      <trkpt lat="46.77733" lon="6.44337">
        <ele>1045</ele>
        <time>2016-05-08T10:10:26.620Z</time>
      </trkpt>
      <trkpt lat="46.77731" lon="6.44334">
        <ele>1045</ele>
        <time>2016-05-08T10:10:28.620Z</time>
      </trkpt>
      <trkpt lat="46.7773" lon="6.44329">
        <ele>1045</ele>
        <time>2016-05-08T10:10:30.620Z</time>
      </trkpt>
      <trkpt lat="46.77728" lon="6.44327">
        <ele>1044</ele>
        <time>2016-05-08T10:10:32.620Z</time>
      </trkpt>
      <trkpt lat="46.77726" lon="6.44324">
        <ele>1044</ele>
        <time>2016-05-08T10:10:34.620Z</time>
      </trkpt>
      <trkpt lat="46.77725" lon="6.44321">
        <ele>1044</ele>
        <time>2016-05-08T10:10:36.620Z</time>
      </trkpt>
      <trkpt lat="46.77723" lon="6.44317">
        <ele>1044</ele>
        <time>2016-05-08T10:10:38.620Z</time>
      </trkpt>
      <trkpt lat="46.77721" lon="6.44313">
        <ele>1044</ele>
        <time>2016-05-08T10:10:40.620Z</time>
      </trkpt>
      <trkpt lat="46.77719" lon="6.44311">
        <ele>1043</ele>
        <time>2016-05-08T10:10:42.620Z</time>
      </trkpt>
      <trkpt lat="46.77717" lon="6.44307">
        <ele>1043</ele>
        <time>2016-05-08T10:10:44.620Z</time>
      </trkpt>
      <trkpt lat="46.77715" lon="6.44304">
        <ele>1043</ele>
        <time>2016-05-08T10:10:46.620Z</time>
      </trkpt>
      <trkpt lat="46.77713" lon="6.44301">
        <ele>1043</ele>
        <time>2016-05-08T10:10:48.620Z</time>
      </trkpt>
      <trkpt lat="46.77712" lon="6.44297">
        <ele>1043</ele>
        <time>2016-05-08T10:10:50.620Z</time>
      </trkpt>
      <trkpt lat="46.77712" lon="6.44293">
        <ele>1043</ele>
        <time>2016-05-08T10:10:52.620Z</time>
      </trkpt>
      <trkpt lat="46.7771" lon="6.44289">
        <ele>1043</ele>
        <time>2016-05-08T10:10:54.620Z</time>
      </trkpt>
      <trkpt lat="46.77708" lon="6.44286">
        <ele>1043</ele>
        <time>2016-05-08T10:10:56.620Z</time>
      </trkpt>
      <trkpt lat="46.77707" lon="6.44282">
        <ele>1043</ele>
        <time>2016-05-08T10:10:58.620Z</time>
      </trkpt>
      <trkpt lat="46.77704" lon="6.44278">
        <ele>1043</ele>
        <time>2016-05-08T10:11:00.620Z</time>
      </trkpt>
      <trkpt lat="46.77703" lon="6.44275">
        <ele>1041</ele>
        <time>2016-05-08T10:11:02.620Z</time>
      </trkpt>
      <trkpt lat="46.77701" lon="6.44271">
        <ele>1041</ele>
        <time>2016-05-08T10:11:04.620Z</time>
      </trkpt>
      <trkpt lat="46.777" lon="6.44268">
        <ele>1041</ele>
        <time>2016-05-08T10:11:06.620Z</time>
      </trkpt>
      <trkpt lat="46.77698" lon="6.44264">
        <ele>1041</ele>
        <time>2016-05-08T10:11:08.620Z</time>
      </trkpt>
      <trkpt lat="46.77697" lon="6.44262">
        <ele>1041</ele>
        <time>2016-05-08T10:11:10.620Z</time>
      </trkpt>
      <trkpt lat="46.77695" lon="6.44259">
        <ele>1041</ele>
        <time>2016-05-08T10:11:12.620Z</time>
      </trkpt>
      <trkpt lat="46.77694" lon="6.44256">
        <ele>1041</ele>
        <time>2016-05-08T10:11:14.620Z</time>
      </trkpt>
      <trkpt lat="46.77692" lon="6.44252">
        <ele>1041</ele>
        <time>2016-05-08T10:11:16.620Z</time>
      </trkpt>
      <trkpt lat="46.7769" lon="6.44249">
        <ele>1041</ele>
        <time>2016-05-08T10:11:18.620Z</time>
      </trkpt>
      <trkpt lat="46.77688" lon="6.44244">
        <ele>1041</ele>
        <time>2016-05-08T10:11:20.620Z</time>
      </trkpt>
      <trkpt lat="46.77688" lon="6.44241">
        <ele>1040</ele>
        <time>2016-05-08T10:11:22.620Z</time>
      </trkpt>
      <trkpt lat="46.77686" lon="6.44238">
        <ele>1040</ele>
        <time>2016-05-08T10:11:24.620Z</time>
      </trkpt>
      <trkpt lat="46.77685" lon="6.44235">
        <ele>1040</ele>
        <time>2016-05-08T10:11:26.620Z</time>
      </trkpt>
      <trkpt lat="46.77683" lon="6.4423">
        <ele>1040</ele>
        <time>2016-05-08T10:11:28.620Z</time>
      </trkpt>
      <trkpt lat="46.77682" lon="6.44228">
        <ele>1040</ele>
        <time>2016-05-08T10:11:29.620Z</time>
      </trkpt>
      <trkpt lat="46.7768" lon="6.44224">
        <ele>1039</ele>
        <time>2016-05-08T10:11:31.620Z</time>
      </trkpt>
      <trkpt lat="46.77677" lon="6.44221">
        <ele>1039</ele>
        <time>2016-05-08T10:11:33.620Z</time>
      </trkpt>
      <trkpt lat="46.77676" lon="6.44217">
        <ele>1039</ele>
        <time>2016-05-08T10:11:35.620Z</time>
      </trkpt>
      <trkpt lat="46.77674" lon="6.44213">
        <ele>1039</ele>
        <time>2016-05-08T10:11:37.620Z</time>
      </trkpt>
      <trkpt lat="46.77672" lon="6.4421">
        <ele>1039</ele>
        <time>2016-05-08T10:11:39.620Z</time>
      </trkpt>
      <trkpt lat="46.77671" lon="6.44206">
        <ele>1039</ele>
        <time>2016-05-08T10:11:41.620Z</time>
      </trkpt>
      <trkpt lat="46.77669" lon="6.44202">
        <ele>1039</ele>
        <time>2016-05-08T10:11:43.620Z</time>
      </trkpt>
      <trkpt lat="46.77668" lon="6.442">
        <ele>1039</ele>
        <time>2016-05-08T10:11:44.620Z</time>
      </trkpt>
      <trkpt lat="46.77667" lon="6.44196">
        <ele>1039</ele>
        <time>2016-05-08T10:11:46.620Z</time>
      </trkpt>
      <trkpt lat="46.77666" lon="6.44193">
        <ele>1039</ele>
        <time>2016-05-08T10:11:48.620Z</time>
      </trkpt>
      <trkpt lat="46.77664" lon="6.44189">
        <ele>1039</ele>
        <time>2016-05-08T10:11:50.620Z</time>
      </trkpt>
      <trkpt lat="46.77662" lon="6.44186">
        <ele>1037</ele>
        <time>2016-05-08T10:11:52.620Z</time>
      </trkpt>
      <trkpt lat="46.7766" lon="6.44182">
        <ele>1037</ele>
        <time>2016-05-08T10:11:54.620Z</time>
      </trkpt>
      <trkpt lat="46.77658" lon="6.44178">
        <ele>1037</ele>
        <time>2016-05-08T10:11:56.620Z</time>
      </trkpt>
      <trkpt lat="46.77656" lon="6.44176">
        <ele>1037</ele>
        <time>2016-05-08T10:11:58.620Z</time>
      </trkpt>
      <trkpt lat="46.77654" lon="6.44173">
        <ele>1037</ele>
        <time>2016-05-08T10:12:00.620Z</time>
      </trkpt>
      <trkpt lat="46.77653" lon="6.44169">
        <ele>1036</ele>
        <time>2016-05-08T10:12:02.620Z</time>
      </trkpt>
      <trkpt lat="46.77651" lon="6.44165">
        <ele>1036</ele>
        <time>2016-05-08T10:12:04.620Z</time>
      </trkpt>
      <trkpt lat="46.7765" lon="6.44161">
        <ele>1036</ele>
        <time>2016-05-08T10:12:06.620Z</time>
      </trkpt>
      <trkpt lat="46.77648" lon="6.44158">
        <ele>1036</ele>
        <time>2016-05-08T10:12:08.620Z</time>
      </trkpt>
      <trkpt lat="46.77647" lon="6.44155">
        <ele>1036</ele>
        <time>2016-05-08T10:12:10.620Z</time>
      </trkpt>
      <trkpt lat="46.77645" lon="6.44151">
        <ele>1036</ele>
        <time>2016-05-08T10:12:12.620Z</time>
      </trkpt>
      <trkpt lat="46.77644" lon="6.44149">
        <ele>1036</ele>
        <time>2016-05-08T10:12:14.620Z</time>
      </trkpt>
      <trkpt lat="46.77641" lon="6.44146">
        <ele>1036</ele>
        <time>2016-05-08T10:12:16.620Z</time>
      </trkpt>
      <trkpt lat="46.7764" lon="6.44144">
        <ele>1036</ele>
        <time>2016-05-08T10:12:17.620Z</time>
      </trkpt>
      <trkpt lat="46.77639" lon="6.44142">
        <ele>1036</ele>
        <time>2016-05-08T10:12:18.620Z</time>
      </trkpt>
      <trkpt lat="46.77637" lon="6.44138">
        <ele>1036</ele>
        <time>2016-05-08T10:12:20.620Z</time>
      </trkpt>
      <trkpt lat="46.77635" lon="6.44134">
        <ele>1036</ele>
        <time>2016-05-08T10:12:22.620Z</time>
      </trkpt>
      <trkpt lat="46.77633" lon="6.44131">
        <ele>1036</ele>
        <time>2016-05-08T10:12:24.620Z</time>
      </trkpt>
      <trkpt lat="46.7763" lon="6.44128">
        <ele>1036</ele>
        <time>2016-05-08T10:12:26.620Z</time>
      </trkpt>
      <trkpt lat="46.77628" lon="6.44125">
        <ele>1036</ele>
        <time>2016-05-08T10:12:28.620Z</time>
      </trkpt>
      <trkpt lat="46.77627" lon="6.44121">
        <ele>1035</ele>
        <time>2016-05-08T10:12:30.620Z</time>
      </trkpt>
      <trkpt lat="46.77625" lon="6.44118">
        <ele>1035</ele>
        <time>2016-05-08T10:12:32.620Z</time>
      </trkpt>
      <trkpt lat="46.77623" lon="6.44115">
        <ele>1035</ele>
        <time>2016-05-08T10:12:34.620Z</time>
      </trkpt>
      <trkpt lat="46.77621" lon="6.44112">
        <ele>1035</ele>
        <time>2016-05-08T10:12:36.620Z</time>
      </trkpt>
      <trkpt lat="46.7762" lon="6.44109">
        <ele>1035</ele>
        <time>2016-05-08T10:12:38.620Z</time>
      </trkpt>
      <trkpt lat="46.77619" lon="6.44106">
        <ele>1035</ele>
        <time>2016-05-08T10:12:40.620Z</time>
      </trkpt>
      <trkpt lat="46.77616" lon="6.44104">
        <ele>1034</ele>
        <time>2016-05-08T10:12:42.620Z</time>
      </trkpt>
      <trkpt lat="46.77614" lon="6.44102">
        <ele>1034</ele>
        <time>2016-05-08T10:12:44.620Z</time>
      </trkpt>
      <trkpt lat="46.77613" lon="6.44099">
        <ele>1034</ele>
        <time>2016-05-08T10:12:46.620Z</time>
      </trkpt>
      <trkpt lat="46.77612" lon="6.44096">
        <ele>1034</ele>
        <time>2016-05-08T10:12:48.620Z</time>
      </trkpt>
      <trkpt lat="46.77612" lon="6.44092">
        <ele>1034</ele>
        <time>2016-05-08T10:12:50.620Z</time>
      </trkpt>
      <trkpt lat="46.77612" lon="6.44088">
        <ele>1033</ele>
        <time>2016-05-08T10:12:53.620Z</time>
      </trkpt>
      <trkpt lat="46.77611" lon="6.44085">
        <ele>1033</ele>
        <time>2016-05-08T10:12:55.620Z</time>
      </trkpt>
      <trkpt lat="46.77609" lon="6.44081">
        <ele>1033</ele>
        <time>2016-05-08T10:12:57.620Z</time>
      </trkpt>
      <trkpt lat="46.77608" lon="6.44078">
        <ele>1033</ele>
        <time>2016-05-08T10:12:59.620Z</time>
      </trkpt>
      <trkpt lat="46.77606" lon="6.44076">
        <ele>1031</ele>
        <time>2016-05-08T10:13:01.620Z</time>
      </trkpt>
      <trkpt lat="46.77604" lon="6.44073">
        <ele>1031</ele>
        <time>2016-05-08T10:13:03.620Z</time>
      </trkpt>
      <trkpt lat="46.77602" lon="6.44069">
        <ele>1031</ele>
        <time>2016-05-08T10:13:05.620Z</time>
      </trkpt>
      <trkpt lat="46.77601" lon="6.44065">
        <ele>1031</ele>
        <time>2016-05-08T10:13:07.620Z</time>
      </trkpt>
      <trkpt lat="46.77599" lon="6.44062">
        <ele>1031</ele>
        <time>2016-05-08T10:13:09.620Z</time>
      </trkpt>
      <trkpt lat="46.77597" lon="6.44059">
        <ele>1031</ele>
        <time>2016-05-08T10:13:11.620Z</time>
      </trkpt>
      <trkpt lat="46.77595" lon="6.44056">
        <ele>1031</ele>
        <time>2016-05-08T10:13:13.620Z</time>
      </trkpt>
      <trkpt lat="46.77593" lon="6.44052">
        <ele>1031</ele>
        <time>2016-05-08T10:13:15.620Z</time>
      </trkpt>
      <trkpt lat="46.77592" lon="6.4405">
        <ele>1031</ele>
        <time>2016-05-08T10:13:16.620Z</time>
      </trkpt>
      <trkpt lat="46.77591" lon="6.44048">
        <ele>1031</ele>
        <time>2016-05-08T10:13:17.620Z</time>
      </trkpt>
      <trkpt lat="46.7759" lon="6.44045">
        <ele>1031</ele>
        <time>2016-05-08T10:13:18.620Z</time>
      </trkpt>
      <trkpt lat="46.77588" lon="6.44042">
        <ele>1031</ele>
        <time>2016-05-08T10:13:20.620Z</time>
      </trkpt>
      <trkpt lat="46.77587" lon="6.44039">
        <ele>1031</ele>
        <time>2016-05-08T10:13:22.620Z</time>
      </trkpt>
      <trkpt lat="46.77586" lon="6.44036">
        <ele>1031</ele>
        <time>2016-05-08T10:13:24.620Z</time>
      </trkpt>
      <trkpt lat="46.77585" lon="6.44033">
        <ele>1031</ele>
        <time>2016-05-08T10:13:26.620Z</time>
      </trkpt>
      <trkpt lat="46.77584" lon="6.4403">
        <ele>1031</ele>
        <time>2016-05-08T10:13:28.620Z</time>
      </trkpt>
      <trkpt lat="46.77582" lon="6.44026">
        <ele>1031</ele>
        <time>2016-05-08T10:13:30.620Z</time>
      </trkpt>
      <trkpt lat="46.7758" lon="6.44024">
        <ele>1031</ele>
        <time>2016-05-08T10:13:32.620Z</time>
      </trkpt>
      <trkpt lat="46.77578" lon="6.44021">
        <ele>1031</ele>
        <time>2016-05-08T10:13:34.620Z</time>
      </trkpt>
      <trkpt lat="46.77576" lon="6.44018">
        <ele>1031</ele>
        <time>2016-05-08T10:13:36.620Z</time>
      </trkpt>
      <trkpt lat="46.77575" lon="6.44015">
        <ele>1031</ele>
        <time>2016-05-08T10:13:38.620Z</time>
      </trkpt>
      <trkpt lat="46.77574" lon="6.44012">
        <ele>1031</ele>
        <time>2016-05-08T10:13:40.620Z</time>
      </trkpt>
      <trkpt lat="46.77572" lon="6.4401">
        <ele>1028.7099361949</ele>
        <time>2016-05-08T10:13:41.620Z</time>
      </trkpt>
      <trkpt lat="46.7757" lon="6.44007">
        <ele>1028</ele>
        <time>2016-05-08T10:13:43.620Z</time>
      </trkpt>
      <trkpt lat="46.77569" lon="6.44003">
        <ele>1028</ele>
        <time>2016-05-08T10:13:45.620Z</time>
      </trkpt>
      <trkpt lat="46.77569" lon="6.44">
        <ele>1028</ele>
        <time>2016-05-08T10:13:47.620Z</time>
      </trkpt>
      <trkpt lat="46.77568" lon="6.43997">
        <ele>1028</ele>
        <time>2016-05-08T10:13:49.620Z</time>
      </trkpt>
      <trkpt lat="46.77567" lon="6.43994">
        <ele>1028.961152742</ele>
        <time>2016-05-08T10:13:51.620Z</time>
      </trkpt>
      <trkpt lat="46.77565" lon="6.43991">
        <ele>1029</ele>
        <time>2016-05-08T10:13:53.620Z</time>
      </trkpt>
      <trkpt lat="46.77564" lon="6.43989">
        <ele>1029</ele>
        <time>2016-05-08T10:13:56.620Z</time>
      </trkpt>
      <trkpt lat="46.77566" lon="6.4399">
        <ele>1029</ele>
        <time>2016-05-08T10:13:58.620Z</time>
      </trkpt>
      <trkpt lat="46.77569" lon="6.43992">
        <ele>1029</ele>
        <time>2016-05-08T10:13:59.620Z</time>
      </trkpt>
      <trkpt lat="46.77566" lon="6.43995">
        <ele>1028</ele>
        <time>2016-05-08T10:14:39.620Z</time>
      </trkpt>
      <trkpt lat="46.77564" lon="6.43994">
        <ele>1029</ele>
        <time>2016-05-08T10:14:44.620Z</time>
      </trkpt>
    </trkseg>
  </trk>
</gpx>